<?xml version="1.0" encoding="UTF-8" standalone="no" ?>
<gpx xmlns="http://www.topografix.com/GPX/1/1" xmlns:xsi="http://www.w3.org/2001/XMLSchema-instance" xsi:schemaLocation="http://www.topografix.com/GPX/1/1 http://www.topografix.com/GPX/1/1/gpx.xsd" version="1.1" creator="VisuGPX - https://www.visugpx.com">
  <metadata>
    <name>Vendredi 2 juillet</name>
  </metadata>
  <trk>
    <name><![CDATA[Vendredi 2 juillet_1]]></name>
    <extensions>
      <line xmlns="http://www.topografix.com/GPX/gpx_style/0/2">
        <color>0000FF</color>
        <width>4</width>
      </line>
    </extensions>
    <trkseg>
      <trkpt lat="48.08433" lon="7.27044">
        <ele>239.8</ele>
        <time>2021-07-02T06:43:10Z</time>
      </trkpt>
      <trkpt lat="48.08433" lon="7.27044">
        <ele>240</ele>
        <time>2021-07-02T06:43:11Z</time>
      </trkpt>
      <trkpt lat="48.08435" lon="7.27044">
        <ele>240.2</ele>
        <time>2021-07-02T06:43:19Z</time>
      </trkpt>
      <trkpt lat="48.08439" lon="7.27044">
        <ele>240.2</ele>
        <time>2021-07-02T06:43:21Z</time>
      </trkpt>
      <trkpt lat="48.08454" lon="7.27044">
        <ele>240</ele>
        <time>2021-07-02T06:43:26Z</time>
      </trkpt>
      <trkpt lat="48.08475" lon="7.27046">
        <ele>240.2</ele>
        <time>2021-07-02T06:43:32Z</time>
      </trkpt>
      <trkpt lat="48.08478" lon="7.2705">
        <ele>240.2</ele>
        <time>2021-07-02T06:43:33Z</time>
      </trkpt>
      <trkpt lat="48.08481" lon="7.27058">
        <ele>240.2</ele>
        <time>2021-07-02T06:43:35Z</time>
      </trkpt>
      <trkpt lat="48.08495" lon="7.27071">
        <ele>240.2</ele>
        <time>2021-07-02T06:43:39Z</time>
      </trkpt>
      <trkpt lat="48.08498" lon="7.27076">
        <ele>240.2</ele>
        <time>2021-07-02T06:43:40Z</time>
      </trkpt>
      <trkpt lat="48.08498" lon="7.2709">
        <ele>240</ele>
        <time>2021-07-02T06:43:42Z</time>
      </trkpt>
      <trkpt lat="48.08492" lon="7.27112">
        <ele>239.8</ele>
        <time>2021-07-02T06:43:45Z</time>
      </trkpt>
      <trkpt lat="48.08491" lon="7.27119">
        <ele>239.6</ele>
        <time>2021-07-02T06:43:46Z</time>
      </trkpt>
      <trkpt lat="48.08478" lon="7.2717">
        <ele>239</ele>
        <time>2021-07-02T06:43:54Z</time>
      </trkpt>
      <trkpt lat="48.08473" lon="7.27192">
        <ele>239</ele>
        <time>2021-07-02T06:43:58Z</time>
      </trkpt>
      <trkpt lat="48.08472" lon="7.27198">
        <ele>239.2</ele>
        <time>2021-07-02T06:43:59Z</time>
      </trkpt>
      <trkpt lat="48.08476" lon="7.27215">
        <ele>239.2</ele>
        <time>2021-07-02T06:44:02Z</time>
      </trkpt>
      <trkpt lat="48.08479" lon="7.27219">
        <ele>239.2</ele>
        <time>2021-07-02T06:44:03Z</time>
      </trkpt>
      <trkpt lat="48.08501" lon="7.27232">
        <ele>239</ele>
        <time>2021-07-02T06:44:08Z</time>
      </trkpt>
      <trkpt lat="48.08504" lon="7.27235">
        <ele>239</ele>
        <time>2021-07-02T06:44:09Z</time>
      </trkpt>
      <trkpt lat="48.08508" lon="7.2724">
        <ele>239</ele>
        <time>2021-07-02T06:44:10Z</time>
      </trkpt>
      <trkpt lat="48.0851" lon="7.27244">
        <ele>238.8</ele>
        <time>2021-07-02T06:44:11Z</time>
      </trkpt>
      <trkpt lat="48.08513" lon="7.27247">
        <ele>238.8</ele>
        <time>2021-07-02T06:44:12Z</time>
      </trkpt>
      <trkpt lat="48.08516" lon="7.27248">
        <ele>238.8</ele>
        <time>2021-07-02T06:44:13Z</time>
      </trkpt>
      <trkpt lat="48.08532" lon="7.27243">
        <ele>238.6</ele>
        <time>2021-07-02T06:44:19Z</time>
      </trkpt>
      <trkpt lat="48.08533" lon="7.2724">
        <ele>238.4</ele>
        <time>2021-07-02T06:44:21Z</time>
      </trkpt>
      <trkpt lat="48.08534" lon="7.2723">
        <ele>238.4</ele>
        <time>2021-07-02T06:44:24Z</time>
      </trkpt>
      <trkpt lat="48.08537" lon="7.27201">
        <ele>238.2</ele>
        <time>2021-07-02T06:44:29Z</time>
      </trkpt>
      <trkpt lat="48.08538" lon="7.27186">
        <ele>238.4</ele>
        <time>2021-07-02T06:44:31Z</time>
      </trkpt>
      <trkpt lat="48.08539" lon="7.27166">
        <ele>238.4</ele>
        <time>2021-07-02T06:44:34Z</time>
      </trkpt>
      <trkpt lat="48.08539" lon="7.27147">
        <ele>238.6</ele>
        <time>2021-07-02T06:44:37Z</time>
      </trkpt>
      <trkpt lat="48.0854" lon="7.27133">
        <ele>238.8</ele>
        <time>2021-07-02T06:44:39Z</time>
      </trkpt>
      <trkpt lat="48.0854" lon="7.27126">
        <ele>238.8</ele>
        <time>2021-07-02T06:44:40Z</time>
      </trkpt>
      <trkpt lat="48.08542" lon="7.27098">
        <ele>239.4</ele>
        <time>2021-07-02T06:44:44Z</time>
      </trkpt>
      <trkpt lat="48.08544" lon="7.27064">
        <ele>239.8</ele>
        <time>2021-07-02T06:44:49Z</time>
      </trkpt>
      <trkpt lat="48.08544" lon="7.27058">
        <ele>239.8</ele>
        <time>2021-07-02T06:44:50Z</time>
      </trkpt>
      <trkpt lat="48.08548" lon="7.27047">
        <ele>240.8</ele>
        <time>2021-07-02T06:44:53Z</time>
      </trkpt>
      <trkpt lat="48.08554" lon="7.27045">
        <ele>241</ele>
        <time>2021-07-02T06:44:55Z</time>
      </trkpt>
      <trkpt lat="48.08561" lon="7.27045">
        <ele>241.2</ele>
        <time>2021-07-02T06:44:57Z</time>
      </trkpt>
      <trkpt lat="48.08577" lon="7.27045">
        <ele>241.4</ele>
        <time>2021-07-02T06:45:03Z</time>
      </trkpt>
      <trkpt lat="48.08579" lon="7.27042">
        <ele>241.4</ele>
        <time>2021-07-02T06:45:05Z</time>
      </trkpt>
      <trkpt lat="48.0858" lon="7.27033">
        <ele>241.4</ele>
        <time>2021-07-02T06:45:08Z</time>
      </trkpt>
      <trkpt lat="48.08585" lon="7.27001">
        <ele>241.2</ele>
        <time>2021-07-02T06:45:13Z</time>
      </trkpt>
      <trkpt lat="48.08588" lon="7.26961">
        <ele>241</ele>
        <time>2021-07-02T06:45:18Z</time>
      </trkpt>
      <trkpt lat="48.08589" lon="7.26914">
        <ele>241</ele>
        <time>2021-07-02T06:45:24Z</time>
      </trkpt>
      <trkpt lat="48.08589" lon="7.26839">
        <ele>241.2</ele>
        <time>2021-07-02T06:45:33Z</time>
      </trkpt>
      <trkpt lat="48.08585" lon="7.26775">
        <ele>241</ele>
        <time>2021-07-02T06:45:41Z</time>
      </trkpt>
      <trkpt lat="48.08583" lon="7.2672">
        <ele>241.4</ele>
        <time>2021-07-02T06:45:48Z</time>
      </trkpt>
      <trkpt lat="48.08577" lon="7.26654">
        <ele>241.4</ele>
        <time>2021-07-02T06:45:56Z</time>
      </trkpt>
      <trkpt lat="48.08567" lon="7.26592">
        <ele>241.6</ele>
        <time>2021-07-02T06:46:04Z</time>
      </trkpt>
      <trkpt lat="48.08563" lon="7.26575">
        <ele>241.6</ele>
        <time>2021-07-02T06:46:06Z</time>
      </trkpt>
      <trkpt lat="48.08557" lon="7.26553">
        <ele>241.8</ele>
        <time>2021-07-02T06:46:09Z</time>
      </trkpt>
      <trkpt lat="48.08553" lon="7.2654">
        <ele>242</ele>
        <time>2021-07-02T06:46:11Z</time>
      </trkpt>
      <trkpt lat="48.08534" lon="7.26479">
        <ele>242.4</ele>
        <time>2021-07-02T06:46:19Z</time>
      </trkpt>
      <trkpt lat="48.08519" lon="7.26429">
        <ele>242.6</ele>
        <time>2021-07-02T06:46:26Z</time>
      </trkpt>
      <trkpt lat="48.08512" lon="7.26406">
        <ele>243</ele>
        <time>2021-07-02T06:46:29Z</time>
      </trkpt>
      <trkpt lat="48.08501" lon="7.26367">
        <ele>243.4</ele>
        <time>2021-07-02T06:46:34Z</time>
      </trkpt>
      <trkpt lat="48.08478" lon="7.26293">
        <ele>243.6</ele>
        <time>2021-07-02T06:46:44Z</time>
      </trkpt>
      <trkpt lat="48.08475" lon="7.26285">
        <ele>243.6</ele>
        <time>2021-07-02T06:46:45Z</time>
      </trkpt>
      <trkpt lat="48.08459" lon="7.26233">
        <ele>244</ele>
        <time>2021-07-02T06:46:52Z</time>
      </trkpt>
      <trkpt lat="48.08455" lon="7.26219">
        <ele>244.4</ele>
        <time>2021-07-02T06:46:54Z</time>
      </trkpt>
      <trkpt lat="48.08435" lon="7.26152">
        <ele>245</ele>
        <time>2021-07-02T06:47:04Z</time>
      </trkpt>
      <trkpt lat="48.08433" lon="7.26146">
        <ele>245.2</ele>
        <time>2021-07-02T06:47:05Z</time>
      </trkpt>
      <trkpt lat="48.08429" lon="7.26131">
        <ele>245.6</ele>
        <time>2021-07-02T06:47:07Z</time>
      </trkpt>
      <trkpt lat="48.08421" lon="7.26105">
        <ele>246.2</ele>
        <time>2021-07-02T06:47:11Z</time>
      </trkpt>
      <trkpt lat="48.08417" lon="7.26088">
        <ele>246.4</ele>
        <time>2021-07-02T06:47:14Z</time>
      </trkpt>
      <trkpt lat="48.08412" lon="7.26054">
        <ele>247.2</ele>
        <time>2021-07-02T06:47:19Z</time>
      </trkpt>
      <trkpt lat="48.08408" lon="7.26029">
        <ele>247.8</ele>
        <time>2021-07-02T06:47:23Z</time>
      </trkpt>
      <trkpt lat="48.08405" lon="7.26015">
        <ele>247.8</ele>
        <time>2021-07-02T06:47:25Z</time>
      </trkpt>
      <trkpt lat="48.08403" lon="7.26002">
        <ele>248.4</ele>
        <time>2021-07-02T06:47:27Z</time>
      </trkpt>
      <trkpt lat="48.08401" lon="7.25991">
        <ele>248.6</ele>
        <time>2021-07-02T06:47:29Z</time>
      </trkpt>
      <trkpt lat="48.08398" lon="7.25977">
        <ele>248.8</ele>
        <time>2021-07-02T06:47:31Z</time>
      </trkpt>
      <trkpt lat="48.08396" lon="7.25966">
        <ele>249.2</ele>
        <time>2021-07-02T06:47:33Z</time>
      </trkpt>
      <trkpt lat="48.08394" lon="7.25947">
        <ele>249.8</ele>
        <time>2021-07-02T06:47:36Z</time>
      </trkpt>
      <trkpt lat="48.08391" lon="7.25923">
        <ele>250.4</ele>
        <time>2021-07-02T06:47:40Z</time>
      </trkpt>
      <trkpt lat="48.0839" lon="7.25912">
        <ele>250.8</ele>
        <time>2021-07-02T06:47:42Z</time>
      </trkpt>
      <trkpt lat="48.0839" lon="7.25901">
        <ele>251.2</ele>
        <time>2021-07-02T06:47:44Z</time>
      </trkpt>
      <trkpt lat="48.08389" lon="7.25889">
        <ele>251.4</ele>
        <time>2021-07-02T06:47:46Z</time>
      </trkpt>
      <trkpt lat="48.0839" lon="7.25866">
        <ele>252.2</ele>
        <time>2021-07-02T06:47:50Z</time>
      </trkpt>
      <trkpt lat="48.08388" lon="7.25845">
        <ele>252.6</ele>
        <time>2021-07-02T06:47:54Z</time>
      </trkpt>
      <trkpt lat="48.08378" lon="7.25828">
        <ele>253.6</ele>
        <time>2021-07-02T06:47:58Z</time>
      </trkpt>
      <trkpt lat="48.08358" lon="7.25807">
        <ele>254.2</ele>
        <time>2021-07-02T06:48:03Z</time>
      </trkpt>
      <trkpt lat="48.08323" lon="7.25774">
        <ele>254.2</ele>
        <time>2021-07-02T06:48:11Z</time>
      </trkpt>
      <trkpt lat="48.0828" lon="7.2573">
        <ele>252.8</ele>
        <time>2021-07-02T06:48:20Z</time>
      </trkpt>
      <trkpt lat="48.08275" lon="7.25725">
        <ele>252.4</ele>
        <time>2021-07-02T06:48:21Z</time>
      </trkpt>
      <trkpt lat="48.08248" lon="7.25686">
        <ele>251.4</ele>
        <time>2021-07-02T06:48:27Z</time>
      </trkpt>
      <trkpt lat="48.08244" lon="7.25679">
        <ele>251.2</ele>
        <time>2021-07-02T06:48:28Z</time>
      </trkpt>
      <trkpt lat="48.0822" lon="7.25631">
        <ele>250.8</ele>
        <time>2021-07-02T06:48:35Z</time>
      </trkpt>
      <trkpt lat="48.08193" lon="7.25572">
        <ele>250.8</ele>
        <time>2021-07-02T06:48:43Z</time>
      </trkpt>
      <trkpt lat="48.08191" lon="7.25567">
        <ele>250.8</ele>
        <time>2021-07-02T06:48:44Z</time>
      </trkpt>
      <trkpt lat="48.08181" lon="7.25544">
        <ele>250.6</ele>
        <time>2021-07-02T06:48:47Z</time>
      </trkpt>
      <trkpt lat="48.08176" lon="7.25538">
        <ele>250.4</ele>
        <time>2021-07-02T06:48:48Z</time>
      </trkpt>
      <trkpt lat="48.08167" lon="7.25524">
        <ele>250.4</ele>
        <time>2021-07-02T06:48:50Z</time>
      </trkpt>
      <trkpt lat="48.08161" lon="7.25509">
        <ele>250.4</ele>
        <time>2021-07-02T06:48:52Z</time>
      </trkpt>
      <trkpt lat="48.08154" lon="7.25483">
        <ele>250.6</ele>
        <time>2021-07-02T06:48:55Z</time>
      </trkpt>
      <trkpt lat="48.08151" lon="7.25457">
        <ele>250.8</ele>
        <time>2021-07-02T06:48:58Z</time>
      </trkpt>
      <trkpt lat="48.08142" lon="7.25395">
        <ele>251.2</ele>
        <time>2021-07-02T06:49:05Z</time>
      </trkpt>
      <trkpt lat="48.08128" lon="7.25326">
        <ele>251.4</ele>
        <time>2021-07-02T06:49:13Z</time>
      </trkpt>
      <trkpt lat="48.08122" lon="7.25293">
        <ele>251.6</ele>
        <time>2021-07-02T06:49:17Z</time>
      </trkpt>
      <trkpt lat="48.08117" lon="7.25267">
        <ele>252</ele>
        <time>2021-07-02T06:49:20Z</time>
      </trkpt>
      <trkpt lat="48.08112" lon="7.25244">
        <ele>252.2</ele>
        <time>2021-07-02T06:49:23Z</time>
      </trkpt>
      <trkpt lat="48.08102" lon="7.25184">
        <ele>253</ele>
        <time>2021-07-02T06:49:31Z</time>
      </trkpt>
      <trkpt lat="48.08099" lon="7.25168">
        <ele>253.2</ele>
        <time>2021-07-02T06:49:33Z</time>
      </trkpt>
      <trkpt lat="48.0809" lon="7.25131">
        <ele>253.8</ele>
        <time>2021-07-02T06:49:38Z</time>
      </trkpt>
      <trkpt lat="48.08074" lon="7.25084">
        <ele>254</ele>
        <time>2021-07-02T06:49:44Z</time>
      </trkpt>
      <trkpt lat="48.08073" lon="7.25078">
        <ele>254</ele>
        <time>2021-07-02T06:49:45Z</time>
      </trkpt>
      <trkpt lat="48.08066" lon="7.25063">
        <ele>254.2</ele>
        <time>2021-07-02T06:49:47Z</time>
      </trkpt>
      <trkpt lat="48.08057" lon="7.25045">
        <ele>254.4</ele>
        <time>2021-07-02T06:49:50Z</time>
      </trkpt>
      <trkpt lat="48.0804" lon="7.25014">
        <ele>255.2</ele>
        <time>2021-07-02T06:49:55Z</time>
      </trkpt>
      <trkpt lat="48.08034" lon="7.25">
        <ele>255.2</ele>
        <time>2021-07-02T06:49:57Z</time>
      </trkpt>
      <trkpt lat="48.08006" lon="7.24947">
        <ele>255.4</ele>
        <time>2021-07-02T06:50:05Z</time>
      </trkpt>
      <trkpt lat="48.07982" lon="7.24901">
        <ele>255.6</ele>
        <time>2021-07-02T06:50:12Z</time>
      </trkpt>
      <trkpt lat="48.07969" lon="7.24877">
        <ele>255.8</ele>
        <time>2021-07-02T06:50:16Z</time>
      </trkpt>
      <trkpt lat="48.07963" lon="7.24864">
        <ele>256</ele>
        <time>2021-07-02T06:50:18Z</time>
      </trkpt>
      <trkpt lat="48.07944" lon="7.24826">
        <ele>256.6</ele>
        <time>2021-07-02T06:50:24Z</time>
      </trkpt>
      <trkpt lat="48.07931" lon="7.24801">
        <ele>257.2</ele>
        <time>2021-07-02T06:50:28Z</time>
      </trkpt>
      <trkpt lat="48.0791" lon="7.24759">
        <ele>258</ele>
        <time>2021-07-02T06:50:35Z</time>
      </trkpt>
      <trkpt lat="48.07907" lon="7.24752">
        <ele>258.2</ele>
        <time>2021-07-02T06:50:36Z</time>
      </trkpt>
      <trkpt lat="48.07904" lon="7.24749">
        <ele>258.4</ele>
        <time>2021-07-02T06:50:37Z</time>
      </trkpt>
      <trkpt lat="48.07902" lon="7.24744">
        <ele>258.4</ele>
        <time>2021-07-02T06:50:38Z</time>
      </trkpt>
      <trkpt lat="48.079" lon="7.24738">
        <ele>258.6</ele>
        <time>2021-07-02T06:50:39Z</time>
      </trkpt>
      <trkpt lat="48.07897" lon="7.24733">
        <ele>258.8</ele>
        <time>2021-07-02T06:50:40Z</time>
      </trkpt>
      <trkpt lat="48.07891" lon="7.24723">
        <ele>259.2</ele>
        <time>2021-07-02T06:50:42Z</time>
      </trkpt>
      <trkpt lat="48.07888" lon="7.24717">
        <ele>259.4</ele>
        <time>2021-07-02T06:50:43Z</time>
      </trkpt>
      <trkpt lat="48.07886" lon="7.24712">
        <ele>259.6</ele>
        <time>2021-07-02T06:50:44Z</time>
      </trkpt>
      <trkpt lat="48.07877" lon="7.24695">
        <ele>259.8</ele>
        <time>2021-07-02T06:50:47Z</time>
      </trkpt>
      <trkpt lat="48.07872" lon="7.24684">
        <ele>260</ele>
        <time>2021-07-02T06:50:49Z</time>
      </trkpt>
      <trkpt lat="48.07864" lon="7.2467">
        <ele>260.6</ele>
        <time>2021-07-02T06:50:52Z</time>
      </trkpt>
      <trkpt lat="48.07851" lon="7.24643">
        <ele>261.6</ele>
        <time>2021-07-02T06:50:57Z</time>
      </trkpt>
      <trkpt lat="48.07843" lon="7.24628">
        <ele>261.8</ele>
        <time>2021-07-02T06:51:00Z</time>
      </trkpt>
      <trkpt lat="48.07841" lon="7.24624">
        <ele>262</ele>
        <time>2021-07-02T06:51:01Z</time>
      </trkpt>
      <trkpt lat="48.07831" lon="7.24604">
        <ele>262.6</ele>
        <time>2021-07-02T06:51:05Z</time>
      </trkpt>
      <trkpt lat="48.07827" lon="7.24596">
        <ele>263</ele>
        <time>2021-07-02T06:51:07Z</time>
      </trkpt>
      <trkpt lat="48.07819" lon="7.24582">
        <ele>263.6</ele>
        <time>2021-07-02T06:51:10Z</time>
      </trkpt>
      <trkpt lat="48.07806" lon="7.24561">
        <ele>264.2</ele>
        <time>2021-07-02T06:51:15Z</time>
      </trkpt>
      <trkpt lat="48.07796" lon="7.24548">
        <ele>264.6</ele>
        <time>2021-07-02T06:51:18Z</time>
      </trkpt>
      <trkpt lat="48.07786" lon="7.24537">
        <ele>265.2</ele>
        <time>2021-07-02T06:51:21Z</time>
      </trkpt>
      <trkpt lat="48.07782" lon="7.24534">
        <ele>265.4</ele>
        <time>2021-07-02T06:51:22Z</time>
      </trkpt>
      <trkpt lat="48.07771" lon="7.24525">
        <ele>265.6</ele>
        <time>2021-07-02T06:51:25Z</time>
      </trkpt>
      <trkpt lat="48.0775" lon="7.2451">
        <ele>266.2</ele>
        <time>2021-07-02T06:51:30Z</time>
      </trkpt>
      <trkpt lat="48.07741" lon="7.24504">
        <ele>266.6</ele>
        <time>2021-07-02T06:51:32Z</time>
      </trkpt>
      <trkpt lat="48.0771" lon="7.24481">
        <ele>266.8</ele>
        <time>2021-07-02T06:51:39Z</time>
      </trkpt>
      <trkpt lat="48.07705" lon="7.24478">
        <ele>266.8</ele>
        <time>2021-07-02T06:51:40Z</time>
      </trkpt>
      <trkpt lat="48.07665" lon="7.24449">
        <ele>267.4</ele>
        <time>2021-07-02T06:51:49Z</time>
      </trkpt>
      <trkpt lat="48.07646" lon="7.24436">
        <ele>267.8</ele>
        <time>2021-07-02T06:51:53Z</time>
      </trkpt>
      <trkpt lat="48.07618" lon="7.24416">
        <ele>268.4</ele>
        <time>2021-07-02T06:51:59Z</time>
      </trkpt>
      <trkpt lat="48.07579" lon="7.24384">
        <ele>268.8</ele>
        <time>2021-07-02T06:52:08Z</time>
      </trkpt>
      <trkpt lat="48.07574" lon="7.24379">
        <ele>268.8</ele>
        <time>2021-07-02T06:52:09Z</time>
      </trkpt>
      <trkpt lat="48.07564" lon="7.24366">
        <ele>269.2</ele>
        <time>2021-07-02T06:52:12Z</time>
      </trkpt>
      <trkpt lat="48.07561" lon="7.2436">
        <ele>269.2</ele>
        <time>2021-07-02T06:52:13Z</time>
      </trkpt>
      <trkpt lat="48.07549" lon="7.2434">
        <ele>270</ele>
        <time>2021-07-02T06:52:17Z</time>
      </trkpt>
      <trkpt lat="48.07529" lon="7.24311">
        <ele>270.6</ele>
        <time>2021-07-02T06:52:23Z</time>
      </trkpt>
      <trkpt lat="48.07526" lon="7.24306">
        <ele>270.8</ele>
        <time>2021-07-02T06:52:24Z</time>
      </trkpt>
      <trkpt lat="48.07519" lon="7.24296">
        <ele>271</ele>
        <time>2021-07-02T06:52:26Z</time>
      </trkpt>
      <trkpt lat="48.07513" lon="7.24285">
        <ele>271.2</ele>
        <time>2021-07-02T06:52:28Z</time>
      </trkpt>
      <trkpt lat="48.07493" lon="7.24254">
        <ele>272</ele>
        <time>2021-07-02T06:52:34Z</time>
      </trkpt>
      <trkpt lat="48.07483" lon="7.24239">
        <ele>272.4</ele>
        <time>2021-07-02T06:52:37Z</time>
      </trkpt>
      <trkpt lat="48.0747" lon="7.24217">
        <ele>273</ele>
        <time>2021-07-02T06:52:41Z</time>
      </trkpt>
      <trkpt lat="48.07458" lon="7.24194">
        <ele>273.4</ele>
        <time>2021-07-02T06:52:45Z</time>
      </trkpt>
      <trkpt lat="48.07455" lon="7.24188">
        <ele>273.6</ele>
        <time>2021-07-02T06:52:46Z</time>
      </trkpt>
      <trkpt lat="48.0745" lon="7.24174">
        <ele>274</ele>
        <time>2021-07-02T06:52:48Z</time>
      </trkpt>
      <trkpt lat="48.07443" lon="7.24151">
        <ele>274.6</ele>
        <time>2021-07-02T06:52:52Z</time>
      </trkpt>
      <trkpt lat="48.07442" lon="7.24144">
        <ele>274.6</ele>
        <time>2021-07-02T06:52:53Z</time>
      </trkpt>
      <trkpt lat="48.07439" lon="7.24133">
        <ele>275</ele>
        <time>2021-07-02T06:52:55Z</time>
      </trkpt>
      <trkpt lat="48.07435" lon="7.24109">
        <ele>276</ele>
        <time>2021-07-02T06:52:59Z</time>
      </trkpt>
      <trkpt lat="48.07433" lon="7.24099">
        <ele>276.4</ele>
        <time>2021-07-02T06:53:01Z</time>
      </trkpt>
      <trkpt lat="48.07428" lon="7.24077">
        <ele>277.2</ele>
        <time>2021-07-02T06:53:05Z</time>
      </trkpt>
      <trkpt lat="48.07423" lon="7.24052">
        <ele>278.2</ele>
        <time>2021-07-02T06:53:10Z</time>
      </trkpt>
      <trkpt lat="48.07422" lon="7.24048">
        <ele>278.6</ele>
        <time>2021-07-02T06:53:11Z</time>
      </trkpt>
      <trkpt lat="48.07419" lon="7.24037">
        <ele>279.4</ele>
        <time>2021-07-02T06:53:14Z</time>
      </trkpt>
      <trkpt lat="48.07417" lon="7.24026">
        <ele>279.6</ele>
        <time>2021-07-02T06:53:16Z</time>
      </trkpt>
      <trkpt lat="48.07413" lon="7.24011">
        <ele>280.4</ele>
        <time>2021-07-02T06:53:19Z</time>
      </trkpt>
      <trkpt lat="48.07412" lon="7.24002">
        <ele>280.8</ele>
        <time>2021-07-02T06:53:21Z</time>
      </trkpt>
      <trkpt lat="48.0741" lon="7.23993">
        <ele>281.4</ele>
        <time>2021-07-02T06:53:23Z</time>
      </trkpt>
      <trkpt lat="48.07404" lon="7.23972">
        <ele>282.4</ele>
        <time>2021-07-02T06:53:27Z</time>
      </trkpt>
      <trkpt lat="48.07403" lon="7.23967">
        <ele>282.6</ele>
        <time>2021-07-02T06:53:28Z</time>
      </trkpt>
      <trkpt lat="48.07396" lon="7.23942">
        <ele>284</ele>
        <time>2021-07-02T06:53:33Z</time>
      </trkpt>
      <trkpt lat="48.0739" lon="7.2391">
        <ele>285.2</ele>
        <time>2021-07-02T06:53:39Z</time>
      </trkpt>
      <trkpt lat="48.07388" lon="7.239">
        <ele>285.6</ele>
        <time>2021-07-02T06:53:41Z</time>
      </trkpt>
      <trkpt lat="48.07384" lon="7.23888">
        <ele>286.2</ele>
        <time>2021-07-02T06:53:44Z</time>
      </trkpt>
      <trkpt lat="48.07378" lon="7.23868">
        <ele>287.2</ele>
        <time>2021-07-02T06:53:48Z</time>
      </trkpt>
      <trkpt lat="48.07376" lon="7.23862">
        <ele>287.2</ele>
        <time>2021-07-02T06:53:49Z</time>
      </trkpt>
      <trkpt lat="48.07365" lon="7.2384">
        <ele>288.2</ele>
        <time>2021-07-02T06:53:54Z</time>
      </trkpt>
      <trkpt lat="48.07362" lon="7.23836">
        <ele>288.4</ele>
        <time>2021-07-02T06:53:55Z</time>
      </trkpt>
      <trkpt lat="48.0735" lon="7.23822">
        <ele>289.4</ele>
        <time>2021-07-02T06:53:59Z</time>
      </trkpt>
      <trkpt lat="48.07345" lon="7.23816">
        <ele>290</ele>
        <time>2021-07-02T06:54:01Z</time>
      </trkpt>
      <trkpt lat="48.07339" lon="7.2381">
        <ele>290.6</ele>
        <time>2021-07-02T06:54:03Z</time>
      </trkpt>
      <trkpt lat="48.07323" lon="7.23794">
        <ele>291</ele>
        <time>2021-07-02T06:54:07Z</time>
      </trkpt>
      <trkpt lat="48.07291" lon="7.23764">
        <ele>291.2</ele>
        <time>2021-07-02T06:54:15Z</time>
      </trkpt>
      <trkpt lat="48.0727" lon="7.23756">
        <ele>291.4</ele>
        <time>2021-07-02T06:54:19Z</time>
      </trkpt>
      <trkpt lat="48.07259" lon="7.23751">
        <ele>291.4</ele>
        <time>2021-07-02T06:54:21Z</time>
      </trkpt>
      <trkpt lat="48.07209" lon="7.23732">
        <ele>290.8</ele>
        <time>2021-07-02T06:54:31Z</time>
      </trkpt>
      <trkpt lat="48.07175" lon="7.23722">
        <ele>290.2</ele>
        <time>2021-07-02T06:54:37Z</time>
      </trkpt>
      <trkpt lat="48.0717" lon="7.2372">
        <ele>290.2</ele>
        <time>2021-07-02T06:54:38Z</time>
      </trkpt>
      <trkpt lat="48.07131" lon="7.23703">
        <ele>289.8</ele>
        <time>2021-07-02T06:54:45Z</time>
      </trkpt>
      <trkpt lat="48.07125" lon="7.23698">
        <ele>289.6</ele>
        <time>2021-07-02T06:54:46Z</time>
      </trkpt>
      <trkpt lat="48.0712" lon="7.23694">
        <ele>289.6</ele>
        <time>2021-07-02T06:54:47Z</time>
      </trkpt>
      <trkpt lat="48.07103" lon="7.23677">
        <ele>289</ele>
        <time>2021-07-02T06:54:50Z</time>
      </trkpt>
      <trkpt lat="48.07092" lon="7.23665">
        <ele>288.6</ele>
        <time>2021-07-02T06:54:52Z</time>
      </trkpt>
      <trkpt lat="48.07076" lon="7.23644">
        <ele>287.8</ele>
        <time>2021-07-02T06:54:55Z</time>
      </trkpt>
      <trkpt lat="48.07068" lon="7.23631">
        <ele>287.4</ele>
        <time>2021-07-02T06:54:57Z</time>
      </trkpt>
      <trkpt lat="48.07043" lon="7.23585">
        <ele>286.6</ele>
        <time>2021-07-02T06:55:03Z</time>
      </trkpt>
      <trkpt lat="48.07039" lon="7.23576">
        <ele>286.4</ele>
        <time>2021-07-02T06:55:04Z</time>
      </trkpt>
      <trkpt lat="48.07019" lon="7.23531">
        <ele>286</ele>
        <time>2021-07-02T06:55:10Z</time>
      </trkpt>
      <trkpt lat="48.07001" lon="7.23489">
        <ele>286.4</ele>
        <time>2021-07-02T06:55:16Z</time>
      </trkpt>
      <trkpt lat="48.06981" lon="7.23446">
        <ele>286.8</ele>
        <time>2021-07-02T06:55:22Z</time>
      </trkpt>
      <trkpt lat="48.06959" lon="7.23384">
        <ele>287.2</ele>
        <time>2021-07-02T06:55:30Z</time>
      </trkpt>
      <trkpt lat="48.0695" lon="7.23355">
        <ele>287.4</ele>
        <time>2021-07-02T06:55:34Z</time>
      </trkpt>
      <trkpt lat="48.06941" lon="7.23333">
        <ele>287.8</ele>
        <time>2021-07-02T06:55:37Z</time>
      </trkpt>
      <trkpt lat="48.06919" lon="7.23282">
        <ele>288.2</ele>
        <time>2021-07-02T06:55:44Z</time>
      </trkpt>
      <trkpt lat="48.06905" lon="7.2326">
        <ele>288.6</ele>
        <time>2021-07-02T06:55:48Z</time>
      </trkpt>
      <trkpt lat="48.06896" lon="7.23249">
        <ele>288.8</ele>
        <time>2021-07-02T06:55:50Z</time>
      </trkpt>
      <trkpt lat="48.06868" lon="7.23221">
        <ele>289.4</ele>
        <time>2021-07-02T06:55:56Z</time>
      </trkpt>
      <trkpt lat="48.06863" lon="7.23217">
        <ele>289.6</ele>
        <time>2021-07-02T06:55:57Z</time>
      </trkpt>
      <trkpt lat="48.06828" lon="7.23193">
        <ele>290.4</ele>
        <time>2021-07-02T06:56:04Z</time>
      </trkpt>
      <trkpt lat="48.06813" lon="7.23184">
        <ele>290.6</ele>
        <time>2021-07-02T06:56:07Z</time>
      </trkpt>
      <trkpt lat="48.06788" lon="7.23169">
        <ele>291.2</ele>
        <time>2021-07-02T06:56:12Z</time>
      </trkpt>
      <trkpt lat="48.06764" lon="7.23154">
        <ele>291.6</ele>
        <time>2021-07-02T06:56:16Z</time>
      </trkpt>
      <trkpt lat="48.06764" lon="7.23154">
        <ele>291.8</ele>
        <time>2021-07-02T06:56:17Z</time>
      </trkpt>
      <trkpt lat="48.06758" lon="7.23151">
        <ele>291.8</ele>
        <time>2021-07-02T06:56:18Z</time>
      </trkpt>
      <trkpt lat="48.06753" lon="7.23148">
        <ele>291.8</ele>
        <time>2021-07-02T06:56:19Z</time>
      </trkpt>
      <trkpt lat="48.06717" lon="7.23125">
        <ele>292.6</ele>
        <time>2021-07-02T06:56:26Z</time>
      </trkpt>
      <trkpt lat="48.06711" lon="7.23121">
        <ele>292.8</ele>
        <time>2021-07-02T06:56:27Z</time>
      </trkpt>
      <trkpt lat="48.06671" lon="7.23097">
        <ele>293.6</ele>
        <time>2021-07-02T06:56:35Z</time>
      </trkpt>
      <trkpt lat="48.0666" lon="7.23091">
        <ele>293.8</ele>
        <time>2021-07-02T06:56:37Z</time>
      </trkpt>
      <trkpt lat="48.0664" lon="7.2308">
        <ele>294</ele>
        <time>2021-07-02T06:56:41Z</time>
      </trkpt>
      <trkpt lat="48.06637" lon="7.23078">
        <ele>294.2</ele>
        <time>2021-07-02T06:56:42Z</time>
      </trkpt>
      <trkpt lat="48.06623" lon="7.23072">
        <ele>295</ele>
        <time>2021-07-02T06:56:45Z</time>
      </trkpt>
      <trkpt lat="48.06602" lon="7.23066">
        <ele>296</ele>
        <time>2021-07-02T06:56:50Z</time>
      </trkpt>
      <trkpt lat="48.06598" lon="7.23065">
        <ele>296.4</ele>
        <time>2021-07-02T06:56:51Z</time>
      </trkpt>
      <trkpt lat="48.06578" lon="7.2306">
        <ele>297.2</ele>
        <time>2021-07-02T06:56:56Z</time>
      </trkpt>
      <trkpt lat="48.06564" lon="7.23056">
        <ele>297.6</ele>
        <time>2021-07-02T06:56:59Z</time>
      </trkpt>
      <trkpt lat="48.0655" lon="7.23051">
        <ele>298.2</ele>
        <time>2021-07-02T06:57:03Z</time>
      </trkpt>
      <trkpt lat="48.06534" lon="7.23044">
        <ele>298.6</ele>
        <time>2021-07-02T06:57:07Z</time>
      </trkpt>
      <trkpt lat="48.06528" lon="7.2304">
        <ele>299.2</ele>
        <time>2021-07-02T06:57:09Z</time>
      </trkpt>
      <trkpt lat="48.06506" lon="7.23024">
        <ele>300.2</ele>
        <time>2021-07-02T06:57:15Z</time>
      </trkpt>
      <trkpt lat="48.06492" lon="7.23013">
        <ele>301.4</ele>
        <time>2021-07-02T06:57:20Z</time>
      </trkpt>
      <trkpt lat="48.0648" lon="7.23002">
        <ele>302</ele>
        <time>2021-07-02T06:57:24Z</time>
      </trkpt>
      <trkpt lat="48.06477" lon="7.22999">
        <ele>302.4</ele>
        <time>2021-07-02T06:57:25Z</time>
      </trkpt>
      <trkpt lat="48.06461" lon="7.22985">
        <ele>303.6</ele>
        <time>2021-07-02T06:57:30Z</time>
      </trkpt>
      <trkpt lat="48.0645" lon="7.22974">
        <ele>304.2</ele>
        <time>2021-07-02T06:57:34Z</time>
      </trkpt>
      <trkpt lat="48.06441" lon="7.22965">
        <ele>304.8</ele>
        <time>2021-07-02T06:57:37Z</time>
      </trkpt>
      <trkpt lat="48.06425" lon="7.22948">
        <ele>306</ele>
        <time>2021-07-02T06:57:43Z</time>
      </trkpt>
      <trkpt lat="48.06417" lon="7.22938">
        <ele>306.6</ele>
        <time>2021-07-02T06:57:47Z</time>
      </trkpt>
      <trkpt lat="48.06408" lon="7.22928">
        <ele>307.2</ele>
        <time>2021-07-02T06:57:50Z</time>
      </trkpt>
      <trkpt lat="48.06394" lon="7.22907">
        <ele>308</ele>
        <time>2021-07-02T06:57:54Z</time>
      </trkpt>
      <trkpt lat="48.06392" lon="7.22902">
        <ele>308.4</ele>
        <time>2021-07-02T06:57:56Z</time>
      </trkpt>
      <trkpt lat="48.06374" lon="7.22867">
        <ele>309.8</ele>
        <time>2021-07-02T06:58:03Z</time>
      </trkpt>
      <trkpt lat="48.06373" lon="7.22862">
        <ele>309.8</ele>
        <time>2021-07-02T06:58:04Z</time>
      </trkpt>
      <trkpt lat="48.06364" lon="7.22837">
        <ele>310.8</ele>
        <time>2021-07-02T06:58:10Z</time>
      </trkpt>
      <trkpt lat="48.06354" lon="7.22806">
        <ele>312</ele>
        <time>2021-07-02T06:58:15Z</time>
      </trkpt>
      <trkpt lat="48.06347" lon="7.22779">
        <ele>313</ele>
        <time>2021-07-02T06:58:20Z</time>
      </trkpt>
      <trkpt lat="48.06343" lon="7.22763">
        <ele>313.6</ele>
        <time>2021-07-02T06:58:23Z</time>
      </trkpt>
      <trkpt lat="48.06339" lon="7.22752">
        <ele>314</ele>
        <time>2021-07-02T06:58:25Z</time>
      </trkpt>
      <trkpt lat="48.0633" lon="7.22709">
        <ele>315.2</ele>
        <time>2021-07-02T06:58:32Z</time>
      </trkpt>
      <trkpt lat="48.0633" lon="7.22709">
        <ele>315.4</ele>
        <time>2021-07-02T06:58:33Z</time>
      </trkpt>
      <trkpt lat="48.0632" lon="7.22657">
        <ele>316.2</ele>
        <time>2021-07-02T06:58:40Z</time>
      </trkpt>
      <trkpt lat="48.06319" lon="7.22652">
        <ele>316.4</ele>
        <time>2021-07-02T06:58:41Z</time>
      </trkpt>
      <trkpt lat="48.06308" lon="7.22593">
        <ele>317.2</ele>
        <time>2021-07-02T06:58:49Z</time>
      </trkpt>
      <trkpt lat="48.06304" lon="7.22574">
        <ele>317.2</ele>
        <time>2021-07-02T06:58:52Z</time>
      </trkpt>
      <trkpt lat="48.06303" lon="7.22567">
        <ele>317.4</ele>
        <time>2021-07-02T06:58:53Z</time>
      </trkpt>
      <trkpt lat="48.06298" lon="7.22544">
        <ele>317.6</ele>
        <time>2021-07-02T06:58:57Z</time>
      </trkpt>
      <trkpt lat="48.06287" lon="7.22487">
        <ele>318</ele>
        <time>2021-07-02T06:59:06Z</time>
      </trkpt>
      <trkpt lat="48.06285" lon="7.22479">
        <ele>318</ele>
        <time>2021-07-02T06:59:07Z</time>
      </trkpt>
      <trkpt lat="48.06279" lon="7.2246">
        <ele>318</ele>
        <time>2021-07-02T06:59:10Z</time>
      </trkpt>
      <trkpt lat="48.06275" lon="7.22446">
        <ele>318</ele>
        <time>2021-07-02T06:59:12Z</time>
      </trkpt>
      <trkpt lat="48.06273" lon="7.2244">
        <ele>318</ele>
        <time>2021-07-02T06:59:13Z</time>
      </trkpt>
      <trkpt lat="48.06268" lon="7.22428">
        <ele>318.2</ele>
        <time>2021-07-02T06:59:15Z</time>
      </trkpt>
      <trkpt lat="48.06262" lon="7.22416">
        <ele>318.2</ele>
        <time>2021-07-02T06:59:17Z</time>
      </trkpt>
      <trkpt lat="48.0626" lon="7.22412">
        <ele>318.4</ele>
        <time>2021-07-02T06:59:19Z</time>
      </trkpt>
      <trkpt lat="48.06244" lon="7.22375">
        <ele>319.2</ele>
        <time>2021-07-02T06:59:24Z</time>
      </trkpt>
      <trkpt lat="48.06239" lon="7.22364">
        <ele>319.2</ele>
        <time>2021-07-02T06:59:26Z</time>
      </trkpt>
      <trkpt lat="48.06236" lon="7.22358">
        <ele>319.4</ele>
        <time>2021-07-02T06:59:27Z</time>
      </trkpt>
      <trkpt lat="48.06236" lon="7.22358">
        <ele>319.4</ele>
        <time>2021-07-02T06:59:28Z</time>
      </trkpt>
      <trkpt lat="48.06223" lon="7.22338">
        <ele>319.6</ele>
        <time>2021-07-02T06:59:31Z</time>
      </trkpt>
      <trkpt lat="48.0622" lon="7.22335">
        <ele>319.8</ele>
        <time>2021-07-02T06:59:32Z</time>
      </trkpt>
      <trkpt lat="48.06216" lon="7.22331">
        <ele>320</ele>
        <time>2021-07-02T06:59:33Z</time>
      </trkpt>
      <trkpt lat="48.06208" lon="7.22321">
        <ele>320.4</ele>
        <time>2021-07-02T06:59:36Z</time>
      </trkpt>
      <trkpt lat="48.06208" lon="7.22321">
        <ele>320.6</ele>
        <time>2021-07-02T06:59:37Z</time>
      </trkpt>
      <trkpt lat="48.06187" lon="7.22294">
        <ele>320.8</ele>
        <time>2021-07-02T06:59:43Z</time>
      </trkpt>
      <trkpt lat="48.06165" lon="7.22259">
        <ele>320.6</ele>
        <time>2021-07-02T06:59:52Z</time>
      </trkpt>
      <trkpt lat="48.06139" lon="7.22216">
        <ele>320.2</ele>
        <time>2021-07-02T07:00:02Z</time>
      </trkpt>
      <trkpt lat="48.06116" lon="7.22183">
        <ele>319.6</ele>
        <time>2021-07-02T07:00:08Z</time>
      </trkpt>
      <trkpt lat="48.06116" lon="7.22183">
        <ele>319.4</ele>
        <time>2021-07-02T07:00:09Z</time>
      </trkpt>
      <trkpt lat="48.06087" lon="7.22139">
        <ele>318.4</ele>
        <time>2021-07-02T07:00:15Z</time>
      </trkpt>
      <trkpt lat="48.06065" lon="7.22106">
        <ele>317.2</ele>
        <time>2021-07-02T07:00:20Z</time>
      </trkpt>
      <trkpt lat="48.06065" lon="7.22106">
        <ele>317</ele>
        <time>2021-07-02T07:00:21Z</time>
      </trkpt>
      <trkpt lat="48.06044" lon="7.22076">
        <ele>315.8</ele>
        <time>2021-07-02T07:00:24Z</time>
      </trkpt>
      <trkpt lat="48.06022" lon="7.22046">
        <ele>315</ele>
        <time>2021-07-02T07:00:28Z</time>
      </trkpt>
      <trkpt lat="48.06017" lon="7.22039">
        <ele>314.6</ele>
        <time>2021-07-02T07:00:29Z</time>
      </trkpt>
      <trkpt lat="48.06006" lon="7.22025">
        <ele>314.2</ele>
        <time>2021-07-02T07:00:31Z</time>
      </trkpt>
      <trkpt lat="48.05988" lon="7.21998">
        <ele>313.6</ele>
        <time>2021-07-02T07:00:34Z</time>
      </trkpt>
      <trkpt lat="48.05982" lon="7.21989">
        <ele>313</ele>
        <time>2021-07-02T07:00:35Z</time>
      </trkpt>
      <trkpt lat="48.05971" lon="7.2197">
        <ele>312.2</ele>
        <time>2021-07-02T07:00:37Z</time>
      </trkpt>
      <trkpt lat="48.05961" lon="7.21948">
        <ele>311.2</ele>
        <time>2021-07-02T07:00:39Z</time>
      </trkpt>
      <trkpt lat="48.05957" lon="7.21939">
        <ele>310.6</ele>
        <time>2021-07-02T07:00:40Z</time>
      </trkpt>
      <trkpt lat="48.05946" lon="7.21913">
        <ele>309.8</ele>
        <time>2021-07-02T07:00:42Z</time>
      </trkpt>
      <trkpt lat="48.05933" lon="7.2188">
        <ele>308.8</ele>
        <time>2021-07-02T07:00:45Z</time>
      </trkpt>
      <trkpt lat="48.05922" lon="7.21857">
        <ele>307.8</ele>
        <time>2021-07-02T07:00:47Z</time>
      </trkpt>
      <trkpt lat="48.05918" lon="7.21846">
        <ele>307</ele>
        <time>2021-07-02T07:00:48Z</time>
      </trkpt>
      <trkpt lat="48.05908" lon="7.21823">
        <ele>306</ele>
        <time>2021-07-02T07:00:50Z</time>
      </trkpt>
      <trkpt lat="48.05894" lon="7.2179">
        <ele>304.6</ele>
        <time>2021-07-02T07:00:53Z</time>
      </trkpt>
      <trkpt lat="48.05884" lon="7.21769">
        <ele>304.2</ele>
        <time>2021-07-02T07:00:55Z</time>
      </trkpt>
      <trkpt lat="48.05866" lon="7.21728">
        <ele>303.8</ele>
        <time>2021-07-02T07:01:00Z</time>
      </trkpt>
      <trkpt lat="48.05837" lon="7.21661">
        <ele>304</ele>
        <time>2021-07-02T07:01:08Z</time>
      </trkpt>
      <trkpt lat="48.05812" lon="7.21605">
        <ele>304.6</ele>
        <time>2021-07-02T07:01:15Z</time>
      </trkpt>
      <trkpt lat="48.05782" lon="7.21534">
        <ele>305</ele>
        <time>2021-07-02T07:01:24Z</time>
      </trkpt>
      <trkpt lat="48.05775" lon="7.21518">
        <ele>305.2</ele>
        <time>2021-07-02T07:01:26Z</time>
      </trkpt>
      <trkpt lat="48.05765" lon="7.21495">
        <ele>305.6</ele>
        <time>2021-07-02T07:01:29Z</time>
      </trkpt>
      <trkpt lat="48.05749" lon="7.21456">
        <ele>306.4</ele>
        <time>2021-07-02T07:01:35Z</time>
      </trkpt>
      <trkpt lat="48.0572" lon="7.21397">
        <ele>306.8</ele>
        <time>2021-07-02T07:01:42Z</time>
      </trkpt>
      <trkpt lat="48.05716" lon="7.2139">
        <ele>306.8</ele>
        <time>2021-07-02T07:01:43Z</time>
      </trkpt>
      <trkpt lat="48.05687" lon="7.21348">
        <ele>307</ele>
        <time>2021-07-02T07:01:50Z</time>
      </trkpt>
      <trkpt lat="48.0567" lon="7.21325">
        <ele>307.2</ele>
        <time>2021-07-02T07:01:54Z</time>
      </trkpt>
      <trkpt lat="48.05657" lon="7.21307">
        <ele>307.4</ele>
        <time>2021-07-02T07:01:57Z</time>
      </trkpt>
      <trkpt lat="48.05633" lon="7.21273">
        <ele>307.8</ele>
        <time>2021-07-02T07:02:03Z</time>
      </trkpt>
      <trkpt lat="48.0563" lon="7.21267">
        <ele>307.8</ele>
        <time>2021-07-02T07:02:04Z</time>
      </trkpt>
      <trkpt lat="48.05603" lon="7.21228">
        <ele>308.2</ele>
        <time>2021-07-02T07:02:11Z</time>
      </trkpt>
      <trkpt lat="48.05571" lon="7.21181">
        <ele>308.8</ele>
        <time>2021-07-02T07:02:19Z</time>
      </trkpt>
      <trkpt lat="48.05567" lon="7.21176">
        <ele>308.8</ele>
        <time>2021-07-02T07:02:20Z</time>
      </trkpt>
      <trkpt lat="48.05544" lon="7.21143">
        <ele>309.2</ele>
        <time>2021-07-02T07:02:27Z</time>
      </trkpt>
      <trkpt lat="48.05515" lon="7.21102">
        <ele>309.4</ele>
        <time>2021-07-02T07:02:33Z</time>
      </trkpt>
      <trkpt lat="48.05485" lon="7.21058">
        <ele>309.6</ele>
        <time>2021-07-02T07:02:41Z</time>
      </trkpt>
      <trkpt lat="48.05454" lon="7.21013">
        <ele>310</ele>
        <time>2021-07-02T07:02:49Z</time>
      </trkpt>
      <trkpt lat="48.05427" lon="7.20973">
        <ele>311</ele>
        <time>2021-07-02T07:02:56Z</time>
      </trkpt>
      <trkpt lat="48.05413" lon="7.20949">
        <ele>311.2</ele>
        <time>2021-07-02T07:03:00Z</time>
      </trkpt>
      <trkpt lat="48.05405" lon="7.20937">
        <ele>311.4</ele>
        <time>2021-07-02T07:03:02Z</time>
      </trkpt>
      <trkpt lat="48.05382" lon="7.209">
        <ele>311.6</ele>
        <time>2021-07-02T07:03:08Z</time>
      </trkpt>
      <trkpt lat="48.05371" lon="7.20879">
        <ele>312</ele>
        <time>2021-07-02T07:03:11Z</time>
      </trkpt>
      <trkpt lat="48.05347" lon="7.20834">
        <ele>313</ele>
        <time>2021-07-02T07:03:19Z</time>
      </trkpt>
      <trkpt lat="48.05336" lon="7.2081">
        <ele>313.4</ele>
        <time>2021-07-02T07:03:22Z</time>
      </trkpt>
      <trkpt lat="48.05323" lon="7.20777">
        <ele>314</ele>
        <time>2021-07-02T07:03:27Z</time>
      </trkpt>
      <trkpt lat="48.05306" lon="7.20739">
        <ele>315</ele>
        <time>2021-07-02T07:03:33Z</time>
      </trkpt>
      <trkpt lat="48.05279" lon="7.20687">
        <ele>316</ele>
        <time>2021-07-02T07:03:42Z</time>
      </trkpt>
      <trkpt lat="48.05276" lon="7.20682">
        <ele>316.2</ele>
        <time>2021-07-02T07:03:44Z</time>
      </trkpt>
      <trkpt lat="48.05253" lon="7.20637">
        <ele>317.2</ele>
        <time>2021-07-02T07:03:51Z</time>
      </trkpt>
      <trkpt lat="48.05247" lon="7.20625">
        <ele>317.6</ele>
        <time>2021-07-02T07:03:53Z</time>
      </trkpt>
      <trkpt lat="48.05237" lon="7.20599">
        <ele>318</ele>
        <time>2021-07-02T07:03:57Z</time>
      </trkpt>
      <trkpt lat="48.05228" lon="7.20572">
        <ele>318.2</ele>
        <time>2021-07-02T07:04:01Z</time>
      </trkpt>
      <trkpt lat="48.05223" lon="7.20552">
        <ele>318.4</ele>
        <time>2021-07-02T07:04:04Z</time>
      </trkpt>
      <trkpt lat="48.0522" lon="7.20535">
        <ele>318.6</ele>
        <time>2021-07-02T07:04:06Z</time>
      </trkpt>
      <trkpt lat="48.05218" lon="7.2052">
        <ele>318.8</ele>
        <time>2021-07-02T07:04:08Z</time>
      </trkpt>
      <trkpt lat="48.05218" lon="7.20504">
        <ele>319.2</ele>
        <time>2021-07-02T07:04:10Z</time>
      </trkpt>
      <trkpt lat="48.05219" lon="7.20497">
        <ele>319.4</ele>
        <time>2021-07-02T07:04:11Z</time>
      </trkpt>
      <trkpt lat="48.05219" lon="7.20491">
        <ele>319.4</ele>
        <time>2021-07-02T07:04:12Z</time>
      </trkpt>
      <trkpt lat="48.0522" lon="7.20477">
        <ele>319.6</ele>
        <time>2021-07-02T07:04:14Z</time>
      </trkpt>
      <trkpt lat="48.05218" lon="7.20472">
        <ele>319.6</ele>
        <time>2021-07-02T07:04:15Z</time>
      </trkpt>
      <trkpt lat="48.05213" lon="7.20475">
        <ele>319.8</ele>
        <time>2021-07-02T07:04:17Z</time>
      </trkpt>
      <trkpt lat="48.05208" lon="7.2048">
        <ele>319.8</ele>
        <time>2021-07-02T07:04:18Z</time>
      </trkpt>
      <trkpt lat="48.05203" lon="7.20483">
        <ele>319.8</ele>
        <time>2021-07-02T07:04:19Z</time>
      </trkpt>
      <trkpt lat="48.05194" lon="7.20488">
        <ele>319.6</ele>
        <time>2021-07-02T07:04:21Z</time>
      </trkpt>
      <trkpt lat="48.05181" lon="7.20502">
        <ele>319.2</ele>
        <time>2021-07-02T07:04:23Z</time>
      </trkpt>
      <trkpt lat="48.05167" lon="7.20517">
        <ele>318.8</ele>
        <time>2021-07-02T07:04:25Z</time>
      </trkpt>
      <trkpt lat="48.05155" lon="7.20528">
        <ele>317.8</ele>
        <time>2021-07-02T07:04:27Z</time>
      </trkpt>
      <trkpt lat="48.05133" lon="7.20548">
        <ele>316.6</ele>
        <time>2021-07-02T07:04:30Z</time>
      </trkpt>
      <trkpt lat="48.05119" lon="7.20559">
        <ele>316</ele>
        <time>2021-07-02T07:04:32Z</time>
      </trkpt>
      <trkpt lat="48.05105" lon="7.20568">
        <ele>315.4</ele>
        <time>2021-07-02T07:04:34Z</time>
      </trkpt>
      <trkpt lat="48.05075" lon="7.20591">
        <ele>314</ele>
        <time>2021-07-02T07:04:38Z</time>
      </trkpt>
      <trkpt lat="48.05053" lon="7.20608">
        <ele>312.8</ele>
        <time>2021-07-02T07:04:41Z</time>
      </trkpt>
      <trkpt lat="48.05045" lon="7.20613">
        <ele>312.6</ele>
        <time>2021-07-02T07:04:42Z</time>
      </trkpt>
      <trkpt lat="48.05033" lon="7.20623">
        <ele>311.6</ele>
        <time>2021-07-02T07:04:45Z</time>
      </trkpt>
      <trkpt lat="48.04998" lon="7.20645">
        <ele>310.2</ele>
        <time>2021-07-02T07:04:50Z</time>
      </trkpt>
      <trkpt lat="48.04977" lon="7.20658">
        <ele>309.8</ele>
        <time>2021-07-02T07:04:52Z</time>
      </trkpt>
      <trkpt lat="48.04947" lon="7.20682">
        <ele>309.2</ele>
        <time>2021-07-02T07:04:57Z</time>
      </trkpt>
      <trkpt lat="48.04912" lon="7.20707">
        <ele>308.4</ele>
        <time>2021-07-02T07:05:03Z</time>
      </trkpt>
      <trkpt lat="48.04889" lon="7.20726">
        <ele>308</ele>
        <time>2021-07-02T07:05:07Z</time>
      </trkpt>
      <trkpt lat="48.04859" lon="7.20749">
        <ele>307.4</ele>
        <time>2021-07-02T07:05:12Z</time>
      </trkpt>
      <trkpt lat="48.04826" lon="7.20774">
        <ele>307</ele>
        <time>2021-07-02T07:05:18Z</time>
      </trkpt>
      <trkpt lat="48.04791" lon="7.208">
        <ele>307.4</ele>
        <time>2021-07-02T07:05:25Z</time>
      </trkpt>
      <trkpt lat="48.04774" lon="7.20811">
        <ele>307.8</ele>
        <time>2021-07-02T07:05:30Z</time>
      </trkpt>
      <trkpt lat="48.04761" lon="7.20824">
        <ele>308</ele>
        <time>2021-07-02T07:05:36Z</time>
      </trkpt>
      <trkpt lat="48.04743" lon="7.2084">
        <ele>308</ele>
        <time>2021-07-02T07:05:41Z</time>
      </trkpt>
      <trkpt lat="48.04709" lon="7.20874">
        <ele>307.6</ele>
        <time>2021-07-02T07:05:49Z</time>
      </trkpt>
      <trkpt lat="48.04702" lon="7.20882">
        <ele>307.6</ele>
        <time>2021-07-02T07:05:51Z</time>
      </trkpt>
      <trkpt lat="48.04695" lon="7.20888">
        <ele>307.4</ele>
        <time>2021-07-02T07:05:54Z</time>
      </trkpt>
      <trkpt lat="48.04693" lon="7.2089">
        <ele>307.4</ele>
        <time>2021-07-02T07:05:56Z</time>
      </trkpt>
      <trkpt lat="48.04693" lon="7.2089">
        <ele>307.6</ele>
        <time>2021-07-02T07:05:59Z</time>
      </trkpt>
      <trkpt lat="48.0469" lon="7.20894">
        <ele>307.4</ele>
        <time>2021-07-02T07:06:12Z</time>
      </trkpt>
      <trkpt lat="48.04683" lon="7.20899">
        <ele>307.2</ele>
        <time>2021-07-02T07:06:14Z</time>
      </trkpt>
      <trkpt lat="48.04668" lon="7.20901">
        <ele>307.2</ele>
        <time>2021-07-02T07:06:18Z</time>
      </trkpt>
      <trkpt lat="48.04662" lon="7.20899">
        <ele>307.4</ele>
        <time>2021-07-02T07:06:22Z</time>
      </trkpt>
      <trkpt lat="48.0466" lon="7.20894">
        <ele>307.4</ele>
        <time>2021-07-02T07:06:23Z</time>
      </trkpt>
      <trkpt lat="48.04653" lon="7.20877">
        <ele>307.8</ele>
        <time>2021-07-02T07:06:27Z</time>
      </trkpt>
      <trkpt lat="48.04639" lon="7.20839">
        <ele>308.2</ele>
        <time>2021-07-02T07:06:35Z</time>
      </trkpt>
      <trkpt lat="48.04628" lon="7.20823">
        <ele>308.4</ele>
        <time>2021-07-02T07:06:40Z</time>
      </trkpt>
      <trkpt lat="48.04626" lon="7.20821">
        <ele>308.4</ele>
        <time>2021-07-02T07:06:44Z</time>
      </trkpt>
      <trkpt lat="48.04627" lon="7.20802">
        <ele>308.4</ele>
        <time>2021-07-02T07:06:59Z</time>
      </trkpt>
      <trkpt lat="48.04624" lon="7.20793">
        <ele>308.4</ele>
        <time>2021-07-02T07:07:02Z</time>
      </trkpt>
      <trkpt lat="48.04621" lon="7.20786">
        <ele>308.6</ele>
        <time>2021-07-02T07:07:04Z</time>
      </trkpt>
      <trkpt lat="48.04619" lon="7.20779">
        <ele>308.6</ele>
        <time>2021-07-02T07:07:06Z</time>
      </trkpt>
      <trkpt lat="48.04608" lon="7.2077">
        <ele>308.6</ele>
        <time>2021-07-02T07:07:09Z</time>
      </trkpt>
      <trkpt lat="48.04596" lon="7.2077">
        <ele>308.6</ele>
        <time>2021-07-02T07:07:11Z</time>
      </trkpt>
      <trkpt lat="48.04591" lon="7.20772">
        <ele>308.6</ele>
        <time>2021-07-02T07:07:12Z</time>
      </trkpt>
      <trkpt lat="48.04585" lon="7.20775">
        <ele>308.4</ele>
        <time>2021-07-02T07:07:13Z</time>
      </trkpt>
      <trkpt lat="48.04574" lon="7.20775">
        <ele>308.4</ele>
        <time>2021-07-02T07:07:15Z</time>
      </trkpt>
      <trkpt lat="48.0457" lon="7.20772">
        <ele>308.4</ele>
        <time>2021-07-02T07:07:16Z</time>
      </trkpt>
      <trkpt lat="48.04561" lon="7.20765">
        <ele>308.4</ele>
        <time>2021-07-02T07:07:18Z</time>
      </trkpt>
      <trkpt lat="48.04544" lon="7.20746">
        <ele>308.6</ele>
        <time>2021-07-02T07:07:22Z</time>
      </trkpt>
      <trkpt lat="48.04515" lon="7.2071">
        <ele>308.8</ele>
        <time>2021-07-02T07:07:29Z</time>
      </trkpt>
      <trkpt lat="48.04507" lon="7.20699">
        <ele>309</ele>
        <time>2021-07-02T07:07:31Z</time>
      </trkpt>
      <trkpt lat="48.04482" lon="7.2067">
        <ele>309.4</ele>
        <time>2021-07-02T07:07:37Z</time>
      </trkpt>
      <trkpt lat="48.04466" lon="7.20651">
        <ele>309.8</ele>
        <time>2021-07-02T07:07:41Z</time>
      </trkpt>
      <trkpt lat="48.04459" lon="7.20643">
        <ele>310</ele>
        <time>2021-07-02T07:07:43Z</time>
      </trkpt>
      <trkpt lat="48.04456" lon="7.20639">
        <ele>310.2</ele>
        <time>2021-07-02T07:07:44Z</time>
      </trkpt>
      <trkpt lat="48.04448" lon="7.2063">
        <ele>310.4</ele>
        <time>2021-07-02T07:07:46Z</time>
      </trkpt>
      <trkpt lat="48.04441" lon="7.20621">
        <ele>310.6</ele>
        <time>2021-07-02T07:07:48Z</time>
      </trkpt>
      <trkpt lat="48.04422" lon="7.20596">
        <ele>311.4</ele>
        <time>2021-07-02T07:07:53Z</time>
      </trkpt>
      <trkpt lat="48.04411" lon="7.20582">
        <ele>311.6</ele>
        <time>2021-07-02T07:07:56Z</time>
      </trkpt>
      <trkpt lat="48.0439" lon="7.20553">
        <ele>312.6</ele>
        <time>2021-07-02T07:08:02Z</time>
      </trkpt>
      <trkpt lat="48.04387" lon="7.20549">
        <ele>312.6</ele>
        <time>2021-07-02T07:08:03Z</time>
      </trkpt>
      <trkpt lat="48.04368" lon="7.20519">
        <ele>313.6</ele>
        <time>2021-07-02T07:08:09Z</time>
      </trkpt>
      <trkpt lat="48.04366" lon="7.20514">
        <ele>313.8</ele>
        <time>2021-07-02T07:08:10Z</time>
      </trkpt>
      <trkpt lat="48.04358" lon="7.20501">
        <ele>314.2</ele>
        <time>2021-07-02T07:08:13Z</time>
      </trkpt>
      <trkpt lat="48.04348" lon="7.20488">
        <ele>314.4</ele>
        <time>2021-07-02T07:08:16Z</time>
      </trkpt>
      <trkpt lat="48.04331" lon="7.20473">
        <ele>314.6</ele>
        <time>2021-07-02T07:08:20Z</time>
      </trkpt>
      <trkpt lat="48.04315" lon="7.20458">
        <ele>315</ele>
        <time>2021-07-02T07:08:24Z</time>
      </trkpt>
      <trkpt lat="48.04306" lon="7.20451">
        <ele>315.8</ele>
        <time>2021-07-02T07:08:26Z</time>
      </trkpt>
      <trkpt lat="48.04279" lon="7.20428">
        <ele>316.6</ele>
        <time>2021-07-02T07:08:32Z</time>
      </trkpt>
      <trkpt lat="48.04265" lon="7.20418">
        <ele>316.8</ele>
        <time>2021-07-02T07:08:35Z</time>
      </trkpt>
      <trkpt lat="48.04243" lon="7.20402">
        <ele>317.4</ele>
        <time>2021-07-02T07:08:40Z</time>
      </trkpt>
      <trkpt lat="48.04224" lon="7.20392">
        <ele>317.8</ele>
        <time>2021-07-02T07:08:45Z</time>
      </trkpt>
      <trkpt lat="48.04219" lon="7.2039">
        <ele>318</ele>
        <time>2021-07-02T07:08:46Z</time>
      </trkpt>
      <trkpt lat="48.04176" lon="7.20371">
        <ele>319</ele>
        <time>2021-07-02T07:08:56Z</time>
      </trkpt>
      <trkpt lat="48.04172" lon="7.20369">
        <ele>319</ele>
        <time>2021-07-02T07:08:57Z</time>
      </trkpt>
      <trkpt lat="48.04141" lon="7.20358">
        <ele>320</ele>
        <time>2021-07-02T07:09:04Z</time>
      </trkpt>
      <trkpt lat="48.04137" lon="7.20357">
        <ele>320</ele>
        <time>2021-07-02T07:09:05Z</time>
      </trkpt>
      <trkpt lat="48.04123" lon="7.20351">
        <ele>320.8</ele>
        <time>2021-07-02T07:09:09Z</time>
      </trkpt>
      <trkpt lat="48.04115" lon="7.20348">
        <ele>321.2</ele>
        <time>2021-07-02T07:09:11Z</time>
      </trkpt>
      <trkpt lat="48.04111" lon="7.20347">
        <ele>321.4</ele>
        <time>2021-07-02T07:09:12Z</time>
      </trkpt>
      <trkpt lat="48.04097" lon="7.20341">
        <ele>322.2</ele>
        <time>2021-07-02T07:09:16Z</time>
      </trkpt>
      <trkpt lat="48.04085" lon="7.20338">
        <ele>322.8</ele>
        <time>2021-07-02T07:09:19Z</time>
      </trkpt>
      <trkpt lat="48.04073" lon="7.20336">
        <ele>323.2</ele>
        <time>2021-07-02T07:09:22Z</time>
      </trkpt>
      <trkpt lat="48.04054" lon="7.20334">
        <ele>324.2</ele>
        <time>2021-07-02T07:09:27Z</time>
      </trkpt>
      <trkpt lat="48.0405" lon="7.20334">
        <ele>324.2</ele>
        <time>2021-07-02T07:09:28Z</time>
      </trkpt>
      <trkpt lat="48.04027" lon="7.20333">
        <ele>325.2</ele>
        <time>2021-07-02T07:09:34Z</time>
      </trkpt>
      <trkpt lat="48.04013" lon="7.20333">
        <ele>326</ele>
        <time>2021-07-02T07:09:38Z</time>
      </trkpt>
      <trkpt lat="48.04006" lon="7.20333">
        <ele>326.2</ele>
        <time>2021-07-02T07:09:40Z</time>
      </trkpt>
      <trkpt lat="48.03988" lon="7.20332">
        <ele>327.4</ele>
        <time>2021-07-02T07:09:45Z</time>
      </trkpt>
      <trkpt lat="48.03969" lon="7.20331">
        <ele>328</ele>
        <time>2021-07-02T07:09:50Z</time>
      </trkpt>
      <trkpt lat="48.03966" lon="7.20331">
        <ele>328.4</ele>
        <time>2021-07-02T07:09:51Z</time>
      </trkpt>
      <trkpt lat="48.03941" lon="7.2033">
        <ele>329.6</ele>
        <time>2021-07-02T07:09:58Z</time>
      </trkpt>
      <trkpt lat="48.0393" lon="7.2033">
        <ele>330.2</ele>
        <time>2021-07-02T07:10:01Z</time>
      </trkpt>
      <trkpt lat="48.03924" lon="7.2033">
        <ele>330.6</ele>
        <time>2021-07-02T07:10:03Z</time>
      </trkpt>
      <trkpt lat="48.03909" lon="7.2033">
        <ele>331.6</ele>
        <time>2021-07-02T07:10:07Z</time>
      </trkpt>
      <trkpt lat="48.03906" lon="7.2033">
        <ele>331.8</ele>
        <time>2021-07-02T07:10:08Z</time>
      </trkpt>
      <trkpt lat="48.03887" lon="7.20329">
        <ele>332.8</ele>
        <time>2021-07-02T07:10:13Z</time>
      </trkpt>
      <trkpt lat="48.03884" lon="7.20328">
        <ele>333.2</ele>
        <time>2021-07-02T07:10:14Z</time>
      </trkpt>
      <trkpt lat="48.0387" lon="7.20328">
        <ele>334</ele>
        <time>2021-07-02T07:10:18Z</time>
      </trkpt>
      <trkpt lat="48.03858" lon="7.20328">
        <ele>334.6</ele>
        <time>2021-07-02T07:10:21Z</time>
      </trkpt>
      <trkpt lat="48.03851" lon="7.20327">
        <ele>335</ele>
        <time>2021-07-02T07:10:23Z</time>
      </trkpt>
      <trkpt lat="48.03816" lon="7.20325">
        <ele>336.2</ele>
        <time>2021-07-02T07:10:32Z</time>
      </trkpt>
      <trkpt lat="48.03786" lon="7.20324">
        <ele>336.4</ele>
        <time>2021-07-02T07:10:40Z</time>
      </trkpt>
      <trkpt lat="48.03774" lon="7.20327">
        <ele>336.4</ele>
        <time>2021-07-02T07:10:43Z</time>
      </trkpt>
      <trkpt lat="48.03767" lon="7.20333">
        <ele>336.4</ele>
        <time>2021-07-02T07:10:45Z</time>
      </trkpt>
      <trkpt lat="48.03761" lon="7.20342">
        <ele>336.6</ele>
        <time>2021-07-02T07:10:47Z</time>
      </trkpt>
      <trkpt lat="48.03754" lon="7.20356">
        <ele>336.8</ele>
        <time>2021-07-02T07:10:50Z</time>
      </trkpt>
      <trkpt lat="48.03749" lon="7.20365">
        <ele>337</ele>
        <time>2021-07-02T07:10:52Z</time>
      </trkpt>
      <trkpt lat="48.03746" lon="7.20369">
        <ele>337.2</ele>
        <time>2021-07-02T07:10:53Z</time>
      </trkpt>
      <trkpt lat="48.03743" lon="7.20371">
        <ele>337.4</ele>
        <time>2021-07-02T07:10:54Z</time>
      </trkpt>
      <trkpt lat="48.03738" lon="7.20373">
        <ele>337.4</ele>
        <time>2021-07-02T07:10:55Z</time>
      </trkpt>
      <trkpt lat="48.03709" lon="7.20384">
        <ele>338.2</ele>
        <time>2021-07-02T07:11:02Z</time>
      </trkpt>
      <trkpt lat="48.03705" lon="7.20384">
        <ele>338.6</ele>
        <time>2021-07-02T07:11:03Z</time>
      </trkpt>
      <trkpt lat="48.03697" lon="7.20383">
        <ele>339</ele>
        <time>2021-07-02T07:11:05Z</time>
      </trkpt>
      <trkpt lat="48.03693" lon="7.20383">
        <ele>339.2</ele>
        <time>2021-07-02T07:11:06Z</time>
      </trkpt>
      <trkpt lat="48.03675" lon="7.20382">
        <ele>339.6</ele>
        <time>2021-07-02T07:11:10Z</time>
      </trkpt>
      <trkpt lat="48.0363" lon="7.20377">
        <ele>339.8</ele>
        <time>2021-07-02T07:11:20Z</time>
      </trkpt>
      <trkpt lat="48.03591" lon="7.20362">
        <ele>340.2</ele>
        <time>2021-07-02T07:11:29Z</time>
      </trkpt>
      <trkpt lat="48.03583" lon="7.20358">
        <ele>340.2</ele>
        <time>2021-07-02T07:11:31Z</time>
      </trkpt>
      <trkpt lat="48.03563" lon="7.2035">
        <ele>340.4</ele>
        <time>2021-07-02T07:11:36Z</time>
      </trkpt>
      <trkpt lat="48.03556" lon="7.2035">
        <ele>340.4</ele>
        <time>2021-07-02T07:11:38Z</time>
      </trkpt>
      <trkpt lat="48.03552" lon="7.20349">
        <ele>340.4</ele>
        <time>2021-07-02T07:11:39Z</time>
      </trkpt>
      <trkpt lat="48.03539" lon="7.20342">
        <ele>340.8</ele>
        <time>2021-07-02T07:11:43Z</time>
      </trkpt>
      <trkpt lat="48.03514" lon="7.2033">
        <ele>341</ele>
        <time>2021-07-02T07:11:49Z</time>
      </trkpt>
      <trkpt lat="48.03506" lon="7.20326">
        <ele>341</ele>
        <time>2021-07-02T07:11:51Z</time>
      </trkpt>
      <trkpt lat="48.03497" lon="7.20323">
        <ele>341.4</ele>
        <time>2021-07-02T07:11:53Z</time>
      </trkpt>
      <trkpt lat="48.03485" lon="7.20317">
        <ele>341.4</ele>
        <time>2021-07-02T07:11:56Z</time>
      </trkpt>
      <trkpt lat="48.03472" lon="7.20311">
        <ele>342.2</ele>
        <time>2021-07-02T07:11:59Z</time>
      </trkpt>
      <trkpt lat="48.03459" lon="7.20306">
        <ele>342.4</ele>
        <time>2021-07-02T07:12:02Z</time>
      </trkpt>
      <trkpt lat="48.03455" lon="7.20304">
        <ele>342.6</ele>
        <time>2021-07-02T07:12:03Z</time>
      </trkpt>
      <trkpt lat="48.03425" lon="7.20293">
        <ele>343.6</ele>
        <time>2021-07-02T07:12:10Z</time>
      </trkpt>
      <trkpt lat="48.03421" lon="7.20291">
        <ele>343.8</ele>
        <time>2021-07-02T07:12:11Z</time>
      </trkpt>
      <trkpt lat="48.03408" lon="7.20286">
        <ele>344</ele>
        <time>2021-07-02T07:12:14Z</time>
      </trkpt>
      <trkpt lat="48.034" lon="7.20282">
        <ele>344.4</ele>
        <time>2021-07-02T07:12:16Z</time>
      </trkpt>
      <trkpt lat="48.03396" lon="7.20281">
        <ele>344.8</ele>
        <time>2021-07-02T07:12:17Z</time>
      </trkpt>
      <trkpt lat="48.03387" lon="7.20279">
        <ele>345</ele>
        <time>2021-07-02T07:12:19Z</time>
      </trkpt>
      <trkpt lat="48.03373" lon="7.20277">
        <ele>345.4</ele>
        <time>2021-07-02T07:12:22Z</time>
      </trkpt>
      <trkpt lat="48.0337" lon="7.20276">
        <ele>345.4</ele>
        <time>2021-07-02T07:12:23Z</time>
      </trkpt>
      <trkpt lat="48.03358" lon="7.20275">
        <ele>345.8</ele>
        <time>2021-07-02T07:12:26Z</time>
      </trkpt>
      <trkpt lat="48.03346" lon="7.20273">
        <ele>346.4</ele>
        <time>2021-07-02T07:12:29Z</time>
      </trkpt>
      <trkpt lat="48.03334" lon="7.20272">
        <ele>347</ele>
        <time>2021-07-02T07:12:32Z</time>
      </trkpt>
      <trkpt lat="48.0332" lon="7.20272">
        <ele>347.4</ele>
        <time>2021-07-02T07:12:36Z</time>
      </trkpt>
      <trkpt lat="48.0331" lon="7.2027">
        <ele>348</ele>
        <time>2021-07-02T07:12:39Z</time>
      </trkpt>
      <trkpt lat="48.03298" lon="7.20266">
        <ele>348.8</ele>
        <time>2021-07-02T07:12:42Z</time>
      </trkpt>
      <trkpt lat="48.0329" lon="7.20262">
        <ele>349.2</ele>
        <time>2021-07-02T07:12:44Z</time>
      </trkpt>
      <trkpt lat="48.03272" lon="7.20249">
        <ele>350</ele>
        <time>2021-07-02T07:12:48Z</time>
      </trkpt>
      <trkpt lat="48.03264" lon="7.20239">
        <ele>350.4</ele>
        <time>2021-07-02T07:12:50Z</time>
      </trkpt>
      <trkpt lat="48.03256" lon="7.20231">
        <ele>350.6</ele>
        <time>2021-07-02T07:12:52Z</time>
      </trkpt>
      <trkpt lat="48.03232" lon="7.20198">
        <ele>350.8</ele>
        <time>2021-07-02T07:12:59Z</time>
      </trkpt>
      <trkpt lat="48.03225" lon="7.20188">
        <ele>351</ele>
        <time>2021-07-02T07:13:01Z</time>
      </trkpt>
      <trkpt lat="48.03221" lon="7.20182">
        <ele>351</ele>
        <time>2021-07-02T07:13:02Z</time>
      </trkpt>
      <trkpt lat="48.03206" lon="7.2016">
        <ele>351.2</ele>
        <time>2021-07-02T07:13:06Z</time>
      </trkpt>
      <trkpt lat="48.03166" lon="7.20106">
        <ele>351.8</ele>
        <time>2021-07-02T07:13:16Z</time>
      </trkpt>
      <trkpt lat="48.03134" lon="7.20066">
        <ele>350.2</ele>
        <time>2021-07-02T07:13:24Z</time>
      </trkpt>
      <trkpt lat="48.03105" lon="7.20046">
        <ele>350.4</ele>
        <time>2021-07-02T07:13:30Z</time>
      </trkpt>
      <trkpt lat="48.0307" lon="7.20036">
        <ele>350.6</ele>
        <time>2021-07-02T07:13:37Z</time>
      </trkpt>
      <trkpt lat="48.03052" lon="7.20031">
        <ele>351.4</ele>
        <time>2021-07-02T07:13:41Z</time>
      </trkpt>
      <trkpt lat="48.03039" lon="7.20026">
        <ele>351.8</ele>
        <time>2021-07-02T07:13:44Z</time>
      </trkpt>
      <trkpt lat="48.03019" lon="7.20015">
        <ele>352.4</ele>
        <time>2021-07-02T07:13:49Z</time>
      </trkpt>
      <trkpt lat="48.03008" lon="7.20008">
        <ele>353.2</ele>
        <time>2021-07-02T07:13:52Z</time>
      </trkpt>
      <trkpt lat="48.03001" lon="7.20004">
        <ele>353.6</ele>
        <time>2021-07-02T07:13:54Z</time>
      </trkpt>
      <trkpt lat="48.0298" lon="7.19993">
        <ele>354.2</ele>
        <time>2021-07-02T07:14:00Z</time>
      </trkpt>
      <trkpt lat="48.02974" lon="7.19989">
        <ele>354.6</ele>
        <time>2021-07-02T07:14:02Z</time>
      </trkpt>
      <trkpt lat="48.02958" lon="7.1998">
        <ele>355.8</ele>
        <time>2021-07-02T07:14:07Z</time>
      </trkpt>
      <trkpt lat="48.02948" lon="7.19975">
        <ele>356.4</ele>
        <time>2021-07-02T07:14:10Z</time>
      </trkpt>
      <trkpt lat="48.02938" lon="7.19971">
        <ele>357</ele>
        <time>2021-07-02T07:14:13Z</time>
      </trkpt>
      <trkpt lat="48.02922" lon="7.19969">
        <ele>358</ele>
        <time>2021-07-02T07:14:19Z</time>
      </trkpt>
      <trkpt lat="48.02891" lon="7.19966">
        <ele>359.2</ele>
        <time>2021-07-02T07:14:27Z</time>
      </trkpt>
      <trkpt lat="48.02873" lon="7.19963">
        <ele>360.2</ele>
        <time>2021-07-02T07:14:32Z</time>
      </trkpt>
      <trkpt lat="48.0287" lon="7.19963">
        <ele>360.2</ele>
        <time>2021-07-02T07:14:33Z</time>
      </trkpt>
      <trkpt lat="48.02856" lon="7.19957">
        <ele>361.2</ele>
        <time>2021-07-02T07:14:38Z</time>
      </trkpt>
      <trkpt lat="48.02854" lon="7.19956">
        <ele>361.4</ele>
        <time>2021-07-02T07:14:39Z</time>
      </trkpt>
      <trkpt lat="48.02851" lon="7.19955">
        <ele>361.8</ele>
        <time>2021-07-02T07:14:41Z</time>
      </trkpt>
      <trkpt lat="48.02847" lon="7.19958">
        <ele>362.2</ele>
        <time>2021-07-02T07:14:43Z</time>
      </trkpt>
      <trkpt lat="48.02845" lon="7.19961">
        <ele>362.4</ele>
        <time>2021-07-02T07:14:45Z</time>
      </trkpt>
      <trkpt lat="48.02842" lon="7.19961">
        <ele>362.6</ele>
        <time>2021-07-02T07:14:47Z</time>
      </trkpt>
      <trkpt lat="48.02841" lon="7.19959">
        <ele>363.4</ele>
        <time>2021-07-02T07:14:52Z</time>
      </trkpt>
      <trkpt lat="48.02836" lon="7.19961">
        <ele>363.8</ele>
        <time>2021-07-02T07:18:21Z</time>
      </trkpt>
      <trkpt lat="48.0283" lon="7.1996">
        <ele>364</ele>
        <time>2021-07-02T07:18:24Z</time>
      </trkpt>
      <trkpt lat="48.02821" lon="7.19958">
        <ele>364.2</ele>
        <time>2021-07-02T07:18:28Z</time>
      </trkpt>
      <trkpt lat="48.02819" lon="7.19958">
        <ele>364.2</ele>
        <time>2021-07-02T07:18:29Z</time>
      </trkpt>
      <trkpt lat="48.02803" lon="7.19955">
        <ele>365</ele>
        <time>2021-07-02T07:18:35Z</time>
      </trkpt>
      <trkpt lat="48.028" lon="7.19954">
        <ele>365.2</ele>
        <time>2021-07-02T07:18:36Z</time>
      </trkpt>
      <trkpt lat="48.02783" lon="7.19949">
        <ele>366.4</ele>
        <time>2021-07-02T07:18:41Z</time>
      </trkpt>
      <trkpt lat="48.02777" lon="7.19948">
        <ele>366.8</ele>
        <time>2021-07-02T07:18:43Z</time>
      </trkpt>
      <trkpt lat="48.02762" lon="7.19944">
        <ele>367.6</ele>
        <time>2021-07-02T07:18:48Z</time>
      </trkpt>
      <trkpt lat="48.0276" lon="7.19944">
        <ele>367.6</ele>
        <time>2021-07-02T07:18:49Z</time>
      </trkpt>
      <trkpt lat="48.02752" lon="7.19943">
        <ele>368.6</ele>
        <time>2021-07-02T07:18:52Z</time>
      </trkpt>
      <trkpt lat="48.02747" lon="7.19941">
        <ele>369.2</ele>
        <time>2021-07-02T07:18:55Z</time>
      </trkpt>
      <trkpt lat="48.02743" lon="7.1994">
        <ele>370</ele>
        <time>2021-07-02T07:18:57Z</time>
      </trkpt>
      <trkpt lat="48.02734" lon="7.19937">
        <ele>370.6</ele>
        <time>2021-07-02T07:19:00Z</time>
      </trkpt>
      <trkpt lat="48.02722" lon="7.19934">
        <ele>371.2</ele>
        <time>2021-07-02T07:19:04Z</time>
      </trkpt>
      <trkpt lat="48.02711" lon="7.19931">
        <ele>371.6</ele>
        <time>2021-07-02T07:19:07Z</time>
      </trkpt>
      <trkpt lat="48.02708" lon="7.19932">
        <ele>372</ele>
        <time>2021-07-02T07:19:09Z</time>
      </trkpt>
      <trkpt lat="48.02699" lon="7.19929">
        <ele>372.6</ele>
        <time>2021-07-02T07:19:12Z</time>
      </trkpt>
      <trkpt lat="48.02689" lon="7.19927">
        <ele>373.2</ele>
        <time>2021-07-02T07:19:15Z</time>
      </trkpt>
      <trkpt lat="48.02678" lon="7.19924">
        <ele>374.2</ele>
        <time>2021-07-02T07:19:20Z</time>
      </trkpt>
      <trkpt lat="48.02676" lon="7.19922">
        <ele>374.4</ele>
        <time>2021-07-02T07:19:21Z</time>
      </trkpt>
      <trkpt lat="48.02672" lon="7.19921">
        <ele>374.8</ele>
        <time>2021-07-02T07:19:23Z</time>
      </trkpt>
      <trkpt lat="48.02666" lon="7.19917">
        <ele>375.6</ele>
        <time>2021-07-02T07:19:26Z</time>
      </trkpt>
      <trkpt lat="48.02654" lon="7.19911">
        <ele>376.6</ele>
        <time>2021-07-02T07:19:30Z</time>
      </trkpt>
      <trkpt lat="48.02651" lon="7.19909">
        <ele>376.8</ele>
        <time>2021-07-02T07:19:31Z</time>
      </trkpt>
      <trkpt lat="48.02642" lon="7.19902">
        <ele>377.8</ele>
        <time>2021-07-02T07:19:35Z</time>
      </trkpt>
      <trkpt lat="48.02637" lon="7.19899">
        <ele>378</ele>
        <time>2021-07-02T07:19:37Z</time>
      </trkpt>
      <trkpt lat="48.02627" lon="7.19892">
        <ele>378.8</ele>
        <time>2021-07-02T07:19:41Z</time>
      </trkpt>
      <trkpt lat="48.02623" lon="7.19888">
        <ele>379.4</ele>
        <time>2021-07-02T07:19:43Z</time>
      </trkpt>
      <trkpt lat="48.02618" lon="7.19885">
        <ele>379.8</ele>
        <time>2021-07-02T07:19:45Z</time>
      </trkpt>
      <trkpt lat="48.02604" lon="7.19877">
        <ele>380.8</ele>
        <time>2021-07-02T07:19:50Z</time>
      </trkpt>
      <trkpt lat="48.02602" lon="7.19875">
        <ele>380.8</ele>
        <time>2021-07-02T07:19:51Z</time>
      </trkpt>
      <trkpt lat="48.0259" lon="7.19869">
        <ele>381.8</ele>
        <time>2021-07-02T07:19:56Z</time>
      </trkpt>
      <trkpt lat="48.02587" lon="7.19866">
        <ele>382.6</ele>
        <time>2021-07-02T07:19:58Z</time>
      </trkpt>
      <trkpt lat="48.02582" lon="7.19863">
        <ele>383.2</ele>
        <time>2021-07-02T07:20:00Z</time>
      </trkpt>
      <trkpt lat="48.02573" lon="7.19858">
        <ele>383.8</ele>
        <time>2021-07-02T07:20:04Z</time>
      </trkpt>
      <trkpt lat="48.02567" lon="7.19854">
        <ele>384.2</ele>
        <time>2021-07-02T07:20:07Z</time>
      </trkpt>
      <trkpt lat="48.02564" lon="7.19853">
        <ele>384.4</ele>
        <time>2021-07-02T07:20:09Z</time>
      </trkpt>
      <trkpt lat="48.02561" lon="7.19851">
        <ele>385</ele>
        <time>2021-07-02T07:20:11Z</time>
      </trkpt>
      <trkpt lat="48.02559" lon="7.19851">
        <ele>385.2</ele>
        <time>2021-07-02T07:20:12Z</time>
      </trkpt>
      <trkpt lat="48.0255" lon="7.19845">
        <ele>386.2</ele>
        <time>2021-07-02T07:20:17Z</time>
      </trkpt>
      <trkpt lat="48.02547" lon="7.19843">
        <ele>386.4</ele>
        <time>2021-07-02T07:20:18Z</time>
      </trkpt>
      <trkpt lat="48.0254" lon="7.19841">
        <ele>387.4</ele>
        <time>2021-07-02T07:20:22Z</time>
      </trkpt>
      <trkpt lat="48.02528" lon="7.19837">
        <ele>388.2</ele>
        <time>2021-07-02T07:20:26Z</time>
      </trkpt>
      <trkpt lat="48.02522" lon="7.19834">
        <ele>388.4</ele>
        <time>2021-07-02T07:20:28Z</time>
      </trkpt>
      <trkpt lat="48.02504" lon="7.19827">
        <ele>389.4</ele>
        <time>2021-07-02T07:20:34Z</time>
      </trkpt>
      <trkpt lat="48.02502" lon="7.19826">
        <ele>389.8</ele>
        <time>2021-07-02T07:20:35Z</time>
      </trkpt>
      <trkpt lat="48.02491" lon="7.19821">
        <ele>390.4</ele>
        <time>2021-07-02T07:20:39Z</time>
      </trkpt>
      <trkpt lat="48.02485" lon="7.19819">
        <ele>391</ele>
        <time>2021-07-02T07:20:41Z</time>
      </trkpt>
      <trkpt lat="48.02477" lon="7.19816">
        <ele>391.6</ele>
        <time>2021-07-02T07:20:44Z</time>
      </trkpt>
      <trkpt lat="48.02466" lon="7.19812">
        <ele>392.2</ele>
        <time>2021-07-02T07:20:48Z</time>
      </trkpt>
      <trkpt lat="48.02461" lon="7.1981">
        <ele>392.6</ele>
        <time>2021-07-02T07:20:50Z</time>
      </trkpt>
      <trkpt lat="48.02456" lon="7.1981">
        <ele>393</ele>
        <time>2021-07-02T07:20:52Z</time>
      </trkpt>
      <trkpt lat="48.02452" lon="7.19809">
        <ele>393.8</ele>
        <time>2021-07-02T07:20:54Z</time>
      </trkpt>
      <trkpt lat="48.02446" lon="7.19808">
        <ele>394.4</ele>
        <time>2021-07-02T07:20:57Z</time>
      </trkpt>
      <trkpt lat="48.0244" lon="7.19808">
        <ele>394.6</ele>
        <time>2021-07-02T07:20:59Z</time>
      </trkpt>
      <trkpt lat="48.02437" lon="7.19808">
        <ele>394.8</ele>
        <time>2021-07-02T07:21:00Z</time>
      </trkpt>
      <trkpt lat="48.02426" lon="7.19812">
        <ele>395.4</ele>
        <time>2021-07-02T07:21:04Z</time>
      </trkpt>
      <trkpt lat="48.02421" lon="7.19813">
        <ele>395.8</ele>
        <time>2021-07-02T07:21:06Z</time>
      </trkpt>
      <trkpt lat="48.02419" lon="7.19814">
        <ele>396</ele>
        <time>2021-07-02T07:21:07Z</time>
      </trkpt>
      <trkpt lat="48.02416" lon="7.19816">
        <ele>396.2</ele>
        <time>2021-07-02T07:21:08Z</time>
      </trkpt>
      <trkpt lat="48.02406" lon="7.19823">
        <ele>397</ele>
        <time>2021-07-02T07:21:12Z</time>
      </trkpt>
      <trkpt lat="48.02401" lon="7.19831">
        <ele>397.4</ele>
        <time>2021-07-02T07:21:14Z</time>
      </trkpt>
      <trkpt lat="48.02396" lon="7.19839">
        <ele>398.2</ele>
        <time>2021-07-02T07:21:17Z</time>
      </trkpt>
      <trkpt lat="48.02392" lon="7.19847">
        <ele>398.6</ele>
        <time>2021-07-02T07:21:20Z</time>
      </trkpt>
      <trkpt lat="48.02391" lon="7.19851">
        <ele>398.6</ele>
        <time>2021-07-02T07:21:21Z</time>
      </trkpt>
      <trkpt lat="48.02391" lon="7.19862">
        <ele>399.2</ele>
        <time>2021-07-02T07:21:24Z</time>
      </trkpt>
      <trkpt lat="48.02391" lon="7.19866">
        <ele>399.2</ele>
        <time>2021-07-02T07:21:25Z</time>
      </trkpt>
      <trkpt lat="48.0239" lon="7.19883">
        <ele>400.2</ele>
        <time>2021-07-02T07:21:29Z</time>
      </trkpt>
      <trkpt lat="48.0239" lon="7.199">
        <ele>401.2</ele>
        <time>2021-07-02T07:21:33Z</time>
      </trkpt>
      <trkpt lat="48.02391" lon="7.19904">
        <ele>401.2</ele>
        <time>2021-07-02T07:21:34Z</time>
      </trkpt>
      <trkpt lat="48.02389" lon="7.19928">
        <ele>402.4</ele>
        <time>2021-07-02T07:21:40Z</time>
      </trkpt>
      <trkpt lat="48.02382" lon="7.19951">
        <ele>403.4</ele>
        <time>2021-07-02T07:21:46Z</time>
      </trkpt>
      <trkpt lat="48.02381" lon="7.19953">
        <ele>403.6</ele>
        <time>2021-07-02T07:21:47Z</time>
      </trkpt>
      <trkpt lat="48.02375" lon="7.19957">
        <ele>403.8</ele>
        <time>2021-07-02T07:21:49Z</time>
      </trkpt>
      <trkpt lat="48.02366" lon="7.19962">
        <ele>404.2</ele>
        <time>2021-07-02T07:21:52Z</time>
      </trkpt>
      <trkpt lat="48.02363" lon="7.19964">
        <ele>404.6</ele>
        <time>2021-07-02T07:21:53Z</time>
      </trkpt>
      <trkpt lat="48.02353" lon="7.19961">
        <ele>405.8</ele>
        <time>2021-07-02T07:21:58Z</time>
      </trkpt>
      <trkpt lat="48.02352" lon="7.19951">
        <ele>406.8</ele>
        <time>2021-07-02T07:22:03Z</time>
      </trkpt>
      <trkpt lat="48.02352" lon="7.19948">
        <ele>407</ele>
        <time>2021-07-02T07:22:04Z</time>
      </trkpt>
      <trkpt lat="48.02347" lon="7.19937">
        <ele>407.8</ele>
        <time>2021-07-02T07:22:07Z</time>
      </trkpt>
      <trkpt lat="48.02343" lon="7.19922">
        <ele>408.8</ele>
        <time>2021-07-02T07:22:12Z</time>
      </trkpt>
      <trkpt lat="48.02334" lon="7.19904">
        <ele>409.8</ele>
        <time>2021-07-02T07:22:17Z</time>
      </trkpt>
      <trkpt lat="48.0233" lon="7.19898">
        <ele>410.4</ele>
        <time>2021-07-02T07:22:19Z</time>
      </trkpt>
      <trkpt lat="48.02325" lon="7.19893">
        <ele>410.8</ele>
        <time>2021-07-02T07:22:22Z</time>
      </trkpt>
      <trkpt lat="48.02317" lon="7.19882">
        <ele>411.6</ele>
        <time>2021-07-02T07:22:26Z</time>
      </trkpt>
      <trkpt lat="48.02315" lon="7.1988">
        <ele>411.8</ele>
        <time>2021-07-02T07:22:27Z</time>
      </trkpt>
      <trkpt lat="48.02306" lon="7.19869">
        <ele>413</ele>
        <time>2021-07-02T07:22:33Z</time>
      </trkpt>
      <trkpt lat="48.02302" lon="7.19864">
        <ele>413.4</ele>
        <time>2021-07-02T07:22:35Z</time>
      </trkpt>
      <trkpt lat="48.02295" lon="7.19858">
        <ele>414</ele>
        <time>2021-07-02T07:22:38Z</time>
      </trkpt>
      <trkpt lat="48.0228" lon="7.19848">
        <ele>415.2</ele>
        <time>2021-07-02T07:22:42Z</time>
      </trkpt>
      <trkpt lat="48.02278" lon="7.19845">
        <ele>415.4</ele>
        <time>2021-07-02T07:22:43Z</time>
      </trkpt>
      <trkpt lat="48.02261" lon="7.19821">
        <ele>416.2</ele>
        <time>2021-07-02T07:22:50Z</time>
      </trkpt>
      <trkpt lat="48.02261" lon="7.19819">
        <ele>416.4</ele>
        <time>2021-07-02T07:22:51Z</time>
      </trkpt>
      <trkpt lat="48.02256" lon="7.19813">
        <ele>417</ele>
        <time>2021-07-02T07:22:54Z</time>
      </trkpt>
      <trkpt lat="48.02252" lon="7.19804">
        <ele>417.6</ele>
        <time>2021-07-02T07:22:57Z</time>
      </trkpt>
      <trkpt lat="48.02247" lon="7.19798">
        <ele>418.4</ele>
        <time>2021-07-02T07:23:00Z</time>
      </trkpt>
      <trkpt lat="48.02246" lon="7.19795">
        <ele>418.6</ele>
        <time>2021-07-02T07:23:01Z</time>
      </trkpt>
      <trkpt lat="48.02246" lon="7.19793">
        <ele>418.8</ele>
        <time>2021-07-02T07:23:02Z</time>
      </trkpt>
      <trkpt lat="48.02243" lon="7.19789">
        <ele>419.2</ele>
        <time>2021-07-02T07:23:04Z</time>
      </trkpt>
      <trkpt lat="48.02239" lon="7.19778">
        <ele>419.8</ele>
        <time>2021-07-02T07:23:07Z</time>
      </trkpt>
      <trkpt lat="48.02228" lon="7.19759">
        <ele>420.8</ele>
        <time>2021-07-02T07:23:13Z</time>
      </trkpt>
      <trkpt lat="48.02223" lon="7.1975">
        <ele>421.2</ele>
        <time>2021-07-02T07:23:15Z</time>
      </trkpt>
      <trkpt lat="48.0222" lon="7.19742">
        <ele>422</ele>
        <time>2021-07-02T07:23:19Z</time>
      </trkpt>
      <trkpt lat="48.02214" lon="7.19734">
        <ele>422.8</ele>
        <time>2021-07-02T07:23:22Z</time>
      </trkpt>
      <trkpt lat="48.02209" lon="7.19728">
        <ele>423.2</ele>
        <time>2021-07-02T07:23:24Z</time>
      </trkpt>
      <trkpt lat="48.02204" lon="7.1971">
        <ele>424.2</ele>
        <time>2021-07-02T07:23:29Z</time>
      </trkpt>
      <trkpt lat="48.02201" lon="7.19685">
        <ele>425.2</ele>
        <time>2021-07-02T07:23:35Z</time>
      </trkpt>
      <trkpt lat="48.02198" lon="7.19666">
        <ele>426.2</ele>
        <time>2021-07-02T07:23:40Z</time>
      </trkpt>
      <trkpt lat="48.02197" lon="7.19659">
        <ele>427</ele>
        <time>2021-07-02T07:23:42Z</time>
      </trkpt>
      <trkpt lat="48.02196" lon="7.19653">
        <ele>427.2</ele>
        <time>2021-07-02T07:23:44Z</time>
      </trkpt>
      <trkpt lat="48.02192" lon="7.19644">
        <ele>428</ele>
        <time>2021-07-02T07:23:47Z</time>
      </trkpt>
      <trkpt lat="48.0219" lon="7.19639">
        <ele>428</ele>
        <time>2021-07-02T07:23:48Z</time>
      </trkpt>
      <trkpt lat="48.02184" lon="7.19632">
        <ele>428.4</ele>
        <time>2021-07-02T07:23:50Z</time>
      </trkpt>
      <trkpt lat="48.02172" lon="7.19619">
        <ele>429.4</ele>
        <time>2021-07-02T07:23:54Z</time>
      </trkpt>
      <trkpt lat="48.0217" lon="7.19615">
        <ele>429.8</ele>
        <time>2021-07-02T07:23:55Z</time>
      </trkpt>
      <trkpt lat="48.02163" lon="7.19602">
        <ele>431</ele>
        <time>2021-07-02T07:24:01Z</time>
      </trkpt>
      <trkpt lat="48.02152" lon="7.19588">
        <ele>432</ele>
        <time>2021-07-02T07:24:06Z</time>
      </trkpt>
      <trkpt lat="48.02148" lon="7.19586">
        <ele>432.2</ele>
        <time>2021-07-02T07:24:07Z</time>
      </trkpt>
      <trkpt lat="48.0214" lon="7.19575">
        <ele>433.2</ele>
        <time>2021-07-02T07:24:11Z</time>
      </trkpt>
      <trkpt lat="48.02135" lon="7.1957">
        <ele>433.8</ele>
        <time>2021-07-02T07:24:13Z</time>
      </trkpt>
      <trkpt lat="48.02129" lon="7.19561">
        <ele>434.2</ele>
        <time>2021-07-02T07:24:16Z</time>
      </trkpt>
      <trkpt lat="48.02118" lon="7.19551">
        <ele>435</ele>
        <time>2021-07-02T07:24:20Z</time>
      </trkpt>
      <trkpt lat="48.02114" lon="7.19546">
        <ele>435.6</ele>
        <time>2021-07-02T07:24:22Z</time>
      </trkpt>
      <trkpt lat="48.02104" lon="7.19531">
        <ele>436.8</ele>
        <time>2021-07-02T07:24:27Z</time>
      </trkpt>
      <trkpt lat="48.02087" lon="7.1951">
        <ele>437.8</ele>
        <time>2021-07-02T07:24:33Z</time>
      </trkpt>
      <trkpt lat="48.02077" lon="7.19501">
        <ele>438.8</ele>
        <time>2021-07-02T07:24:37Z</time>
      </trkpt>
      <trkpt lat="48.02067" lon="7.19493">
        <ele>439.4</ele>
        <time>2021-07-02T07:24:40Z</time>
      </trkpt>
      <trkpt lat="48.02056" lon="7.19489">
        <ele>439.8</ele>
        <time>2021-07-02T07:24:43Z</time>
      </trkpt>
      <trkpt lat="48.02046" lon="7.19482">
        <ele>441</ele>
        <time>2021-07-02T07:24:47Z</time>
      </trkpt>
      <trkpt lat="48.02044" lon="7.1948">
        <ele>441.2</ele>
        <time>2021-07-02T07:24:48Z</time>
      </trkpt>
      <trkpt lat="48.02033" lon="7.19469">
        <ele>442.2</ele>
        <time>2021-07-02T07:24:53Z</time>
      </trkpt>
      <trkpt lat="48.02029" lon="7.19464">
        <ele>442.8</ele>
        <time>2021-07-02T07:24:55Z</time>
      </trkpt>
      <trkpt lat="48.02024" lon="7.19458">
        <ele>443.2</ele>
        <time>2021-07-02T07:24:58Z</time>
      </trkpt>
      <trkpt lat="48.02017" lon="7.19449">
        <ele>444</ele>
        <time>2021-07-02T07:25:02Z</time>
      </trkpt>
      <trkpt lat="48.02015" lon="7.19447">
        <ele>444.2</ele>
        <time>2021-07-02T07:25:03Z</time>
      </trkpt>
      <trkpt lat="48.02005" lon="7.19434">
        <ele>445.2</ele>
        <time>2021-07-02T07:25:08Z</time>
      </trkpt>
      <trkpt lat="48.02003" lon="7.19431">
        <ele>445.4</ele>
        <time>2021-07-02T07:25:09Z</time>
      </trkpt>
      <trkpt lat="48.01988" lon="7.19413">
        <ele>446.8</ele>
        <time>2021-07-02T07:25:15Z</time>
      </trkpt>
      <trkpt lat="48.01977" lon="7.19397">
        <ele>447.8</ele>
        <time>2021-07-02T07:25:20Z</time>
      </trkpt>
      <trkpt lat="48.01976" lon="7.19393">
        <ele>448</ele>
        <time>2021-07-02T07:25:21Z</time>
      </trkpt>
      <trkpt lat="48.01973" lon="7.19387">
        <ele>448.4</ele>
        <time>2021-07-02T07:25:23Z</time>
      </trkpt>
      <trkpt lat="48.01967" lon="7.19382">
        <ele>448.8</ele>
        <time>2021-07-02T07:25:25Z</time>
      </trkpt>
      <trkpt lat="48.01961" lon="7.19375">
        <ele>449.4</ele>
        <time>2021-07-02T07:25:27Z</time>
      </trkpt>
      <trkpt lat="48.01954" lon="7.19362">
        <ele>449.8</ele>
        <time>2021-07-02T07:25:30Z</time>
      </trkpt>
      <trkpt lat="48.01946" lon="7.19345">
        <ele>451</ele>
        <time>2021-07-02T07:25:35Z</time>
      </trkpt>
      <trkpt lat="48.01934" lon="7.1933">
        <ele>452.4</ele>
        <time>2021-07-02T07:25:40Z</time>
      </trkpt>
      <trkpt lat="48.0193" lon="7.19325">
        <ele>452.8</ele>
        <time>2021-07-02T07:25:42Z</time>
      </trkpt>
      <trkpt lat="48.01922" lon="7.19315">
        <ele>453.6</ele>
        <time>2021-07-02T07:25:46Z</time>
      </trkpt>
      <trkpt lat="48.01914" lon="7.19306">
        <ele>454.4</ele>
        <time>2021-07-02T07:25:50Z</time>
      </trkpt>
      <trkpt lat="48.01912" lon="7.19303">
        <ele>454.6</ele>
        <time>2021-07-02T07:25:51Z</time>
      </trkpt>
      <trkpt lat="48.01896" lon="7.1929">
        <ele>455.8</ele>
        <time>2021-07-02T07:25:57Z</time>
      </trkpt>
      <trkpt lat="48.01894" lon="7.19288">
        <ele>456</ele>
        <time>2021-07-02T07:25:58Z</time>
      </trkpt>
      <trkpt lat="48.01885" lon="7.19281">
        <ele>456.8</ele>
        <time>2021-07-02T07:26:02Z</time>
      </trkpt>
      <trkpt lat="48.01873" lon="7.19274">
        <ele>457.8</ele>
        <time>2021-07-02T07:26:06Z</time>
      </trkpt>
      <trkpt lat="48.01867" lon="7.19271">
        <ele>458.2</ele>
        <time>2021-07-02T07:26:08Z</time>
      </trkpt>
      <trkpt lat="48.01851" lon="7.19268">
        <ele>459.4</ele>
        <time>2021-07-02T07:26:13Z</time>
      </trkpt>
      <trkpt lat="48.01847" lon="7.19268">
        <ele>459.4</ele>
        <time>2021-07-02T07:26:14Z</time>
      </trkpt>
      <trkpt lat="48.01839" lon="7.19271">
        <ele>460.4</ele>
        <time>2021-07-02T07:26:17Z</time>
      </trkpt>
      <trkpt lat="48.01827" lon="7.19276">
        <ele>461.2</ele>
        <time>2021-07-02T07:26:21Z</time>
      </trkpt>
      <trkpt lat="48.01824" lon="7.19278">
        <ele>461.4</ele>
        <time>2021-07-02T07:26:22Z</time>
      </trkpt>
      <trkpt lat="48.01811" lon="7.1929">
        <ele>462.4</ele>
        <time>2021-07-02T07:26:27Z</time>
      </trkpt>
      <trkpt lat="48.01809" lon="7.19292">
        <ele>462.6</ele>
        <time>2021-07-02T07:26:28Z</time>
      </trkpt>
      <trkpt lat="48.01801" lon="7.19299">
        <ele>463.6</ele>
        <time>2021-07-02T07:26:31Z</time>
      </trkpt>
      <trkpt lat="48.01796" lon="7.19304">
        <ele>464</ele>
        <time>2021-07-02T07:26:33Z</time>
      </trkpt>
      <trkpt lat="48.01781" lon="7.19316">
        <ele>465</ele>
        <time>2021-07-02T07:26:39Z</time>
      </trkpt>
      <trkpt lat="48.01778" lon="7.19318">
        <ele>465.4</ele>
        <time>2021-07-02T07:26:40Z</time>
      </trkpt>
      <trkpt lat="48.01767" lon="7.19325">
        <ele>466.4</ele>
        <time>2021-07-02T07:26:44Z</time>
      </trkpt>
      <trkpt lat="48.01764" lon="7.19325">
        <ele>466.6</ele>
        <time>2021-07-02T07:26:45Z</time>
      </trkpt>
      <trkpt lat="48.01753" lon="7.19329">
        <ele>467.4</ele>
        <time>2021-07-02T07:26:49Z</time>
      </trkpt>
      <trkpt lat="48.0175" lon="7.1933">
        <ele>467.8</ele>
        <time>2021-07-02T07:26:50Z</time>
      </trkpt>
      <trkpt lat="48.01742" lon="7.19338">
        <ele>468.8</ele>
        <time>2021-07-02T07:26:53Z</time>
      </trkpt>
      <trkpt lat="48.01735" lon="7.19345">
        <ele>469.2</ele>
        <time>2021-07-02T07:26:56Z</time>
      </trkpt>
      <trkpt lat="48.01731" lon="7.19352">
        <ele>469.8</ele>
        <time>2021-07-02T07:26:58Z</time>
      </trkpt>
      <trkpt lat="48.01726" lon="7.19364">
        <ele>470.4</ele>
        <time>2021-07-02T07:27:01Z</time>
      </trkpt>
      <trkpt lat="48.01721" lon="7.19376">
        <ele>471.2</ele>
        <time>2021-07-02T07:27:04Z</time>
      </trkpt>
      <trkpt lat="48.01714" lon="7.19389">
        <ele>471.6</ele>
        <time>2021-07-02T07:27:07Z</time>
      </trkpt>
      <trkpt lat="48.01709" lon="7.194">
        <ele>472.2</ele>
        <time>2021-07-02T07:27:10Z</time>
      </trkpt>
      <trkpt lat="48.017" lon="7.19421">
        <ele>473.4</ele>
        <time>2021-07-02T07:27:16Z</time>
      </trkpt>
      <trkpt lat="48.01695" lon="7.19436">
        <ele>474.4</ele>
        <time>2021-07-02T07:27:20Z</time>
      </trkpt>
      <trkpt lat="48.01687" lon="7.19456">
        <ele>475.4</ele>
        <time>2021-07-02T07:27:25Z</time>
      </trkpt>
      <trkpt lat="48.01685" lon="7.1946">
        <ele>475.6</ele>
        <time>2021-07-02T07:27:26Z</time>
      </trkpt>
      <trkpt lat="48.01676" lon="7.19475">
        <ele>476.2</ele>
        <time>2021-07-02T07:27:32Z</time>
      </trkpt>
      <trkpt lat="48.01674" lon="7.19477">
        <ele>476.8</ele>
        <time>2021-07-02T07:27:33Z</time>
      </trkpt>
      <trkpt lat="48.01658" lon="7.19483">
        <ele>477.8</ele>
        <time>2021-07-02T07:27:38Z</time>
      </trkpt>
      <trkpt lat="48.01646" lon="7.19487">
        <ele>479</ele>
        <time>2021-07-02T07:27:42Z</time>
      </trkpt>
      <trkpt lat="48.01643" lon="7.19488">
        <ele>479.2</ele>
        <time>2021-07-02T07:27:43Z</time>
      </trkpt>
      <trkpt lat="48.01632" lon="7.19491">
        <ele>480</ele>
        <time>2021-07-02T07:27:47Z</time>
      </trkpt>
      <trkpt lat="48.01622" lon="7.19494">
        <ele>481</ele>
        <time>2021-07-02T07:27:50Z</time>
      </trkpt>
      <trkpt lat="48.0162" lon="7.19494">
        <ele>481.2</ele>
        <time>2021-07-02T07:27:51Z</time>
      </trkpt>
      <trkpt lat="48.0161" lon="7.195">
        <ele>481.6</ele>
        <time>2021-07-02T07:27:55Z</time>
      </trkpt>
      <trkpt lat="48.01604" lon="7.19504">
        <ele>482.2</ele>
        <time>2021-07-02T07:27:57Z</time>
      </trkpt>
      <trkpt lat="48.01595" lon="7.1951">
        <ele>482.6</ele>
        <time>2021-07-02T07:28:00Z</time>
      </trkpt>
      <trkpt lat="48.0159" lon="7.19512">
        <ele>483.2</ele>
        <time>2021-07-02T07:28:02Z</time>
      </trkpt>
      <trkpt lat="48.01585" lon="7.19517">
        <ele>483.6</ele>
        <time>2021-07-02T07:28:04Z</time>
      </trkpt>
      <trkpt lat="48.01582" lon="7.19521">
        <ele>483.8</ele>
        <time>2021-07-02T07:28:05Z</time>
      </trkpt>
      <trkpt lat="48.01578" lon="7.19533">
        <ele>484.4</ele>
        <time>2021-07-02T07:28:08Z</time>
      </trkpt>
      <trkpt lat="48.01573" lon="7.19543">
        <ele>485.4</ele>
        <time>2021-07-02T07:28:11Z</time>
      </trkpt>
      <trkpt lat="48.01571" lon="7.19547">
        <ele>485.8</ele>
        <time>2021-07-02T07:28:12Z</time>
      </trkpt>
      <trkpt lat="48.01562" lon="7.19562">
        <ele>486.6</ele>
        <time>2021-07-02T07:28:16Z</time>
      </trkpt>
      <trkpt lat="48.01562" lon="7.19565">
        <ele>486.8</ele>
        <time>2021-07-02T07:28:17Z</time>
      </trkpt>
      <trkpt lat="48.01557" lon="7.19569">
        <ele>487.2</ele>
        <time>2021-07-02T07:28:19Z</time>
      </trkpt>
      <trkpt lat="48.0154" lon="7.19574">
        <ele>488.2</ele>
        <time>2021-07-02T07:28:24Z</time>
      </trkpt>
      <trkpt lat="48.01537" lon="7.19575">
        <ele>488.2</ele>
        <time>2021-07-02T07:28:25Z</time>
      </trkpt>
      <trkpt lat="48.01531" lon="7.19576">
        <ele>488.6</ele>
        <time>2021-07-02T07:28:27Z</time>
      </trkpt>
      <trkpt lat="48.01523" lon="7.19577">
        <ele>489.4</ele>
        <time>2021-07-02T07:28:30Z</time>
      </trkpt>
      <trkpt lat="48.0151" lon="7.19579">
        <ele>490.8</ele>
        <time>2021-07-02T07:28:35Z</time>
      </trkpt>
      <trkpt lat="48.01508" lon="7.1958">
        <ele>491</ele>
        <time>2021-07-02T07:28:36Z</time>
      </trkpt>
      <trkpt lat="48.01498" lon="7.19584">
        <ele>491.8</ele>
        <time>2021-07-02T07:28:40Z</time>
      </trkpt>
      <trkpt lat="48.0149" lon="7.19585">
        <ele>492.6</ele>
        <time>2021-07-02T07:28:43Z</time>
      </trkpt>
      <trkpt lat="48.01486" lon="7.19588">
        <ele>493</ele>
        <time>2021-07-02T07:28:45Z</time>
      </trkpt>
      <trkpt lat="48.01476" lon="7.1959">
        <ele>493.6</ele>
        <time>2021-07-02T07:28:49Z</time>
      </trkpt>
      <trkpt lat="48.01472" lon="7.1959">
        <ele>493.8</ele>
        <time>2021-07-02T07:28:50Z</time>
      </trkpt>
      <trkpt lat="48.01465" lon="7.19591">
        <ele>494</ele>
        <time>2021-07-02T07:28:52Z</time>
      </trkpt>
      <trkpt lat="48.0146" lon="7.19592">
        <ele>494.4</ele>
        <time>2021-07-02T07:28:54Z</time>
      </trkpt>
      <trkpt lat="48.0145" lon="7.19595">
        <ele>495.2</ele>
        <time>2021-07-02T07:28:57Z</time>
      </trkpt>
      <trkpt lat="48.01442" lon="7.19601">
        <ele>496</ele>
        <time>2021-07-02T07:29:00Z</time>
      </trkpt>
      <trkpt lat="48.01436" lon="7.19605">
        <ele>496.4</ele>
        <time>2021-07-02T07:29:02Z</time>
      </trkpt>
      <trkpt lat="48.01426" lon="7.19607">
        <ele>497</ele>
        <time>2021-07-02T07:29:05Z</time>
      </trkpt>
      <trkpt lat="48.01416" lon="7.19613">
        <ele>497.2</ele>
        <time>2021-07-02T07:29:08Z</time>
      </trkpt>
      <trkpt lat="48.01413" lon="7.19615">
        <ele>497.4</ele>
        <time>2021-07-02T07:29:09Z</time>
      </trkpt>
      <trkpt lat="48.01404" lon="7.19625">
        <ele>498.4</ele>
        <time>2021-07-02T07:29:13Z</time>
      </trkpt>
      <trkpt lat="48.01401" lon="7.19632">
        <ele>498.8</ele>
        <time>2021-07-02T07:29:15Z</time>
      </trkpt>
      <trkpt lat="48.01393" lon="7.19646">
        <ele>499.6</ele>
        <time>2021-07-02T07:29:19Z</time>
      </trkpt>
      <trkpt lat="48.01386" lon="7.1966">
        <ele>500.8</ele>
        <time>2021-07-02T07:29:23Z</time>
      </trkpt>
      <trkpt lat="48.01379" lon="7.19679">
        <ele>501.8</ele>
        <time>2021-07-02T07:29:28Z</time>
      </trkpt>
      <trkpt lat="48.01375" lon="7.1969">
        <ele>502.4</ele>
        <time>2021-07-02T07:29:31Z</time>
      </trkpt>
      <trkpt lat="48.01372" lon="7.19697">
        <ele>502.8</ele>
        <time>2021-07-02T07:29:33Z</time>
      </trkpt>
      <trkpt lat="48.01365" lon="7.19712">
        <ele>503.8</ele>
        <time>2021-07-02T07:29:38Z</time>
      </trkpt>
      <trkpt lat="48.01363" lon="7.19715">
        <ele>504</ele>
        <time>2021-07-02T07:29:39Z</time>
      </trkpt>
      <trkpt lat="48.01353" lon="7.19726">
        <ele>505</ele>
        <time>2021-07-02T07:29:43Z</time>
      </trkpt>
      <trkpt lat="48.01348" lon="7.19729">
        <ele>505.4</ele>
        <time>2021-07-02T07:29:45Z</time>
      </trkpt>
      <trkpt lat="48.01338" lon="7.19731">
        <ele>506.2</ele>
        <time>2021-07-02T07:29:49Z</time>
      </trkpt>
      <trkpt lat="48.01336" lon="7.19731">
        <ele>506.4</ele>
        <time>2021-07-02T07:29:50Z</time>
      </trkpt>
      <trkpt lat="48.01327" lon="7.19723">
        <ele>507.4</ele>
        <time>2021-07-02T07:29:55Z</time>
      </trkpt>
      <trkpt lat="48.01325" lon="7.19713">
        <ele>508.6</ele>
        <time>2021-07-02T07:29:59Z</time>
      </trkpt>
      <trkpt lat="48.01324" lon="7.19708">
        <ele>509.4</ele>
        <time>2021-07-02T07:30:01Z</time>
      </trkpt>
      <trkpt lat="48.01323" lon="7.19704">
        <ele>509.8</ele>
        <time>2021-07-02T07:30:03Z</time>
      </trkpt>
      <trkpt lat="48.01318" lon="7.19693">
        <ele>510.8</ele>
        <time>2021-07-02T07:30:07Z</time>
      </trkpt>
      <trkpt lat="48.01316" lon="7.19691">
        <ele>510.8</ele>
        <time>2021-07-02T07:30:08Z</time>
      </trkpt>
      <trkpt lat="48.01306" lon="7.1968">
        <ele>512</ele>
        <time>2021-07-02T07:30:12Z</time>
      </trkpt>
      <trkpt lat="48.01301" lon="7.19678">
        <ele>512.2</ele>
        <time>2021-07-02T07:30:14Z</time>
      </trkpt>
      <trkpt lat="48.01292" lon="7.19676">
        <ele>513</ele>
        <time>2021-07-02T07:30:17Z</time>
      </trkpt>
      <trkpt lat="48.01284" lon="7.19675">
        <ele>513.6</ele>
        <time>2021-07-02T07:30:20Z</time>
      </trkpt>
      <trkpt lat="48.01274" lon="7.19674">
        <ele>514.2</ele>
        <time>2021-07-02T07:30:23Z</time>
      </trkpt>
      <trkpt lat="48.01264" lon="7.19672">
        <ele>515.4</ele>
        <time>2021-07-02T07:30:27Z</time>
      </trkpt>
      <trkpt lat="48.0125" lon="7.19669">
        <ele>516.4</ele>
        <time>2021-07-02T07:30:32Z</time>
      </trkpt>
      <trkpt lat="48.01245" lon="7.19669">
        <ele>516.8</ele>
        <time>2021-07-02T07:30:34Z</time>
      </trkpt>
      <trkpt lat="48.01234" lon="7.19666">
        <ele>517.6</ele>
        <time>2021-07-02T07:30:38Z</time>
      </trkpt>
      <trkpt lat="48.01215" lon="7.19659">
        <ele>518.8</ele>
        <time>2021-07-02T07:30:45Z</time>
      </trkpt>
      <trkpt lat="48.01199" lon="7.19654">
        <ele>520</ele>
        <time>2021-07-02T07:30:51Z</time>
      </trkpt>
      <trkpt lat="48.01193" lon="7.19653">
        <ele>520.2</ele>
        <time>2021-07-02T07:30:53Z</time>
      </trkpt>
      <trkpt lat="48.01185" lon="7.19649">
        <ele>521.2</ele>
        <time>2021-07-02T07:30:56Z</time>
      </trkpt>
      <trkpt lat="48.01178" lon="7.19645">
        <ele>521.8</ele>
        <time>2021-07-02T07:30:59Z</time>
      </trkpt>
      <trkpt lat="48.01174" lon="7.19643">
        <ele>522.2</ele>
        <time>2021-07-02T07:31:01Z</time>
      </trkpt>
      <trkpt lat="48.01161" lon="7.19636">
        <ele>523.2</ele>
        <time>2021-07-02T07:31:07Z</time>
      </trkpt>
      <trkpt lat="48.01159" lon="7.19634">
        <ele>523.4</ele>
        <time>2021-07-02T07:31:08Z</time>
      </trkpt>
      <trkpt lat="48.01151" lon="7.19628">
        <ele>524.4</ele>
        <time>2021-07-02T07:31:12Z</time>
      </trkpt>
      <trkpt lat="48.01147" lon="7.19625">
        <ele>524.8</ele>
        <time>2021-07-02T07:31:14Z</time>
      </trkpt>
      <trkpt lat="48.01145" lon="7.19618">
        <ele>525</ele>
        <time>2021-07-02T07:31:16Z</time>
      </trkpt>
      <trkpt lat="48.01145" lon="7.19615">
        <ele>525.4</ele>
        <time>2021-07-02T07:31:17Z</time>
      </trkpt>
      <trkpt lat="48.01142" lon="7.19608">
        <ele>525.6</ele>
        <time>2021-07-02T07:31:19Z</time>
      </trkpt>
      <trkpt lat="48.01143" lon="7.19594">
        <ele>526.4</ele>
        <time>2021-07-02T07:31:22Z</time>
      </trkpt>
      <trkpt lat="48.01145" lon="7.19587">
        <ele>527</ele>
        <time>2021-07-02T07:31:24Z</time>
      </trkpt>
      <trkpt lat="48.01147" lon="7.19582">
        <ele>527.4</ele>
        <time>2021-07-02T07:31:26Z</time>
      </trkpt>
      <trkpt lat="48.01153" lon="7.19574">
        <ele>528.2</ele>
        <time>2021-07-02T07:31:30Z</time>
      </trkpt>
      <trkpt lat="48.01163" lon="7.19559">
        <ele>529.4</ele>
        <time>2021-07-02T07:31:35Z</time>
      </trkpt>
      <trkpt lat="48.01171" lon="7.19553">
        <ele>529.8</ele>
        <time>2021-07-02T07:31:38Z</time>
      </trkpt>
      <trkpt lat="48.01177" lon="7.19549">
        <ele>530.6</ele>
        <time>2021-07-02T07:31:40Z</time>
      </trkpt>
      <trkpt lat="48.01189" lon="7.19539">
        <ele>531.4</ele>
        <time>2021-07-02T07:31:45Z</time>
      </trkpt>
      <trkpt lat="48.01192" lon="7.19537">
        <ele>531.8</ele>
        <time>2021-07-02T07:31:46Z</time>
      </trkpt>
      <trkpt lat="48.01206" lon="7.19526">
        <ele>532.8</ele>
        <time>2021-07-02T07:31:52Z</time>
      </trkpt>
      <trkpt lat="48.0121" lon="7.19524">
        <ele>533.2</ele>
        <time>2021-07-02T07:31:54Z</time>
      </trkpt>
      <trkpt lat="48.01217" lon="7.19519">
        <ele>534</ele>
        <time>2021-07-02T07:31:57Z</time>
      </trkpt>
      <trkpt lat="48.01226" lon="7.19513">
        <ele>534.6</ele>
        <time>2021-07-02T07:32:01Z</time>
      </trkpt>
      <trkpt lat="48.01229" lon="7.19511">
        <ele>535</ele>
        <time>2021-07-02T07:32:02Z</time>
      </trkpt>
      <trkpt lat="48.01231" lon="7.19509">
        <ele>535.2</ele>
        <time>2021-07-02T07:32:03Z</time>
      </trkpt>
      <trkpt lat="48.01235" lon="7.19504">
        <ele>535.6</ele>
        <time>2021-07-02T07:32:05Z</time>
      </trkpt>
      <trkpt lat="48.01239" lon="7.19497">
        <ele>536.2</ele>
        <time>2021-07-02T07:32:08Z</time>
      </trkpt>
      <trkpt lat="48.0124" lon="7.19495">
        <ele>536.4</ele>
        <time>2021-07-02T07:32:09Z</time>
      </trkpt>
      <trkpt lat="48.01244" lon="7.19486">
        <ele>537.2</ele>
        <time>2021-07-02T07:32:12Z</time>
      </trkpt>
      <trkpt lat="48.01251" lon="7.19479">
        <ele>538.2</ele>
        <time>2021-07-02T07:32:16Z</time>
      </trkpt>
      <trkpt lat="48.01252" lon="7.19478">
        <ele>538.4</ele>
        <time>2021-07-02T07:32:17Z</time>
      </trkpt>
      <trkpt lat="48.01258" lon="7.1947">
        <ele>538.6</ele>
        <time>2021-07-02T07:32:20Z</time>
      </trkpt>
      <trkpt lat="48.01265" lon="7.19464">
        <ele>539</ele>
        <time>2021-07-02T07:32:22Z</time>
      </trkpt>
      <trkpt lat="48.01267" lon="7.19462">
        <ele>539.2</ele>
        <time>2021-07-02T07:32:23Z</time>
      </trkpt>
      <trkpt lat="48.01276" lon="7.19455">
        <ele>540.2</ele>
        <time>2021-07-02T07:32:27Z</time>
      </trkpt>
      <trkpt lat="48.01278" lon="7.19451">
        <ele>540.4</ele>
        <time>2021-07-02T07:32:28Z</time>
      </trkpt>
      <trkpt lat="48.013" lon="7.19433">
        <ele>541.2</ele>
        <time>2021-07-02T07:32:33Z</time>
      </trkpt>
      <trkpt lat="48.01303" lon="7.19429">
        <ele>541.6</ele>
        <time>2021-07-02T07:32:35Z</time>
      </trkpt>
      <trkpt lat="48.01305" lon="7.19424">
        <ele>542.4</ele>
        <time>2021-07-02T07:32:37Z</time>
      </trkpt>
      <trkpt lat="48.01309" lon="7.19408">
        <ele>543.4</ele>
        <time>2021-07-02T07:32:41Z</time>
      </trkpt>
      <trkpt lat="48.01318" lon="7.19391">
        <ele>544.6</ele>
        <time>2021-07-02T07:32:47Z</time>
      </trkpt>
      <trkpt lat="48.0132" lon="7.19389">
        <ele>544.8</ele>
        <time>2021-07-02T07:32:48Z</time>
      </trkpt>
      <trkpt lat="48.01322" lon="7.19389">
        <ele>544.8</ele>
        <time>2021-07-02T07:32:49Z</time>
      </trkpt>
      <trkpt lat="48.01331" lon="7.19388">
        <ele>545</ele>
        <time>2021-07-02T07:32:52Z</time>
      </trkpt>
      <trkpt lat="48.01336" lon="7.19384">
        <ele>545.4</ele>
        <time>2021-07-02T07:32:54Z</time>
      </trkpt>
      <trkpt lat="48.01346" lon="7.1938">
        <ele>546.4</ele>
        <time>2021-07-02T07:32:58Z</time>
      </trkpt>
      <trkpt lat="48.01348" lon="7.19379">
        <ele>546.6</ele>
        <time>2021-07-02T07:32:59Z</time>
      </trkpt>
      <trkpt lat="48.01353" lon="7.19375">
        <ele>547.2</ele>
        <time>2021-07-02T07:33:01Z</time>
      </trkpt>
      <trkpt lat="48.01358" lon="7.19372">
        <ele>547.8</ele>
        <time>2021-07-02T07:33:03Z</time>
      </trkpt>
      <trkpt lat="48.01375" lon="7.19361">
        <ele>548.8</ele>
        <time>2021-07-02T07:33:09Z</time>
      </trkpt>
      <trkpt lat="48.01377" lon="7.19359">
        <ele>549</ele>
        <time>2021-07-02T07:33:10Z</time>
      </trkpt>
      <trkpt lat="48.01388" lon="7.19347">
        <ele>550</ele>
        <time>2021-07-02T07:33:14Z</time>
      </trkpt>
      <trkpt lat="48.01393" lon="7.19342">
        <ele>550.4</ele>
        <time>2021-07-02T07:33:16Z</time>
      </trkpt>
      <trkpt lat="48.014" lon="7.19332">
        <ele>551</ele>
        <time>2021-07-02T07:33:18Z</time>
      </trkpt>
      <trkpt lat="48.01403" lon="7.19326">
        <ele>551.4</ele>
        <time>2021-07-02T07:33:20Z</time>
      </trkpt>
      <trkpt lat="48.01404" lon="7.19323">
        <ele>551.6</ele>
        <time>2021-07-02T07:33:21Z</time>
      </trkpt>
      <trkpt lat="48.01406" lon="7.19319">
        <ele>552.2</ele>
        <time>2021-07-02T07:33:23Z</time>
      </trkpt>
      <trkpt lat="48.01413" lon="7.19303">
        <ele>553</ele>
        <time>2021-07-02T07:33:27Z</time>
      </trkpt>
      <trkpt lat="48.01413" lon="7.19299">
        <ele>553.2</ele>
        <time>2021-07-02T07:33:28Z</time>
      </trkpt>
      <trkpt lat="48.01414" lon="7.1928">
        <ele>554.2</ele>
        <time>2021-07-02T07:33:33Z</time>
      </trkpt>
      <trkpt lat="48.01414" lon="7.19261">
        <ele>555.6</ele>
        <time>2021-07-02T07:33:38Z</time>
      </trkpt>
      <trkpt lat="48.01414" lon="7.19251">
        <ele>556</ele>
        <time>2021-07-02T07:33:40Z</time>
      </trkpt>
      <trkpt lat="48.01418" lon="7.19236">
        <ele>556.4</ele>
        <time>2021-07-02T07:33:44Z</time>
      </trkpt>
      <trkpt lat="48.01421" lon="7.19226">
        <ele>557</ele>
        <time>2021-07-02T07:33:47Z</time>
      </trkpt>
      <trkpt lat="48.01424" lon="7.1922">
        <ele>557.6</ele>
        <time>2021-07-02T07:33:49Z</time>
      </trkpt>
      <trkpt lat="48.01428" lon="7.19206">
        <ele>558.4</ele>
        <time>2021-07-02T07:33:53Z</time>
      </trkpt>
      <trkpt lat="48.0143" lon="7.19203">
        <ele>558.4</ele>
        <time>2021-07-02T07:33:54Z</time>
      </trkpt>
      <trkpt lat="48.01432" lon="7.19201">
        <ele>558.8</ele>
        <time>2021-07-02T07:33:55Z</time>
      </trkpt>
      <trkpt lat="48.01433" lon="7.19199">
        <ele>559</ele>
        <time>2021-07-02T07:33:56Z</time>
      </trkpt>
      <trkpt lat="48.01435" lon="7.19196">
        <ele>559</ele>
        <time>2021-07-02T07:33:57Z</time>
      </trkpt>
      <trkpt lat="48.01439" lon="7.19189">
        <ele>559.8</ele>
        <time>2021-07-02T07:34:00Z</time>
      </trkpt>
      <trkpt lat="48.01442" lon="7.19181">
        <ele>560.2</ele>
        <time>2021-07-02T07:34:02Z</time>
      </trkpt>
      <trkpt lat="48.01443" lon="7.19175">
        <ele>560.8</ele>
        <time>2021-07-02T07:34:04Z</time>
      </trkpt>
      <trkpt lat="48.01443" lon="7.19169">
        <ele>561</ele>
        <time>2021-07-02T07:34:06Z</time>
      </trkpt>
      <trkpt lat="48.01442" lon="7.19167">
        <ele>561.2</ele>
        <time>2021-07-02T07:34:07Z</time>
      </trkpt>
      <trkpt lat="48.01442" lon="7.19157">
        <ele>562.2</ele>
        <time>2021-07-02T07:34:10Z</time>
      </trkpt>
      <trkpt lat="48.01439" lon="7.19147">
        <ele>562.8</ele>
        <time>2021-07-02T07:34:13Z</time>
      </trkpt>
      <trkpt lat="48.01437" lon="7.19141">
        <ele>563.2</ele>
        <time>2021-07-02T07:34:15Z</time>
      </trkpt>
      <trkpt lat="48.01435" lon="7.19135">
        <ele>563.8</ele>
        <time>2021-07-02T07:34:17Z</time>
      </trkpt>
      <trkpt lat="48.01432" lon="7.19129">
        <ele>564.2</ele>
        <time>2021-07-02T07:34:19Z</time>
      </trkpt>
      <trkpt lat="48.01423" lon="7.19113">
        <ele>565.4</ele>
        <time>2021-07-02T07:34:24Z</time>
      </trkpt>
      <trkpt lat="48.0142" lon="7.19109">
        <ele>566</ele>
        <time>2021-07-02T07:34:26Z</time>
      </trkpt>
      <trkpt lat="48.01415" lon="7.19103">
        <ele>566.6</ele>
        <time>2021-07-02T07:34:29Z</time>
      </trkpt>
      <trkpt lat="48.01407" lon="7.19094">
        <ele>567.4</ele>
        <time>2021-07-02T07:34:33Z</time>
      </trkpt>
      <trkpt lat="48.01405" lon="7.19094">
        <ele>567.6</ele>
        <time>2021-07-02T07:34:34Z</time>
      </trkpt>
      <trkpt lat="48.01392" lon="7.19081">
        <ele>568.6</ele>
        <time>2021-07-02T07:34:39Z</time>
      </trkpt>
      <trkpt lat="48.01389" lon="7.19079">
        <ele>568.8</ele>
        <time>2021-07-02T07:34:40Z</time>
      </trkpt>
      <trkpt lat="48.01375" lon="7.19075">
        <ele>569.6</ele>
        <time>2021-07-02T07:34:45Z</time>
      </trkpt>
      <trkpt lat="48.01373" lon="7.19074">
        <ele>569.8</ele>
        <time>2021-07-02T07:34:46Z</time>
      </trkpt>
      <trkpt lat="48.01362" lon="7.1907">
        <ele>570.4</ele>
        <time>2021-07-02T07:34:50Z</time>
      </trkpt>
      <trkpt lat="48.01359" lon="7.19067">
        <ele>570.8</ele>
        <time>2021-07-02T07:34:51Z</time>
      </trkpt>
      <trkpt lat="48.01352" lon="7.19062">
        <ele>572</ele>
        <time>2021-07-02T07:34:55Z</time>
      </trkpt>
      <trkpt lat="48.01345" lon="7.19059">
        <ele>572.4</ele>
        <time>2021-07-02T07:34:58Z</time>
      </trkpt>
      <trkpt lat="48.01338" lon="7.19057">
        <ele>573</ele>
        <time>2021-07-02T07:35:02Z</time>
      </trkpt>
      <trkpt lat="48.01334" lon="7.19053">
        <ele>573.4</ele>
        <time>2021-07-02T07:35:04Z</time>
      </trkpt>
      <trkpt lat="48.01327" lon="7.19048">
        <ele>574</ele>
        <time>2021-07-02T07:35:07Z</time>
      </trkpt>
      <trkpt lat="48.01321" lon="7.19041">
        <ele>575</ele>
        <time>2021-07-02T07:35:10Z</time>
      </trkpt>
      <trkpt lat="48.01319" lon="7.19038">
        <ele>575.2</ele>
        <time>2021-07-02T07:35:11Z</time>
      </trkpt>
      <trkpt lat="48.01309" lon="7.19024">
        <ele>576</ele>
        <time>2021-07-02T07:35:16Z</time>
      </trkpt>
      <trkpt lat="48.01299" lon="7.1901">
        <ele>577</ele>
        <time>2021-07-02T07:35:21Z</time>
      </trkpt>
      <trkpt lat="48.01291" lon="7.18996">
        <ele>578</ele>
        <time>2021-07-02T07:35:26Z</time>
      </trkpt>
      <trkpt lat="48.0129" lon="7.18991">
        <ele>578.2</ele>
        <time>2021-07-02T07:35:27Z</time>
      </trkpt>
      <trkpt lat="48.01286" lon="7.18976">
        <ele>579.2</ele>
        <time>2021-07-02T07:35:30Z</time>
      </trkpt>
      <trkpt lat="48.01286" lon="7.18964">
        <ele>579.6</ele>
        <time>2021-07-02T07:35:33Z</time>
      </trkpt>
      <trkpt lat="48.01286" lon="7.1896">
        <ele>579.8</ele>
        <time>2021-07-02T07:35:34Z</time>
      </trkpt>
      <trkpt lat="48.01287" lon="7.1895">
        <ele>580.2</ele>
        <time>2021-07-02T07:35:36Z</time>
      </trkpt>
      <trkpt lat="48.01286" lon="7.18944">
        <ele>580.4</ele>
        <time>2021-07-02T07:35:37Z</time>
      </trkpt>
      <trkpt lat="48.01289" lon="7.18937">
        <ele>580.6</ele>
        <time>2021-07-02T07:35:38Z</time>
      </trkpt>
      <trkpt lat="48.0129" lon="7.18924">
        <ele>581.4</ele>
        <time>2021-07-02T07:35:41Z</time>
      </trkpt>
      <trkpt lat="48.01287" lon="7.18903">
        <ele>582.2</ele>
        <time>2021-07-02T07:35:47Z</time>
      </trkpt>
      <trkpt lat="48.01286" lon="7.18895">
        <ele>582.8</ele>
        <time>2021-07-02T07:35:49Z</time>
      </trkpt>
      <trkpt lat="48.01284" lon="7.18884">
        <ele>583.4</ele>
        <time>2021-07-02T07:35:52Z</time>
      </trkpt>
      <trkpt lat="48.01278" lon="7.18867">
        <ele>584.4</ele>
        <time>2021-07-02T07:35:57Z</time>
      </trkpt>
      <trkpt lat="48.01276" lon="7.18863">
        <ele>584.6</ele>
        <time>2021-07-02T07:35:58Z</time>
      </trkpt>
      <trkpt lat="48.01266" lon="7.18845">
        <ele>585.6</ele>
        <time>2021-07-02T07:36:04Z</time>
      </trkpt>
      <trkpt lat="48.01264" lon="7.18843">
        <ele>586</ele>
        <time>2021-07-02T07:36:05Z</time>
      </trkpt>
      <trkpt lat="48.01255" lon="7.18837">
        <ele>586.8</ele>
        <time>2021-07-02T07:36:09Z</time>
      </trkpt>
      <trkpt lat="48.01253" lon="7.18836">
        <ele>587.4</ele>
        <time>2021-07-02T07:36:10Z</time>
      </trkpt>
      <trkpt lat="48.01239" lon="7.18829">
        <ele>588.4</ele>
        <time>2021-07-02T07:36:16Z</time>
      </trkpt>
      <trkpt lat="48.01225" lon="7.18821">
        <ele>589.6</ele>
        <time>2021-07-02T07:36:22Z</time>
      </trkpt>
      <trkpt lat="48.0121" lon="7.18816">
        <ele>591</ele>
        <time>2021-07-02T07:36:27Z</time>
      </trkpt>
      <trkpt lat="48.01193" lon="7.18809">
        <ele>592</ele>
        <time>2021-07-02T07:36:32Z</time>
      </trkpt>
      <trkpt lat="48.01178" lon="7.18808">
        <ele>592.8</ele>
        <time>2021-07-02T07:36:37Z</time>
      </trkpt>
      <trkpt lat="48.01171" lon="7.18807">
        <ele>593.2</ele>
        <time>2021-07-02T07:36:39Z</time>
      </trkpt>
      <trkpt lat="48.01159" lon="7.18807">
        <ele>594.2</ele>
        <time>2021-07-02T07:36:44Z</time>
      </trkpt>
      <trkpt lat="48.01154" lon="7.18806">
        <ele>594.6</ele>
        <time>2021-07-02T07:36:46Z</time>
      </trkpt>
      <trkpt lat="48.01147" lon="7.18804">
        <ele>595.4</ele>
        <time>2021-07-02T07:36:49Z</time>
      </trkpt>
      <trkpt lat="48.01138" lon="7.188">
        <ele>596</ele>
        <time>2021-07-02T07:36:53Z</time>
      </trkpt>
      <trkpt lat="48.01134" lon="7.18798">
        <ele>596.6</ele>
        <time>2021-07-02T07:36:56Z</time>
      </trkpt>
      <trkpt lat="48.01125" lon="7.18794">
        <ele>597.2</ele>
        <time>2021-07-02T07:36:59Z</time>
      </trkpt>
      <trkpt lat="48.01119" lon="7.18792">
        <ele>597.6</ele>
        <time>2021-07-02T07:37:01Z</time>
      </trkpt>
      <trkpt lat="48.01104" lon="7.18788">
        <ele>598.8</ele>
        <time>2021-07-02T07:37:06Z</time>
      </trkpt>
      <trkpt lat="48.01086" lon="7.18789">
        <ele>599.8</ele>
        <time>2021-07-02T07:37:12Z</time>
      </trkpt>
      <trkpt lat="48.0107" lon="7.18787">
        <ele>600.6</ele>
        <time>2021-07-02T07:37:17Z</time>
      </trkpt>
      <trkpt lat="48.01064" lon="7.18786">
        <ele>601</ele>
        <time>2021-07-02T07:37:19Z</time>
      </trkpt>
      <trkpt lat="48.01057" lon="7.18784">
        <ele>601.4</ele>
        <time>2021-07-02T07:37:22Z</time>
      </trkpt>
      <trkpt lat="48.01049" lon="7.18783">
        <ele>602.2</ele>
        <time>2021-07-02T07:37:25Z</time>
      </trkpt>
      <trkpt lat="48.0104" lon="7.18782">
        <ele>602.8</ele>
        <time>2021-07-02T07:37:28Z</time>
      </trkpt>
      <trkpt lat="48.01037" lon="7.18782">
        <ele>603</ele>
        <time>2021-07-02T07:37:29Z</time>
      </trkpt>
      <trkpt lat="48.01019" lon="7.18778">
        <ele>604.2</ele>
        <time>2021-07-02T07:37:35Z</time>
      </trkpt>
      <trkpt lat="48.01015" lon="7.18779">
        <ele>604.2</ele>
        <time>2021-07-02T07:37:36Z</time>
      </trkpt>
      <trkpt lat="48.0101" lon="7.18781">
        <ele>604.6</ele>
        <time>2021-07-02T07:37:38Z</time>
      </trkpt>
      <trkpt lat="48.01002" lon="7.18784">
        <ele>605.2</ele>
        <time>2021-07-02T07:37:41Z</time>
      </trkpt>
      <trkpt lat="48.00986" lon="7.18797">
        <ele>606.2</ele>
        <time>2021-07-02T07:37:47Z</time>
      </trkpt>
      <trkpt lat="48.00975" lon="7.18804">
        <ele>607.4</ele>
        <time>2021-07-02T07:37:52Z</time>
      </trkpt>
      <trkpt lat="48.00973" lon="7.18805">
        <ele>607.6</ele>
        <time>2021-07-02T07:37:53Z</time>
      </trkpt>
      <trkpt lat="48.00959" lon="7.18813">
        <ele>608.4</ele>
        <time>2021-07-02T07:37:57Z</time>
      </trkpt>
      <trkpt lat="48.00945" lon="7.18816">
        <ele>609.4</ele>
        <time>2021-07-02T07:38:02Z</time>
      </trkpt>
      <trkpt lat="48.00942" lon="7.18816">
        <ele>609.8</ele>
        <time>2021-07-02T07:38:03Z</time>
      </trkpt>
      <trkpt lat="48.00931" lon="7.18818">
        <ele>610.8</ele>
        <time>2021-07-02T07:38:08Z</time>
      </trkpt>
      <trkpt lat="48.00926" lon="7.18817">
        <ele>611.2</ele>
        <time>2021-07-02T07:38:10Z</time>
      </trkpt>
      <trkpt lat="48.00916" lon="7.18819">
        <ele>612.2</ele>
        <time>2021-07-02T07:38:14Z</time>
      </trkpt>
      <trkpt lat="48.0091" lon="7.18821">
        <ele>612.6</ele>
        <time>2021-07-02T07:38:16Z</time>
      </trkpt>
      <trkpt lat="48.00904" lon="7.18821">
        <ele>613.2</ele>
        <time>2021-07-02T07:38:19Z</time>
      </trkpt>
      <trkpt lat="48.00901" lon="7.18822">
        <ele>613.2</ele>
        <time>2021-07-02T07:38:20Z</time>
      </trkpt>
      <trkpt lat="48.00899" lon="7.18822">
        <ele>613.6</ele>
        <time>2021-07-02T07:38:21Z</time>
      </trkpt>
      <trkpt lat="48.0089" lon="7.18833">
        <ele>614.4</ele>
        <time>2021-07-02T07:38:25Z</time>
      </trkpt>
      <trkpt lat="48.0089" lon="7.18836">
        <ele>614.4</ele>
        <time>2021-07-02T07:38:26Z</time>
      </trkpt>
      <trkpt lat="48.00883" lon="7.18846">
        <ele>615.6</ele>
        <time>2021-07-02T07:38:30Z</time>
      </trkpt>
      <trkpt lat="48.00882" lon="7.18849">
        <ele>615.8</ele>
        <time>2021-07-02T07:38:31Z</time>
      </trkpt>
      <trkpt lat="48.00879" lon="7.18855">
        <ele>616.2</ele>
        <time>2021-07-02T07:38:33Z</time>
      </trkpt>
      <trkpt lat="48.00877" lon="7.18867">
        <ele>616.4</ele>
        <time>2021-07-02T07:38:35Z</time>
      </trkpt>
      <trkpt lat="48.00878" lon="7.18883">
        <ele>616.8</ele>
        <time>2021-07-02T07:38:38Z</time>
      </trkpt>
      <trkpt lat="48.00878" lon="7.18887">
        <ele>617.2</ele>
        <time>2021-07-02T07:38:39Z</time>
      </trkpt>
      <trkpt lat="48.00877" lon="7.18891">
        <ele>617.6</ele>
        <time>2021-07-02T07:38:41Z</time>
      </trkpt>
      <trkpt lat="48.00875" lon="7.18896">
        <ele>617.8</ele>
        <time>2021-07-02T07:38:43Z</time>
      </trkpt>
      <trkpt lat="48.00869" lon="7.1891">
        <ele>619</ele>
        <time>2021-07-02T07:38:47Z</time>
      </trkpt>
      <trkpt lat="48.00846" lon="7.18927">
        <ele>619.8</ele>
        <time>2021-07-02T07:38:53Z</time>
      </trkpt>
      <trkpt lat="48.00832" lon="7.18932">
        <ele>620.6</ele>
        <time>2021-07-02T07:38:59Z</time>
      </trkpt>
      <trkpt lat="48.0083" lon="7.18932">
        <ele>620.8</ele>
        <time>2021-07-02T07:39:00Z</time>
      </trkpt>
      <trkpt lat="48.00819" lon="7.18932">
        <ele>622.4</ele>
        <time>2021-07-02T07:39:05Z</time>
      </trkpt>
      <trkpt lat="48.00818" lon="7.18933">
        <ele>622.6</ele>
        <time>2021-07-02T07:39:06Z</time>
      </trkpt>
      <trkpt lat="48.00808" lon="7.1894">
        <ele>623.4</ele>
        <time>2021-07-02T07:39:11Z</time>
      </trkpt>
      <trkpt lat="48.00806" lon="7.18942">
        <ele>624</ele>
        <time>2021-07-02T07:39:12Z</time>
      </trkpt>
      <trkpt lat="48.00799" lon="7.18946">
        <ele>624.2</ele>
        <time>2021-07-02T07:39:15Z</time>
      </trkpt>
      <trkpt lat="48.00793" lon="7.18951">
        <ele>624.8</ele>
        <time>2021-07-02T07:39:17Z</time>
      </trkpt>
      <trkpt lat="48.00786" lon="7.18956">
        <ele>625.4</ele>
        <time>2021-07-02T07:39:20Z</time>
      </trkpt>
      <trkpt lat="48.00775" lon="7.18965">
        <ele>625.8</ele>
        <time>2021-07-02T07:39:24Z</time>
      </trkpt>
      <trkpt lat="48.00763" lon="7.1897">
        <ele>626.4</ele>
        <time>2021-07-02T07:39:28Z</time>
      </trkpt>
      <trkpt lat="48.00757" lon="7.18979">
        <ele>627.4</ele>
        <time>2021-07-02T07:39:31Z</time>
      </trkpt>
      <trkpt lat="48.00743" lon="7.18993">
        <ele>628.6</ele>
        <time>2021-07-02T07:39:38Z</time>
      </trkpt>
      <trkpt lat="48.00736" lon="7.19004">
        <ele>629.6</ele>
        <time>2021-07-02T07:39:42Z</time>
      </trkpt>
      <trkpt lat="48.0073" lon="7.19022">
        <ele>630.6</ele>
        <time>2021-07-02T07:39:48Z</time>
      </trkpt>
      <trkpt lat="48.00729" lon="7.19025">
        <ele>631</ele>
        <time>2021-07-02T07:39:49Z</time>
      </trkpt>
      <trkpt lat="48.00729" lon="7.19038">
        <ele>631.6</ele>
        <time>2021-07-02T07:39:52Z</time>
      </trkpt>
      <trkpt lat="48.00729" lon="7.19059">
        <ele>632.4</ele>
        <time>2021-07-02T07:39:57Z</time>
      </trkpt>
      <trkpt lat="48.0073" lon="7.19063">
        <ele>632.8</ele>
        <time>2021-07-02T07:39:58Z</time>
      </trkpt>
      <trkpt lat="48.0073" lon="7.19077">
        <ele>633.4</ele>
        <time>2021-07-02T07:40:02Z</time>
      </trkpt>
      <trkpt lat="48.00729" lon="7.19082">
        <ele>633.6</ele>
        <time>2021-07-02T07:40:03Z</time>
      </trkpt>
      <trkpt lat="48.00727" lon="7.19084">
        <ele>633.8</ele>
        <time>2021-07-02T07:40:04Z</time>
      </trkpt>
      <trkpt lat="48.00719" lon="7.19091">
        <ele>634.4</ele>
        <time>2021-07-02T07:40:07Z</time>
      </trkpt>
      <trkpt lat="48.00716" lon="7.19094">
        <ele>634.6</ele>
        <time>2021-07-02T07:40:08Z</time>
      </trkpt>
      <trkpt lat="48.007" lon="7.1911">
        <ele>636</ele>
        <time>2021-07-02T07:40:13Z</time>
      </trkpt>
      <trkpt lat="48.00698" lon="7.19111">
        <ele>636.2</ele>
        <time>2021-07-02T07:40:14Z</time>
      </trkpt>
      <trkpt lat="48.0069" lon="7.19115">
        <ele>636.8</ele>
        <time>2021-07-02T07:40:17Z</time>
      </trkpt>
      <trkpt lat="48.00679" lon="7.19119">
        <ele>637.4</ele>
        <time>2021-07-02T07:40:21Z</time>
      </trkpt>
      <trkpt lat="48.00677" lon="7.1912">
        <ele>637.6</ele>
        <time>2021-07-02T07:40:22Z</time>
      </trkpt>
      <trkpt lat="48.00671" lon="7.19122">
        <ele>638.4</ele>
        <time>2021-07-02T07:40:24Z</time>
      </trkpt>
      <trkpt lat="48.00656" lon="7.19128">
        <ele>639.6</ele>
        <time>2021-07-02T07:40:30Z</time>
      </trkpt>
      <trkpt lat="48.00653" lon="7.19128">
        <ele>639.8</ele>
        <time>2021-07-02T07:40:31Z</time>
      </trkpt>
      <trkpt lat="48.00637" lon="7.19133">
        <ele>641</ele>
        <time>2021-07-02T07:40:37Z</time>
      </trkpt>
      <trkpt lat="48.00632" lon="7.19136">
        <ele>641.4</ele>
        <time>2021-07-02T07:40:39Z</time>
      </trkpt>
      <trkpt lat="48.00625" lon="7.19138">
        <ele>642</ele>
        <time>2021-07-02T07:40:42Z</time>
      </trkpt>
      <trkpt lat="48.00617" lon="7.19137">
        <ele>642.8</ele>
        <time>2021-07-02T07:40:46Z</time>
      </trkpt>
      <trkpt lat="48.00611" lon="7.19139">
        <ele>643</ele>
        <time>2021-07-02T07:40:48Z</time>
      </trkpt>
      <trkpt lat="48.00606" lon="7.19139">
        <ele>643.6</ele>
        <time>2021-07-02T07:40:50Z</time>
      </trkpt>
      <trkpt lat="48.00598" lon="7.19141">
        <ele>644.2</ele>
        <time>2021-07-02T07:40:53Z</time>
      </trkpt>
      <trkpt lat="48.00592" lon="7.19142">
        <ele>644.8</ele>
        <time>2021-07-02T07:40:55Z</time>
      </trkpt>
      <trkpt lat="48.00581" lon="7.19145">
        <ele>645.4</ele>
        <time>2021-07-02T07:40:59Z</time>
      </trkpt>
      <trkpt lat="48.00578" lon="7.19147">
        <ele>645.6</ele>
        <time>2021-07-02T07:41:00Z</time>
      </trkpt>
      <trkpt lat="48.00568" lon="7.1915">
        <ele>646.6</ele>
        <time>2021-07-02T07:41:03Z</time>
      </trkpt>
      <trkpt lat="48.00556" lon="7.19154">
        <ele>647.4</ele>
        <time>2021-07-02T07:41:08Z</time>
      </trkpt>
      <trkpt lat="48.00551" lon="7.19155">
        <ele>647.6</ele>
        <time>2021-07-02T07:41:10Z</time>
      </trkpt>
      <trkpt lat="48.00541" lon="7.19155">
        <ele>648.8</ele>
        <time>2021-07-02T07:41:14Z</time>
      </trkpt>
      <trkpt lat="48.00526" lon="7.19156">
        <ele>649.8</ele>
        <time>2021-07-02T07:41:20Z</time>
      </trkpt>
      <trkpt lat="48.00521" lon="7.19157">
        <ele>650</ele>
        <time>2021-07-02T07:41:22Z</time>
      </trkpt>
      <trkpt lat="48.00513" lon="7.19158">
        <ele>650.6</ele>
        <time>2021-07-02T07:41:25Z</time>
      </trkpt>
      <trkpt lat="48.00498" lon="7.19159">
        <ele>651.8</ele>
        <time>2021-07-02T07:41:30Z</time>
      </trkpt>
      <trkpt lat="48.00496" lon="7.19159">
        <ele>652</ele>
        <time>2021-07-02T07:41:31Z</time>
      </trkpt>
      <trkpt lat="48.00483" lon="7.19162">
        <ele>653</ele>
        <time>2021-07-02T07:41:35Z</time>
      </trkpt>
      <trkpt lat="48.00467" lon="7.19166">
        <ele>654</ele>
        <time>2021-07-02T07:41:40Z</time>
      </trkpt>
      <trkpt lat="48.00447" lon="7.19169">
        <ele>654.8</ele>
        <time>2021-07-02T07:41:46Z</time>
      </trkpt>
      <trkpt lat="48.00444" lon="7.1917">
        <ele>655</ele>
        <time>2021-07-02T07:41:47Z</time>
      </trkpt>
      <trkpt lat="48.00436" lon="7.19172">
        <ele>656</ele>
        <time>2021-07-02T07:41:51Z</time>
      </trkpt>
      <trkpt lat="48.0043" lon="7.19173">
        <ele>656.2</ele>
        <time>2021-07-02T07:41:53Z</time>
      </trkpt>
      <trkpt lat="48.00415" lon="7.19172">
        <ele>657.4</ele>
        <time>2021-07-02T07:41:58Z</time>
      </trkpt>
      <trkpt lat="48.00412" lon="7.19172">
        <ele>657.6</ele>
        <time>2021-07-02T07:41:59Z</time>
      </trkpt>
      <trkpt lat="48.00401" lon="7.19174">
        <ele>658.6</ele>
        <time>2021-07-02T07:42:03Z</time>
      </trkpt>
      <trkpt lat="48.00393" lon="7.19176">
        <ele>659</ele>
        <time>2021-07-02T07:42:06Z</time>
      </trkpt>
      <trkpt lat="48.00385" lon="7.19177">
        <ele>659.8</ele>
        <time>2021-07-02T07:42:09Z</time>
      </trkpt>
      <trkpt lat="48.00377" lon="7.19178">
        <ele>660.2</ele>
        <time>2021-07-02T07:42:12Z</time>
      </trkpt>
      <trkpt lat="48.00371" lon="7.19179">
        <ele>660.8</ele>
        <time>2021-07-02T07:42:14Z</time>
      </trkpt>
      <trkpt lat="48.00358" lon="7.19178">
        <ele>661.6</ele>
        <time>2021-07-02T07:42:19Z</time>
      </trkpt>
      <trkpt lat="48.00355" lon="7.19178">
        <ele>661.8</ele>
        <time>2021-07-02T07:42:20Z</time>
      </trkpt>
      <trkpt lat="48.00345" lon="7.1918">
        <ele>662.8</ele>
        <time>2021-07-02T07:42:24Z</time>
      </trkpt>
      <trkpt lat="48.00335" lon="7.19184">
        <ele>663.6</ele>
        <time>2021-07-02T07:42:28Z</time>
      </trkpt>
      <trkpt lat="48.00332" lon="7.19184">
        <ele>664</ele>
        <time>2021-07-02T07:42:29Z</time>
      </trkpt>
      <trkpt lat="48.00318" lon="7.19186">
        <ele>664.8</ele>
        <time>2021-07-02T07:42:34Z</time>
      </trkpt>
      <trkpt lat="48.00315" lon="7.19187">
        <ele>665.4</ele>
        <time>2021-07-02T07:42:35Z</time>
      </trkpt>
      <trkpt lat="48.00301" lon="7.19186">
        <ele>666.2</ele>
        <time>2021-07-02T07:42:39Z</time>
      </trkpt>
      <trkpt lat="48.00297" lon="7.19185">
        <ele>666.4</ele>
        <time>2021-07-02T07:42:40Z</time>
      </trkpt>
      <trkpt lat="48.00284" lon="7.19182">
        <ele>667.2</ele>
        <time>2021-07-02T07:42:46Z</time>
      </trkpt>
      <trkpt lat="48.00271" lon="7.19177">
        <ele>668.4</ele>
        <time>2021-07-02T07:42:51Z</time>
      </trkpt>
      <trkpt lat="48.00269" lon="7.19176">
        <ele>668.6</ele>
        <time>2021-07-02T07:42:52Z</time>
      </trkpt>
      <trkpt lat="48.00255" lon="7.19161">
        <ele>669.8</ele>
        <time>2021-07-02T07:42:59Z</time>
      </trkpt>
      <trkpt lat="48.00245" lon="7.19149">
        <ele>670.8</ele>
        <time>2021-07-02T07:43:04Z</time>
      </trkpt>
      <trkpt lat="48.0024" lon="7.19143">
        <ele>671.4</ele>
        <time>2021-07-02T07:43:06Z</time>
      </trkpt>
      <trkpt lat="48.00234" lon="7.19134">
        <ele>672</ele>
        <time>2021-07-02T07:43:09Z</time>
      </trkpt>
      <trkpt lat="48.00226" lon="7.19122">
        <ele>673</ele>
        <time>2021-07-02T07:43:13Z</time>
      </trkpt>
      <trkpt lat="48.00225" lon="7.1912">
        <ele>673.2</ele>
        <time>2021-07-02T07:43:14Z</time>
      </trkpt>
      <trkpt lat="48.00215" lon="7.19105">
        <ele>674.2</ele>
        <time>2021-07-02T07:43:20Z</time>
      </trkpt>
      <trkpt lat="48.00207" lon="7.19086">
        <ele>675.2</ele>
        <time>2021-07-02T07:43:26Z</time>
      </trkpt>
      <trkpt lat="48.00205" lon="7.1908">
        <ele>675.8</ele>
        <time>2021-07-02T07:43:28Z</time>
      </trkpt>
      <trkpt lat="48.00204" lon="7.19075">
        <ele>676.2</ele>
        <time>2021-07-02T07:43:30Z</time>
      </trkpt>
      <trkpt lat="48.00201" lon="7.19065">
        <ele>677</ele>
        <time>2021-07-02T07:43:33Z</time>
      </trkpt>
      <trkpt lat="48.00196" lon="7.19056">
        <ele>677.4</ele>
        <time>2021-07-02T07:43:36Z</time>
      </trkpt>
      <trkpt lat="48.00193" lon="7.19048">
        <ele>678</ele>
        <time>2021-07-02T07:43:38Z</time>
      </trkpt>
      <trkpt lat="48.0019" lon="7.19039">
        <ele>678.8</ele>
        <time>2021-07-02T07:43:41Z</time>
      </trkpt>
      <trkpt lat="48.00189" lon="7.19035">
        <ele>679</ele>
        <time>2021-07-02T07:43:42Z</time>
      </trkpt>
      <trkpt lat="48.00186" lon="7.19024">
        <ele>679.4</ele>
        <time>2021-07-02T07:43:44Z</time>
      </trkpt>
      <trkpt lat="48.00183" lon="7.19014">
        <ele>680</ele>
        <time>2021-07-02T07:43:47Z</time>
      </trkpt>
      <trkpt lat="48.00179" lon="7.18992">
        <ele>680.8</ele>
        <time>2021-07-02T07:43:52Z</time>
      </trkpt>
      <trkpt lat="48.00177" lon="7.18987">
        <ele>681</ele>
        <time>2021-07-02T07:43:53Z</time>
      </trkpt>
      <trkpt lat="48.00169" lon="7.18962">
        <ele>682.2</ele>
        <time>2021-07-02T07:43:58Z</time>
      </trkpt>
      <trkpt lat="48.00166" lon="7.1895">
        <ele>682.8</ele>
        <time>2021-07-02T07:44:01Z</time>
      </trkpt>
      <trkpt lat="48.00167" lon="7.18934">
        <ele>683.2</ele>
        <time>2021-07-02T07:44:04Z</time>
      </trkpt>
      <trkpt lat="48.00159" lon="7.18921">
        <ele>684.2</ele>
        <time>2021-07-02T07:44:08Z</time>
      </trkpt>
      <trkpt lat="48.00159" lon="7.18917">
        <ele>684.4</ele>
        <time>2021-07-02T07:44:09Z</time>
      </trkpt>
      <trkpt lat="48.00155" lon="7.18894">
        <ele>685.2</ele>
        <time>2021-07-02T07:44:15Z</time>
      </trkpt>
      <trkpt lat="48.00152" lon="7.18878">
        <ele>686.4</ele>
        <time>2021-07-02T07:44:19Z</time>
      </trkpt>
      <trkpt lat="48.00147" lon="7.18859">
        <ele>687.4</ele>
        <time>2021-07-02T07:44:24Z</time>
      </trkpt>
      <trkpt lat="48.00146" lon="7.18855">
        <ele>687.4</ele>
        <time>2021-07-02T07:44:25Z</time>
      </trkpt>
      <trkpt lat="48.00142" lon="7.18836">
        <ele>688.8</ele>
        <time>2021-07-02T07:44:30Z</time>
      </trkpt>
      <trkpt lat="48.0014" lon="7.18828">
        <ele>689.2</ele>
        <time>2021-07-02T07:44:32Z</time>
      </trkpt>
      <trkpt lat="48.00134" lon="7.18805">
        <ele>690</ele>
        <time>2021-07-02T07:44:38Z</time>
      </trkpt>
      <trkpt lat="48.00133" lon="7.18801">
        <ele>690.2</ele>
        <time>2021-07-02T07:44:39Z</time>
      </trkpt>
      <trkpt lat="48.0013" lon="7.18785">
        <ele>691</ele>
        <time>2021-07-02T07:44:43Z</time>
      </trkpt>
      <trkpt lat="48.00129" lon="7.18781">
        <ele>691.2</ele>
        <time>2021-07-02T07:44:44Z</time>
      </trkpt>
      <trkpt lat="48.00125" lon="7.18766">
        <ele>692</ele>
        <time>2021-07-02T07:44:48Z</time>
      </trkpt>
      <trkpt lat="48.00121" lon="7.1875">
        <ele>693</ele>
        <time>2021-07-02T07:44:52Z</time>
      </trkpt>
      <trkpt lat="48.00119" lon="7.18747">
        <ele>693</ele>
        <time>2021-07-02T07:44:53Z</time>
      </trkpt>
      <trkpt lat="48.00112" lon="7.18729">
        <ele>694.2</ele>
        <time>2021-07-02T07:44:58Z</time>
      </trkpt>
      <trkpt lat="48.00107" lon="7.18718">
        <ele>694.6</ele>
        <time>2021-07-02T07:45:01Z</time>
      </trkpt>
      <trkpt lat="48.001" lon="7.18704">
        <ele>695.4</ele>
        <time>2021-07-02T07:45:05Z</time>
      </trkpt>
      <trkpt lat="48.00087" lon="7.18686">
        <ele>696.6</ele>
        <time>2021-07-02T07:45:11Z</time>
      </trkpt>
      <trkpt lat="48.00071" lon="7.18663">
        <ele>697.6</ele>
        <time>2021-07-02T07:45:19Z</time>
      </trkpt>
      <trkpt lat="48.00069" lon="7.18661">
        <ele>697.8</ele>
        <time>2021-07-02T07:45:20Z</time>
      </trkpt>
      <trkpt lat="48.00061" lon="7.18649">
        <ele>699</ele>
        <time>2021-07-02T07:45:24Z</time>
      </trkpt>
      <trkpt lat="48.00051" lon="7.18634">
        <ele>700.2</ele>
        <time>2021-07-02T07:45:29Z</time>
      </trkpt>
      <trkpt lat="48.00049" lon="7.18631">
        <ele>700.2</ele>
        <time>2021-07-02T07:45:30Z</time>
      </trkpt>
      <trkpt lat="48.00039" lon="7.18618">
        <ele>701.4</ele>
        <time>2021-07-02T07:45:35Z</time>
      </trkpt>
      <trkpt lat="48.00036" lon="7.18613">
        <ele>701.8</ele>
        <time>2021-07-02T07:45:37Z</time>
      </trkpt>
      <trkpt lat="48.00035" lon="7.18611">
        <ele>702.6</ele>
        <time>2021-07-02T07:45:40Z</time>
      </trkpt>
      <trkpt lat="48.00035" lon="7.18611">
        <ele>702.8</ele>
        <time>2021-07-02T07:45:41Z</time>
      </trkpt>
      <trkpt lat="48.00031" lon="7.18606">
        <ele>703.2</ele>
        <time>2021-07-02T07:46:24Z</time>
      </trkpt>
      <trkpt lat="48.00027" lon="7.186">
        <ele>703.4</ele>
        <time>2021-07-02T07:46:26Z</time>
      </trkpt>
      <trkpt lat="48.00017" lon="7.18587">
        <ele>703.6</ele>
        <time>2021-07-02T07:46:31Z</time>
      </trkpt>
      <trkpt lat="48.00013" lon="7.18581">
        <ele>704</ele>
        <time>2021-07-02T07:46:33Z</time>
      </trkpt>
      <trkpt lat="48.00001" lon="7.18565">
        <ele>704.8</ele>
        <time>2021-07-02T07:46:38Z</time>
      </trkpt>
      <trkpt lat="47.99999" lon="7.18562">
        <ele>705</ele>
        <time>2021-07-02T07:46:39Z</time>
      </trkpt>
      <trkpt lat="47.99992" lon="7.18554">
        <ele>705.8</ele>
        <time>2021-07-02T07:46:42Z</time>
      </trkpt>
      <trkpt lat="47.9998" lon="7.1854">
        <ele>707</ele>
        <time>2021-07-02T07:46:47Z</time>
      </trkpt>
      <trkpt lat="47.99966" lon="7.18526">
        <ele>708.4</ele>
        <time>2021-07-02T07:46:52Z</time>
      </trkpt>
      <trkpt lat="47.99957" lon="7.18519">
        <ele>709</ele>
        <time>2021-07-02T07:46:55Z</time>
      </trkpt>
      <trkpt lat="47.99952" lon="7.18515">
        <ele>709.6</ele>
        <time>2021-07-02T07:46:57Z</time>
      </trkpt>
      <trkpt lat="47.9994" lon="7.18507">
        <ele>710.4</ele>
        <time>2021-07-02T07:47:02Z</time>
      </trkpt>
      <trkpt lat="47.99938" lon="7.18506">
        <ele>710.6</ele>
        <time>2021-07-02T07:47:03Z</time>
      </trkpt>
      <trkpt lat="47.99932" lon="7.18505">
        <ele>711.2</ele>
        <time>2021-07-02T07:47:07Z</time>
      </trkpt>
      <trkpt lat="47.99931" lon="7.18506">
        <ele>711.6</ele>
        <time>2021-07-02T07:47:11Z</time>
      </trkpt>
      <trkpt lat="47.99921" lon="7.18519">
        <ele>710.2</ele>
        <time>2021-07-02T07:51:38Z</time>
      </trkpt>
      <trkpt lat="47.99917" lon="7.18528">
        <ele>710.2</ele>
        <time>2021-07-02T07:51:40Z</time>
      </trkpt>
      <trkpt lat="47.99913" lon="7.18542">
        <ele>710</ele>
        <time>2021-07-02T07:51:44Z</time>
      </trkpt>
      <trkpt lat="47.99913" lon="7.18542">
        <ele>710</ele>
        <time>2021-07-02T07:51:45Z</time>
      </trkpt>
      <trkpt lat="47.99913" lon="7.18542">
        <ele>710</ele>
        <time>2021-07-02T07:51:47Z</time>
      </trkpt>
      <trkpt lat="47.99912" lon="7.18548">
        <ele>709.8</ele>
        <time>2021-07-02T07:52:25Z</time>
      </trkpt>
      <trkpt lat="47.99911" lon="7.18552">
        <ele>709.8</ele>
        <time>2021-07-02T07:52:26Z</time>
      </trkpt>
      <trkpt lat="47.99905" lon="7.18578">
        <ele>709.8</ele>
        <time>2021-07-02T07:52:31Z</time>
      </trkpt>
      <trkpt lat="47.999" lon="7.18603">
        <ele>709</ele>
        <time>2021-07-02T07:52:35Z</time>
      </trkpt>
      <trkpt lat="47.99899" lon="7.18612">
        <ele>708.6</ele>
        <time>2021-07-02T07:52:36Z</time>
      </trkpt>
      <trkpt lat="47.99897" lon="7.18631">
        <ele>708</ele>
        <time>2021-07-02T07:52:38Z</time>
      </trkpt>
      <trkpt lat="47.99896" lon="7.18641">
        <ele>707.6</ele>
        <time>2021-07-02T07:52:39Z</time>
      </trkpt>
      <trkpt lat="47.99895" lon="7.18653">
        <ele>707.4</ele>
        <time>2021-07-02T07:52:40Z</time>
      </trkpt>
      <trkpt lat="47.99893" lon="7.18676">
        <ele>706.6</ele>
        <time>2021-07-02T07:52:42Z</time>
      </trkpt>
      <trkpt lat="47.99892" lon="7.18689">
        <ele>705.8</ele>
        <time>2021-07-02T07:52:43Z</time>
      </trkpt>
      <trkpt lat="47.99889" lon="7.18716">
        <ele>705.4</ele>
        <time>2021-07-02T07:52:45Z</time>
      </trkpt>
      <trkpt lat="47.99883" lon="7.18741">
        <ele>704.2</ele>
        <time>2021-07-02T07:52:47Z</time>
      </trkpt>
      <trkpt lat="47.9988" lon="7.1877">
        <ele>703</ele>
        <time>2021-07-02T07:52:49Z</time>
      </trkpt>
      <trkpt lat="47.99879" lon="7.18785">
        <ele>702.4</ele>
        <time>2021-07-02T07:52:50Z</time>
      </trkpt>
      <trkpt lat="47.99879" lon="7.18801">
        <ele>702</ele>
        <time>2021-07-02T07:52:51Z</time>
      </trkpt>
      <trkpt lat="47.9988" lon="7.18826">
        <ele>701.2</ele>
        <time>2021-07-02T07:52:53Z</time>
      </trkpt>
      <trkpt lat="47.99879" lon="7.18841">
        <ele>701</ele>
        <time>2021-07-02T07:52:54Z</time>
      </trkpt>
      <trkpt lat="47.99879" lon="7.18856">
        <ele>700</ele>
        <time>2021-07-02T07:52:55Z</time>
      </trkpt>
      <trkpt lat="47.99878" lon="7.18872">
        <ele>698.6</ele>
        <time>2021-07-02T07:52:56Z</time>
      </trkpt>
      <trkpt lat="47.99876" lon="7.18889">
        <ele>697.6</ele>
        <time>2021-07-02T07:52:57Z</time>
      </trkpt>
      <trkpt lat="47.99872" lon="7.18904">
        <ele>697.4</ele>
        <time>2021-07-02T07:52:58Z</time>
      </trkpt>
      <trkpt lat="47.99865" lon="7.18933">
        <ele>696</ele>
        <time>2021-07-02T07:53:00Z</time>
      </trkpt>
      <trkpt lat="47.99863" lon="7.18948">
        <ele>694.8</ele>
        <time>2021-07-02T07:53:01Z</time>
      </trkpt>
      <trkpt lat="47.99858" lon="7.18977">
        <ele>693.6</ele>
        <time>2021-07-02T07:53:03Z</time>
      </trkpt>
      <trkpt lat="47.99857" lon="7.18992">
        <ele>693.4</ele>
        <time>2021-07-02T07:53:04Z</time>
      </trkpt>
      <trkpt lat="47.99858" lon="7.19021">
        <ele>692</ele>
        <time>2021-07-02T07:53:06Z</time>
      </trkpt>
      <trkpt lat="47.99863" lon="7.19051">
        <ele>691.2</ele>
        <time>2021-07-02T07:53:08Z</time>
      </trkpt>
      <trkpt lat="47.99866" lon="7.19065">
        <ele>690.8</ele>
        <time>2021-07-02T07:53:09Z</time>
      </trkpt>
      <trkpt lat="47.99869" lon="7.1908">
        <ele>689.8</ele>
        <time>2021-07-02T07:53:10Z</time>
      </trkpt>
      <trkpt lat="47.99873" lon="7.19111">
        <ele>688.2</ele>
        <time>2021-07-02T07:53:12Z</time>
      </trkpt>
      <trkpt lat="47.99879" lon="7.19143">
        <ele>687</ele>
        <time>2021-07-02T07:53:14Z</time>
      </trkpt>
      <trkpt lat="47.99888" lon="7.19188">
        <ele>685.2</ele>
        <time>2021-07-02T07:53:17Z</time>
      </trkpt>
      <trkpt lat="47.99894" lon="7.19231">
        <ele>684</ele>
        <time>2021-07-02T07:53:20Z</time>
      </trkpt>
      <trkpt lat="47.99901" lon="7.19267">
        <ele>683</ele>
        <time>2021-07-02T07:53:22Z</time>
      </trkpt>
      <trkpt lat="47.99909" lon="7.19311">
        <ele>680</ele>
        <time>2021-07-02T07:53:25Z</time>
      </trkpt>
      <trkpt lat="47.99912" lon="7.1933">
        <ele>678.8</ele>
        <time>2021-07-02T07:53:26Z</time>
      </trkpt>
      <trkpt lat="47.99918" lon="7.1936">
        <ele>677.6</ele>
        <time>2021-07-02T07:53:28Z</time>
      </trkpt>
      <trkpt lat="47.99924" lon="7.1939">
        <ele>676.2</ele>
        <time>2021-07-02T07:53:30Z</time>
      </trkpt>
      <trkpt lat="47.99926" lon="7.19406">
        <ele>675.8</ele>
        <time>2021-07-02T07:53:31Z</time>
      </trkpt>
      <trkpt lat="47.99927" lon="7.19421">
        <ele>675</ele>
        <time>2021-07-02T07:53:32Z</time>
      </trkpt>
      <trkpt lat="47.99929" lon="7.19454">
        <ele>673.8</ele>
        <time>2021-07-02T07:53:34Z</time>
      </trkpt>
      <trkpt lat="47.99927" lon="7.19487">
        <ele>672.4</ele>
        <time>2021-07-02T07:53:36Z</time>
      </trkpt>
      <trkpt lat="47.99925" lon="7.19503">
        <ele>672</ele>
        <time>2021-07-02T07:53:37Z</time>
      </trkpt>
      <trkpt lat="47.99918" lon="7.19531">
        <ele>671.2</ele>
        <time>2021-07-02T07:53:39Z</time>
      </trkpt>
      <trkpt lat="47.99912" lon="7.19549">
        <ele>670</ele>
        <time>2021-07-02T07:53:40Z</time>
      </trkpt>
      <trkpt lat="47.99908" lon="7.19565">
        <ele>668.4</ele>
        <time>2021-07-02T07:53:41Z</time>
      </trkpt>
      <trkpt lat="47.99905" lon="7.1958">
        <ele>668.2</ele>
        <time>2021-07-02T07:53:42Z</time>
      </trkpt>
      <trkpt lat="47.99904" lon="7.19596">
        <ele>667.2</ele>
        <time>2021-07-02T07:53:43Z</time>
      </trkpt>
      <trkpt lat="47.99906" lon="7.19608">
        <ele>666.6</ele>
        <time>2021-07-02T07:53:44Z</time>
      </trkpt>
      <trkpt lat="47.99911" lon="7.19638">
        <ele>665.4</ele>
        <time>2021-07-02T07:53:46Z</time>
      </trkpt>
      <trkpt lat="47.99917" lon="7.19671">
        <ele>664.2</ele>
        <time>2021-07-02T07:53:48Z</time>
      </trkpt>
      <trkpt lat="47.99922" lon="7.19705">
        <ele>662.4</ele>
        <time>2021-07-02T07:53:50Z</time>
      </trkpt>
      <trkpt lat="47.99928" lon="7.19738">
        <ele>661.6</ele>
        <time>2021-07-02T07:53:52Z</time>
      </trkpt>
      <trkpt lat="47.9993" lon="7.19752">
        <ele>660.8</ele>
        <time>2021-07-02T07:53:53Z</time>
      </trkpt>
      <trkpt lat="47.99935" lon="7.19785">
        <ele>659.4</ele>
        <time>2021-07-02T07:53:55Z</time>
      </trkpt>
      <trkpt lat="47.99937" lon="7.19797">
        <ele>659</ele>
        <time>2021-07-02T07:53:56Z</time>
      </trkpt>
      <trkpt lat="47.99942" lon="7.1981">
        <ele>658.2</ele>
        <time>2021-07-02T07:53:57Z</time>
      </trkpt>
      <trkpt lat="47.99961" lon="7.19854">
        <ele>657</ele>
        <time>2021-07-02T07:54:00Z</time>
      </trkpt>
      <trkpt lat="47.99967" lon="7.19866">
        <ele>655.8</ele>
        <time>2021-07-02T07:54:01Z</time>
      </trkpt>
      <trkpt lat="47.99974" lon="7.1988">
        <ele>654.4</ele>
        <time>2021-07-02T07:54:02Z</time>
      </trkpt>
      <trkpt lat="47.99987" lon="7.19906">
        <ele>652</ele>
        <time>2021-07-02T07:54:04Z</time>
      </trkpt>
      <trkpt lat="47.99995" lon="7.19918">
        <ele>651.6</ele>
        <time>2021-07-02T07:54:05Z</time>
      </trkpt>
      <trkpt lat="48.00002" lon="7.19928">
        <ele>650</ele>
        <time>2021-07-02T07:54:06Z</time>
      </trkpt>
      <trkpt lat="48.00016" lon="7.19941">
        <ele>648.8</ele>
        <time>2021-07-02T07:54:08Z</time>
      </trkpt>
      <trkpt lat="48.00025" lon="7.19942">
        <ele>648.2</ele>
        <time>2021-07-02T07:54:09Z</time>
      </trkpt>
      <trkpt lat="48.00034" lon="7.1994">
        <ele>647.4</ele>
        <time>2021-07-02T07:54:10Z</time>
      </trkpt>
      <trkpt lat="48.00053" lon="7.19933">
        <ele>646.2</ele>
        <time>2021-07-02T07:54:12Z</time>
      </trkpt>
      <trkpt lat="48.00063" lon="7.19932">
        <ele>645.4</ele>
        <time>2021-07-02T07:54:13Z</time>
      </trkpt>
      <trkpt lat="48.00074" lon="7.19942">
        <ele>643.6</ele>
        <time>2021-07-02T07:54:15Z</time>
      </trkpt>
      <trkpt lat="48.00074" lon="7.19969">
        <ele>642.4</ele>
        <time>2021-07-02T07:54:17Z</time>
      </trkpt>
      <trkpt lat="48.00071" lon="7.20002">
        <ele>641.2</ele>
        <time>2021-07-02T07:54:19Z</time>
      </trkpt>
      <trkpt lat="48.00071" lon="7.20017">
        <ele>640.8</ele>
        <time>2021-07-02T07:54:20Z</time>
      </trkpt>
      <trkpt lat="48.00074" lon="7.20032">
        <ele>639.6</ele>
        <time>2021-07-02T07:54:21Z</time>
      </trkpt>
      <trkpt lat="48.00084" lon="7.20058">
        <ele>638.6</ele>
        <time>2021-07-02T07:54:23Z</time>
      </trkpt>
      <trkpt lat="48.00102" lon="7.20095">
        <ele>636.8</ele>
        <time>2021-07-02T07:54:26Z</time>
      </trkpt>
      <trkpt lat="48.00111" lon="7.20122">
        <ele>635.2</ele>
        <time>2021-07-02T07:54:28Z</time>
      </trkpt>
      <trkpt lat="48.00118" lon="7.20151">
        <ele>633.4</ele>
        <time>2021-07-02T07:54:30Z</time>
      </trkpt>
      <trkpt lat="48.0012" lon="7.20186">
        <ele>632.4</ele>
        <time>2021-07-02T07:54:32Z</time>
      </trkpt>
      <trkpt lat="48.0012" lon="7.20213">
        <ele>630.8</ele>
        <time>2021-07-02T07:54:34Z</time>
      </trkpt>
      <trkpt lat="48.00121" lon="7.20248">
        <ele>629.4</ele>
        <time>2021-07-02T07:54:36Z</time>
      </trkpt>
      <trkpt lat="48.0012" lon="7.20264">
        <ele>628.4</ele>
        <time>2021-07-02T07:54:37Z</time>
      </trkpt>
      <trkpt lat="48.00118" lon="7.20294">
        <ele>626</ele>
        <time>2021-07-02T07:54:39Z</time>
      </trkpt>
      <trkpt lat="48.00116" lon="7.20309">
        <ele>624.6</ele>
        <time>2021-07-02T07:54:40Z</time>
      </trkpt>
      <trkpt lat="48.00115" lon="7.20322">
        <ele>624</ele>
        <time>2021-07-02T07:54:41Z</time>
      </trkpt>
      <trkpt lat="48.00115" lon="7.20338">
        <ele>623.2</ele>
        <time>2021-07-02T07:54:42Z</time>
      </trkpt>
      <trkpt lat="48.00116" lon="7.20354">
        <ele>623</ele>
        <time>2021-07-02T07:54:43Z</time>
      </trkpt>
      <trkpt lat="48.00118" lon="7.20371">
        <ele>622.6</ele>
        <time>2021-07-02T07:54:44Z</time>
      </trkpt>
      <trkpt lat="48.00121" lon="7.20387">
        <ele>622.2</ele>
        <time>2021-07-02T07:54:45Z</time>
      </trkpt>
      <trkpt lat="48.00125" lon="7.20403">
        <ele>621.2</ele>
        <time>2021-07-02T07:54:46Z</time>
      </trkpt>
      <trkpt lat="48.00129" lon="7.20419">
        <ele>620.2</ele>
        <time>2021-07-02T07:54:47Z</time>
      </trkpt>
      <trkpt lat="48.00134" lon="7.20436">
        <ele>619</ele>
        <time>2021-07-02T07:54:48Z</time>
      </trkpt>
      <trkpt lat="48.00142" lon="7.2047">
        <ele>616.8</ele>
        <time>2021-07-02T07:54:50Z</time>
      </trkpt>
      <trkpt lat="48.00147" lon="7.20485">
        <ele>615.8</ele>
        <time>2021-07-02T07:54:51Z</time>
      </trkpt>
      <trkpt lat="48.00152" lon="7.20501">
        <ele>615</ele>
        <time>2021-07-02T07:54:52Z</time>
      </trkpt>
      <trkpt lat="48.00158" lon="7.20516">
        <ele>614</ele>
        <time>2021-07-02T07:54:53Z</time>
      </trkpt>
      <trkpt lat="48.00169" lon="7.20545">
        <ele>612.8</ele>
        <time>2021-07-02T07:54:55Z</time>
      </trkpt>
      <trkpt lat="48.00181" lon="7.20569">
        <ele>612</ele>
        <time>2021-07-02T07:54:57Z</time>
      </trkpt>
      <trkpt lat="48.00188" lon="7.20578">
        <ele>611.6</ele>
        <time>2021-07-02T07:54:58Z</time>
      </trkpt>
      <trkpt lat="48.00196" lon="7.20584">
        <ele>610.8</ele>
        <time>2021-07-02T07:54:59Z</time>
      </trkpt>
      <trkpt lat="48.00205" lon="7.20588">
        <ele>610</ele>
        <time>2021-07-02T07:55:00Z</time>
      </trkpt>
      <trkpt lat="48.00214" lon="7.2059">
        <ele>609.8</ele>
        <time>2021-07-02T07:55:01Z</time>
      </trkpt>
      <trkpt lat="48.00223" lon="7.20589">
        <ele>609</ele>
        <time>2021-07-02T07:55:02Z</time>
      </trkpt>
      <trkpt lat="48.00233" lon="7.20585">
        <ele>608.2</ele>
        <time>2021-07-02T07:55:03Z</time>
      </trkpt>
      <trkpt lat="48.00253" lon="7.20581">
        <ele>607</ele>
        <time>2021-07-02T07:55:05Z</time>
      </trkpt>
      <trkpt lat="48.00261" lon="7.20581">
        <ele>606</ele>
        <time>2021-07-02T07:55:06Z</time>
      </trkpt>
      <trkpt lat="48.00267" lon="7.20582">
        <ele>605.6</ele>
        <time>2021-07-02T07:55:07Z</time>
      </trkpt>
      <trkpt lat="48.00274" lon="7.20589">
        <ele>605</ele>
        <time>2021-07-02T07:55:08Z</time>
      </trkpt>
      <trkpt lat="48.00277" lon="7.206">
        <ele>604.8</ele>
        <time>2021-07-02T07:55:09Z</time>
      </trkpt>
      <trkpt lat="48.00278" lon="7.20614">
        <ele>604.6</ele>
        <time>2021-07-02T07:55:10Z</time>
      </trkpt>
      <trkpt lat="48.00278" lon="7.20629">
        <ele>602.4</ele>
        <time>2021-07-02T07:55:11Z</time>
      </trkpt>
      <trkpt lat="48.00276" lon="7.20644">
        <ele>601.6</ele>
        <time>2021-07-02T07:55:12Z</time>
      </trkpt>
      <trkpt lat="48.00272" lon="7.20658">
        <ele>600.8</ele>
        <time>2021-07-02T07:55:13Z</time>
      </trkpt>
      <trkpt lat="48.00267" lon="7.20687">
        <ele>599.6</ele>
        <time>2021-07-02T07:55:15Z</time>
      </trkpt>
      <trkpt lat="48.00267" lon="7.20701">
        <ele>599.4</ele>
        <time>2021-07-02T07:55:16Z</time>
      </trkpt>
      <trkpt lat="48.00268" lon="7.20716">
        <ele>598.6</ele>
        <time>2021-07-02T07:55:17Z</time>
      </trkpt>
      <trkpt lat="48.00273" lon="7.20728">
        <ele>598.2</ele>
        <time>2021-07-02T07:55:18Z</time>
      </trkpt>
      <trkpt lat="48.00279" lon="7.20741">
        <ele>597.4</ele>
        <time>2021-07-02T07:55:19Z</time>
      </trkpt>
      <trkpt lat="48.00285" lon="7.20754">
        <ele>595.8</ele>
        <time>2021-07-02T07:55:20Z</time>
      </trkpt>
      <trkpt lat="48.00299" lon="7.20778">
        <ele>594.8</ele>
        <time>2021-07-02T07:55:22Z</time>
      </trkpt>
      <trkpt lat="48.00321" lon="7.20808">
        <ele>593.8</ele>
        <time>2021-07-02T07:55:25Z</time>
      </trkpt>
      <trkpt lat="48.00329" lon="7.20815">
        <ele>593.2</ele>
        <time>2021-07-02T07:55:26Z</time>
      </trkpt>
      <trkpt lat="48.00337" lon="7.2082">
        <ele>592.6</ele>
        <time>2021-07-02T07:55:27Z</time>
      </trkpt>
      <trkpt lat="48.00355" lon="7.20824">
        <ele>591.6</ele>
        <time>2021-07-02T07:55:29Z</time>
      </trkpt>
      <trkpt lat="48.00365" lon="7.20825">
        <ele>590</ele>
        <time>2021-07-02T07:55:30Z</time>
      </trkpt>
      <trkpt lat="48.00374" lon="7.20828">
        <ele>588.8</ele>
        <time>2021-07-02T07:55:31Z</time>
      </trkpt>
      <trkpt lat="48.00382" lon="7.20833">
        <ele>588.2</ele>
        <time>2021-07-02T07:55:32Z</time>
      </trkpt>
      <trkpt lat="48.00386" lon="7.20843">
        <ele>586.8</ele>
        <time>2021-07-02T07:55:33Z</time>
      </trkpt>
      <trkpt lat="48.00388" lon="7.20854">
        <ele>586.2</ele>
        <time>2021-07-02T07:55:34Z</time>
      </trkpt>
      <trkpt lat="48.0039" lon="7.20866">
        <ele>585.2</ele>
        <time>2021-07-02T07:55:35Z</time>
      </trkpt>
      <trkpt lat="48.00388" lon="7.20885">
        <ele>585</ele>
        <time>2021-07-02T07:55:36Z</time>
      </trkpt>
      <trkpt lat="48.00384" lon="7.20922">
        <ele>584</ele>
        <time>2021-07-02T07:55:38Z</time>
      </trkpt>
      <trkpt lat="48.00385" lon="7.20952">
        <ele>581.6</ele>
        <time>2021-07-02T07:55:40Z</time>
      </trkpt>
      <trkpt lat="48.00386" lon="7.20985">
        <ele>580.4</ele>
        <time>2021-07-02T07:55:42Z</time>
      </trkpt>
      <trkpt lat="48.00387" lon="7.21001">
        <ele>580.2</ele>
        <time>2021-07-02T07:55:43Z</time>
      </trkpt>
      <trkpt lat="48.00388" lon="7.21035">
        <ele>579</ele>
        <time>2021-07-02T07:55:45Z</time>
      </trkpt>
      <trkpt lat="48.0039" lon="7.21052">
        <ele>577.8</ele>
        <time>2021-07-02T07:55:46Z</time>
      </trkpt>
      <trkpt lat="48.00392" lon="7.21085">
        <ele>576.6</ele>
        <time>2021-07-02T07:55:48Z</time>
      </trkpt>
      <trkpt lat="48.00395" lon="7.21118">
        <ele>575</ele>
        <time>2021-07-02T07:55:50Z</time>
      </trkpt>
      <trkpt lat="48.00398" lon="7.21151">
        <ele>573.6</ele>
        <time>2021-07-02T07:55:52Z</time>
      </trkpt>
      <trkpt lat="48.004" lon="7.21167">
        <ele>573</ele>
        <time>2021-07-02T07:55:53Z</time>
      </trkpt>
      <trkpt lat="48.00403" lon="7.21197">
        <ele>571.8</ele>
        <time>2021-07-02T07:55:55Z</time>
      </trkpt>
      <trkpt lat="48.00406" lon="7.21213">
        <ele>571.6</ele>
        <time>2021-07-02T07:55:56Z</time>
      </trkpt>
      <trkpt lat="48.00409" lon="7.21227">
        <ele>570.8</ele>
        <time>2021-07-02T07:55:57Z</time>
      </trkpt>
      <trkpt lat="48.00414" lon="7.21241">
        <ele>570.2</ele>
        <time>2021-07-02T07:55:58Z</time>
      </trkpt>
      <trkpt lat="48.0042" lon="7.21255">
        <ele>569.4</ele>
        <time>2021-07-02T07:55:59Z</time>
      </trkpt>
      <trkpt lat="48.00434" lon="7.21278">
        <ele>568.2</ele>
        <time>2021-07-02T07:56:01Z</time>
      </trkpt>
      <trkpt lat="48.00442" lon="7.21287">
        <ele>566.2</ele>
        <time>2021-07-02T07:56:02Z</time>
      </trkpt>
      <trkpt lat="48.00458" lon="7.21296">
        <ele>565</ele>
        <time>2021-07-02T07:56:04Z</time>
      </trkpt>
      <trkpt lat="48.00475" lon="7.21293">
        <ele>564.2</ele>
        <time>2021-07-02T07:56:06Z</time>
      </trkpt>
      <trkpt lat="48.00484" lon="7.21288">
        <ele>564</ele>
        <time>2021-07-02T07:56:07Z</time>
      </trkpt>
      <trkpt lat="48.00493" lon="7.21284">
        <ele>563.2</ele>
        <time>2021-07-02T07:56:08Z</time>
      </trkpt>
      <trkpt lat="48.00513" lon="7.21276">
        <ele>561</ele>
        <time>2021-07-02T07:56:10Z</time>
      </trkpt>
      <trkpt lat="48.00522" lon="7.21273">
        <ele>560.2</ele>
        <time>2021-07-02T07:56:11Z</time>
      </trkpt>
      <trkpt lat="48.00531" lon="7.21273">
        <ele>559.8</ele>
        <time>2021-07-02T07:56:12Z</time>
      </trkpt>
      <trkpt lat="48.0054" lon="7.21275">
        <ele>559</ele>
        <time>2021-07-02T07:56:13Z</time>
      </trkpt>
      <trkpt lat="48.00547" lon="7.21282">
        <ele>558</ele>
        <time>2021-07-02T07:56:14Z</time>
      </trkpt>
      <trkpt lat="48.00551" lon="7.21292">
        <ele>557</ele>
        <time>2021-07-02T07:56:15Z</time>
      </trkpt>
      <trkpt lat="48.00551" lon="7.21305">
        <ele>556.2</ele>
        <time>2021-07-02T07:56:16Z</time>
      </trkpt>
      <trkpt lat="48.00547" lon="7.21319">
        <ele>554.8</ele>
        <time>2021-07-02T07:56:17Z</time>
      </trkpt>
      <trkpt lat="48.00541" lon="7.21333">
        <ele>554.2</ele>
        <time>2021-07-02T07:56:18Z</time>
      </trkpt>
      <trkpt lat="48.00533" lon="7.21345">
        <ele>553.2</ele>
        <time>2021-07-02T07:56:19Z</time>
      </trkpt>
      <trkpt lat="48.0051" lon="7.21377">
        <ele>551.6</ele>
        <time>2021-07-02T07:56:22Z</time>
      </trkpt>
      <trkpt lat="48.00501" lon="7.21391">
        <ele>551.2</ele>
        <time>2021-07-02T07:56:23Z</time>
      </trkpt>
      <trkpt lat="48.00494" lon="7.21404">
        <ele>550.6</ele>
        <time>2021-07-02T07:56:24Z</time>
      </trkpt>
      <trkpt lat="48.00482" lon="7.21426">
        <ele>549</ele>
        <time>2021-07-02T07:56:26Z</time>
      </trkpt>
      <trkpt lat="48.00476" lon="7.21439">
        <ele>548.6</ele>
        <time>2021-07-02T07:56:27Z</time>
      </trkpt>
      <trkpt lat="48.00472" lon="7.21452">
        <ele>547.4</ele>
        <time>2021-07-02T07:56:28Z</time>
      </trkpt>
      <trkpt lat="48.0047" lon="7.21466">
        <ele>547</ele>
        <time>2021-07-02T07:56:29Z</time>
      </trkpt>
      <trkpt lat="48.00471" lon="7.21481">
        <ele>546.2</ele>
        <time>2021-07-02T07:56:30Z</time>
      </trkpt>
      <trkpt lat="48.00471" lon="7.21496">
        <ele>545.6</ele>
        <time>2021-07-02T07:56:31Z</time>
      </trkpt>
      <trkpt lat="48.00472" lon="7.21511">
        <ele>545</ele>
        <time>2021-07-02T07:56:32Z</time>
      </trkpt>
      <trkpt lat="48.00471" lon="7.21527">
        <ele>543.8</ele>
        <time>2021-07-02T07:56:33Z</time>
      </trkpt>
      <trkpt lat="48.00471" lon="7.21543">
        <ele>543.4</ele>
        <time>2021-07-02T07:56:34Z</time>
      </trkpt>
      <trkpt lat="48.00469" lon="7.21558">
        <ele>542.8</ele>
        <time>2021-07-02T07:56:35Z</time>
      </trkpt>
      <trkpt lat="48.00464" lon="7.21571">
        <ele>542.4</ele>
        <time>2021-07-02T07:56:36Z</time>
      </trkpt>
      <trkpt lat="48.00447" lon="7.2159">
        <ele>541.2</ele>
        <time>2021-07-02T07:56:38Z</time>
      </trkpt>
      <trkpt lat="48.00431" lon="7.21589">
        <ele>540</ele>
        <time>2021-07-02T07:56:40Z</time>
      </trkpt>
      <trkpt lat="48.00422" lon="7.21586">
        <ele>539.6</ele>
        <time>2021-07-02T07:56:41Z</time>
      </trkpt>
      <trkpt lat="48.00414" lon="7.21582">
        <ele>538.8</ele>
        <time>2021-07-02T07:56:42Z</time>
      </trkpt>
      <trkpt lat="48.0039" lon="7.21577">
        <ele>537.6</ele>
        <time>2021-07-02T07:56:45Z</time>
      </trkpt>
      <trkpt lat="48.00366" lon="7.21581">
        <ele>536.6</ele>
        <time>2021-07-02T07:56:48Z</time>
      </trkpt>
      <trkpt lat="48.00356" lon="7.21585">
        <ele>536.4</ele>
        <time>2021-07-02T07:56:49Z</time>
      </trkpt>
      <trkpt lat="48.00347" lon="7.21589">
        <ele>536.2</ele>
        <time>2021-07-02T07:56:50Z</time>
      </trkpt>
      <trkpt lat="48.00321" lon="7.21602">
        <ele>535</ele>
        <time>2021-07-02T07:56:53Z</time>
      </trkpt>
      <trkpt lat="48.00297" lon="7.21611">
        <ele>533.6</ele>
        <time>2021-07-02T07:56:56Z</time>
      </trkpt>
      <trkpt lat="48.00285" lon="7.21613">
        <ele>533</ele>
        <time>2021-07-02T07:56:57Z</time>
      </trkpt>
      <trkpt lat="48.00268" lon="7.21613">
        <ele>532</ele>
        <time>2021-07-02T07:56:59Z</time>
      </trkpt>
      <trkpt lat="48.0025" lon="7.21612">
        <ele>530.8</ele>
        <time>2021-07-02T07:57:01Z</time>
      </trkpt>
      <trkpt lat="48.00241" lon="7.21613">
        <ele>530.4</ele>
        <time>2021-07-02T07:57:02Z</time>
      </trkpt>
      <trkpt lat="48.00232" lon="7.21615">
        <ele>530</ele>
        <time>2021-07-02T07:57:03Z</time>
      </trkpt>
      <trkpt lat="48.00213" lon="7.21622">
        <ele>529</ele>
        <time>2021-07-02T07:57:05Z</time>
      </trkpt>
      <trkpt lat="48.00206" lon="7.21627">
        <ele>528.2</ele>
        <time>2021-07-02T07:57:06Z</time>
      </trkpt>
      <trkpt lat="48.00201" lon="7.21636">
        <ele>527.8</ele>
        <time>2021-07-02T07:57:07Z</time>
      </trkpt>
      <trkpt lat="48.00198" lon="7.21663">
        <ele>526.8</ele>
        <time>2021-07-02T07:57:09Z</time>
      </trkpt>
      <trkpt lat="48.00203" lon="7.21689">
        <ele>525.6</ele>
        <time>2021-07-02T07:57:11Z</time>
      </trkpt>
      <trkpt lat="48.00208" lon="7.217">
        <ele>525.2</ele>
        <time>2021-07-02T07:57:12Z</time>
      </trkpt>
      <trkpt lat="48.00214" lon="7.21709">
        <ele>524.4</ele>
        <time>2021-07-02T07:57:13Z</time>
      </trkpt>
      <trkpt lat="48.00229" lon="7.21721">
        <ele>523</ele>
        <time>2021-07-02T07:57:15Z</time>
      </trkpt>
      <trkpt lat="48.00243" lon="7.21725">
        <ele>521.6</ele>
        <time>2021-07-02T07:57:17Z</time>
      </trkpt>
      <trkpt lat="48.00258" lon="7.21727">
        <ele>520.8</ele>
        <time>2021-07-02T07:57:19Z</time>
      </trkpt>
      <trkpt lat="48.00267" lon="7.21729">
        <ele>520.4</ele>
        <time>2021-07-02T07:57:20Z</time>
      </trkpt>
      <trkpt lat="48.00284" lon="7.21735">
        <ele>519.4</ele>
        <time>2021-07-02T07:57:22Z</time>
      </trkpt>
      <trkpt lat="48.00293" lon="7.21738">
        <ele>519</ele>
        <time>2021-07-02T07:57:23Z</time>
      </trkpt>
      <trkpt lat="48.00311" lon="7.21747">
        <ele>518</ele>
        <time>2021-07-02T07:57:25Z</time>
      </trkpt>
      <trkpt lat="48.00329" lon="7.2176">
        <ele>517.2</ele>
        <time>2021-07-02T07:57:27Z</time>
      </trkpt>
      <trkpt lat="48.00338" lon="7.21767">
        <ele>516.4</ele>
        <time>2021-07-02T07:57:28Z</time>
      </trkpt>
      <trkpt lat="48.00353" lon="7.21783">
        <ele>515.2</ele>
        <time>2021-07-02T07:57:30Z</time>
      </trkpt>
      <trkpt lat="48.0036" lon="7.21791">
        <ele>514.6</ele>
        <time>2021-07-02T07:57:31Z</time>
      </trkpt>
      <trkpt lat="48.00368" lon="7.21798">
        <ele>514.2</ele>
        <time>2021-07-02T07:57:32Z</time>
      </trkpt>
      <trkpt lat="48.00392" lon="7.21822">
        <ele>512.8</ele>
        <time>2021-07-02T07:57:35Z</time>
      </trkpt>
      <trkpt lat="48.00408" lon="7.2184">
        <ele>512.2</ele>
        <time>2021-07-02T07:57:37Z</time>
      </trkpt>
      <trkpt lat="48.00416" lon="7.21848">
        <ele>512.2</ele>
        <time>2021-07-02T07:57:38Z</time>
      </trkpt>
      <trkpt lat="48.00425" lon="7.21855">
        <ele>511.8</ele>
        <time>2021-07-02T07:57:39Z</time>
      </trkpt>
      <trkpt lat="48.00445" lon="7.21861">
        <ele>510.8</ele>
        <time>2021-07-02T07:57:41Z</time>
      </trkpt>
      <trkpt lat="48.00455" lon="7.21863">
        <ele>510.2</ele>
        <time>2021-07-02T07:57:42Z</time>
      </trkpt>
      <trkpt lat="48.00472" lon="7.21869">
        <ele>509.6</ele>
        <time>2021-07-02T07:57:44Z</time>
      </trkpt>
      <trkpt lat="48.00478" lon="7.21874">
        <ele>509.4</ele>
        <time>2021-07-02T07:57:45Z</time>
      </trkpt>
      <trkpt lat="48.00484" lon="7.21881">
        <ele>508.8</ele>
        <time>2021-07-02T07:57:46Z</time>
      </trkpt>
      <trkpt lat="48.00486" lon="7.2189">
        <ele>508.6</ele>
        <time>2021-07-02T07:57:47Z</time>
      </trkpt>
      <trkpt lat="48.00487" lon="7.219">
        <ele>508</ele>
        <time>2021-07-02T07:57:48Z</time>
      </trkpt>
      <trkpt lat="48.00486" lon="7.21909">
        <ele>507.8</ele>
        <time>2021-07-02T07:57:49Z</time>
      </trkpt>
      <trkpt lat="48.00484" lon="7.21918">
        <ele>507</ele>
        <time>2021-07-02T07:57:50Z</time>
      </trkpt>
      <trkpt lat="48.00481" lon="7.21924">
        <ele>506.6</ele>
        <time>2021-07-02T07:57:51Z</time>
      </trkpt>
      <trkpt lat="48.00475" lon="7.21931">
        <ele>506</ele>
        <time>2021-07-02T07:57:53Z</time>
      </trkpt>
      <trkpt lat="48.0047" lon="7.21934">
        <ele>506</ele>
        <time>2021-07-02T07:57:54Z</time>
      </trkpt>
      <trkpt lat="48.00465" lon="7.21936">
        <ele>505.6</ele>
        <time>2021-07-02T07:57:55Z</time>
      </trkpt>
      <trkpt lat="48.00454" lon="7.21939">
        <ele>505.2</ele>
        <time>2021-07-02T07:57:57Z</time>
      </trkpt>
      <trkpt lat="48.00441" lon="7.21941">
        <ele>505</ele>
        <time>2021-07-02T07:57:59Z</time>
      </trkpt>
      <trkpt lat="48.00426" lon="7.21945">
        <ele>504.4</ele>
        <time>2021-07-02T07:58:01Z</time>
      </trkpt>
      <trkpt lat="48.00412" lon="7.21946">
        <ele>503.8</ele>
        <time>2021-07-02T07:58:03Z</time>
      </trkpt>
      <trkpt lat="48.00404" lon="7.21945">
        <ele>503.4</ele>
        <time>2021-07-02T07:58:04Z</time>
      </trkpt>
      <trkpt lat="48.00388" lon="7.21947">
        <ele>502.8</ele>
        <time>2021-07-02T07:58:06Z</time>
      </trkpt>
      <trkpt lat="48.00379" lon="7.21949">
        <ele>502.4</ele>
        <time>2021-07-02T07:58:07Z</time>
      </trkpt>
      <trkpt lat="48.00359" lon="7.21951">
        <ele>501.2</ele>
        <time>2021-07-02T07:58:09Z</time>
      </trkpt>
      <trkpt lat="48.00349" lon="7.21952">
        <ele>500</ele>
        <time>2021-07-02T07:58:10Z</time>
      </trkpt>
      <trkpt lat="48.00329" lon="7.21954">
        <ele>499</ele>
        <time>2021-07-02T07:58:12Z</time>
      </trkpt>
      <trkpt lat="48.00319" lon="7.21956">
        <ele>498.4</ele>
        <time>2021-07-02T07:58:13Z</time>
      </trkpt>
      <trkpt lat="48.0029" lon="7.21958">
        <ele>497.2</ele>
        <time>2021-07-02T07:58:16Z</time>
      </trkpt>
      <trkpt lat="48.0028" lon="7.21961">
        <ele>496.2</ele>
        <time>2021-07-02T07:58:17Z</time>
      </trkpt>
      <trkpt lat="48.00259" lon="7.21966">
        <ele>495</ele>
        <time>2021-07-02T07:58:19Z</time>
      </trkpt>
      <trkpt lat="48.00239" lon="7.21971">
        <ele>493.6</ele>
        <time>2021-07-02T07:58:21Z</time>
      </trkpt>
      <trkpt lat="48.00229" lon="7.21974">
        <ele>493</ele>
        <time>2021-07-02T07:58:22Z</time>
      </trkpt>
      <trkpt lat="48.00219" lon="7.21978">
        <ele>492.8</ele>
        <time>2021-07-02T07:58:23Z</time>
      </trkpt>
      <trkpt lat="48.0021" lon="7.21986">
        <ele>492.2</ele>
        <time>2021-07-02T07:58:24Z</time>
      </trkpt>
      <trkpt lat="48.00202" lon="7.21996">
        <ele>491.6</ele>
        <time>2021-07-02T07:58:25Z</time>
      </trkpt>
      <trkpt lat="48.00195" lon="7.22007">
        <ele>490.4</ele>
        <time>2021-07-02T07:58:26Z</time>
      </trkpt>
      <trkpt lat="48.0018" lon="7.22031">
        <ele>488</ele>
        <time>2021-07-02T07:58:28Z</time>
      </trkpt>
      <trkpt lat="48.00165" lon="7.22053">
        <ele>486</ele>
        <time>2021-07-02T07:58:30Z</time>
      </trkpt>
      <trkpt lat="48.00157" lon="7.22065">
        <ele>485</ele>
        <time>2021-07-02T07:58:31Z</time>
      </trkpt>
      <trkpt lat="48.00149" lon="7.22078">
        <ele>484.6</ele>
        <time>2021-07-02T07:58:32Z</time>
      </trkpt>
      <trkpt lat="48.00134" lon="7.22102">
        <ele>483</ele>
        <time>2021-07-02T07:58:34Z</time>
      </trkpt>
      <trkpt lat="48.00126" lon="7.22115">
        <ele>482</ele>
        <time>2021-07-02T07:58:35Z</time>
      </trkpt>
      <trkpt lat="48.00118" lon="7.22129">
        <ele>481.4</ele>
        <time>2021-07-02T07:58:36Z</time>
      </trkpt>
      <trkpt lat="48.00112" lon="7.22139">
        <ele>480.6</ele>
        <time>2021-07-02T07:58:37Z</time>
      </trkpt>
      <trkpt lat="48.00097" lon="7.22162">
        <ele>479.4</ele>
        <time>2021-07-02T07:58:39Z</time>
      </trkpt>
      <trkpt lat="48.00089" lon="7.22172">
        <ele>478.4</ele>
        <time>2021-07-02T07:58:40Z</time>
      </trkpt>
      <trkpt lat="48.00079" lon="7.22181">
        <ele>476.6</ele>
        <time>2021-07-02T07:58:41Z</time>
      </trkpt>
      <trkpt lat="48.00067" lon="7.2219">
        <ele>475.6</ele>
        <time>2021-07-02T07:58:42Z</time>
      </trkpt>
      <trkpt lat="48.00046" lon="7.22202">
        <ele>474.4</ele>
        <time>2021-07-02T07:58:44Z</time>
      </trkpt>
      <trkpt lat="48.00035" lon="7.22206">
        <ele>473.6</ele>
        <time>2021-07-02T07:58:45Z</time>
      </trkpt>
      <trkpt lat="48.00023" lon="7.2221">
        <ele>472</ele>
        <time>2021-07-02T07:58:46Z</time>
      </trkpt>
      <trkpt lat="48.00002" lon="7.2222">
        <ele>470.8</ele>
        <time>2021-07-02T07:58:48Z</time>
      </trkpt>
      <trkpt lat="47.99983" lon="7.22225">
        <ele>469.4</ele>
        <time>2021-07-02T07:58:50Z</time>
      </trkpt>
      <trkpt lat="47.9997" lon="7.22225">
        <ele>469</ele>
        <time>2021-07-02T07:58:51Z</time>
      </trkpt>
      <trkpt lat="47.99949" lon="7.22223">
        <ele>467.4</ele>
        <time>2021-07-02T07:58:53Z</time>
      </trkpt>
      <trkpt lat="47.99937" lon="7.2222">
        <ele>466.8</ele>
        <time>2021-07-02T07:58:54Z</time>
      </trkpt>
      <trkpt lat="47.99926" lon="7.22215">
        <ele>466</ele>
        <time>2021-07-02T07:58:55Z</time>
      </trkpt>
      <trkpt lat="47.99912" lon="7.22208">
        <ele>465.8</ele>
        <time>2021-07-02T07:58:56Z</time>
      </trkpt>
      <trkpt lat="47.99901" lon="7.222">
        <ele>464.4</ele>
        <time>2021-07-02T07:58:57Z</time>
      </trkpt>
      <trkpt lat="47.99883" lon="7.22186">
        <ele>462.6</ele>
        <time>2021-07-02T07:58:59Z</time>
      </trkpt>
      <trkpt lat="47.99873" lon="7.22178">
        <ele>462.2</ele>
        <time>2021-07-02T07:59:00Z</time>
      </trkpt>
      <trkpt lat="47.99861" lon="7.22168">
        <ele>460.8</ele>
        <time>2021-07-02T07:59:01Z</time>
      </trkpt>
      <trkpt lat="47.99851" lon="7.2216">
        <ele>459.4</ele>
        <time>2021-07-02T07:59:02Z</time>
      </trkpt>
      <trkpt lat="47.9983" lon="7.22142">
        <ele>458</ele>
        <time>2021-07-02T07:59:04Z</time>
      </trkpt>
      <trkpt lat="47.99809" lon="7.22126">
        <ele>456.6</ele>
        <time>2021-07-02T07:59:06Z</time>
      </trkpt>
      <trkpt lat="47.99788" lon="7.22111">
        <ele>455.2</ele>
        <time>2021-07-02T07:59:08Z</time>
      </trkpt>
      <trkpt lat="47.99767" lon="7.22096">
        <ele>454.2</ele>
        <time>2021-07-02T07:59:10Z</time>
      </trkpt>
      <trkpt lat="47.99758" lon="7.2209">
        <ele>453.6</ele>
        <time>2021-07-02T07:59:11Z</time>
      </trkpt>
      <trkpt lat="47.99745" lon="7.22082">
        <ele>452.2</ele>
        <time>2021-07-02T07:59:12Z</time>
      </trkpt>
      <trkpt lat="47.99735" lon="7.22075">
        <ele>450.6</ele>
        <time>2021-07-02T07:59:13Z</time>
      </trkpt>
      <trkpt lat="47.99716" lon="7.22063">
        <ele>449.2</ele>
        <time>2021-07-02T07:59:15Z</time>
      </trkpt>
      <trkpt lat="47.99703" lon="7.22056">
        <ele>448.6</ele>
        <time>2021-07-02T07:59:16Z</time>
      </trkpt>
      <trkpt lat="47.99692" lon="7.22051">
        <ele>447.4</ele>
        <time>2021-07-02T07:59:17Z</time>
      </trkpt>
      <trkpt lat="47.99669" lon="7.22039">
        <ele>446</ele>
        <time>2021-07-02T07:59:19Z</time>
      </trkpt>
      <trkpt lat="47.99649" lon="7.22029">
        <ele>444.6</ele>
        <time>2021-07-02T07:59:21Z</time>
      </trkpt>
      <trkpt lat="47.99627" lon="7.22017">
        <ele>443.6</ele>
        <time>2021-07-02T07:59:23Z</time>
      </trkpt>
      <trkpt lat="47.99617" lon="7.22009">
        <ele>443</ele>
        <time>2021-07-02T07:59:24Z</time>
      </trkpt>
      <trkpt lat="47.99594" lon="7.21995">
        <ele>441.4</ele>
        <time>2021-07-02T07:59:26Z</time>
      </trkpt>
      <trkpt lat="47.99585" lon="7.2199">
        <ele>440.4</ele>
        <time>2021-07-02T07:59:27Z</time>
      </trkpt>
      <trkpt lat="47.99572" lon="7.21985">
        <ele>439.2</ele>
        <time>2021-07-02T07:59:28Z</time>
      </trkpt>
      <trkpt lat="47.99548" lon="7.21979">
        <ele>437.4</ele>
        <time>2021-07-02T07:59:30Z</time>
      </trkpt>
      <trkpt lat="47.99539" lon="7.21978">
        <ele>436.8</ele>
        <time>2021-07-02T07:59:31Z</time>
      </trkpt>
      <trkpt lat="47.99527" lon="7.21979">
        <ele>435.2</ele>
        <time>2021-07-02T07:59:32Z</time>
      </trkpt>
      <trkpt lat="47.99516" lon="7.21982">
        <ele>433.8</ele>
        <time>2021-07-02T07:59:33Z</time>
      </trkpt>
      <trkpt lat="47.99503" lon="7.21987">
        <ele>433.4</ele>
        <time>2021-07-02T07:59:34Z</time>
      </trkpt>
      <trkpt lat="47.99491" lon="7.2199">
        <ele>432.6</ele>
        <time>2021-07-02T07:59:35Z</time>
      </trkpt>
      <trkpt lat="47.99458" lon="7.22008">
        <ele>431.2</ele>
        <time>2021-07-02T07:59:38Z</time>
      </trkpt>
      <trkpt lat="47.99445" lon="7.22015">
        <ele>430.2</ele>
        <time>2021-07-02T07:59:39Z</time>
      </trkpt>
      <trkpt lat="47.99434" lon="7.22022">
        <ele>429.8</ele>
        <time>2021-07-02T07:59:40Z</time>
      </trkpt>
      <trkpt lat="47.99423" lon="7.22027">
        <ele>428.2</ele>
        <time>2021-07-02T07:59:41Z</time>
      </trkpt>
      <trkpt lat="47.99402" lon="7.22035">
        <ele>426.4</ele>
        <time>2021-07-02T07:59:43Z</time>
      </trkpt>
      <trkpt lat="47.99388" lon="7.22036">
        <ele>425.6</ele>
        <time>2021-07-02T07:59:44Z</time>
      </trkpt>
      <trkpt lat="47.99376" lon="7.22035">
        <ele>425</ele>
        <time>2021-07-02T07:59:45Z</time>
      </trkpt>
      <trkpt lat="47.99365" lon="7.22032">
        <ele>423.4</ele>
        <time>2021-07-02T07:59:46Z</time>
      </trkpt>
      <trkpt lat="47.99344" lon="7.22025">
        <ele>421.8</ele>
        <time>2021-07-02T07:59:48Z</time>
      </trkpt>
      <trkpt lat="47.99331" lon="7.22021">
        <ele>421.2</ele>
        <time>2021-07-02T07:59:49Z</time>
      </trkpt>
      <trkpt lat="47.99319" lon="7.22018">
        <ele>420.4</ele>
        <time>2021-07-02T07:59:50Z</time>
      </trkpt>
      <trkpt lat="47.9931" lon="7.22016">
        <ele>420</ele>
        <time>2021-07-02T07:59:51Z</time>
      </trkpt>
      <trkpt lat="47.99297" lon="7.22013">
        <ele>418.4</ele>
        <time>2021-07-02T07:59:52Z</time>
      </trkpt>
      <trkpt lat="47.99286" lon="7.2201">
        <ele>417.2</ele>
        <time>2021-07-02T07:59:53Z</time>
      </trkpt>
      <trkpt lat="47.99263" lon="7.22002">
        <ele>415.2</ele>
        <time>2021-07-02T07:59:55Z</time>
      </trkpt>
      <trkpt lat="47.9924" lon="7.21995">
        <ele>413.2</ele>
        <time>2021-07-02T07:59:57Z</time>
      </trkpt>
      <trkpt lat="47.99216" lon="7.21991">
        <ele>412</ele>
        <time>2021-07-02T07:59:59Z</time>
      </trkpt>
      <trkpt lat="47.99192" lon="7.21987">
        <ele>410.2</ele>
        <time>2021-07-02T08:00:01Z</time>
      </trkpt>
      <trkpt lat="47.99169" lon="7.21982">
        <ele>408.4</ele>
        <time>2021-07-02T08:00:03Z</time>
      </trkpt>
      <trkpt lat="47.99155" lon="7.2198">
        <ele>407</ele>
        <time>2021-07-02T08:00:04Z</time>
      </trkpt>
      <trkpt lat="47.99134" lon="7.21978">
        <ele>405.2</ele>
        <time>2021-07-02T08:00:06Z</time>
      </trkpt>
      <trkpt lat="47.99109" lon="7.21978">
        <ele>403.8</ele>
        <time>2021-07-02T08:00:08Z</time>
      </trkpt>
      <trkpt lat="47.9909" lon="7.21977">
        <ele>401.8</ele>
        <time>2021-07-02T08:00:10Z</time>
      </trkpt>
      <trkpt lat="47.99068" lon="7.21978">
        <ele>400.6</ele>
        <time>2021-07-02T08:00:12Z</time>
      </trkpt>
      <trkpt lat="47.9905" lon="7.21979">
        <ele>399.6</ele>
        <time>2021-07-02T08:00:14Z</time>
      </trkpt>
      <trkpt lat="47.99042" lon="7.21981">
        <ele>399.2</ele>
        <time>2021-07-02T08:00:15Z</time>
      </trkpt>
      <trkpt lat="47.99035" lon="7.21983">
        <ele>398.6</ele>
        <time>2021-07-02T08:00:16Z</time>
      </trkpt>
      <trkpt lat="47.99024" lon="7.21987">
        <ele>397.6</ele>
        <time>2021-07-02T08:00:18Z</time>
      </trkpt>
      <trkpt lat="47.9902" lon="7.21989">
        <ele>397.2</ele>
        <time>2021-07-02T08:00:19Z</time>
      </trkpt>
      <trkpt lat="47.99014" lon="7.21991">
        <ele>396.6</ele>
        <time>2021-07-02T08:00:21Z</time>
      </trkpt>
      <trkpt lat="47.99007" lon="7.21994">
        <ele>395.8</ele>
        <time>2021-07-02T08:00:24Z</time>
      </trkpt>
      <trkpt lat="47.99001" lon="7.21995">
        <ele>395.6</ele>
        <time>2021-07-02T08:00:27Z</time>
      </trkpt>
      <trkpt lat="47.98987" lon="7.22">
        <ele>394.8</ele>
        <time>2021-07-02T08:00:32Z</time>
      </trkpt>
      <trkpt lat="47.98984" lon="7.22002">
        <ele>394.8</ele>
        <time>2021-07-02T08:00:33Z</time>
      </trkpt>
      <trkpt lat="47.98959" lon="7.22017">
        <ele>394.2</ele>
        <time>2021-07-02T08:00:39Z</time>
      </trkpt>
      <trkpt lat="47.98949" lon="7.22022">
        <ele>393.4</ele>
        <time>2021-07-02T08:00:41Z</time>
      </trkpt>
      <trkpt lat="47.98934" lon="7.22031">
        <ele>392.6</ele>
        <time>2021-07-02T08:00:44Z</time>
      </trkpt>
      <trkpt lat="47.98923" lon="7.22038">
        <ele>392.2</ele>
        <time>2021-07-02T08:00:46Z</time>
      </trkpt>
      <trkpt lat="47.98913" lon="7.22047">
        <ele>391.6</ele>
        <time>2021-07-02T08:00:48Z</time>
      </trkpt>
      <trkpt lat="47.98904" lon="7.22058">
        <ele>391.2</ele>
        <time>2021-07-02T08:00:50Z</time>
      </trkpt>
      <trkpt lat="47.98889" lon="7.22087">
        <ele>390</ele>
        <time>2021-07-02T08:00:54Z</time>
      </trkpt>
      <trkpt lat="47.98883" lon="7.22104">
        <ele>389.4</ele>
        <time>2021-07-02T08:00:56Z</time>
      </trkpt>
      <trkpt lat="47.98878" lon="7.22131">
        <ele>388.8</ele>
        <time>2021-07-02T08:00:59Z</time>
      </trkpt>
      <trkpt lat="47.98874" lon="7.22158">
        <ele>388.2</ele>
        <time>2021-07-02T08:01:02Z</time>
      </trkpt>
      <trkpt lat="47.98872" lon="7.22167">
        <ele>387.8</ele>
        <time>2021-07-02T08:01:03Z</time>
      </trkpt>
      <trkpt lat="47.98866" lon="7.2218">
        <ele>387.4</ele>
        <time>2021-07-02T08:01:05Z</time>
      </trkpt>
      <trkpt lat="47.98855" lon="7.22192">
        <ele>386.8</ele>
        <time>2021-07-02T08:01:07Z</time>
      </trkpt>
      <trkpt lat="47.98837" lon="7.22211">
        <ele>385.4</ele>
        <time>2021-07-02T08:01:10Z</time>
      </trkpt>
      <trkpt lat="47.98825" lon="7.22219">
        <ele>384</ele>
        <time>2021-07-02T08:01:12Z</time>
      </trkpt>
      <trkpt lat="47.98819" lon="7.22219">
        <ele>383.6</ele>
        <time>2021-07-02T08:01:13Z</time>
      </trkpt>
      <trkpt lat="47.98813" lon="7.22217">
        <ele>383.2</ele>
        <time>2021-07-02T08:01:14Z</time>
      </trkpt>
      <trkpt lat="47.98803" lon="7.22209">
        <ele>382.8</ele>
        <time>2021-07-02T08:01:16Z</time>
      </trkpt>
      <trkpt lat="47.98784" lon="7.22195">
        <ele>382.6</ele>
        <time>2021-07-02T08:01:20Z</time>
      </trkpt>
      <trkpt lat="47.98775" lon="7.22186">
        <ele>382.6</ele>
        <time>2021-07-02T08:01:22Z</time>
      </trkpt>
      <trkpt lat="47.98756" lon="7.22157">
        <ele>382</ele>
        <time>2021-07-02T08:01:27Z</time>
      </trkpt>
      <trkpt lat="47.98745" lon="7.22137">
        <ele>381.8</ele>
        <time>2021-07-02T08:01:30Z</time>
      </trkpt>
      <trkpt lat="47.98732" lon="7.22112">
        <ele>381.4</ele>
        <time>2021-07-02T08:01:33Z</time>
      </trkpt>
      <trkpt lat="47.98716" lon="7.22079">
        <ele>380.6</ele>
        <time>2021-07-02T08:01:37Z</time>
      </trkpt>
      <trkpt lat="47.98713" lon="7.22073">
        <ele>380.4</ele>
        <time>2021-07-02T08:01:38Z</time>
      </trkpt>
      <trkpt lat="47.98706" lon="7.2206">
        <ele>379.4</ele>
        <time>2021-07-02T08:01:40Z</time>
      </trkpt>
      <trkpt lat="47.98697" lon="7.22041">
        <ele>378</ele>
        <time>2021-07-02T08:01:43Z</time>
      </trkpt>
      <trkpt lat="47.98686" lon="7.22018">
        <ele>376.6</ele>
        <time>2021-07-02T08:01:48Z</time>
      </trkpt>
      <trkpt lat="47.98679" lon="7.22005">
        <ele>376</ele>
        <time>2021-07-02T08:01:53Z</time>
      </trkpt>
      <trkpt lat="47.98679" lon="7.22005">
        <ele>375.6</ele>
        <time>2021-07-02T08:01:56Z</time>
      </trkpt>
      <trkpt lat="47.98677" lon="7.21998">
        <ele>374.2</ele>
        <time>2021-07-02T08:03:14Z</time>
      </trkpt>
      <trkpt lat="47.9867" lon="7.21978">
        <ele>374.2</ele>
        <time>2021-07-02T08:03:19Z</time>
      </trkpt>
      <trkpt lat="47.98654" lon="7.21949">
        <ele>374</ele>
        <time>2021-07-02T08:03:24Z</time>
      </trkpt>
      <trkpt lat="47.98646" lon="7.21935">
        <ele>374</ele>
        <time>2021-07-02T08:03:26Z</time>
      </trkpt>
      <trkpt lat="47.98634" lon="7.21919">
        <ele>374</ele>
        <time>2021-07-02T08:03:29Z</time>
      </trkpt>
      <trkpt lat="47.9863" lon="7.21914">
        <ele>374</ele>
        <time>2021-07-02T08:03:30Z</time>
      </trkpt>
      <trkpt lat="47.98618" lon="7.219">
        <ele>374.4</ele>
        <time>2021-07-02T08:03:34Z</time>
      </trkpt>
      <trkpt lat="47.98612" lon="7.21896">
        <ele>375</ele>
        <time>2021-07-02T08:03:36Z</time>
      </trkpt>
      <trkpt lat="47.98607" lon="7.21892">
        <ele>375.4</ele>
        <time>2021-07-02T08:03:38Z</time>
      </trkpt>
      <trkpt lat="47.98604" lon="7.2189">
        <ele>375.8</ele>
        <time>2021-07-02T08:03:39Z</time>
      </trkpt>
      <trkpt lat="47.98599" lon="7.21886">
        <ele>376.4</ele>
        <time>2021-07-02T08:03:41Z</time>
      </trkpt>
      <trkpt lat="47.98589" lon="7.21875">
        <ele>377.4</ele>
        <time>2021-07-02T08:03:45Z</time>
      </trkpt>
      <trkpt lat="47.98585" lon="7.21869">
        <ele>378</ele>
        <time>2021-07-02T08:03:47Z</time>
      </trkpt>
      <trkpt lat="47.98581" lon="7.21863">
        <ele>378.8</ele>
        <time>2021-07-02T08:03:49Z</time>
      </trkpt>
      <trkpt lat="47.98575" lon="7.21848">
        <ele>380</ele>
        <time>2021-07-02T08:03:53Z</time>
      </trkpt>
      <trkpt lat="47.98574" lon="7.21844">
        <ele>380.4</ele>
        <time>2021-07-02T08:03:54Z</time>
      </trkpt>
      <trkpt lat="47.98572" lon="7.21837">
        <ele>381</ele>
        <time>2021-07-02T08:03:56Z</time>
      </trkpt>
      <trkpt lat="47.98571" lon="7.21819">
        <ele>382.4</ele>
        <time>2021-07-02T08:04:00Z</time>
      </trkpt>
      <trkpt lat="47.98567" lon="7.21798">
        <ele>383.2</ele>
        <time>2021-07-02T08:04:05Z</time>
      </trkpt>
      <trkpt lat="47.98564" lon="7.21794">
        <ele>383.4</ele>
        <time>2021-07-02T08:04:06Z</time>
      </trkpt>
      <trkpt lat="47.98558" lon="7.21768">
        <ele>383.8</ele>
        <time>2021-07-02T08:04:11Z</time>
      </trkpt>
      <trkpt lat="47.98557" lon="7.21761">
        <ele>383.8</ele>
        <time>2021-07-02T08:04:12Z</time>
      </trkpt>
      <trkpt lat="47.98554" lon="7.21745">
        <ele>383.8</ele>
        <time>2021-07-02T08:04:14Z</time>
      </trkpt>
      <trkpt lat="47.9855" lon="7.21732">
        <ele>383.8</ele>
        <time>2021-07-02T08:04:16Z</time>
      </trkpt>
      <trkpt lat="47.98538" lon="7.21691">
        <ele>383.4</ele>
        <time>2021-07-02T08:04:21Z</time>
      </trkpt>
      <trkpt lat="47.98523" lon="7.21651">
        <ele>382.4</ele>
        <time>2021-07-02T08:04:26Z</time>
      </trkpt>
      <trkpt lat="47.98517" lon="7.21635">
        <ele>382</ele>
        <time>2021-07-02T08:04:28Z</time>
      </trkpt>
      <trkpt lat="47.98508" lon="7.2161">
        <ele>381.4</ele>
        <time>2021-07-02T08:04:31Z</time>
      </trkpt>
      <trkpt lat="47.98495" lon="7.21575">
        <ele>380.4</ele>
        <time>2021-07-02T08:04:35Z</time>
      </trkpt>
      <trkpt lat="47.98491" lon="7.21566">
        <ele>380</ele>
        <time>2021-07-02T08:04:36Z</time>
      </trkpt>
      <trkpt lat="47.98481" lon="7.21539">
        <ele>379.8</ele>
        <time>2021-07-02T08:04:39Z</time>
      </trkpt>
      <trkpt lat="47.98478" lon="7.21529">
        <ele>379.4</ele>
        <time>2021-07-02T08:04:40Z</time>
      </trkpt>
      <trkpt lat="47.98472" lon="7.21507">
        <ele>379</ele>
        <time>2021-07-02T08:04:42Z</time>
      </trkpt>
      <trkpt lat="47.9847" lon="7.21496">
        <ele>378.2</ele>
        <time>2021-07-02T08:04:43Z</time>
      </trkpt>
      <trkpt lat="47.98467" lon="7.21484">
        <ele>378</ele>
        <time>2021-07-02T08:04:44Z</time>
      </trkpt>
      <trkpt lat="47.98465" lon="7.21472">
        <ele>377.2</ele>
        <time>2021-07-02T08:04:45Z</time>
      </trkpt>
      <trkpt lat="47.9846" lon="7.21448">
        <ele>376.4</ele>
        <time>2021-07-02T08:04:47Z</time>
      </trkpt>
      <trkpt lat="47.98454" lon="7.21413">
        <ele>375.4</ele>
        <time>2021-07-02T08:04:50Z</time>
      </trkpt>
      <trkpt lat="47.98448" lon="7.2139">
        <ele>375</ele>
        <time>2021-07-02T08:04:52Z</time>
      </trkpt>
      <trkpt lat="47.98436" lon="7.21333">
        <ele>374.2</ele>
        <time>2021-07-02T08:04:57Z</time>
      </trkpt>
      <trkpt lat="47.98429" lon="7.213">
        <ele>373.4</ele>
        <time>2021-07-02T08:05:00Z</time>
      </trkpt>
      <trkpt lat="47.98427" lon="7.21289">
        <ele>373</ele>
        <time>2021-07-02T08:05:01Z</time>
      </trkpt>
      <trkpt lat="47.98419" lon="7.21221">
        <ele>372.4</ele>
        <time>2021-07-02T08:05:07Z</time>
      </trkpt>
      <trkpt lat="47.98418" lon="7.21208">
        <ele>372.2</ele>
        <time>2021-07-02T08:05:08Z</time>
      </trkpt>
      <trkpt lat="47.98414" lon="7.21153">
        <ele>371</ele>
        <time>2021-07-02T08:05:12Z</time>
      </trkpt>
      <trkpt lat="47.98413" lon="7.21139">
        <ele>370.4</ele>
        <time>2021-07-02T08:05:13Z</time>
      </trkpt>
      <trkpt lat="47.98412" lon="7.21124">
        <ele>369.4</ele>
        <time>2021-07-02T08:05:14Z</time>
      </trkpt>
      <trkpt lat="47.9841" lon="7.21108">
        <ele>369</ele>
        <time>2021-07-02T08:05:15Z</time>
      </trkpt>
      <trkpt lat="47.98402" lon="7.21078">
        <ele>368</ele>
        <time>2021-07-02T08:05:17Z</time>
      </trkpt>
      <trkpt lat="47.98388" lon="7.2105">
        <ele>366</ele>
        <time>2021-07-02T08:05:19Z</time>
      </trkpt>
      <trkpt lat="47.9838" lon="7.21037">
        <ele>365.4</ele>
        <time>2021-07-02T08:05:20Z</time>
      </trkpt>
      <trkpt lat="47.98373" lon="7.21025">
        <ele>363.6</ele>
        <time>2021-07-02T08:05:21Z</time>
      </trkpt>
      <trkpt lat="47.98366" lon="7.21013">
        <ele>362.6</ele>
        <time>2021-07-02T08:05:22Z</time>
      </trkpt>
      <trkpt lat="47.98359" lon="7.21001">
        <ele>361.2</ele>
        <time>2021-07-02T08:05:23Z</time>
      </trkpt>
      <trkpt lat="47.98346" lon="7.20975">
        <ele>358.8</ele>
        <time>2021-07-02T08:05:25Z</time>
      </trkpt>
      <trkpt lat="47.98336" lon="7.20948">
        <ele>357.4</ele>
        <time>2021-07-02T08:05:27Z</time>
      </trkpt>
      <trkpt lat="47.98327" lon="7.2092">
        <ele>356</ele>
        <time>2021-07-02T08:05:29Z</time>
      </trkpt>
      <trkpt lat="47.98323" lon="7.20906">
        <ele>354.8</ele>
        <time>2021-07-02T08:05:30Z</time>
      </trkpt>
      <trkpt lat="47.98313" lon="7.2088">
        <ele>353.8</ele>
        <time>2021-07-02T08:05:32Z</time>
      </trkpt>
      <trkpt lat="47.983" lon="7.2086">
        <ele>352.2</ele>
        <time>2021-07-02T08:05:34Z</time>
      </trkpt>
      <trkpt lat="47.98288" lon="7.20844">
        <ele>349.6</ele>
        <time>2021-07-02T08:05:36Z</time>
      </trkpt>
      <trkpt lat="47.98279" lon="7.20831">
        <ele>348.2</ele>
        <time>2021-07-02T08:05:38Z</time>
      </trkpt>
      <trkpt lat="47.98275" lon="7.20826">
        <ele>347.4</ele>
        <time>2021-07-02T08:05:39Z</time>
      </trkpt>
      <trkpt lat="47.98269" lon="7.2082">
        <ele>345.8</ele>
        <time>2021-07-02T08:05:41Z</time>
      </trkpt>
      <trkpt lat="47.98267" lon="7.20818">
        <ele>344</ele>
        <time>2021-07-02T08:05:43Z</time>
      </trkpt>
      <trkpt lat="47.98267" lon="7.20818">
        <ele>343.6</ele>
        <time>2021-07-02T08:05:44Z</time>
      </trkpt>
      <trkpt lat="47.98267" lon="7.20818">
        <ele>343.4</ele>
        <time>2021-07-02T08:05:45Z</time>
      </trkpt>
      <trkpt lat="47.98265" lon="7.20815">
        <ele>341.8</ele>
        <time>2021-07-02T08:06:09Z</time>
      </trkpt>
      <trkpt lat="47.98258" lon="7.20808">
        <ele>341.8</ele>
        <time>2021-07-02T08:06:11Z</time>
      </trkpt>
      <trkpt lat="47.98239" lon="7.20787">
        <ele>341.6</ele>
        <time>2021-07-02T08:06:15Z</time>
      </trkpt>
      <trkpt lat="47.98228" lon="7.20773">
        <ele>340.8</ele>
        <time>2021-07-02T08:06:17Z</time>
      </trkpt>
      <trkpt lat="47.9821" lon="7.20752">
        <ele>340</ele>
        <time>2021-07-02T08:06:20Z</time>
      </trkpt>
      <trkpt lat="47.98203" lon="7.20744">
        <ele>339.6</ele>
        <time>2021-07-02T08:06:21Z</time>
      </trkpt>
      <trkpt lat="47.98197" lon="7.20735">
        <ele>339.2</ele>
        <time>2021-07-02T08:06:22Z</time>
      </trkpt>
      <trkpt lat="47.98191" lon="7.20725">
        <ele>338.4</ele>
        <time>2021-07-02T08:06:23Z</time>
      </trkpt>
      <trkpt lat="47.9818" lon="7.20704">
        <ele>337.4</ele>
        <time>2021-07-02T08:06:25Z</time>
      </trkpt>
      <trkpt lat="47.98174" lon="7.20693">
        <ele>336.8</ele>
        <time>2021-07-02T08:06:26Z</time>
      </trkpt>
      <trkpt lat="47.98166" lon="7.20669">
        <ele>335.2</ele>
        <time>2021-07-02T08:06:28Z</time>
      </trkpt>
      <trkpt lat="47.98162" lon="7.20656">
        <ele>334.8</ele>
        <time>2021-07-02T08:06:29Z</time>
      </trkpt>
      <trkpt lat="47.98158" lon="7.20643">
        <ele>333.8</ele>
        <time>2021-07-02T08:06:30Z</time>
      </trkpt>
      <trkpt lat="47.98147" lon="7.20607">
        <ele>332.8</ele>
        <time>2021-07-02T08:06:33Z</time>
      </trkpt>
      <trkpt lat="47.98141" lon="7.20585">
        <ele>332</ele>
        <time>2021-07-02T08:06:35Z</time>
      </trkpt>
      <trkpt lat="47.98138" lon="7.20575">
        <ele>332</ele>
        <time>2021-07-02T08:06:36Z</time>
      </trkpt>
      <trkpt lat="47.98135" lon="7.20565">
        <ele>331.6</ele>
        <time>2021-07-02T08:06:37Z</time>
      </trkpt>
      <trkpt lat="47.98123" lon="7.2052">
        <ele>331.6</ele>
        <time>2021-07-02T08:06:42Z</time>
      </trkpt>
      <trkpt lat="47.98115" lon="7.20478">
        <ele>332.2</ele>
        <time>2021-07-02T08:06:47Z</time>
      </trkpt>
      <trkpt lat="47.98114" lon="7.20462">
        <ele>333</ele>
        <time>2021-07-02T08:06:49Z</time>
      </trkpt>
      <trkpt lat="47.98114" lon="7.20453">
        <ele>333.2</ele>
        <time>2021-07-02T08:06:50Z</time>
      </trkpt>
      <trkpt lat="47.98116" lon="7.20437">
        <ele>333.6</ele>
        <time>2021-07-02T08:06:52Z</time>
      </trkpt>
      <trkpt lat="47.98119" lon="7.20422">
        <ele>334.2</ele>
        <time>2021-07-02T08:06:54Z</time>
      </trkpt>
      <trkpt lat="47.98126" lon="7.20393">
        <ele>335.4</ele>
        <time>2021-07-02T08:06:58Z</time>
      </trkpt>
      <trkpt lat="47.98127" lon="7.20386">
        <ele>335.6</ele>
        <time>2021-07-02T08:06:59Z</time>
      </trkpt>
      <trkpt lat="47.98133" lon="7.20362">
        <ele>336.6</ele>
        <time>2021-07-02T08:07:03Z</time>
      </trkpt>
      <trkpt lat="47.98135" lon="7.2035">
        <ele>337</ele>
        <time>2021-07-02T08:07:05Z</time>
      </trkpt>
      <trkpt lat="47.98138" lon="7.20339">
        <ele>337.6</ele>
        <time>2021-07-02T08:07:07Z</time>
      </trkpt>
      <trkpt lat="47.98139" lon="7.20334">
        <ele>337.8</ele>
        <time>2021-07-02T08:07:08Z</time>
      </trkpt>
      <trkpt lat="47.98142" lon="7.20317">
        <ele>338.4</ele>
        <time>2021-07-02T08:07:11Z</time>
      </trkpt>
      <trkpt lat="47.98143" lon="7.20312">
        <ele>338.6</ele>
        <time>2021-07-02T08:07:12Z</time>
      </trkpt>
      <trkpt lat="47.98145" lon="7.20295">
        <ele>339.8</ele>
        <time>2021-07-02T08:07:15Z</time>
      </trkpt>
      <trkpt lat="47.98147" lon="7.20272">
        <ele>341</ele>
        <time>2021-07-02T08:07:19Z</time>
      </trkpt>
      <trkpt lat="47.98148" lon="7.20266">
        <ele>341.2</ele>
        <time>2021-07-02T08:07:20Z</time>
      </trkpt>
      <trkpt lat="47.98149" lon="7.20235">
        <ele>342.2</ele>
        <time>2021-07-02T08:07:25Z</time>
      </trkpt>
      <trkpt lat="47.98151" lon="7.20223">
        <ele>342.6</ele>
        <time>2021-07-02T08:07:27Z</time>
      </trkpt>
      <trkpt lat="47.98152" lon="7.20206">
        <ele>343</ele>
        <time>2021-07-02T08:07:30Z</time>
      </trkpt>
      <trkpt lat="47.98152" lon="7.202">
        <ele>343.4</ele>
        <time>2021-07-02T08:07:31Z</time>
      </trkpt>
      <trkpt lat="47.98153" lon="7.20187">
        <ele>343.8</ele>
        <time>2021-07-02T08:07:33Z</time>
      </trkpt>
      <trkpt lat="47.98154" lon="7.20182">
        <ele>344</ele>
        <time>2021-07-02T08:07:34Z</time>
      </trkpt>
      <trkpt lat="47.98155" lon="7.20164">
        <ele>344.6</ele>
        <time>2021-07-02T08:07:37Z</time>
      </trkpt>
      <trkpt lat="47.98156" lon="7.20141">
        <ele>345</ele>
        <time>2021-07-02T08:07:41Z</time>
      </trkpt>
      <trkpt lat="47.98155" lon="7.2013">
        <ele>345.8</ele>
        <time>2021-07-02T08:07:43Z</time>
      </trkpt>
      <trkpt lat="47.98154" lon="7.20101">
        <ele>346.8</ele>
        <time>2021-07-02T08:07:48Z</time>
      </trkpt>
      <trkpt lat="47.98153" lon="7.20089">
        <ele>347.2</ele>
        <time>2021-07-02T08:07:50Z</time>
      </trkpt>
      <trkpt lat="47.98148" lon="7.20066">
        <ele>347.8</ele>
        <time>2021-07-02T08:07:54Z</time>
      </trkpt>
      <trkpt lat="47.98142" lon="7.20043">
        <ele>348.6</ele>
        <time>2021-07-02T08:07:58Z</time>
      </trkpt>
      <trkpt lat="47.98136" lon="7.20027">
        <ele>349</ele>
        <time>2021-07-02T08:08:01Z</time>
      </trkpt>
      <trkpt lat="47.98122" lon="7.2">
        <ele>349.2</ele>
        <time>2021-07-02T08:08:06Z</time>
      </trkpt>
      <trkpt lat="47.98097" lon="7.19967">
        <ele>349.4</ele>
        <time>2021-07-02T08:08:13Z</time>
      </trkpt>
      <trkpt lat="47.98062" lon="7.1994">
        <ele>349.4</ele>
        <time>2021-07-02T08:08:21Z</time>
      </trkpt>
      <trkpt lat="47.9802" lon="7.19912">
        <ele>349.6</ele>
        <time>2021-07-02T08:08:30Z</time>
      </trkpt>
      <trkpt lat="47.97986" lon="7.1989">
        <ele>349.8</ele>
        <time>2021-07-02T08:08:37Z</time>
      </trkpt>
      <trkpt lat="47.97936" lon="7.19858">
        <ele>350</ele>
        <time>2021-07-02T08:08:47Z</time>
      </trkpt>
      <trkpt lat="47.97917" lon="7.19846">
        <ele>350.2</ele>
        <time>2021-07-02T08:08:51Z</time>
      </trkpt>
      <trkpt lat="47.9789" lon="7.19828">
        <ele>350.6</ele>
        <time>2021-07-02T08:08:57Z</time>
      </trkpt>
      <trkpt lat="47.9788" lon="7.19822">
        <ele>350.8</ele>
        <time>2021-07-02T08:08:59Z</time>
      </trkpt>
      <trkpt lat="47.97871" lon="7.19815">
        <ele>351.2</ele>
        <time>2021-07-02T08:09:01Z</time>
      </trkpt>
      <trkpt lat="47.97866" lon="7.19812">
        <ele>351.2</ele>
        <time>2021-07-02T08:09:02Z</time>
      </trkpt>
      <trkpt lat="47.97862" lon="7.19809">
        <ele>351.4</ele>
        <time>2021-07-02T08:09:03Z</time>
      </trkpt>
      <trkpt lat="47.97818" lon="7.19781">
        <ele>352</ele>
        <time>2021-07-02T08:09:12Z</time>
      </trkpt>
      <trkpt lat="47.97798" lon="7.1977">
        <ele>352.4</ele>
        <time>2021-07-02T08:09:16Z</time>
      </trkpt>
      <trkpt lat="47.97783" lon="7.19764">
        <ele>352.6</ele>
        <time>2021-07-02T08:09:19Z</time>
      </trkpt>
      <trkpt lat="47.97751" lon="7.19754">
        <ele>352.8</ele>
        <time>2021-07-02T08:09:25Z</time>
      </trkpt>
      <trkpt lat="47.97714" lon="7.19742">
        <ele>352.8</ele>
        <time>2021-07-02T08:09:32Z</time>
      </trkpt>
      <trkpt lat="47.97679" lon="7.19731">
        <ele>352.6</ele>
        <time>2021-07-02T08:09:39Z</time>
      </trkpt>
      <trkpt lat="47.97665" lon="7.19726">
        <ele>352.4</ele>
        <time>2021-07-02T08:09:42Z</time>
      </trkpt>
      <trkpt lat="47.97651" lon="7.19725">
        <ele>352.4</ele>
        <time>2021-07-02T08:09:45Z</time>
      </trkpt>
      <trkpt lat="47.97623" lon="7.19719">
        <ele>353</ele>
        <time>2021-07-02T08:09:52Z</time>
      </trkpt>
      <trkpt lat="47.97615" lon="7.19716">
        <ele>353.6</ele>
        <time>2021-07-02T08:09:56Z</time>
      </trkpt>
      <trkpt lat="47.97614" lon="7.19716">
        <ele>353.6</ele>
        <time>2021-07-02T08:09:57Z</time>
      </trkpt>
      <trkpt lat="47.97614" lon="7.19716">
        <ele>353.8</ele>
        <time>2021-07-02T08:09:58Z</time>
      </trkpt>
      <trkpt lat="47.97612" lon="7.19721">
        <ele>354.6</ele>
        <time>2021-07-02T08:13:06Z</time>
      </trkpt>
      <trkpt lat="47.97609" lon="7.19732">
        <ele>354.6</ele>
        <time>2021-07-02T08:13:08Z</time>
      </trkpt>
      <trkpt lat="47.97601" lon="7.19761">
        <ele>354.4</ele>
        <time>2021-07-02T08:13:12Z</time>
      </trkpt>
      <trkpt lat="47.97599" lon="7.19767">
        <ele>354.2</ele>
        <time>2021-07-02T08:13:13Z</time>
      </trkpt>
      <trkpt lat="47.9759" lon="7.19777">
        <ele>354.2</ele>
        <time>2021-07-02T08:13:15Z</time>
      </trkpt>
      <trkpt lat="47.97578" lon="7.19778">
        <ele>354</ele>
        <time>2021-07-02T08:13:17Z</time>
      </trkpt>
      <trkpt lat="47.97568" lon="7.19775">
        <ele>353.8</ele>
        <time>2021-07-02T08:13:19Z</time>
      </trkpt>
      <trkpt lat="47.97555" lon="7.19771">
        <ele>353</ele>
        <time>2021-07-02T08:13:21Z</time>
      </trkpt>
      <trkpt lat="47.97538" lon="7.19768">
        <ele>352.4</ele>
        <time>2021-07-02T08:13:24Z</time>
      </trkpt>
      <trkpt lat="47.97532" lon="7.19768">
        <ele>352.4</ele>
        <time>2021-07-02T08:13:25Z</time>
      </trkpt>
      <trkpt lat="47.9752" lon="7.19768">
        <ele>351.8</ele>
        <time>2021-07-02T08:13:27Z</time>
      </trkpt>
      <trkpt lat="47.97507" lon="7.19773">
        <ele>351.6</ele>
        <time>2021-07-02T08:13:29Z</time>
      </trkpt>
      <trkpt lat="47.975" lon="7.19776">
        <ele>351.6</ele>
        <time>2021-07-02T08:13:30Z</time>
      </trkpt>
      <trkpt lat="47.97478" lon="7.19787">
        <ele>350.2</ele>
        <time>2021-07-02T08:13:33Z</time>
      </trkpt>
      <trkpt lat="47.97461" lon="7.19795">
        <ele>349.6</ele>
        <time>2021-07-02T08:13:35Z</time>
      </trkpt>
      <trkpt lat="47.97453" lon="7.198">
        <ele>349.2</ele>
        <time>2021-07-02T08:13:36Z</time>
      </trkpt>
      <trkpt lat="47.97435" lon="7.19809">
        <ele>348</ele>
        <time>2021-07-02T08:13:38Z</time>
      </trkpt>
      <trkpt lat="47.97415" lon="7.19818">
        <ele>346.4</ele>
        <time>2021-07-02T08:13:40Z</time>
      </trkpt>
      <trkpt lat="47.97405" lon="7.19823">
        <ele>346.2</ele>
        <time>2021-07-02T08:13:41Z</time>
      </trkpt>
      <trkpt lat="47.97395" lon="7.19828">
        <ele>345.2</ele>
        <time>2021-07-02T08:13:42Z</time>
      </trkpt>
      <trkpt lat="47.97385" lon="7.19832">
        <ele>344.2</ele>
        <time>2021-07-02T08:13:43Z</time>
      </trkpt>
      <trkpt lat="47.97365" lon="7.19841">
        <ele>343</ele>
        <time>2021-07-02T08:13:45Z</time>
      </trkpt>
      <trkpt lat="47.97346" lon="7.19852">
        <ele>340.8</ele>
        <time>2021-07-02T08:13:47Z</time>
      </trkpt>
      <trkpt lat="47.97328" lon="7.19866">
        <ele>339.2</ele>
        <time>2021-07-02T08:13:49Z</time>
      </trkpt>
      <trkpt lat="47.97312" lon="7.19882">
        <ele>338</ele>
        <time>2021-07-02T08:13:51Z</time>
      </trkpt>
      <trkpt lat="47.97305" lon="7.1989">
        <ele>337.8</ele>
        <time>2021-07-02T08:13:52Z</time>
      </trkpt>
      <trkpt lat="47.97279" lon="7.19924">
        <ele>337</ele>
        <time>2021-07-02T08:13:56Z</time>
      </trkpt>
      <trkpt lat="47.97268" lon="7.19941">
        <ele>336.8</ele>
        <time>2021-07-02T08:13:58Z</time>
      </trkpt>
      <trkpt lat="47.97246" lon="7.19976">
        <ele>336</ele>
        <time>2021-07-02T08:14:02Z</time>
      </trkpt>
      <trkpt lat="47.97237" lon="7.19994">
        <ele>335.6</ele>
        <time>2021-07-02T08:14:04Z</time>
      </trkpt>
      <trkpt lat="47.97233" lon="7.20004">
        <ele>335.4</ele>
        <time>2021-07-02T08:14:05Z</time>
      </trkpt>
      <trkpt lat="47.97219" lon="7.20051">
        <ele>335</ele>
        <time>2021-07-02T08:14:10Z</time>
      </trkpt>
      <trkpt lat="47.97211" lon="7.2011">
        <ele>335</ele>
        <time>2021-07-02T08:14:16Z</time>
      </trkpt>
      <trkpt lat="47.97209" lon="7.20183">
        <ele>335</ele>
        <time>2021-07-02T08:14:24Z</time>
      </trkpt>
      <trkpt lat="47.97207" lon="7.20233">
        <ele>335</ele>
        <time>2021-07-02T08:14:30Z</time>
      </trkpt>
      <trkpt lat="47.97204" lon="7.20271">
        <ele>335.2</ele>
        <time>2021-07-02T08:14:35Z</time>
      </trkpt>
      <trkpt lat="47.97203" lon="7.20278">
        <ele>335.2</ele>
        <time>2021-07-02T08:14:36Z</time>
      </trkpt>
      <trkpt lat="47.97194" lon="7.20324">
        <ele>335.2</ele>
        <time>2021-07-02T08:14:42Z</time>
      </trkpt>
      <trkpt lat="47.97181" lon="7.20369">
        <ele>335.2</ele>
        <time>2021-07-02T08:14:48Z</time>
      </trkpt>
      <trkpt lat="47.97179" lon="7.20375">
        <ele>335.2</ele>
        <time>2021-07-02T08:14:49Z</time>
      </trkpt>
      <trkpt lat="47.97171" lon="7.20398">
        <ele>335</ele>
        <time>2021-07-02T08:14:52Z</time>
      </trkpt>
      <trkpt lat="47.97159" lon="7.20434">
        <ele>334.4</ele>
        <time>2021-07-02T08:14:57Z</time>
      </trkpt>
      <trkpt lat="47.97156" lon="7.20441">
        <ele>334.4</ele>
        <time>2021-07-02T08:14:58Z</time>
      </trkpt>
      <trkpt lat="47.97142" lon="7.20489">
        <ele>334.2</ele>
        <time>2021-07-02T08:15:04Z</time>
      </trkpt>
      <trkpt lat="47.97137" lon="7.20506">
        <ele>334</ele>
        <time>2021-07-02T08:15:06Z</time>
      </trkpt>
      <trkpt lat="47.97135" lon="7.20514">
        <ele>334</ele>
        <time>2021-07-02T08:15:07Z</time>
      </trkpt>
      <trkpt lat="47.97127" lon="7.20563">
        <ele>333.4</ele>
        <time>2021-07-02T08:15:12Z</time>
      </trkpt>
      <trkpt lat="47.97126" lon="7.20573">
        <ele>333.2</ele>
        <time>2021-07-02T08:15:13Z</time>
      </trkpt>
      <trkpt lat="47.97125" lon="7.20597">
        <ele>332.6</ele>
        <time>2021-07-02T08:15:15Z</time>
      </trkpt>
      <trkpt lat="47.97125" lon="7.20622">
        <ele>331.8</ele>
        <time>2021-07-02T08:15:17Z</time>
      </trkpt>
      <trkpt lat="47.97126" lon="7.20648">
        <ele>330.8</ele>
        <time>2021-07-02T08:15:19Z</time>
      </trkpt>
      <trkpt lat="47.97127" lon="7.20689">
        <ele>329</ele>
        <time>2021-07-02T08:15:22Z</time>
      </trkpt>
      <trkpt lat="47.97127" lon="7.20703">
        <ele>328.4</ele>
        <time>2021-07-02T08:15:23Z</time>
      </trkpt>
      <trkpt lat="47.97126" lon="7.20718">
        <ele>327.4</ele>
        <time>2021-07-02T08:15:24Z</time>
      </trkpt>
      <trkpt lat="47.97125" lon="7.20736">
        <ele>326.4</ele>
        <time>2021-07-02T08:15:25Z</time>
      </trkpt>
      <trkpt lat="47.9712" lon="7.20764">
        <ele>324.6</ele>
        <time>2021-07-02T08:15:27Z</time>
      </trkpt>
      <trkpt lat="47.97113" lon="7.20794">
        <ele>322.8</ele>
        <time>2021-07-02T08:15:29Z</time>
      </trkpt>
      <trkpt lat="47.97103" lon="7.20821">
        <ele>320.6</ele>
        <time>2021-07-02T08:15:31Z</time>
      </trkpt>
      <trkpt lat="47.97091" lon="7.20847">
        <ele>318.6</ele>
        <time>2021-07-02T08:15:33Z</time>
      </trkpt>
      <trkpt lat="47.97079" lon="7.20871">
        <ele>317</ele>
        <time>2021-07-02T08:15:35Z</time>
      </trkpt>
      <trkpt lat="47.97073" lon="7.20883">
        <ele>316.2</ele>
        <time>2021-07-02T08:15:36Z</time>
      </trkpt>
      <trkpt lat="47.97066" lon="7.20895">
        <ele>315.8</ele>
        <time>2021-07-02T08:15:37Z</time>
      </trkpt>
      <trkpt lat="47.9705" lon="7.20921">
        <ele>314</ele>
        <time>2021-07-02T08:15:39Z</time>
      </trkpt>
      <trkpt lat="47.97044" lon="7.20931">
        <ele>312.6</ele>
        <time>2021-07-02T08:15:40Z</time>
      </trkpt>
      <trkpt lat="47.97032" lon="7.20959">
        <ele>311.4</ele>
        <time>2021-07-02T08:15:42Z</time>
      </trkpt>
      <trkpt lat="47.97026" lon="7.20975">
        <ele>310.2</ele>
        <time>2021-07-02T08:15:43Z</time>
      </trkpt>
      <trkpt lat="47.97017" lon="7.21008">
        <ele>308.2</ele>
        <time>2021-07-02T08:15:45Z</time>
      </trkpt>
      <trkpt lat="47.97013" lon="7.21024">
        <ele>307.6</ele>
        <time>2021-07-02T08:15:46Z</time>
      </trkpt>
      <trkpt lat="47.9701" lon="7.2104">
        <ele>306.6</ele>
        <time>2021-07-02T08:15:47Z</time>
      </trkpt>
      <trkpt lat="47.97003" lon="7.21069">
        <ele>305.4</ele>
        <time>2021-07-02T08:15:49Z</time>
      </trkpt>
      <trkpt lat="47.96998" lon="7.21095">
        <ele>304.6</ele>
        <time>2021-07-02T08:15:51Z</time>
      </trkpt>
      <trkpt lat="47.96995" lon="7.2112">
        <ele>304.2</ele>
        <time>2021-07-02T08:15:53Z</time>
      </trkpt>
      <trkpt lat="47.96989" lon="7.21165">
        <ele>303.6</ele>
        <time>2021-07-02T08:15:57Z</time>
      </trkpt>
      <trkpt lat="47.96984" lon="7.21218">
        <ele>303.2</ele>
        <time>2021-07-02T08:16:02Z</time>
      </trkpt>
      <trkpt lat="47.96983" lon="7.21228">
        <ele>303</ele>
        <time>2021-07-02T08:16:03Z</time>
      </trkpt>
      <trkpt lat="47.96977" lon="7.21299">
        <ele>302.6</ele>
        <time>2021-07-02T08:16:10Z</time>
      </trkpt>
      <trkpt lat="47.96976" lon="7.2132">
        <ele>302.4</ele>
        <time>2021-07-02T08:16:12Z</time>
      </trkpt>
      <trkpt lat="47.96974" lon="7.2133">
        <ele>302.4</ele>
        <time>2021-07-02T08:16:13Z</time>
      </trkpt>
      <trkpt lat="47.9697" lon="7.2135">
        <ele>302.4</ele>
        <time>2021-07-02T08:16:15Z</time>
      </trkpt>
      <trkpt lat="47.96963" lon="7.21379">
        <ele>302.4</ele>
        <time>2021-07-02T08:16:18Z</time>
      </trkpt>
      <trkpt lat="47.96952" lon="7.21406">
        <ele>302</ele>
        <time>2021-07-02T08:16:21Z</time>
      </trkpt>
      <trkpt lat="47.96948" lon="7.21415">
        <ele>302</ele>
        <time>2021-07-02T08:16:22Z</time>
      </trkpt>
      <trkpt lat="47.96926" lon="7.21465">
        <ele>301.6</ele>
        <time>2021-07-02T08:16:28Z</time>
      </trkpt>
      <trkpt lat="47.9691" lon="7.2152">
        <ele>301</ele>
        <time>2021-07-02T08:16:34Z</time>
      </trkpt>
      <trkpt lat="47.96908" lon="7.21529">
        <ele>300.8</ele>
        <time>2021-07-02T08:16:35Z</time>
      </trkpt>
      <trkpt lat="47.96894" lon="7.21593">
        <ele>300.4</ele>
        <time>2021-07-02T08:16:42Z</time>
      </trkpt>
      <trkpt lat="47.96888" lon="7.21622">
        <ele>300.2</ele>
        <time>2021-07-02T08:16:45Z</time>
      </trkpt>
      <trkpt lat="47.96886" lon="7.21643">
        <ele>300</ele>
        <time>2021-07-02T08:16:47Z</time>
      </trkpt>
      <trkpt lat="47.96886" lon="7.21653">
        <ele>300</ele>
        <time>2021-07-02T08:16:48Z</time>
      </trkpt>
      <trkpt lat="47.96885" lon="7.21665">
        <ele>299.8</ele>
        <time>2021-07-02T08:16:49Z</time>
      </trkpt>
      <trkpt lat="47.96887" lon="7.21695">
        <ele>299.2</ele>
        <time>2021-07-02T08:16:52Z</time>
      </trkpt>
      <trkpt lat="47.96892" lon="7.21727">
        <ele>298.8</ele>
        <time>2021-07-02T08:16:55Z</time>
      </trkpt>
      <trkpt lat="47.96899" lon="7.21761">
        <ele>298.2</ele>
        <time>2021-07-02T08:16:58Z</time>
      </trkpt>
      <trkpt lat="47.96903" lon="7.2178">
        <ele>297.2</ele>
        <time>2021-07-02T08:17:00Z</time>
      </trkpt>
      <trkpt lat="47.96907" lon="7.21824">
        <ele>296</ele>
        <time>2021-07-02T08:17:04Z</time>
      </trkpt>
      <trkpt lat="47.96908" lon="7.21835">
        <ele>295.8</ele>
        <time>2021-07-02T08:17:05Z</time>
      </trkpt>
      <trkpt lat="47.96908" lon="7.21876">
        <ele>295</ele>
        <time>2021-07-02T08:17:09Z</time>
      </trkpt>
      <trkpt lat="47.96907" lon="7.21897">
        <ele>294.6</ele>
        <time>2021-07-02T08:17:11Z</time>
      </trkpt>
      <trkpt lat="47.96905" lon="7.2193">
        <ele>294.2</ele>
        <time>2021-07-02T08:17:15Z</time>
      </trkpt>
      <trkpt lat="47.96904" lon="7.21947">
        <ele>293.8</ele>
        <time>2021-07-02T08:17:19Z</time>
      </trkpt>
      <trkpt lat="47.96903" lon="7.2195">
        <ele>293.4</ele>
        <time>2021-07-02T08:17:20Z</time>
      </trkpt>
      <trkpt lat="47.96902" lon="7.21974">
        <ele>293.2</ele>
        <time>2021-07-02T08:17:26Z</time>
      </trkpt>
      <trkpt lat="47.96902" lon="7.21982">
        <ele>293.2</ele>
        <time>2021-07-02T08:17:28Z</time>
      </trkpt>
      <trkpt lat="47.96903" lon="7.22002">
        <ele>292.8</ele>
        <time>2021-07-02T08:17:32Z</time>
      </trkpt>
      <trkpt lat="47.96904" lon="7.22019">
        <ele>292.6</ele>
        <time>2021-07-02T08:17:35Z</time>
      </trkpt>
      <trkpt lat="47.96907" lon="7.22045">
        <ele>292.2</ele>
        <time>2021-07-02T08:17:39Z</time>
      </trkpt>
      <trkpt lat="47.96908" lon="7.22064">
        <ele>291.6</ele>
        <time>2021-07-02T08:17:42Z</time>
      </trkpt>
      <trkpt lat="47.9691" lon="7.22087">
        <ele>291.4</ele>
        <time>2021-07-02T08:17:45Z</time>
      </trkpt>
      <trkpt lat="47.96911" lon="7.22102">
        <ele>291</ele>
        <time>2021-07-02T08:17:47Z</time>
      </trkpt>
      <trkpt lat="47.96911" lon="7.22124">
        <ele>290.4</ele>
        <time>2021-07-02T08:17:50Z</time>
      </trkpt>
      <trkpt lat="47.96912" lon="7.22133">
        <ele>290.2</ele>
        <time>2021-07-02T08:17:51Z</time>
      </trkpt>
      <trkpt lat="47.96913" lon="7.2217">
        <ele>289.6</ele>
        <time>2021-07-02T08:17:55Z</time>
      </trkpt>
      <trkpt lat="47.96915" lon="7.22195">
        <ele>289.2</ele>
        <time>2021-07-02T08:17:58Z</time>
      </trkpt>
      <trkpt lat="47.9692" lon="7.22241">
        <ele>288.4</ele>
        <time>2021-07-02T08:18:03Z</time>
      </trkpt>
      <trkpt lat="47.96921" lon="7.2225">
        <ele>288.2</ele>
        <time>2021-07-02T08:18:04Z</time>
      </trkpt>
      <trkpt lat="47.96922" lon="7.22259">
        <ele>288</ele>
        <time>2021-07-02T08:18:05Z</time>
      </trkpt>
      <trkpt lat="47.96926" lon="7.22299">
        <ele>287</ele>
        <time>2021-07-02T08:18:09Z</time>
      </trkpt>
      <trkpt lat="47.96928" lon="7.22318">
        <ele>286.6</ele>
        <time>2021-07-02T08:18:11Z</time>
      </trkpt>
      <trkpt lat="47.96929" lon="7.22337">
        <ele>285.6</ele>
        <time>2021-07-02T08:18:13Z</time>
      </trkpt>
      <trkpt lat="47.96931" lon="7.22386">
        <ele>284.4</ele>
        <time>2021-07-02T08:18:18Z</time>
      </trkpt>
      <trkpt lat="47.96931" lon="7.22396">
        <ele>284.2</ele>
        <time>2021-07-02T08:18:19Z</time>
      </trkpt>
      <trkpt lat="47.96931" lon="7.22458">
        <ele>283</ele>
        <time>2021-07-02T08:18:25Z</time>
      </trkpt>
      <trkpt lat="47.96931" lon="7.22468">
        <ele>283</ele>
        <time>2021-07-02T08:18:26Z</time>
      </trkpt>
      <trkpt lat="47.9693" lon="7.22498">
        <ele>282</ele>
        <time>2021-07-02T08:18:29Z</time>
      </trkpt>
      <trkpt lat="47.96929" lon="7.2253">
        <ele>281.2</ele>
        <time>2021-07-02T08:18:32Z</time>
      </trkpt>
      <trkpt lat="47.96929" lon="7.22549">
        <ele>280.8</ele>
        <time>2021-07-02T08:18:34Z</time>
      </trkpt>
      <trkpt lat="47.96928" lon="7.22559">
        <ele>280.8</ele>
        <time>2021-07-02T08:18:35Z</time>
      </trkpt>
      <trkpt lat="47.96924" lon="7.22579">
        <ele>280.4</ele>
        <time>2021-07-02T08:18:37Z</time>
      </trkpt>
      <trkpt lat="47.96918" lon="7.22609">
        <ele>279.6</ele>
        <time>2021-07-02T08:18:40Z</time>
      </trkpt>
      <trkpt lat="47.96911" lon="7.22639">
        <ele>278.8</ele>
        <time>2021-07-02T08:18:43Z</time>
      </trkpt>
      <trkpt lat="47.96909" lon="7.22649">
        <ele>278.6</ele>
        <time>2021-07-02T08:18:44Z</time>
      </trkpt>
      <trkpt lat="47.96899" lon="7.2269">
        <ele>277.4</ele>
        <time>2021-07-02T08:18:48Z</time>
      </trkpt>
      <trkpt lat="47.96897" lon="7.227">
        <ele>277.2</ele>
        <time>2021-07-02T08:18:49Z</time>
      </trkpt>
      <trkpt lat="47.96885" lon="7.22751">
        <ele>276</ele>
        <time>2021-07-02T08:18:54Z</time>
      </trkpt>
      <trkpt lat="47.9688" lon="7.22771">
        <ele>275.4</ele>
        <time>2021-07-02T08:18:56Z</time>
      </trkpt>
      <trkpt lat="47.96874" lon="7.22791">
        <ele>274.8</ele>
        <time>2021-07-02T08:18:58Z</time>
      </trkpt>
      <trkpt lat="47.9686" lon="7.22831">
        <ele>273.6</ele>
        <time>2021-07-02T08:19:02Z</time>
      </trkpt>
      <trkpt lat="47.96849" lon="7.22865">
        <ele>272.4</ele>
        <time>2021-07-02T08:19:05Z</time>
      </trkpt>
      <trkpt lat="47.96838" lon="7.22895">
        <ele>271.6</ele>
        <time>2021-07-02T08:19:08Z</time>
      </trkpt>
      <trkpt lat="47.96834" lon="7.22905">
        <ele>271.2</ele>
        <time>2021-07-02T08:19:09Z</time>
      </trkpt>
      <trkpt lat="47.96827" lon="7.22925">
        <ele>270.6</ele>
        <time>2021-07-02T08:19:11Z</time>
      </trkpt>
      <trkpt lat="47.96816" lon="7.22955">
        <ele>270.2</ele>
        <time>2021-07-02T08:19:14Z</time>
      </trkpt>
      <trkpt lat="47.96801" lon="7.23">
        <ele>269.8</ele>
        <time>2021-07-02T08:19:19Z</time>
      </trkpt>
      <trkpt lat="47.96786" lon="7.23041">
        <ele>269.6</ele>
        <time>2021-07-02T08:19:24Z</time>
      </trkpt>
      <trkpt lat="47.96766" lon="7.23095">
        <ele>269.4</ele>
        <time>2021-07-02T08:19:31Z</time>
      </trkpt>
      <trkpt lat="47.96753" lon="7.23129">
        <ele>269</ele>
        <time>2021-07-02T08:19:36Z</time>
      </trkpt>
      <trkpt lat="47.9675" lon="7.23136">
        <ele>268.8</ele>
        <time>2021-07-02T08:19:37Z</time>
      </trkpt>
      <trkpt lat="47.96747" lon="7.23142">
        <ele>268.6</ele>
        <time>2021-07-02T08:19:38Z</time>
      </trkpt>
      <trkpt lat="47.96738" lon="7.2316">
        <ele>268.6</ele>
        <time>2021-07-02T08:19:41Z</time>
      </trkpt>
      <trkpt lat="47.96735" lon="7.23166">
        <ele>268.4</ele>
        <time>2021-07-02T08:19:42Z</time>
      </trkpt>
      <trkpt lat="47.96733" lon="7.23173">
        <ele>268.4</ele>
        <time>2021-07-02T08:19:43Z</time>
      </trkpt>
      <trkpt lat="47.96731" lon="7.2318">
        <ele>268.4</ele>
        <time>2021-07-02T08:19:44Z</time>
      </trkpt>
      <trkpt lat="47.96729" lon="7.23186">
        <ele>268.2</ele>
        <time>2021-07-02T08:19:45Z</time>
      </trkpt>
      <trkpt lat="47.96727" lon="7.23193">
        <ele>268.2</ele>
        <time>2021-07-02T08:19:46Z</time>
      </trkpt>
      <trkpt lat="47.96714" lon="7.23232">
        <ele>267.6</ele>
        <time>2021-07-02T08:19:52Z</time>
      </trkpt>
      <trkpt lat="47.96711" lon="7.23238">
        <ele>267.6</ele>
        <time>2021-07-02T08:19:53Z</time>
      </trkpt>
      <trkpt lat="47.967" lon="7.23259">
        <ele>267.2</ele>
        <time>2021-07-02T08:19:56Z</time>
      </trkpt>
      <trkpt lat="47.96692" lon="7.23274">
        <ele>266.8</ele>
        <time>2021-07-02T08:19:58Z</time>
      </trkpt>
      <trkpt lat="47.96658" lon="7.23337">
        <ele>265.8</ele>
        <time>2021-07-02T08:20:06Z</time>
      </trkpt>
      <trkpt lat="47.96633" lon="7.23389">
        <ele>265</ele>
        <time>2021-07-02T08:20:12Z</time>
      </trkpt>
      <trkpt lat="47.96629" lon="7.23397">
        <ele>264.8</ele>
        <time>2021-07-02T08:20:13Z</time>
      </trkpt>
      <trkpt lat="47.96607" lon="7.23425">
        <ele>264.4</ele>
        <time>2021-07-02T08:20:17Z</time>
      </trkpt>
      <trkpt lat="47.96584" lon="7.23448">
        <ele>263.8</ele>
        <time>2021-07-02T08:20:21Z</time>
      </trkpt>
      <trkpt lat="47.96579" lon="7.23454">
        <ele>263.6</ele>
        <time>2021-07-02T08:20:22Z</time>
      </trkpt>
      <trkpt lat="47.96573" lon="7.2346">
        <ele>263.6</ele>
        <time>2021-07-02T08:20:23Z</time>
      </trkpt>
      <trkpt lat="47.96534" lon="7.23506">
        <ele>262.4</ele>
        <time>2021-07-02T08:20:30Z</time>
      </trkpt>
      <trkpt lat="47.96529" lon="7.23514">
        <ele>262.2</ele>
        <time>2021-07-02T08:20:31Z</time>
      </trkpt>
      <trkpt lat="47.96514" lon="7.23539">
        <ele>261.4</ele>
        <time>2021-07-02T08:20:34Z</time>
      </trkpt>
      <trkpt lat="47.96505" lon="7.23556">
        <ele>260.8</ele>
        <time>2021-07-02T08:20:36Z</time>
      </trkpt>
      <trkpt lat="47.96492" lon="7.23585">
        <ele>260</ele>
        <time>2021-07-02T08:20:39Z</time>
      </trkpt>
      <trkpt lat="47.96486" lon="7.23606">
        <ele>259.4</ele>
        <time>2021-07-02T08:20:41Z</time>
      </trkpt>
      <trkpt lat="47.96483" lon="7.23617">
        <ele>258.8</ele>
        <time>2021-07-02T08:20:42Z</time>
      </trkpt>
      <trkpt lat="47.96468" lon="7.23656">
        <ele>257.8</ele>
        <time>2021-07-02T08:20:46Z</time>
      </trkpt>
      <trkpt lat="47.96462" lon="7.23665">
        <ele>257.8</ele>
        <time>2021-07-02T08:20:47Z</time>
      </trkpt>
      <trkpt lat="47.96445" lon="7.23684">
        <ele>257.2</ele>
        <time>2021-07-02T08:20:50Z</time>
      </trkpt>
      <trkpt lat="47.9644" lon="7.23688">
        <ele>257</ele>
        <time>2021-07-02T08:20:51Z</time>
      </trkpt>
      <trkpt lat="47.9643" lon="7.23697">
        <ele>256.6</ele>
        <time>2021-07-02T08:20:53Z</time>
      </trkpt>
      <trkpt lat="47.96424" lon="7.23701">
        <ele>256.6</ele>
        <time>2021-07-02T08:20:54Z</time>
      </trkpt>
      <trkpt lat="47.96418" lon="7.23704">
        <ele>256.6</ele>
        <time>2021-07-02T08:20:55Z</time>
      </trkpt>
      <trkpt lat="47.96397" lon="7.23715">
        <ele>256</ele>
        <time>2021-07-02T08:20:58Z</time>
      </trkpt>
      <trkpt lat="47.96382" lon="7.23726">
        <ele>255.2</ele>
        <time>2021-07-02T08:21:00Z</time>
      </trkpt>
      <trkpt lat="47.9636" lon="7.23739">
        <ele>254.8</ele>
        <time>2021-07-02T08:21:03Z</time>
      </trkpt>
      <trkpt lat="47.96353" lon="7.23743">
        <ele>254.6</ele>
        <time>2021-07-02T08:21:04Z</time>
      </trkpt>
      <trkpt lat="47.96339" lon="7.23749">
        <ele>254.4</ele>
        <time>2021-07-02T08:21:06Z</time>
      </trkpt>
      <trkpt lat="47.96331" lon="7.2375">
        <ele>254.2</ele>
        <time>2021-07-02T08:21:07Z</time>
      </trkpt>
      <trkpt lat="47.96318" lon="7.23753">
        <ele>254</ele>
        <time>2021-07-02T08:21:09Z</time>
      </trkpt>
      <trkpt lat="47.96277" lon="7.23777">
        <ele>253</ele>
        <time>2021-07-02T08:21:15Z</time>
      </trkpt>
      <trkpt lat="47.96238" lon="7.23804">
        <ele>252</ele>
        <time>2021-07-02T08:21:21Z</time>
      </trkpt>
      <trkpt lat="47.96227" lon="7.23815">
        <ele>251.8</ele>
        <time>2021-07-02T08:21:23Z</time>
      </trkpt>
      <trkpt lat="47.96222" lon="7.23822">
        <ele>251.6</ele>
        <time>2021-07-02T08:21:24Z</time>
      </trkpt>
      <trkpt lat="47.96207" lon="7.23838">
        <ele>251.4</ele>
        <time>2021-07-02T08:21:27Z</time>
      </trkpt>
      <trkpt lat="47.96201" lon="7.23843">
        <ele>251.2</ele>
        <time>2021-07-02T08:21:28Z</time>
      </trkpt>
      <trkpt lat="47.9619" lon="7.23851">
        <ele>251.2</ele>
        <time>2021-07-02T08:21:30Z</time>
      </trkpt>
      <trkpt lat="47.96179" lon="7.23857">
        <ele>251</ele>
        <time>2021-07-02T08:21:32Z</time>
      </trkpt>
      <trkpt lat="47.96168" lon="7.23863">
        <ele>250.8</ele>
        <time>2021-07-02T08:21:34Z</time>
      </trkpt>
      <trkpt lat="47.96158" lon="7.23872">
        <ele>250.6</ele>
        <time>2021-07-02T08:21:36Z</time>
      </trkpt>
      <trkpt lat="47.96123" lon="7.23911">
        <ele>250.2</ele>
        <time>2021-07-02T08:21:43Z</time>
      </trkpt>
      <trkpt lat="47.96118" lon="7.23918">
        <ele>250.2</ele>
        <time>2021-07-02T08:21:44Z</time>
      </trkpt>
      <trkpt lat="47.96097" lon="7.23939">
        <ele>250</ele>
        <time>2021-07-02T08:21:48Z</time>
      </trkpt>
      <trkpt lat="47.96077" lon="7.23951">
        <ele>249.8</ele>
        <time>2021-07-02T08:21:52Z</time>
      </trkpt>
      <trkpt lat="47.96072" lon="7.23953">
        <ele>249.8</ele>
        <time>2021-07-02T08:21:53Z</time>
      </trkpt>
      <trkpt lat="47.96062" lon="7.23959">
        <ele>249.8</ele>
        <time>2021-07-02T08:21:57Z</time>
      </trkpt>
      <trkpt lat="47.9606" lon="7.23962">
        <ele>249.8</ele>
        <time>2021-07-02T08:21:59Z</time>
      </trkpt>
      <trkpt lat="47.96061" lon="7.23962">
        <ele>249.8</ele>
        <time>2021-07-02T08:22:00Z</time>
      </trkpt>
      <trkpt lat="47.96061" lon="7.23962">
        <ele>249.8</ele>
        <time>2021-07-02T08:22:02Z</time>
      </trkpt>
      <trkpt lat="47.96057" lon="7.23969">
        <ele>249.4</ele>
        <time>2021-07-02T08:22:37Z</time>
      </trkpt>
      <trkpt lat="47.96056" lon="7.23972">
        <ele>249.4</ele>
        <time>2021-07-02T08:22:38Z</time>
      </trkpt>
      <trkpt lat="47.96054" lon="7.23976">
        <ele>249.2</ele>
        <time>2021-07-02T08:22:39Z</time>
      </trkpt>
      <trkpt lat="47.96046" lon="7.23993">
        <ele>249.2</ele>
        <time>2021-07-02T08:22:42Z</time>
      </trkpt>
      <trkpt lat="47.96044" lon="7.24">
        <ele>249</ele>
        <time>2021-07-02T08:22:43Z</time>
      </trkpt>
      <trkpt lat="47.96031" lon="7.24029">
        <ele>248.6</ele>
        <time>2021-07-02T08:22:47Z</time>
      </trkpt>
      <trkpt lat="47.96011" lon="7.2408">
        <ele>248</ele>
        <time>2021-07-02T08:22:53Z</time>
      </trkpt>
      <trkpt lat="47.95991" lon="7.24121">
        <ele>247.2</ele>
        <time>2021-07-02T08:22:58Z</time>
      </trkpt>
      <trkpt lat="47.95983" lon="7.24136">
        <ele>247</ele>
        <time>2021-07-02T08:23:00Z</time>
      </trkpt>
      <trkpt lat="47.95949" lon="7.24203">
        <ele>246.2</ele>
        <time>2021-07-02T08:23:08Z</time>
      </trkpt>
      <trkpt lat="47.95944" lon="7.24214">
        <ele>246.2</ele>
        <time>2021-07-02T08:23:09Z</time>
      </trkpt>
      <trkpt lat="47.95941" lon="7.24221">
        <ele>245.8</ele>
        <time>2021-07-02T08:23:10Z</time>
      </trkpt>
      <trkpt lat="47.95928" lon="7.24248">
        <ele>245.4</ele>
        <time>2021-07-02T08:23:13Z</time>
      </trkpt>
      <trkpt lat="47.95909" lon="7.24291">
        <ele>245</ele>
        <time>2021-07-02T08:23:18Z</time>
      </trkpt>
      <trkpt lat="47.95906" lon="7.24299">
        <ele>245</ele>
        <time>2021-07-02T08:23:19Z</time>
      </trkpt>
      <trkpt lat="47.95903" lon="7.24307">
        <ele>245</ele>
        <time>2021-07-02T08:23:20Z</time>
      </trkpt>
      <trkpt lat="47.95894" lon="7.24333">
        <ele>244.8</ele>
        <time>2021-07-02T08:23:23Z</time>
      </trkpt>
      <trkpt lat="47.9589" lon="7.24341">
        <ele>244.8</ele>
        <time>2021-07-02T08:23:24Z</time>
      </trkpt>
      <trkpt lat="47.95873" lon="7.24371">
        <ele>244.2</ele>
        <time>2021-07-02T08:23:28Z</time>
      </trkpt>
      <trkpt lat="47.95868" lon="7.24378">
        <ele>244</ele>
        <time>2021-07-02T08:23:29Z</time>
      </trkpt>
      <trkpt lat="47.95846" lon="7.244">
        <ele>243.6</ele>
        <time>2021-07-02T08:23:33Z</time>
      </trkpt>
      <trkpt lat="47.95841" lon="7.24405">
        <ele>243.6</ele>
        <time>2021-07-02T08:23:34Z</time>
      </trkpt>
      <trkpt lat="47.9582" lon="7.24426">
        <ele>243.4</ele>
        <time>2021-07-02T08:23:38Z</time>
      </trkpt>
      <trkpt lat="47.9581" lon="7.24432">
        <ele>243.2</ele>
        <time>2021-07-02T08:23:40Z</time>
      </trkpt>
      <trkpt lat="47.95799" lon="7.24428">
        <ele>243</ele>
        <time>2021-07-02T08:23:42Z</time>
      </trkpt>
      <trkpt lat="47.95795" lon="7.24424">
        <ele>243</ele>
        <time>2021-07-02T08:23:43Z</time>
      </trkpt>
      <trkpt lat="47.95791" lon="7.24418">
        <ele>242.8</ele>
        <time>2021-07-02T08:23:44Z</time>
      </trkpt>
      <trkpt lat="47.95781" lon="7.24407">
        <ele>242.8</ele>
        <time>2021-07-02T08:23:46Z</time>
      </trkpt>
      <trkpt lat="47.95776" lon="7.24401">
        <ele>242.8</ele>
        <time>2021-07-02T08:23:47Z</time>
      </trkpt>
      <trkpt lat="47.95742" lon="7.24376">
        <ele>242.8</ele>
        <time>2021-07-02T08:23:53Z</time>
      </trkpt>
      <trkpt lat="47.95707" lon="7.24357">
        <ele>243</ele>
        <time>2021-07-02T08:23:59Z</time>
      </trkpt>
      <trkpt lat="47.95669" lon="7.24349">
        <ele>243.8</ele>
        <time>2021-07-02T08:24:06Z</time>
      </trkpt>
      <trkpt lat="47.95625" lon="7.24354">
        <ele>244.2</ele>
        <time>2021-07-02T08:24:14Z</time>
      </trkpt>
      <trkpt lat="47.95619" lon="7.24356">
        <ele>244.2</ele>
        <time>2021-07-02T08:24:15Z</time>
      </trkpt>
      <trkpt lat="47.95614" lon="7.24359">
        <ele>244.2</ele>
        <time>2021-07-02T08:24:16Z</time>
      </trkpt>
      <trkpt lat="47.95577" lon="7.24377">
        <ele>244.6</ele>
        <time>2021-07-02T08:24:23Z</time>
      </trkpt>
      <trkpt lat="47.9553" lon="7.24401">
        <ele>245.2</ele>
        <time>2021-07-02T08:24:32Z</time>
      </trkpt>
      <trkpt lat="47.95526" lon="7.24404">
        <ele>245.4</ele>
        <time>2021-07-02T08:24:33Z</time>
      </trkpt>
      <trkpt lat="47.95511" lon="7.24416">
        <ele>245.8</ele>
        <time>2021-07-02T08:24:36Z</time>
      </trkpt>
      <trkpt lat="47.95507" lon="7.2442">
        <ele>245.8</ele>
        <time>2021-07-02T08:24:37Z</time>
      </trkpt>
      <trkpt lat="47.95489" lon="7.24439">
        <ele>246.2</ele>
        <time>2021-07-02T08:24:41Z</time>
      </trkpt>
      <trkpt lat="47.95475" lon="7.24454">
        <ele>246.4</ele>
        <time>2021-07-02T08:24:44Z</time>
      </trkpt>
      <trkpt lat="47.95443" lon="7.24485">
        <ele>247</ele>
        <time>2021-07-02T08:24:51Z</time>
      </trkpt>
      <trkpt lat="47.95437" lon="7.24489">
        <ele>247</ele>
        <time>2021-07-02T08:24:52Z</time>
      </trkpt>
      <trkpt lat="47.95418" lon="7.24506">
        <ele>247.6</ele>
        <time>2021-07-02T08:24:56Z</time>
      </trkpt>
      <trkpt lat="47.95393" lon="7.24527">
        <ele>248</ele>
        <time>2021-07-02T08:25:01Z</time>
      </trkpt>
      <trkpt lat="47.95388" lon="7.24531">
        <ele>248.2</ele>
        <time>2021-07-02T08:25:02Z</time>
      </trkpt>
      <trkpt lat="47.95374" lon="7.24543">
        <ele>247.8</ele>
        <time>2021-07-02T08:25:05Z</time>
      </trkpt>
      <trkpt lat="47.95359" lon="7.24554">
        <ele>247.6</ele>
        <time>2021-07-02T08:25:08Z</time>
      </trkpt>
      <trkpt lat="47.95305" lon="7.24588">
        <ele>247.6</ele>
        <time>2021-07-02T08:25:18Z</time>
      </trkpt>
      <trkpt lat="47.95275" lon="7.24605">
        <ele>247.8</ele>
        <time>2021-07-02T08:25:24Z</time>
      </trkpt>
      <trkpt lat="47.95254" lon="7.24617">
        <ele>248</ele>
        <time>2021-07-02T08:25:29Z</time>
      </trkpt>
      <trkpt lat="47.95219" lon="7.24639">
        <ele>248.4</ele>
        <time>2021-07-02T08:25:37Z</time>
      </trkpt>
      <trkpt lat="47.952" lon="7.24653">
        <ele>248.8</ele>
        <time>2021-07-02T08:25:41Z</time>
      </trkpt>
      <trkpt lat="47.95185" lon="7.24662">
        <ele>249.2</ele>
        <time>2021-07-02T08:25:44Z</time>
      </trkpt>
      <trkpt lat="47.9516" lon="7.24676">
        <ele>249.8</ele>
        <time>2021-07-02T08:25:49Z</time>
      </trkpt>
      <trkpt lat="47.95141" lon="7.24686">
        <ele>250.4</ele>
        <time>2021-07-02T08:25:53Z</time>
      </trkpt>
      <trkpt lat="47.95123" lon="7.24695">
        <ele>251</ele>
        <time>2021-07-02T08:25:57Z</time>
      </trkpt>
      <trkpt lat="47.95105" lon="7.24703">
        <ele>251.8</ele>
        <time>2021-07-02T08:26:01Z</time>
      </trkpt>
      <trkpt lat="47.95097" lon="7.24708">
        <ele>252.2</ele>
        <time>2021-07-02T08:26:03Z</time>
      </trkpt>
      <trkpt lat="47.95074" lon="7.24719">
        <ele>253.2</ele>
        <time>2021-07-02T08:26:09Z</time>
      </trkpt>
      <trkpt lat="47.9507" lon="7.24721">
        <ele>253.6</ele>
        <time>2021-07-02T08:26:10Z</time>
      </trkpt>
      <trkpt lat="47.95047" lon="7.24727">
        <ele>254.4</ele>
        <time>2021-07-02T08:26:16Z</time>
      </trkpt>
      <trkpt lat="47.95043" lon="7.24728">
        <ele>254.6</ele>
        <time>2021-07-02T08:26:17Z</time>
      </trkpt>
      <trkpt lat="47.95028" lon="7.2473">
        <ele>255.6</ele>
        <time>2021-07-02T08:26:21Z</time>
      </trkpt>
      <trkpt lat="47.95017" lon="7.24732">
        <ele>256.6</ele>
        <time>2021-07-02T08:26:24Z</time>
      </trkpt>
      <trkpt lat="47.94999" lon="7.24732">
        <ele>257.8</ele>
        <time>2021-07-02T08:26:29Z</time>
      </trkpt>
      <trkpt lat="47.94988" lon="7.24732">
        <ele>258.2</ele>
        <time>2021-07-02T08:26:32Z</time>
      </trkpt>
      <trkpt lat="47.94978" lon="7.24732">
        <ele>258.8</ele>
        <time>2021-07-02T08:26:35Z</time>
      </trkpt>
      <trkpt lat="47.9496" lon="7.24729">
        <ele>260</ele>
        <time>2021-07-02T08:26:40Z</time>
      </trkpt>
      <trkpt lat="47.94953" lon="7.24726">
        <ele>260.2</ele>
        <time>2021-07-02T08:26:42Z</time>
      </trkpt>
      <trkpt lat="47.94936" lon="7.24716">
        <ele>261</ele>
        <time>2021-07-02T08:26:47Z</time>
      </trkpt>
      <trkpt lat="47.94925" lon="7.24712">
        <ele>261.6</ele>
        <time>2021-07-02T08:26:50Z</time>
      </trkpt>
      <trkpt lat="47.94914" lon="7.24706">
        <ele>262.2</ele>
        <time>2021-07-02T08:26:53Z</time>
      </trkpt>
      <trkpt lat="47.94902" lon="7.24698">
        <ele>263</ele>
        <time>2021-07-02T08:26:56Z</time>
      </trkpt>
      <trkpt lat="47.94895" lon="7.24693">
        <ele>263.4</ele>
        <time>2021-07-02T08:26:58Z</time>
      </trkpt>
      <trkpt lat="47.94871" lon="7.2468">
        <ele>264.6</ele>
        <time>2021-07-02T08:27:04Z</time>
      </trkpt>
      <trkpt lat="47.94867" lon="7.24678">
        <ele>264.8</ele>
        <time>2021-07-02T08:27:05Z</time>
      </trkpt>
      <trkpt lat="47.94832" lon="7.24652">
        <ele>266</ele>
        <time>2021-07-02T08:27:14Z</time>
      </trkpt>
      <trkpt lat="47.94812" lon="7.24635">
        <ele>266.6</ele>
        <time>2021-07-02T08:27:19Z</time>
      </trkpt>
      <trkpt lat="47.94801" lon="7.24624">
        <ele>266.6</ele>
        <time>2021-07-02T08:27:22Z</time>
      </trkpt>
      <trkpt lat="47.94786" lon="7.24608">
        <ele>267</ele>
        <time>2021-07-02T08:27:26Z</time>
      </trkpt>
      <trkpt lat="47.94774" lon="7.24595">
        <ele>267.2</ele>
        <time>2021-07-02T08:27:29Z</time>
      </trkpt>
      <trkpt lat="47.9477" lon="7.24591">
        <ele>267.4</ele>
        <time>2021-07-02T08:27:30Z</time>
      </trkpt>
      <trkpt lat="47.94746" lon="7.24562">
        <ele>267.6</ele>
        <time>2021-07-02T08:27:36Z</time>
      </trkpt>
      <trkpt lat="47.94724" lon="7.24537">
        <ele>268</ele>
        <time>2021-07-02T08:27:41Z</time>
      </trkpt>
      <trkpt lat="47.94704" lon="7.24513">
        <ele>268.2</ele>
        <time>2021-07-02T08:27:46Z</time>
      </trkpt>
      <trkpt lat="47.9468" lon="7.24482">
        <ele>268.4</ele>
        <time>2021-07-02T08:27:52Z</time>
      </trkpt>
      <trkpt lat="47.94664" lon="7.24461">
        <ele>268.6</ele>
        <time>2021-07-02T08:27:56Z</time>
      </trkpt>
      <trkpt lat="47.94625" lon="7.24412">
        <ele>269</ele>
        <time>2021-07-02T08:28:06Z</time>
      </trkpt>
      <trkpt lat="47.94613" lon="7.24394">
        <ele>269.4</ele>
        <time>2021-07-02T08:28:09Z</time>
      </trkpt>
      <trkpt lat="47.94595" lon="7.2437">
        <ele>269.4</ele>
        <time>2021-07-02T08:28:13Z</time>
      </trkpt>
      <trkpt lat="47.94562" lon="7.24318">
        <ele>269.4</ele>
        <time>2021-07-02T08:28:21Z</time>
      </trkpt>
      <trkpt lat="47.9453" lon="7.24263">
        <ele>269.4</ele>
        <time>2021-07-02T08:28:29Z</time>
      </trkpt>
      <trkpt lat="47.94497" lon="7.24215">
        <ele>268</ele>
        <time>2021-07-02T08:28:36Z</time>
      </trkpt>
      <trkpt lat="47.94483" lon="7.24194">
        <ele>267.8</ele>
        <time>2021-07-02T08:28:39Z</time>
      </trkpt>
      <trkpt lat="47.94455" lon="7.24153">
        <ele>266.8</ele>
        <time>2021-07-02T08:28:45Z</time>
      </trkpt>
      <trkpt lat="47.94451" lon="7.24146">
        <ele>267</ele>
        <time>2021-07-02T08:28:46Z</time>
      </trkpt>
      <trkpt lat="47.94442" lon="7.24131">
        <ele>266.4</ele>
        <time>2021-07-02T08:28:48Z</time>
      </trkpt>
      <trkpt lat="47.94437" lon="7.24123">
        <ele>266.4</ele>
        <time>2021-07-02T08:28:49Z</time>
      </trkpt>
      <trkpt lat="47.94426" lon="7.24096">
        <ele>266</ele>
        <time>2021-07-02T08:28:52Z</time>
      </trkpt>
      <trkpt lat="47.94398" lon="7.2402">
        <ele>265</ele>
        <time>2021-07-02T08:29:00Z</time>
      </trkpt>
      <trkpt lat="47.94373" lon="7.23976">
        <ele>264.4</ele>
        <time>2021-07-02T08:29:05Z</time>
      </trkpt>
      <trkpt lat="47.94355" lon="7.23953">
        <ele>263.8</ele>
        <time>2021-07-02T08:29:08Z</time>
      </trkpt>
      <trkpt lat="47.94326" lon="7.23916">
        <ele>262.6</ele>
        <time>2021-07-02T08:29:13Z</time>
      </trkpt>
      <trkpt lat="47.94321" lon="7.23909">
        <ele>262.4</ele>
        <time>2021-07-02T08:29:14Z</time>
      </trkpt>
      <trkpt lat="47.94288" lon="7.23868">
        <ele>261.6</ele>
        <time>2021-07-02T08:29:20Z</time>
      </trkpt>
      <trkpt lat="47.94282" lon="7.23861">
        <ele>261.2</ele>
        <time>2021-07-02T08:29:21Z</time>
      </trkpt>
      <trkpt lat="47.94244" lon="7.23813">
        <ele>260.4</ele>
        <time>2021-07-02T08:29:28Z</time>
      </trkpt>
      <trkpt lat="47.94239" lon="7.23807">
        <ele>260.4</ele>
        <time>2021-07-02T08:29:29Z</time>
      </trkpt>
      <trkpt lat="47.94197" lon="7.23753">
        <ele>259.4</ele>
        <time>2021-07-02T08:29:37Z</time>
      </trkpt>
      <trkpt lat="47.94187" lon="7.23739">
        <ele>259.4</ele>
        <time>2021-07-02T08:29:39Z</time>
      </trkpt>
      <trkpt lat="47.94182" lon="7.23732">
        <ele>259.4</ele>
        <time>2021-07-02T08:29:40Z</time>
      </trkpt>
      <trkpt lat="47.94138" lon="7.23673">
        <ele>258.6</ele>
        <time>2021-07-02T08:29:48Z</time>
      </trkpt>
      <trkpt lat="47.94131" lon="7.23665">
        <ele>258.6</ele>
        <time>2021-07-02T08:29:49Z</time>
      </trkpt>
      <trkpt lat="47.94122" lon="7.23651">
        <ele>258.4</ele>
        <time>2021-07-02T08:29:51Z</time>
      </trkpt>
      <trkpt lat="47.94091" lon="7.23605">
        <ele>258</ele>
        <time>2021-07-02T08:29:57Z</time>
      </trkpt>
      <trkpt lat="47.94059" lon="7.23552">
        <ele>257.8</ele>
        <time>2021-07-02T08:30:04Z</time>
      </trkpt>
      <trkpt lat="47.94024" lon="7.23496">
        <ele>257.8</ele>
        <time>2021-07-02T08:30:12Z</time>
      </trkpt>
      <trkpt lat="47.93989" lon="7.23456">
        <ele>257.4</ele>
        <time>2021-07-02T08:30:19Z</time>
      </trkpt>
      <trkpt lat="47.93972" lon="7.23441">
        <ele>257.4</ele>
        <time>2021-07-02T08:30:22Z</time>
      </trkpt>
      <trkpt lat="47.93935" lon="7.23405">
        <ele>257.4</ele>
        <time>2021-07-02T08:30:29Z</time>
      </trkpt>
      <trkpt lat="47.93894" lon="7.23366">
        <ele>257</ele>
        <time>2021-07-02T08:30:36Z</time>
      </trkpt>
      <trkpt lat="47.93889" lon="7.2336">
        <ele>257</ele>
        <time>2021-07-02T08:30:37Z</time>
      </trkpt>
      <trkpt lat="47.93849" lon="7.23313">
        <ele>256.8</ele>
        <time>2021-07-02T08:30:45Z</time>
      </trkpt>
      <trkpt lat="47.93809" lon="7.23264">
        <ele>257.6</ele>
        <time>2021-07-02T08:30:54Z</time>
      </trkpt>
      <trkpt lat="47.93795" lon="7.23252">
        <ele>258</ele>
        <time>2021-07-02T08:30:57Z</time>
      </trkpt>
      <trkpt lat="47.93789" lon="7.23248">
        <ele>258.2</ele>
        <time>2021-07-02T08:30:58Z</time>
      </trkpt>
      <trkpt lat="47.93778" lon="7.23243">
        <ele>258.4</ele>
        <time>2021-07-02T08:31:00Z</time>
      </trkpt>
      <trkpt lat="47.93762" lon="7.23239">
        <ele>258.6</ele>
        <time>2021-07-02T08:31:03Z</time>
      </trkpt>
      <trkpt lat="47.93747" lon="7.23239">
        <ele>258.8</ele>
        <time>2021-07-02T08:31:06Z</time>
      </trkpt>
      <trkpt lat="47.93737" lon="7.23241">
        <ele>259.2</ele>
        <time>2021-07-02T08:31:08Z</time>
      </trkpt>
      <trkpt lat="47.93727" lon="7.23245">
        <ele>259.2</ele>
        <time>2021-07-02T08:31:10Z</time>
      </trkpt>
      <trkpt lat="47.93717" lon="7.23251">
        <ele>259.2</ele>
        <time>2021-07-02T08:31:12Z</time>
      </trkpt>
      <trkpt lat="47.93704" lon="7.2326">
        <ele>259.6</ele>
        <time>2021-07-02T08:31:15Z</time>
      </trkpt>
      <trkpt lat="47.93691" lon="7.23274">
        <ele>259.6</ele>
        <time>2021-07-02T08:31:18Z</time>
      </trkpt>
      <trkpt lat="47.93686" lon="7.2328">
        <ele>259.6</ele>
        <time>2021-07-02T08:31:19Z</time>
      </trkpt>
      <trkpt lat="47.93673" lon="7.23305">
        <ele>259.8</ele>
        <time>2021-07-02T08:31:23Z</time>
      </trkpt>
      <trkpt lat="47.9367" lon="7.23312">
        <ele>259.8</ele>
        <time>2021-07-02T08:31:24Z</time>
      </trkpt>
      <trkpt lat="47.93662" lon="7.2332">
        <ele>259.8</ele>
        <time>2021-07-02T08:31:26Z</time>
      </trkpt>
      <trkpt lat="47.9364" lon="7.23324">
        <ele>259.8</ele>
        <time>2021-07-02T08:31:30Z</time>
      </trkpt>
      <trkpt lat="47.93632" lon="7.23326">
        <ele>259.8</ele>
        <time>2021-07-02T08:31:32Z</time>
      </trkpt>
      <trkpt lat="47.93618" lon="7.23329">
        <ele>260</ele>
        <time>2021-07-02T08:31:35Z</time>
      </trkpt>
      <trkpt lat="47.93613" lon="7.2333">
        <ele>260</ele>
        <time>2021-07-02T08:31:36Z</time>
      </trkpt>
      <trkpt lat="47.93602" lon="7.23333">
        <ele>260.2</ele>
        <time>2021-07-02T08:31:39Z</time>
      </trkpt>
      <trkpt lat="47.93592" lon="7.23337">
        <ele>260.8</ele>
        <time>2021-07-02T08:31:41Z</time>
      </trkpt>
      <trkpt lat="47.93589" lon="7.23338">
        <ele>261.2</ele>
        <time>2021-07-02T08:31:42Z</time>
      </trkpt>
      <trkpt lat="47.93557" lon="7.23348">
        <ele>262</ele>
        <time>2021-07-02T08:31:50Z</time>
      </trkpt>
      <trkpt lat="47.93544" lon="7.23352">
        <ele>262.4</ele>
        <time>2021-07-02T08:31:54Z</time>
      </trkpt>
      <trkpt lat="47.9354" lon="7.23351">
        <ele>262.6</ele>
        <time>2021-07-02T08:31:55Z</time>
      </trkpt>
      <trkpt lat="47.9351" lon="7.23341">
        <ele>263.4</ele>
        <time>2021-07-02T08:32:02Z</time>
      </trkpt>
      <trkpt lat="47.93491" lon="7.2333">
        <ele>263.6</ele>
        <time>2021-07-02T08:32:06Z</time>
      </trkpt>
      <trkpt lat="47.93483" lon="7.23322">
        <ele>263.8</ele>
        <time>2021-07-02T08:32:08Z</time>
      </trkpt>
      <trkpt lat="47.93449" lon="7.2329">
        <ele>264.2</ele>
        <time>2021-07-02T08:32:16Z</time>
      </trkpt>
      <trkpt lat="47.93434" lon="7.23277">
        <ele>264.4</ele>
        <time>2021-07-02T08:32:20Z</time>
      </trkpt>
      <trkpt lat="47.93427" lon="7.23271">
        <ele>264.6</ele>
        <time>2021-07-02T08:32:22Z</time>
      </trkpt>
      <trkpt lat="47.93408" lon="7.23259">
        <ele>265.2</ele>
        <time>2021-07-02T08:32:28Z</time>
      </trkpt>
      <trkpt lat="47.93403" lon="7.23257">
        <ele>265.2</ele>
        <time>2021-07-02T08:32:32Z</time>
      </trkpt>
      <trkpt lat="47.9339" lon="7.23255">
        <ele>265.2</ele>
        <time>2021-07-02T08:32:39Z</time>
      </trkpt>
      <trkpt lat="47.93376" lon="7.23251">
        <ele>265.4</ele>
        <time>2021-07-02T08:32:43Z</time>
      </trkpt>
      <trkpt lat="47.93372" lon="7.23252">
        <ele>265.4</ele>
        <time>2021-07-02T08:32:44Z</time>
      </trkpt>
      <trkpt lat="47.93359" lon="7.23252">
        <ele>265.4</ele>
        <time>2021-07-02T08:32:47Z</time>
      </trkpt>
      <trkpt lat="47.93355" lon="7.23253">
        <ele>265.4</ele>
        <time>2021-07-02T08:32:48Z</time>
      </trkpt>
      <trkpt lat="47.9335" lon="7.23255">
        <ele>265.4</ele>
        <time>2021-07-02T08:32:49Z</time>
      </trkpt>
      <trkpt lat="47.93346" lon="7.23257">
        <ele>265.6</ele>
        <time>2021-07-02T08:32:50Z</time>
      </trkpt>
      <trkpt lat="47.93332" lon="7.23264">
        <ele>265.8</ele>
        <time>2021-07-02T08:32:53Z</time>
      </trkpt>
      <trkpt lat="47.93317" lon="7.23265">
        <ele>266.2</ele>
        <time>2021-07-02T08:32:56Z</time>
      </trkpt>
      <trkpt lat="47.93308" lon="7.23265">
        <ele>266.4</ele>
        <time>2021-07-02T08:32:58Z</time>
      </trkpt>
      <trkpt lat="47.93298" lon="7.23263">
        <ele>266.8</ele>
        <time>2021-07-02T08:33:00Z</time>
      </trkpt>
      <trkpt lat="47.93282" lon="7.23259">
        <ele>267.2</ele>
        <time>2021-07-02T08:33:03Z</time>
      </trkpt>
      <trkpt lat="47.93266" lon="7.23254">
        <ele>267.4</ele>
        <time>2021-07-02T08:33:06Z</time>
      </trkpt>
      <trkpt lat="47.93245" lon="7.23248">
        <ele>267.8</ele>
        <time>2021-07-02T08:33:10Z</time>
      </trkpt>
      <trkpt lat="47.93229" lon="7.23243">
        <ele>267.6</ele>
        <time>2021-07-02T08:33:13Z</time>
      </trkpt>
      <trkpt lat="47.93212" lon="7.23238">
        <ele>267.6</ele>
        <time>2021-07-02T08:33:16Z</time>
      </trkpt>
      <trkpt lat="47.932" lon="7.23235">
        <ele>267.4</ele>
        <time>2021-07-02T08:33:18Z</time>
      </trkpt>
      <trkpt lat="47.93187" lon="7.23238">
        <ele>267</ele>
        <time>2021-07-02T08:33:20Z</time>
      </trkpt>
      <trkpt lat="47.93175" lon="7.23245">
        <ele>266.6</ele>
        <time>2021-07-02T08:33:22Z</time>
      </trkpt>
      <trkpt lat="47.93163" lon="7.23254">
        <ele>266</ele>
        <time>2021-07-02T08:33:24Z</time>
      </trkpt>
      <trkpt lat="47.93157" lon="7.2326">
        <ele>265.8</ele>
        <time>2021-07-02T08:33:25Z</time>
      </trkpt>
      <trkpt lat="47.93151" lon="7.23265">
        <ele>265.6</ele>
        <time>2021-07-02T08:33:26Z</time>
      </trkpt>
      <trkpt lat="47.93131" lon="7.23278">
        <ele>264.8</ele>
        <time>2021-07-02T08:33:29Z</time>
      </trkpt>
      <trkpt lat="47.93116" lon="7.2329">
        <ele>264.2</ele>
        <time>2021-07-02T08:33:31Z</time>
      </trkpt>
      <trkpt lat="47.93101" lon="7.23304">
        <ele>263</ele>
        <time>2021-07-02T08:33:33Z</time>
      </trkpt>
      <trkpt lat="47.93088" lon="7.23318">
        <ele>261.8</ele>
        <time>2021-07-02T08:33:35Z</time>
      </trkpt>
      <trkpt lat="47.93081" lon="7.23324">
        <ele>261.6</ele>
        <time>2021-07-02T08:33:36Z</time>
      </trkpt>
      <trkpt lat="47.93074" lon="7.23329">
        <ele>260.8</ele>
        <time>2021-07-02T08:33:37Z</time>
      </trkpt>
      <trkpt lat="47.93067" lon="7.23333">
        <ele>260</ele>
        <time>2021-07-02T08:33:38Z</time>
      </trkpt>
      <trkpt lat="47.93052" lon="7.23341">
        <ele>259.2</ele>
        <time>2021-07-02T08:33:40Z</time>
      </trkpt>
      <trkpt lat="47.93036" lon="7.23349">
        <ele>257.6</ele>
        <time>2021-07-02T08:33:42Z</time>
      </trkpt>
      <trkpt lat="47.93012" lon="7.23361">
        <ele>256.8</ele>
        <time>2021-07-02T08:33:45Z</time>
      </trkpt>
      <trkpt lat="47.93005" lon="7.23367">
        <ele>256.6</ele>
        <time>2021-07-02T08:33:46Z</time>
      </trkpt>
      <trkpt lat="47.92986" lon="7.23388">
        <ele>255.6</ele>
        <time>2021-07-02T08:33:49Z</time>
      </trkpt>
      <trkpt lat="47.92979" lon="7.23395">
        <ele>255.4</ele>
        <time>2021-07-02T08:33:50Z</time>
      </trkpt>
      <trkpt lat="47.9296" lon="7.23411">
        <ele>254.8</ele>
        <time>2021-07-02T08:33:53Z</time>
      </trkpt>
      <trkpt lat="47.92949" lon="7.23421">
        <ele>254.4</ele>
        <time>2021-07-02T08:33:55Z</time>
      </trkpt>
      <trkpt lat="47.92937" lon="7.23433">
        <ele>254</ele>
        <time>2021-07-02T08:33:57Z</time>
      </trkpt>
      <trkpt lat="47.92934" lon="7.2344">
        <ele>254</ele>
        <time>2021-07-02T08:33:58Z</time>
      </trkpt>
      <trkpt lat="47.92931" lon="7.23447">
        <ele>253.8</ele>
        <time>2021-07-02T08:33:59Z</time>
      </trkpt>
      <trkpt lat="47.92928" lon="7.23465">
        <ele>253.6</ele>
        <time>2021-07-02T08:34:01Z</time>
      </trkpt>
      <trkpt lat="47.92925" lon="7.23484">
        <ele>253.2</ele>
        <time>2021-07-02T08:34:03Z</time>
      </trkpt>
      <trkpt lat="47.9292" lon="7.23523">
        <ele>253</ele>
        <time>2021-07-02T08:34:07Z</time>
      </trkpt>
      <trkpt lat="47.92918" lon="7.23543">
        <ele>252.8</ele>
        <time>2021-07-02T08:34:09Z</time>
      </trkpt>
      <trkpt lat="47.92915" lon="7.23563">
        <ele>252.6</ele>
        <time>2021-07-02T08:34:11Z</time>
      </trkpt>
      <trkpt lat="47.9291" lon="7.23592">
        <ele>252.2</ele>
        <time>2021-07-02T08:34:14Z</time>
      </trkpt>
      <trkpt lat="47.92908" lon="7.23601">
        <ele>252</ele>
        <time>2021-07-02T08:34:15Z</time>
      </trkpt>
      <trkpt lat="47.92904" lon="7.2362">
        <ele>252</ele>
        <time>2021-07-02T08:34:17Z</time>
      </trkpt>
      <trkpt lat="47.92881" lon="7.23686">
        <ele>251.8</ele>
        <time>2021-07-02T08:34:25Z</time>
      </trkpt>
      <trkpt lat="47.92862" lon="7.23732">
        <ele>251.6</ele>
        <time>2021-07-02T08:34:31Z</time>
      </trkpt>
      <trkpt lat="47.92848" lon="7.23759">
        <ele>251.6</ele>
        <time>2021-07-02T08:34:35Z</time>
      </trkpt>
      <trkpt lat="47.9284" lon="7.23771">
        <ele>251.6</ele>
        <time>2021-07-02T08:34:37Z</time>
      </trkpt>
      <trkpt lat="47.92823" lon="7.23795">
        <ele>251.4</ele>
        <time>2021-07-02T08:34:41Z</time>
      </trkpt>
      <trkpt lat="47.92809" lon="7.23813">
        <ele>251.4</ele>
        <time>2021-07-02T08:34:44Z</time>
      </trkpt>
      <trkpt lat="47.92765" lon="7.23863">
        <ele>251.6</ele>
        <time>2021-07-02T08:34:53Z</time>
      </trkpt>
      <trkpt lat="47.92718" lon="7.23911">
        <ele>251.8</ele>
        <time>2021-07-02T08:35:02Z</time>
      </trkpt>
      <trkpt lat="47.92713" lon="7.23917">
        <ele>251.8</ele>
        <time>2021-07-02T08:35:03Z</time>
      </trkpt>
      <trkpt lat="47.92688" lon="7.23942">
        <ele>251.4</ele>
        <time>2021-07-02T08:35:08Z</time>
      </trkpt>
      <trkpt lat="47.92673" lon="7.23955">
        <ele>251.2</ele>
        <time>2021-07-02T08:35:11Z</time>
      </trkpt>
      <trkpt lat="47.92646" lon="7.23971">
        <ele>251.6</ele>
        <time>2021-07-02T08:35:16Z</time>
      </trkpt>
      <trkpt lat="47.9264" lon="7.23973">
        <ele>251.6</ele>
        <time>2021-07-02T08:35:17Z</time>
      </trkpt>
      <trkpt lat="47.92603" lon="7.23984">
        <ele>252.4</ele>
        <time>2021-07-02T08:35:24Z</time>
      </trkpt>
      <trkpt lat="47.92561" lon="7.24">
        <ele>253</ele>
        <time>2021-07-02T08:35:32Z</time>
      </trkpt>
      <trkpt lat="47.92522" lon="7.24026">
        <ele>253.4</ele>
        <time>2021-07-02T08:35:39Z</time>
      </trkpt>
      <trkpt lat="47.92475" lon="7.24062">
        <ele>252.6</ele>
        <time>2021-07-02T08:35:47Z</time>
      </trkpt>
      <trkpt lat="47.9245" lon="7.24078">
        <ele>251.6</ele>
        <time>2021-07-02T08:35:51Z</time>
      </trkpt>
      <trkpt lat="47.92431" lon="7.2409">
        <ele>251</ele>
        <time>2021-07-02T08:35:54Z</time>
      </trkpt>
      <trkpt lat="47.92406" lon="7.24111">
        <ele>250.6</ele>
        <time>2021-07-02T08:35:58Z</time>
      </trkpt>
      <trkpt lat="47.92373" lon="7.24138">
        <ele>249.6</ele>
        <time>2021-07-02T08:36:03Z</time>
      </trkpt>
      <trkpt lat="47.92367" lon="7.24144">
        <ele>249.4</ele>
        <time>2021-07-02T08:36:04Z</time>
      </trkpt>
      <trkpt lat="47.92331" lon="7.24183">
        <ele>248.8</ele>
        <time>2021-07-02T08:36:10Z</time>
      </trkpt>
      <trkpt lat="47.92316" lon="7.24206">
        <ele>248.2</ele>
        <time>2021-07-02T08:36:13Z</time>
      </trkpt>
      <trkpt lat="47.9229" lon="7.24245">
        <ele>247</ele>
        <time>2021-07-02T08:36:18Z</time>
      </trkpt>
      <trkpt lat="47.9226" lon="7.24275">
        <ele>246.2</ele>
        <time>2021-07-02T08:36:23Z</time>
      </trkpt>
      <trkpt lat="47.92248" lon="7.24284">
        <ele>246</ele>
        <time>2021-07-02T08:36:25Z</time>
      </trkpt>
      <trkpt lat="47.92212" lon="7.2431">
        <ele>245.2</ele>
        <time>2021-07-02T08:36:31Z</time>
      </trkpt>
      <trkpt lat="47.92169" lon="7.24339">
        <ele>245.2</ele>
        <time>2021-07-02T08:36:38Z</time>
      </trkpt>
      <trkpt lat="47.92158" lon="7.24345">
        <ele>245.2</ele>
        <time>2021-07-02T08:36:40Z</time>
      </trkpt>
      <trkpt lat="47.9212" lon="7.24367">
        <ele>245</ele>
        <time>2021-07-02T08:36:47Z</time>
      </trkpt>
      <trkpt lat="47.92115" lon="7.2437">
        <ele>245</ele>
        <time>2021-07-02T08:36:48Z</time>
      </trkpt>
      <trkpt lat="47.92094" lon="7.2438">
        <ele>244.8</ele>
        <time>2021-07-02T08:36:53Z</time>
      </trkpt>
      <trkpt lat="47.92086" lon="7.24383">
        <ele>244.6</ele>
        <time>2021-07-02T08:36:58Z</time>
      </trkpt>
      <trkpt lat="47.92073" lon="7.2439">
        <ele>244.2</ele>
        <time>2021-07-02T08:37:04Z</time>
      </trkpt>
      <trkpt lat="47.92063" lon="7.2439">
        <ele>244.2</ele>
        <time>2021-07-02T08:37:06Z</time>
      </trkpt>
      <trkpt lat="47.92051" lon="7.24388">
        <ele>244</ele>
        <time>2021-07-02T08:37:08Z</time>
      </trkpt>
      <trkpt lat="47.92045" lon="7.24385">
        <ele>244</ele>
        <time>2021-07-02T08:37:09Z</time>
      </trkpt>
      <trkpt lat="47.92025" lon="7.24375">
        <ele>243.6</ele>
        <time>2021-07-02T08:37:12Z</time>
      </trkpt>
      <trkpt lat="47.91993" lon="7.24359">
        <ele>243.4</ele>
        <time>2021-07-02T08:37:17Z</time>
      </trkpt>
      <trkpt lat="47.9198" lon="7.24357">
        <ele>243.6</ele>
        <time>2021-07-02T08:37:19Z</time>
      </trkpt>
      <trkpt lat="47.91969" lon="7.24362">
        <ele>243.4</ele>
        <time>2021-07-02T08:37:21Z</time>
      </trkpt>
      <trkpt lat="47.91964" lon="7.24369">
        <ele>243.4</ele>
        <time>2021-07-02T08:37:22Z</time>
      </trkpt>
      <trkpt lat="47.9196" lon="7.24377">
        <ele>243.4</ele>
        <time>2021-07-02T08:37:23Z</time>
      </trkpt>
      <trkpt lat="47.9194" lon="7.24422">
        <ele>243.2</ele>
        <time>2021-07-02T08:37:28Z</time>
      </trkpt>
      <trkpt lat="47.91937" lon="7.24431">
        <ele>243</ele>
        <time>2021-07-02T08:37:29Z</time>
      </trkpt>
      <trkpt lat="47.91924" lon="7.24469">
        <ele>242</ele>
        <time>2021-07-02T08:37:33Z</time>
      </trkpt>
      <trkpt lat="47.91919" lon="7.24489">
        <ele>241.6</ele>
        <time>2021-07-02T08:37:35Z</time>
      </trkpt>
      <trkpt lat="47.91911" lon="7.24517">
        <ele>240.8</ele>
        <time>2021-07-02T08:37:38Z</time>
      </trkpt>
      <trkpt lat="47.91903" lon="7.24543">
        <ele>240.2</ele>
        <time>2021-07-02T08:37:41Z</time>
      </trkpt>
      <trkpt lat="47.91894" lon="7.24571">
        <ele>239.4</ele>
        <time>2021-07-02T08:37:44Z</time>
      </trkpt>
      <trkpt lat="47.91888" lon="7.24588">
        <ele>239.6</ele>
        <time>2021-07-02T08:37:46Z</time>
      </trkpt>
      <trkpt lat="47.91884" lon="7.24596">
        <ele>239.2</ele>
        <time>2021-07-02T08:37:47Z</time>
      </trkpt>
      <trkpt lat="47.91869" lon="7.24619">
        <ele>239.2</ele>
        <time>2021-07-02T08:37:50Z</time>
      </trkpt>
      <trkpt lat="47.91859" lon="7.2463">
        <ele>239.2</ele>
        <time>2021-07-02T08:37:52Z</time>
      </trkpt>
      <trkpt lat="47.91848" lon="7.2464">
        <ele>239</ele>
        <time>2021-07-02T08:37:54Z</time>
      </trkpt>
      <trkpt lat="47.91838" lon="7.24651">
        <ele>238.8</ele>
        <time>2021-07-02T08:37:56Z</time>
      </trkpt>
      <trkpt lat="47.91834" lon="7.24656">
        <ele>238.8</ele>
        <time>2021-07-02T08:37:57Z</time>
      </trkpt>
      <trkpt lat="47.91824" lon="7.2467">
        <ele>238.6</ele>
        <time>2021-07-02T08:38:00Z</time>
      </trkpt>
      <trkpt lat="47.91821" lon="7.24675">
        <ele>238.6</ele>
        <time>2021-07-02T08:38:01Z</time>
      </trkpt>
      <trkpt lat="47.91818" lon="7.24682">
        <ele>238.6</ele>
        <time>2021-07-02T08:38:02Z</time>
      </trkpt>
      <trkpt lat="47.91815" lon="7.2469">
        <ele>238.6</ele>
        <time>2021-07-02T08:38:03Z</time>
      </trkpt>
      <trkpt lat="47.91807" lon="7.24704">
        <ele>238.6</ele>
        <time>2021-07-02T08:38:05Z</time>
      </trkpt>
      <trkpt lat="47.91804" lon="7.2471">
        <ele>238.6</ele>
        <time>2021-07-02T08:38:06Z</time>
      </trkpt>
      <trkpt lat="47.91792" lon="7.24728">
        <ele>238.6</ele>
        <time>2021-07-02T08:38:09Z</time>
      </trkpt>
      <trkpt lat="47.9177" lon="7.2476">
        <ele>238.8</ele>
        <time>2021-07-02T08:38:14Z</time>
      </trkpt>
      <trkpt lat="47.91753" lon="7.24786">
        <ele>239.2</ele>
        <time>2021-07-02T08:38:18Z</time>
      </trkpt>
      <trkpt lat="47.91745" lon="7.248">
        <ele>239.4</ele>
        <time>2021-07-02T08:38:20Z</time>
      </trkpt>
      <trkpt lat="47.91718" lon="7.24836">
        <ele>239.2</ele>
        <time>2021-07-02T08:38:26Z</time>
      </trkpt>
      <trkpt lat="47.9171" lon="7.24849">
        <ele>239.2</ele>
        <time>2021-07-02T08:38:28Z</time>
      </trkpt>
      <trkpt lat="47.91692" lon="7.2487">
        <ele>239.2</ele>
        <time>2021-07-02T08:38:32Z</time>
      </trkpt>
      <trkpt lat="47.91686" lon="7.24877">
        <ele>239</ele>
        <time>2021-07-02T08:38:34Z</time>
      </trkpt>
      <trkpt lat="47.91685" lon="7.24879">
        <ele>239.2</ele>
        <time>2021-07-02T08:38:37Z</time>
      </trkpt>
      <trkpt lat="47.91685" lon="7.24879">
        <ele>239.2</ele>
        <time>2021-07-02T08:38:38Z</time>
      </trkpt>
      <trkpt lat="47.91683" lon="7.24882">
        <ele>239.2</ele>
        <time>2021-07-02T08:40:16Z</time>
      </trkpt>
      <trkpt lat="47.9168" lon="7.24889">
        <ele>239.2</ele>
        <time>2021-07-02T08:40:18Z</time>
      </trkpt>
      <trkpt lat="47.91668" lon="7.24912">
        <ele>239.2</ele>
        <time>2021-07-02T08:40:23Z</time>
      </trkpt>
      <trkpt lat="47.91664" lon="7.24917">
        <ele>239.2</ele>
        <time>2021-07-02T08:40:24Z</time>
      </trkpt>
      <trkpt lat="47.91655" lon="7.24936">
        <ele>239.4</ele>
        <time>2021-07-02T08:40:27Z</time>
      </trkpt>
      <trkpt lat="47.91633" lon="7.24984">
        <ele>239</ele>
        <time>2021-07-02T08:40:34Z</time>
      </trkpt>
      <trkpt lat="47.91603" lon="7.25047">
        <ele>240</ele>
        <time>2021-07-02T08:40:43Z</time>
      </trkpt>
      <trkpt lat="47.916" lon="7.25054">
        <ele>240.2</ele>
        <time>2021-07-02T08:40:44Z</time>
      </trkpt>
      <trkpt lat="47.91576" lon="7.25106">
        <ele>240.2</ele>
        <time>2021-07-02T08:40:51Z</time>
      </trkpt>
      <trkpt lat="47.91561" lon="7.25133">
        <ele>240.2</ele>
        <time>2021-07-02T08:40:55Z</time>
      </trkpt>
      <trkpt lat="47.91547" lon="7.2515">
        <ele>240.2</ele>
        <time>2021-07-02T08:40:58Z</time>
      </trkpt>
      <trkpt lat="47.91531" lon="7.25164">
        <ele>240</ele>
        <time>2021-07-02T08:41:01Z</time>
      </trkpt>
      <trkpt lat="47.91514" lon="7.25176">
        <ele>240.2</ele>
        <time>2021-07-02T08:41:04Z</time>
      </trkpt>
      <trkpt lat="47.91462" lon="7.25208">
        <ele>240</ele>
        <time>2021-07-02T08:41:13Z</time>
      </trkpt>
      <trkpt lat="47.91421" lon="7.25232">
        <ele>239.8</ele>
        <time>2021-07-02T08:41:20Z</time>
      </trkpt>
      <trkpt lat="47.91372" lon="7.25264">
        <ele>240.2</ele>
        <time>2021-07-02T08:41:29Z</time>
      </trkpt>
      <trkpt lat="47.91341" lon="7.25293">
        <ele>240.4</ele>
        <time>2021-07-02T08:41:35Z</time>
      </trkpt>
      <trkpt lat="47.91295" lon="7.2534">
        <ele>240.6</ele>
        <time>2021-07-02T08:41:44Z</time>
      </trkpt>
      <trkpt lat="47.91256" lon="7.25381">
        <ele>240.8</ele>
        <time>2021-07-02T08:41:52Z</time>
      </trkpt>
      <trkpt lat="47.91222" lon="7.25417">
        <ele>240.8</ele>
        <time>2021-07-02T08:41:59Z</time>
      </trkpt>
      <trkpt lat="47.91183" lon="7.25456">
        <ele>241</ele>
        <time>2021-07-02T08:42:07Z</time>
      </trkpt>
      <trkpt lat="47.91173" lon="7.25466">
        <ele>241</ele>
        <time>2021-07-02T08:42:09Z</time>
      </trkpt>
      <trkpt lat="47.91154" lon="7.25485">
        <ele>241.2</ele>
        <time>2021-07-02T08:42:13Z</time>
      </trkpt>
      <trkpt lat="47.91141" lon="7.25499">
        <ele>241.4</ele>
        <time>2021-07-02T08:42:16Z</time>
      </trkpt>
      <trkpt lat="47.9111" lon="7.25531">
        <ele>241.8</ele>
        <time>2021-07-02T08:42:22Z</time>
      </trkpt>
      <trkpt lat="47.91065" lon="7.25571">
        <ele>241.8</ele>
        <time>2021-07-02T08:42:30Z</time>
      </trkpt>
      <trkpt lat="47.91029" lon="7.25593">
        <ele>241.6</ele>
        <time>2021-07-02T08:42:36Z</time>
      </trkpt>
      <trkpt lat="47.91016" lon="7.25595">
        <ele>241.4</ele>
        <time>2021-07-02T08:42:38Z</time>
      </trkpt>
      <trkpt lat="47.90997" lon="7.25594">
        <ele>241</ele>
        <time>2021-07-02T08:42:41Z</time>
      </trkpt>
      <trkpt lat="47.90979" lon="7.25592">
        <ele>240.8</ele>
        <time>2021-07-02T08:42:44Z</time>
      </trkpt>
      <trkpt lat="47.90967" lon="7.25595">
        <ele>240.6</ele>
        <time>2021-07-02T08:42:46Z</time>
      </trkpt>
      <trkpt lat="47.90946" lon="7.2561">
        <ele>240.6</ele>
        <time>2021-07-02T08:42:50Z</time>
      </trkpt>
      <trkpt lat="47.9094" lon="7.25612">
        <ele>240.8</ele>
        <time>2021-07-02T08:42:51Z</time>
      </trkpt>
      <trkpt lat="47.90927" lon="7.25614">
        <ele>241</ele>
        <time>2021-07-02T08:42:53Z</time>
      </trkpt>
      <trkpt lat="47.90914" lon="7.2562">
        <ele>241</ele>
        <time>2021-07-02T08:42:55Z</time>
      </trkpt>
      <trkpt lat="47.90908" lon="7.25625">
        <ele>241</ele>
        <time>2021-07-02T08:42:56Z</time>
      </trkpt>
      <trkpt lat="47.90904" lon="7.25632">
        <ele>241</ele>
        <time>2021-07-02T08:42:57Z</time>
      </trkpt>
      <trkpt lat="47.90897" lon="7.2565">
        <ele>241</ele>
        <time>2021-07-02T08:42:59Z</time>
      </trkpt>
      <trkpt lat="47.90897" lon="7.2567">
        <ele>240.6</ele>
        <time>2021-07-02T08:43:01Z</time>
      </trkpt>
      <trkpt lat="47.909" lon="7.25679">
        <ele>240.8</ele>
        <time>2021-07-02T08:43:02Z</time>
      </trkpt>
      <trkpt lat="47.90904" lon="7.25688">
        <ele>240.8</ele>
        <time>2021-07-02T08:43:03Z</time>
      </trkpt>
      <trkpt lat="47.90908" lon="7.25697">
        <ele>240.6</ele>
        <time>2021-07-02T08:43:04Z</time>
      </trkpt>
      <trkpt lat="47.90913" lon="7.25706">
        <ele>240.6</ele>
        <time>2021-07-02T08:43:05Z</time>
      </trkpt>
      <trkpt lat="47.90917" lon="7.25716">
        <ele>240.4</ele>
        <time>2021-07-02T08:43:06Z</time>
      </trkpt>
      <trkpt lat="47.9092" lon="7.25726">
        <ele>240.4</ele>
        <time>2021-07-02T08:43:07Z</time>
      </trkpt>
      <trkpt lat="47.90929" lon="7.25768">
        <ele>239.8</ele>
        <time>2021-07-02T08:43:11Z</time>
      </trkpt>
      <trkpt lat="47.90939" lon="7.2584">
        <ele>239.4</ele>
        <time>2021-07-02T08:43:18Z</time>
      </trkpt>
      <trkpt lat="47.90941" lon="7.25849">
        <ele>239.2</ele>
        <time>2021-07-02T08:43:19Z</time>
      </trkpt>
      <trkpt lat="47.9095" lon="7.25928">
        <ele>238.6</ele>
        <time>2021-07-02T08:43:27Z</time>
      </trkpt>
      <trkpt lat="47.90952" lon="7.25938">
        <ele>238.4</ele>
        <time>2021-07-02T08:43:28Z</time>
      </trkpt>
      <trkpt lat="47.90964" lon="7.26019">
        <ele>238</ele>
        <time>2021-07-02T08:43:36Z</time>
      </trkpt>
      <trkpt lat="47.9098" lon="7.26103">
        <ele>237.8</ele>
        <time>2021-07-02T08:43:45Z</time>
      </trkpt>
      <trkpt lat="47.90982" lon="7.26112">
        <ele>237.8</ele>
        <time>2021-07-02T08:43:46Z</time>
      </trkpt>
      <trkpt lat="47.90985" lon="7.26127">
        <ele>238</ele>
        <time>2021-07-02T08:43:48Z</time>
      </trkpt>
      <trkpt lat="47.9099" lon="7.26151">
        <ele>239.4</ele>
        <time>2021-07-02T08:43:51Z</time>
      </trkpt>
      <trkpt lat="47.90993" lon="7.26166">
        <ele>239.8</ele>
        <time>2021-07-02T08:43:53Z</time>
      </trkpt>
      <trkpt lat="47.90998" lon="7.26194">
        <ele>240.6</ele>
        <time>2021-07-02T08:43:57Z</time>
      </trkpt>
      <trkpt lat="47.91" lon="7.26202">
        <ele>241</ele>
        <time>2021-07-02T08:43:58Z</time>
      </trkpt>
      <trkpt lat="47.91001" lon="7.26209">
        <ele>241.2</ele>
        <time>2021-07-02T08:43:59Z</time>
      </trkpt>
      <trkpt lat="47.91005" lon="7.26233">
        <ele>242.2</ele>
        <time>2021-07-02T08:44:02Z</time>
      </trkpt>
      <trkpt lat="47.91017" lon="7.26298">
        <ele>242.6</ele>
        <time>2021-07-02T08:44:09Z</time>
      </trkpt>
      <trkpt lat="47.91028" lon="7.26367">
        <ele>241.2</ele>
        <time>2021-07-02T08:44:15Z</time>
      </trkpt>
      <trkpt lat="47.91033" lon="7.26405">
        <ele>239.8</ele>
        <time>2021-07-02T08:44:18Z</time>
      </trkpt>
      <trkpt lat="47.91036" lon="7.26431">
        <ele>238.4</ele>
        <time>2021-07-02T08:44:20Z</time>
      </trkpt>
      <trkpt lat="47.91039" lon="7.26457">
        <ele>237.6</ele>
        <time>2021-07-02T08:44:22Z</time>
      </trkpt>
      <trkpt lat="47.9104" lon="7.26469">
        <ele>237</ele>
        <time>2021-07-02T08:44:23Z</time>
      </trkpt>
      <trkpt lat="47.91044" lon="7.26516">
        <ele>235.2</ele>
        <time>2021-07-02T08:44:27Z</time>
      </trkpt>
      <trkpt lat="47.91044" lon="7.26526">
        <ele>235</ele>
        <time>2021-07-02T08:44:28Z</time>
      </trkpt>
      <trkpt lat="47.91045" lon="7.26587">
        <ele>234.4</ele>
        <time>2021-07-02T08:44:34Z</time>
      </trkpt>
      <trkpt lat="47.91045" lon="7.26597">
        <ele>234.2</ele>
        <time>2021-07-02T08:44:35Z</time>
      </trkpt>
      <trkpt lat="47.91046" lon="7.26677">
        <ele>234</ele>
        <time>2021-07-02T08:44:43Z</time>
      </trkpt>
      <trkpt lat="47.91046" lon="7.26727">
        <ele>233.2</ele>
        <time>2021-07-02T08:44:48Z</time>
      </trkpt>
      <trkpt lat="47.91045" lon="7.26777">
        <ele>232.8</ele>
        <time>2021-07-02T08:44:53Z</time>
      </trkpt>
      <trkpt lat="47.91045" lon="7.26866">
        <ele>232.4</ele>
        <time>2021-07-02T08:45:02Z</time>
      </trkpt>
      <trkpt lat="47.91045" lon="7.26886">
        <ele>232.4</ele>
        <time>2021-07-02T08:45:04Z</time>
      </trkpt>
      <trkpt lat="47.91046" lon="7.26926">
        <ele>232.2</ele>
        <time>2021-07-02T08:45:08Z</time>
      </trkpt>
      <trkpt lat="47.91046" lon="7.26946">
        <ele>231.8</ele>
        <time>2021-07-02T08:45:10Z</time>
      </trkpt>
      <trkpt lat="47.91047" lon="7.27017">
        <ele>231.4</ele>
        <time>2021-07-02T08:45:17Z</time>
      </trkpt>
      <trkpt lat="47.91047" lon="7.27036">
        <ele>231</ele>
        <time>2021-07-02T08:45:19Z</time>
      </trkpt>
      <trkpt lat="47.9105" lon="7.27103">
        <ele>230.2</ele>
        <time>2021-07-02T08:45:26Z</time>
      </trkpt>
      <trkpt lat="47.9105" lon="7.27122">
        <ele>230</ele>
        <time>2021-07-02T08:45:28Z</time>
      </trkpt>
      <trkpt lat="47.9105" lon="7.27161">
        <ele>229.4</ele>
        <time>2021-07-02T08:45:32Z</time>
      </trkpt>
      <trkpt lat="47.91048" lon="7.27198">
        <ele>229</ele>
        <time>2021-07-02T08:45:36Z</time>
      </trkpt>
      <trkpt lat="47.91048" lon="7.27207">
        <ele>229</ele>
        <time>2021-07-02T08:45:37Z</time>
      </trkpt>
      <trkpt lat="47.91047" lon="7.27217">
        <ele>229</ele>
        <time>2021-07-02T08:45:38Z</time>
      </trkpt>
      <trkpt lat="47.91045" lon="7.27246">
        <ele>228.6</ele>
        <time>2021-07-02T08:45:41Z</time>
      </trkpt>
      <trkpt lat="47.91042" lon="7.27275">
        <ele>228</ele>
        <time>2021-07-02T08:45:44Z</time>
      </trkpt>
      <trkpt lat="47.91035" lon="7.2736">
        <ele>227.4</ele>
        <time>2021-07-02T08:45:53Z</time>
      </trkpt>
      <trkpt lat="47.91031" lon="7.27432">
        <ele>227.4</ele>
        <time>2021-07-02T08:46:01Z</time>
      </trkpt>
      <trkpt lat="47.91031" lon="7.27516">
        <ele>227.4</ele>
        <time>2021-07-02T08:46:10Z</time>
      </trkpt>
      <trkpt lat="47.91031" lon="7.27525">
        <ele>227.4</ele>
        <time>2021-07-02T08:46:11Z</time>
      </trkpt>
      <trkpt lat="47.91032" lon="7.27544">
        <ele>227</ele>
        <time>2021-07-02T08:46:13Z</time>
      </trkpt>
      <trkpt lat="47.91033" lon="7.27553">
        <ele>227</ele>
        <time>2021-07-02T08:46:14Z</time>
      </trkpt>
      <trkpt lat="47.91034" lon="7.276">
        <ele>226.6</ele>
        <time>2021-07-02T08:46:19Z</time>
      </trkpt>
      <trkpt lat="47.91038" lon="7.27685">
        <ele>226.4</ele>
        <time>2021-07-02T08:46:28Z</time>
      </trkpt>
      <trkpt lat="47.91042" lon="7.2775">
        <ele>225.6</ele>
        <time>2021-07-02T08:46:35Z</time>
      </trkpt>
      <trkpt lat="47.91043" lon="7.27759">
        <ele>225.4</ele>
        <time>2021-07-02T08:46:36Z</time>
      </trkpt>
      <trkpt lat="47.91045" lon="7.27815">
        <ele>225</ele>
        <time>2021-07-02T08:46:42Z</time>
      </trkpt>
      <trkpt lat="47.91048" lon="7.27871">
        <ele>224.4</ele>
        <time>2021-07-02T08:46:48Z</time>
      </trkpt>
      <trkpt lat="47.91049" lon="7.27881">
        <ele>224.4</ele>
        <time>2021-07-02T08:46:49Z</time>
      </trkpt>
      <trkpt lat="47.91055" lon="7.27946">
        <ele>224</ele>
        <time>2021-07-02T08:46:56Z</time>
      </trkpt>
      <trkpt lat="47.91061" lon="7.27991">
        <ele>224</ele>
        <time>2021-07-02T08:47:01Z</time>
      </trkpt>
      <trkpt lat="47.91064" lon="7.28007">
        <ele>223.8</ele>
        <time>2021-07-02T08:47:03Z</time>
      </trkpt>
      <trkpt lat="47.91069" lon="7.28033">
        <ele>223.2</ele>
        <time>2021-07-02T08:47:06Z</time>
      </trkpt>
      <trkpt lat="47.91077" lon="7.28067">
        <ele>222.6</ele>
        <time>2021-07-02T08:47:10Z</time>
      </trkpt>
      <trkpt lat="47.91086" lon="7.28108">
        <ele>222.2</ele>
        <time>2021-07-02T08:47:15Z</time>
      </trkpt>
      <trkpt lat="47.91096" lon="7.28156">
        <ele>222</ele>
        <time>2021-07-02T08:47:21Z</time>
      </trkpt>
      <trkpt lat="47.91107" lon="7.28207">
        <ele>221.8</ele>
        <time>2021-07-02T08:47:27Z</time>
      </trkpt>
      <trkpt lat="47.91122" lon="7.28269">
        <ele>221.8</ele>
        <time>2021-07-02T08:47:34Z</time>
      </trkpt>
      <trkpt lat="47.91135" lon="7.28329">
        <ele>221.6</ele>
        <time>2021-07-02T08:47:41Z</time>
      </trkpt>
      <trkpt lat="47.91137" lon="7.28339">
        <ele>221.2</ele>
        <time>2021-07-02T08:47:42Z</time>
      </trkpt>
      <trkpt lat="47.91147" lon="7.28384">
        <ele>220.2</ele>
        <time>2021-07-02T08:47:47Z</time>
      </trkpt>
      <trkpt lat="47.91155" lon="7.28419">
        <ele>219.8</ele>
        <time>2021-07-02T08:47:51Z</time>
      </trkpt>
      <trkpt lat="47.91174" lon="7.28499">
        <ele>219.4</ele>
        <time>2021-07-02T08:48:00Z</time>
      </trkpt>
      <trkpt lat="47.91191" lon="7.28573">
        <ele>219</ele>
        <time>2021-07-02T08:48:08Z</time>
      </trkpt>
      <trkpt lat="47.91193" lon="7.28582">
        <ele>218.6</ele>
        <time>2021-07-02T08:48:09Z</time>
      </trkpt>
      <trkpt lat="47.91208" lon="7.28653">
        <ele>218.2</ele>
        <time>2021-07-02T08:48:17Z</time>
      </trkpt>
      <trkpt lat="47.91222" lon="7.28713">
        <ele>218</ele>
        <time>2021-07-02T08:48:24Z</time>
      </trkpt>
      <trkpt lat="47.91233" lon="7.28766">
        <ele>217.4</ele>
        <time>2021-07-02T08:48:30Z</time>
      </trkpt>
      <trkpt lat="47.91235" lon="7.28778">
        <ele>217.4</ele>
        <time>2021-07-02T08:48:31Z</time>
      </trkpt>
      <trkpt lat="47.9125" lon="7.28849">
        <ele>217.4</ele>
        <time>2021-07-02T08:48:39Z</time>
      </trkpt>
      <trkpt lat="47.91256" lon="7.28874">
        <ele>217.4</ele>
        <time>2021-07-02T08:48:42Z</time>
      </trkpt>
      <trkpt lat="47.91259" lon="7.28893">
        <ele>217.2</ele>
        <time>2021-07-02T08:48:44Z</time>
      </trkpt>
      <trkpt lat="47.91263" lon="7.2891">
        <ele>217</ele>
        <time>2021-07-02T08:48:46Z</time>
      </trkpt>
      <trkpt lat="47.91272" lon="7.28952">
        <ele>217</ele>
        <time>2021-07-02T08:48:51Z</time>
      </trkpt>
      <trkpt lat="47.91292" lon="7.2903">
        <ele>216.4</ele>
        <time>2021-07-02T08:49:00Z</time>
      </trkpt>
      <trkpt lat="47.91294" lon="7.29038">
        <ele>216.4</ele>
        <time>2021-07-02T08:49:01Z</time>
      </trkpt>
      <trkpt lat="47.91307" lon="7.29086">
        <ele>216.2</ele>
        <time>2021-07-02T08:49:07Z</time>
      </trkpt>
      <trkpt lat="47.91309" lon="7.29093">
        <ele>216</ele>
        <time>2021-07-02T08:49:08Z</time>
      </trkpt>
      <trkpt lat="47.9131" lon="7.29099">
        <ele>216</ele>
        <time>2021-07-02T08:49:09Z</time>
      </trkpt>
      <trkpt lat="47.91312" lon="7.29114">
        <ele>216</ele>
        <time>2021-07-02T08:49:11Z</time>
      </trkpt>
      <trkpt lat="47.91314" lon="7.29118">
        <ele>216</ele>
        <time>2021-07-02T08:49:12Z</time>
      </trkpt>
      <trkpt lat="47.91322" lon="7.29122">
        <ele>215.8</ele>
        <time>2021-07-02T08:49:14Z</time>
      </trkpt>
      <trkpt lat="47.91327" lon="7.29122">
        <ele>215.8</ele>
        <time>2021-07-02T08:49:15Z</time>
      </trkpt>
      <trkpt lat="47.91343" lon="7.29128">
        <ele>215.8</ele>
        <time>2021-07-02T08:49:18Z</time>
      </trkpt>
      <trkpt lat="47.91353" lon="7.29132">
        <ele>216.2</ele>
        <time>2021-07-02T08:49:20Z</time>
      </trkpt>
      <trkpt lat="47.91388" lon="7.29149">
        <ele>216.8</ele>
        <time>2021-07-02T08:49:26Z</time>
      </trkpt>
      <trkpt lat="47.9144" lon="7.2918">
        <ele>216.6</ele>
        <time>2021-07-02T08:49:35Z</time>
      </trkpt>
      <trkpt lat="47.9148" lon="7.29202">
        <ele>216.6</ele>
        <time>2021-07-02T08:49:42Z</time>
      </trkpt>
      <trkpt lat="47.91501" lon="7.29214">
        <ele>217</ele>
        <time>2021-07-02T08:49:46Z</time>
      </trkpt>
      <trkpt lat="47.91517" lon="7.29222">
        <ele>217.2</ele>
        <time>2021-07-02T08:49:49Z</time>
      </trkpt>
      <trkpt lat="47.91555" lon="7.29244">
        <ele>218</ele>
        <time>2021-07-02T08:49:56Z</time>
      </trkpt>
      <trkpt lat="47.91607" lon="7.29271">
        <ele>218</ele>
        <time>2021-07-02T08:50:05Z</time>
      </trkpt>
      <trkpt lat="47.9165" lon="7.29295">
        <ele>218</ele>
        <time>2021-07-02T08:50:12Z</time>
      </trkpt>
      <trkpt lat="47.91695" lon="7.29319">
        <ele>217.2</ele>
        <time>2021-07-02T08:50:19Z</time>
      </trkpt>
      <trkpt lat="47.91746" lon="7.2934">
        <ele>216</ele>
        <time>2021-07-02T08:50:26Z</time>
      </trkpt>
      <trkpt lat="47.91753" lon="7.29341">
        <ele>216</ele>
        <time>2021-07-02T08:50:27Z</time>
      </trkpt>
      <trkpt lat="47.91804" lon="7.29344">
        <ele>216.2</ele>
        <time>2021-07-02T08:50:34Z</time>
      </trkpt>
      <trkpt lat="47.91846" lon="7.29335">
        <ele>216</ele>
        <time>2021-07-02T08:50:40Z</time>
      </trkpt>
      <trkpt lat="47.91899" lon="7.29311">
        <ele>215.2</ele>
        <time>2021-07-02T08:50:48Z</time>
      </trkpt>
      <trkpt lat="47.91952" lon="7.29291">
        <ele>214.4</ele>
        <time>2021-07-02T08:50:56Z</time>
      </trkpt>
      <trkpt lat="47.91975" lon="7.29288">
        <ele>214</ele>
        <time>2021-07-02T08:50:59Z</time>
      </trkpt>
      <trkpt lat="47.92003" lon="7.2929">
        <ele>213.8</ele>
        <time>2021-07-02T08:51:03Z</time>
      </trkpt>
      <trkpt lat="47.92058" lon="7.29304">
        <ele>213.8</ele>
        <time>2021-07-02T08:51:11Z</time>
      </trkpt>
      <trkpt lat="47.92065" lon="7.29305">
        <ele>213.8</ele>
        <time>2021-07-02T08:51:12Z</time>
      </trkpt>
      <trkpt lat="47.9211" lon="7.29305">
        <ele>214.2</ele>
        <time>2021-07-02T08:51:19Z</time>
      </trkpt>
      <trkpt lat="47.92136" lon="7.29301">
        <ele>214.2</ele>
        <time>2021-07-02T08:51:23Z</time>
      </trkpt>
      <trkpt lat="47.92149" lon="7.29297">
        <ele>214.2</ele>
        <time>2021-07-02T08:51:25Z</time>
      </trkpt>
      <trkpt lat="47.922" lon="7.29285">
        <ele>214.4</ele>
        <time>2021-07-02T08:51:33Z</time>
      </trkpt>
      <trkpt lat="47.92212" lon="7.29281">
        <ele>214.4</ele>
        <time>2021-07-02T08:51:35Z</time>
      </trkpt>
      <trkpt lat="47.92237" lon="7.29274">
        <ele>214.4</ele>
        <time>2021-07-02T08:51:39Z</time>
      </trkpt>
      <trkpt lat="47.92284" lon="7.29263">
        <ele>215</ele>
        <time>2021-07-02T08:51:46Z</time>
      </trkpt>
      <trkpt lat="47.92331" lon="7.29255">
        <ele>215</ele>
        <time>2021-07-02T08:51:53Z</time>
      </trkpt>
      <trkpt lat="47.92373" lon="7.29266">
        <ele>214.6</ele>
        <time>2021-07-02T08:51:59Z</time>
      </trkpt>
      <trkpt lat="47.92411" lon="7.29296">
        <ele>213.6</ele>
        <time>2021-07-02T08:52:05Z</time>
      </trkpt>
      <trkpt lat="47.92424" lon="7.29307">
        <ele>213.2</ele>
        <time>2021-07-02T08:52:07Z</time>
      </trkpt>
      <trkpt lat="47.92455" lon="7.29335">
        <ele>212.4</ele>
        <time>2021-07-02T08:52:12Z</time>
      </trkpt>
      <trkpt lat="47.92474" lon="7.29351">
        <ele>212.2</ele>
        <time>2021-07-02T08:52:15Z</time>
      </trkpt>
      <trkpt lat="47.92493" lon="7.29367">
        <ele>211.8</ele>
        <time>2021-07-02T08:52:18Z</time>
      </trkpt>
      <trkpt lat="47.92505" lon="7.29377">
        <ele>211.8</ele>
        <time>2021-07-02T08:52:20Z</time>
      </trkpt>
      <trkpt lat="47.92535" lon="7.29403">
        <ele>211.2</ele>
        <time>2021-07-02T08:52:25Z</time>
      </trkpt>
      <trkpt lat="47.92553" lon="7.29418">
        <ele>210.6</ele>
        <time>2021-07-02T08:52:28Z</time>
      </trkpt>
      <trkpt lat="47.92599" lon="7.29458">
        <ele>210.6</ele>
        <time>2021-07-02T08:52:36Z</time>
      </trkpt>
      <trkpt lat="47.92623" lon="7.29477">
        <ele>210.6</ele>
        <time>2021-07-02T08:52:40Z</time>
      </trkpt>
      <trkpt lat="47.9263" lon="7.2948">
        <ele>210.6</ele>
        <time>2021-07-02T08:52:41Z</time>
      </trkpt>
      <trkpt lat="47.92637" lon="7.29482">
        <ele>210.6</ele>
        <time>2021-07-02T08:52:42Z</time>
      </trkpt>
      <trkpt lat="47.92651" lon="7.29481">
        <ele>210.6</ele>
        <time>2021-07-02T08:52:44Z</time>
      </trkpt>
      <trkpt lat="47.92657" lon="7.2948">
        <ele>210.6</ele>
        <time>2021-07-02T08:52:45Z</time>
      </trkpt>
      <trkpt lat="47.92696" lon="7.29458">
        <ele>210.6</ele>
        <time>2021-07-02T08:52:51Z</time>
      </trkpt>
      <trkpt lat="47.92745" lon="7.29414">
        <ele>211.6</ele>
        <time>2021-07-02T08:53:00Z</time>
      </trkpt>
      <trkpt lat="47.92792" lon="7.29373">
        <ele>212.4</ele>
        <time>2021-07-02T08:53:09Z</time>
      </trkpt>
      <trkpt lat="47.92798" lon="7.2937">
        <ele>212.4</ele>
        <time>2021-07-02T08:53:10Z</time>
      </trkpt>
      <trkpt lat="47.92803" lon="7.29367">
        <ele>212.4</ele>
        <time>2021-07-02T08:53:11Z</time>
      </trkpt>
      <trkpt lat="47.92815" lon="7.29364">
        <ele>212.6</ele>
        <time>2021-07-02T08:53:13Z</time>
      </trkpt>
      <trkpt lat="47.92821" lon="7.29367">
        <ele>212.6</ele>
        <time>2021-07-02T08:53:14Z</time>
      </trkpt>
      <trkpt lat="47.92825" lon="7.29371">
        <ele>212.6</ele>
        <time>2021-07-02T08:53:15Z</time>
      </trkpt>
      <trkpt lat="47.92831" lon="7.29387">
        <ele>212.8</ele>
        <time>2021-07-02T08:53:17Z</time>
      </trkpt>
      <trkpt lat="47.92844" lon="7.29443">
        <ele>212.8</ele>
        <time>2021-07-02T08:53:23Z</time>
      </trkpt>
      <trkpt lat="47.92858" lon="7.29498">
        <ele>211.8</ele>
        <time>2021-07-02T08:53:30Z</time>
      </trkpt>
      <trkpt lat="47.92861" lon="7.295">
        <ele>211.6</ele>
        <time>2021-07-02T08:53:31Z</time>
      </trkpt>
      <trkpt lat="47.92867" lon="7.295">
        <ele>211.6</ele>
        <time>2021-07-02T08:53:33Z</time>
      </trkpt>
      <trkpt lat="47.92879" lon="7.29495">
        <ele>211.6</ele>
        <time>2021-07-02T08:53:36Z</time>
      </trkpt>
      <trkpt lat="47.92884" lon="7.29494">
        <ele>211.4</ele>
        <time>2021-07-02T08:53:37Z</time>
      </trkpt>
      <trkpt lat="47.92895" lon="7.29489">
        <ele>211.4</ele>
        <time>2021-07-02T08:53:39Z</time>
      </trkpt>
      <trkpt lat="47.92911" lon="7.29479">
        <ele>211.6</ele>
        <time>2021-07-02T08:53:42Z</time>
      </trkpt>
      <trkpt lat="47.92945" lon="7.29461">
        <ele>212</ele>
        <time>2021-07-02T08:53:48Z</time>
      </trkpt>
      <trkpt lat="47.9295" lon="7.29458">
        <ele>212</ele>
        <time>2021-07-02T08:53:49Z</time>
      </trkpt>
      <trkpt lat="47.92961" lon="7.29457">
        <ele>212</ele>
        <time>2021-07-02T08:53:51Z</time>
      </trkpt>
      <trkpt lat="47.92967" lon="7.29458">
        <ele>212</ele>
        <time>2021-07-02T08:53:52Z</time>
      </trkpt>
      <trkpt lat="47.92991" lon="7.29466">
        <ele>211.6</ele>
        <time>2021-07-02T08:53:56Z</time>
      </trkpt>
      <trkpt lat="47.93003" lon="7.29473">
        <ele>211.4</ele>
        <time>2021-07-02T08:53:58Z</time>
      </trkpt>
      <trkpt lat="47.93009" lon="7.29475">
        <ele>211.2</ele>
        <time>2021-07-02T08:53:59Z</time>
      </trkpt>
      <trkpt lat="47.93023" lon="7.2948">
        <ele>210.6</ele>
        <time>2021-07-02T08:54:01Z</time>
      </trkpt>
      <trkpt lat="47.9303" lon="7.29481">
        <ele>210.4</ele>
        <time>2021-07-02T08:54:02Z</time>
      </trkpt>
      <trkpt lat="47.93037" lon="7.29481">
        <ele>210</ele>
        <time>2021-07-02T08:54:03Z</time>
      </trkpt>
      <trkpt lat="47.93059" lon="7.29474">
        <ele>209.4</ele>
        <time>2021-07-02T08:54:06Z</time>
      </trkpt>
      <trkpt lat="47.93066" lon="7.2947">
        <ele>209</ele>
        <time>2021-07-02T08:54:07Z</time>
      </trkpt>
      <trkpt lat="47.93092" lon="7.29458">
        <ele>208</ele>
        <time>2021-07-02T08:54:11Z</time>
      </trkpt>
      <trkpt lat="47.93099" lon="7.29457">
        <ele>207.6</ele>
        <time>2021-07-02T08:54:12Z</time>
      </trkpt>
      <trkpt lat="47.93106" lon="7.29457">
        <ele>207.6</ele>
        <time>2021-07-02T08:54:13Z</time>
      </trkpt>
      <trkpt lat="47.93148" lon="7.29458">
        <ele>207</ele>
        <time>2021-07-02T08:54:19Z</time>
      </trkpt>
      <trkpt lat="47.93162" lon="7.29458">
        <ele>206.6</ele>
        <time>2021-07-02T08:54:21Z</time>
      </trkpt>
      <trkpt lat="47.93191" lon="7.29456">
        <ele>206.4</ele>
        <time>2021-07-02T08:54:25Z</time>
      </trkpt>
      <trkpt lat="47.93239" lon="7.29452">
        <ele>206</ele>
        <time>2021-07-02T08:54:32Z</time>
      </trkpt>
      <trkpt lat="47.93286" lon="7.29442">
        <ele>205.8</ele>
        <time>2021-07-02T08:54:39Z</time>
      </trkpt>
      <trkpt lat="47.93299" lon="7.29439">
        <ele>205.6</ele>
        <time>2021-07-02T08:54:41Z</time>
      </trkpt>
      <trkpt lat="47.93312" lon="7.29434">
        <ele>205.2</ele>
        <time>2021-07-02T08:54:43Z</time>
      </trkpt>
      <trkpt lat="47.9333" lon="7.29426">
        <ele>205.2</ele>
        <time>2021-07-02T08:54:46Z</time>
      </trkpt>
      <trkpt lat="47.93341" lon="7.29419">
        <ele>205.4</ele>
        <time>2021-07-02T08:54:48Z</time>
      </trkpt>
      <trkpt lat="47.93353" lon="7.29415">
        <ele>205.4</ele>
        <time>2021-07-02T08:54:50Z</time>
      </trkpt>
      <trkpt lat="47.93359" lon="7.29415">
        <ele>205.6</ele>
        <time>2021-07-02T08:54:51Z</time>
      </trkpt>
      <trkpt lat="47.93378" lon="7.29417">
        <ele>205.6</ele>
        <time>2021-07-02T08:54:54Z</time>
      </trkpt>
      <trkpt lat="47.93391" lon="7.29415">
        <ele>205.6</ele>
        <time>2021-07-02T08:54:56Z</time>
      </trkpt>
      <trkpt lat="47.93433" lon="7.29399">
        <ele>205.4</ele>
        <time>2021-07-02T08:55:03Z</time>
      </trkpt>
      <trkpt lat="47.9347" lon="7.29382">
        <ele>205.6</ele>
        <time>2021-07-02T08:55:10Z</time>
      </trkpt>
      <trkpt lat="47.93479" lon="7.29385">
        <ele>205.6</ele>
        <time>2021-07-02T08:55:12Z</time>
      </trkpt>
      <trkpt lat="47.93484" lon="7.29388">
        <ele>205.6</ele>
        <time>2021-07-02T08:55:13Z</time>
      </trkpt>
      <trkpt lat="47.93511" lon="7.29414">
        <ele>205.4</ele>
        <time>2021-07-02T08:55:18Z</time>
      </trkpt>
      <trkpt lat="47.93544" lon="7.29446">
        <ele>204.8</ele>
        <time>2021-07-02T08:55:24Z</time>
      </trkpt>
      <trkpt lat="47.93582" lon="7.29483">
        <ele>204.6</ele>
        <time>2021-07-02T08:55:31Z</time>
      </trkpt>
      <trkpt lat="47.93631" lon="7.29529">
        <ele>204.2</ele>
        <time>2021-07-02T08:55:40Z</time>
      </trkpt>
      <trkpt lat="47.93636" lon="7.29535">
        <ele>204</ele>
        <time>2021-07-02T08:55:41Z</time>
      </trkpt>
      <trkpt lat="47.93657" lon="7.29556">
        <ele>204</ele>
        <time>2021-07-02T08:55:45Z</time>
      </trkpt>
      <trkpt lat="47.93689" lon="7.2959">
        <ele>203.8</ele>
        <time>2021-07-02T08:55:51Z</time>
      </trkpt>
      <trkpt lat="47.9372" lon="7.29623">
        <ele>204</ele>
        <time>2021-07-02T08:55:57Z</time>
      </trkpt>
      <trkpt lat="47.93756" lon="7.29663">
        <ele>203.8</ele>
        <time>2021-07-02T08:56:04Z</time>
      </trkpt>
      <trkpt lat="47.93762" lon="7.29669">
        <ele>203.8</ele>
        <time>2021-07-02T08:56:05Z</time>
      </trkpt>
      <trkpt lat="47.93796" lon="7.29697">
        <ele>203.8</ele>
        <time>2021-07-02T08:56:11Z</time>
      </trkpt>
      <trkpt lat="47.93849" lon="7.29735">
        <ele>203.6</ele>
        <time>2021-07-02T08:56:20Z</time>
      </trkpt>
      <trkpt lat="47.93871" lon="7.29751">
        <ele>203.8</ele>
        <time>2021-07-02T08:56:24Z</time>
      </trkpt>
      <trkpt lat="47.93917" lon="7.29788">
        <ele>204</ele>
        <time>2021-07-02T08:56:32Z</time>
      </trkpt>
      <trkpt lat="47.93969" lon="7.29823">
        <ele>203.6</ele>
        <time>2021-07-02T08:56:41Z</time>
      </trkpt>
      <trkpt lat="47.94012" lon="7.29844">
        <ele>204.4</ele>
        <time>2021-07-02T08:56:49Z</time>
      </trkpt>
      <trkpt lat="47.94045" lon="7.29863">
        <ele>204.6</ele>
        <time>2021-07-02T08:56:55Z</time>
      </trkpt>
      <trkpt lat="47.94093" lon="7.29892">
        <ele>204</ele>
        <time>2021-07-02T08:57:03Z</time>
      </trkpt>
      <trkpt lat="47.94111" lon="7.29902">
        <ele>203.8</ele>
        <time>2021-07-02T08:57:06Z</time>
      </trkpt>
      <trkpt lat="47.94123" lon="7.29908">
        <ele>203.8</ele>
        <time>2021-07-02T08:57:08Z</time>
      </trkpt>
      <trkpt lat="47.9416" lon="7.29937">
        <ele>203.8</ele>
        <time>2021-07-02T08:57:15Z</time>
      </trkpt>
      <trkpt lat="47.9417" lon="7.29947">
        <ele>203.6</ele>
        <time>2021-07-02T08:57:17Z</time>
      </trkpt>
      <trkpt lat="47.94202" lon="7.29979">
        <ele>203.6</ele>
        <time>2021-07-02T08:57:23Z</time>
      </trkpt>
      <trkpt lat="47.94241" lon="7.30016">
        <ele>203.2</ele>
        <time>2021-07-02T08:57:30Z</time>
      </trkpt>
      <trkpt lat="47.94265" lon="7.30037">
        <ele>203</ele>
        <time>2021-07-02T08:57:34Z</time>
      </trkpt>
      <trkpt lat="47.94289" lon="7.30058">
        <ele>203</ele>
        <time>2021-07-02T08:57:38Z</time>
      </trkpt>
      <trkpt lat="47.94336" lon="7.30098">
        <ele>203.2</ele>
        <time>2021-07-02T08:57:46Z</time>
      </trkpt>
      <trkpt lat="47.94378" lon="7.30129">
        <ele>203</ele>
        <time>2021-07-02T08:57:53Z</time>
      </trkpt>
      <trkpt lat="47.94422" lon="7.30153">
        <ele>203</ele>
        <time>2021-07-02T08:58:00Z</time>
      </trkpt>
      <trkpt lat="47.94473" lon="7.30178">
        <ele>203.2</ele>
        <time>2021-07-02T08:58:08Z</time>
      </trkpt>
      <trkpt lat="47.94527" lon="7.30213">
        <ele>202.8</ele>
        <time>2021-07-02T08:58:17Z</time>
      </trkpt>
      <trkpt lat="47.94532" lon="7.30217">
        <ele>202.8</ele>
        <time>2021-07-02T08:58:18Z</time>
      </trkpt>
      <trkpt lat="47.94557" lon="7.30233">
        <ele>203</ele>
        <time>2021-07-02T08:58:23Z</time>
      </trkpt>
      <trkpt lat="47.94561" lon="7.30233">
        <ele>203</ele>
        <time>2021-07-02T08:58:24Z</time>
      </trkpt>
      <trkpt lat="47.94565" lon="7.3023">
        <ele>203</ele>
        <time>2021-07-02T08:58:25Z</time>
      </trkpt>
      <trkpt lat="47.9457" lon="7.30221">
        <ele>203</ele>
        <time>2021-07-02T08:58:27Z</time>
      </trkpt>
      <trkpt lat="47.94572" lon="7.30215">
        <ele>202.8</ele>
        <time>2021-07-02T08:58:28Z</time>
      </trkpt>
      <trkpt lat="47.94579" lon="7.30192">
        <ele>202.6</ele>
        <time>2021-07-02T08:58:31Z</time>
      </trkpt>
      <trkpt lat="47.94583" lon="7.30175">
        <ele>202.4</ele>
        <time>2021-07-02T08:58:33Z</time>
      </trkpt>
      <trkpt lat="47.94589" lon="7.3015">
        <ele>202.8</ele>
        <time>2021-07-02T08:58:36Z</time>
      </trkpt>
      <trkpt lat="47.94612" lon="7.30075">
        <ele>203</ele>
        <time>2021-07-02T08:58:45Z</time>
      </trkpt>
      <trkpt lat="47.94631" lon="7.30024">
        <ele>203</ele>
        <time>2021-07-02T08:58:51Z</time>
      </trkpt>
      <trkpt lat="47.94653" lon="7.2998">
        <ele>203.4</ele>
        <time>2021-07-02T08:58:57Z</time>
      </trkpt>
      <trkpt lat="47.94679" lon="7.29936">
        <ele>203.6</ele>
        <time>2021-07-02T08:59:04Z</time>
      </trkpt>
      <trkpt lat="47.94685" lon="7.29924">
        <ele>203.8</ele>
        <time>2021-07-02T08:59:06Z</time>
      </trkpt>
      <trkpt lat="47.94692" lon="7.29914">
        <ele>204.2</ele>
        <time>2021-07-02T08:59:08Z</time>
      </trkpt>
      <trkpt lat="47.94696" lon="7.29909">
        <ele>204.4</ele>
        <time>2021-07-02T08:59:09Z</time>
      </trkpt>
      <trkpt lat="47.947" lon="7.29904">
        <ele>204.6</ele>
        <time>2021-07-02T08:59:10Z</time>
      </trkpt>
      <trkpt lat="47.94703" lon="7.29899">
        <ele>204.8</ele>
        <time>2021-07-02T08:59:11Z</time>
      </trkpt>
      <trkpt lat="47.94714" lon="7.29883">
        <ele>205.6</ele>
        <time>2021-07-02T08:59:14Z</time>
      </trkpt>
      <trkpt lat="47.94717" lon="7.29878">
        <ele>205.8</ele>
        <time>2021-07-02T08:59:15Z</time>
      </trkpt>
      <trkpt lat="47.94729" lon="7.29864">
        <ele>207</ele>
        <time>2021-07-02T08:59:18Z</time>
      </trkpt>
      <trkpt lat="47.94741" lon="7.2985">
        <ele>207.6</ele>
        <time>2021-07-02T08:59:21Z</time>
      </trkpt>
      <trkpt lat="47.94745" lon="7.29846">
        <ele>207.8</ele>
        <time>2021-07-02T08:59:22Z</time>
      </trkpt>
      <trkpt lat="47.9475" lon="7.29841">
        <ele>208</ele>
        <time>2021-07-02T08:59:23Z</time>
      </trkpt>
      <trkpt lat="47.94788" lon="7.29801">
        <ele>209</ele>
        <time>2021-07-02T08:59:31Z</time>
      </trkpt>
      <trkpt lat="47.94805" lon="7.29782">
        <ele>209</ele>
        <time>2021-07-02T08:59:34Z</time>
      </trkpt>
      <trkpt lat="47.94822" lon="7.2976">
        <ele>208.2</ele>
        <time>2021-07-02T08:59:37Z</time>
      </trkpt>
      <trkpt lat="47.94841" lon="7.29722">
        <ele>206.8</ele>
        <time>2021-07-02T08:59:41Z</time>
      </trkpt>
      <trkpt lat="47.9485" lon="7.29703">
        <ele>206</ele>
        <time>2021-07-02T08:59:43Z</time>
      </trkpt>
      <trkpt lat="47.94859" lon="7.29684">
        <ele>205.4</ele>
        <time>2021-07-02T08:59:45Z</time>
      </trkpt>
      <trkpt lat="47.94882" lon="7.29629">
        <ele>204.4</ele>
        <time>2021-07-02T08:59:51Z</time>
      </trkpt>
      <trkpt lat="47.94886" lon="7.2962">
        <ele>204.4</ele>
        <time>2021-07-02T08:59:52Z</time>
      </trkpt>
      <trkpt lat="47.94905" lon="7.29566">
        <ele>204.6</ele>
        <time>2021-07-02T08:59:58Z</time>
      </trkpt>
      <trkpt lat="47.94929" lon="7.29491">
        <ele>205</ele>
        <time>2021-07-02T09:00:06Z</time>
      </trkpt>
      <trkpt lat="47.9495" lon="7.29415">
        <ele>205.4</ele>
        <time>2021-07-02T09:00:14Z</time>
      </trkpt>
      <trkpt lat="47.94952" lon="7.29405">
        <ele>205.4</ele>
        <time>2021-07-02T09:00:15Z</time>
      </trkpt>
      <trkpt lat="47.94971" lon="7.2933">
        <ele>205.4</ele>
        <time>2021-07-02T09:00:23Z</time>
      </trkpt>
      <trkpt lat="47.94973" lon="7.29321">
        <ele>205.6</ele>
        <time>2021-07-02T09:00:24Z</time>
      </trkpt>
      <trkpt lat="47.9498" lon="7.29296">
        <ele>205.6</ele>
        <time>2021-07-02T09:00:27Z</time>
      </trkpt>
      <trkpt lat="47.94982" lon="7.29288">
        <ele>205.6</ele>
        <time>2021-07-02T09:00:28Z</time>
      </trkpt>
      <trkpt lat="47.94986" lon="7.29273">
        <ele>205.6</ele>
        <time>2021-07-02T09:00:30Z</time>
      </trkpt>
      <trkpt lat="47.95" lon="7.29228">
        <ele>205.8</ele>
        <time>2021-07-02T09:00:36Z</time>
      </trkpt>
      <trkpt lat="47.95015" lon="7.29168">
        <ele>205.8</ele>
        <time>2021-07-02T09:00:43Z</time>
      </trkpt>
      <trkpt lat="47.95034" lon="7.291">
        <ele>205.8</ele>
        <time>2021-07-02T09:00:52Z</time>
      </trkpt>
      <trkpt lat="47.95039" lon="7.2909">
        <ele>205.8</ele>
        <time>2021-07-02T09:00:54Z</time>
      </trkpt>
      <trkpt lat="47.95045" lon="7.29086">
        <ele>205.6</ele>
        <time>2021-07-02T09:00:56Z</time>
      </trkpt>
      <trkpt lat="47.95057" lon="7.29095">
        <ele>205.6</ele>
        <time>2021-07-02T09:00:59Z</time>
      </trkpt>
      <trkpt lat="47.95078" lon="7.29118">
        <ele>205.4</ele>
        <time>2021-07-02T09:01:04Z</time>
      </trkpt>
      <trkpt lat="47.95088" lon="7.29128">
        <ele>205.2</ele>
        <time>2021-07-02T09:01:06Z</time>
      </trkpt>
      <trkpt lat="47.95109" lon="7.2915">
        <ele>205</ele>
        <time>2021-07-02T09:01:10Z</time>
      </trkpt>
      <trkpt lat="47.95148" lon="7.2919">
        <ele>205</ele>
        <time>2021-07-02T09:01:17Z</time>
      </trkpt>
      <trkpt lat="47.95181" lon="7.29222">
        <ele>205</ele>
        <time>2021-07-02T09:01:23Z</time>
      </trkpt>
      <trkpt lat="47.95221" lon="7.29241">
        <ele>205.2</ele>
        <time>2021-07-02T09:01:30Z</time>
      </trkpt>
      <trkpt lat="47.95276" lon="7.29259">
        <ele>204.8</ele>
        <time>2021-07-02T09:01:39Z</time>
      </trkpt>
      <trkpt lat="47.95293" lon="7.29264">
        <ele>204.6</ele>
        <time>2021-07-02T09:01:42Z</time>
      </trkpt>
      <trkpt lat="47.95343" lon="7.29281">
        <ele>203.8</ele>
        <time>2021-07-02T09:01:50Z</time>
      </trkpt>
      <trkpt lat="47.95378" lon="7.29295">
        <ele>203.6</ele>
        <time>2021-07-02T09:01:56Z</time>
      </trkpt>
      <trkpt lat="47.95384" lon="7.29298">
        <ele>203.6</ele>
        <time>2021-07-02T09:01:57Z</time>
      </trkpt>
      <trkpt lat="47.95435" lon="7.29321">
        <ele>203.8</ele>
        <time>2021-07-02T09:02:06Z</time>
      </trkpt>
      <trkpt lat="47.95472" lon="7.29342">
        <ele>203.8</ele>
        <time>2021-07-02T09:02:13Z</time>
      </trkpt>
      <trkpt lat="47.95482" lon="7.29348">
        <ele>203.8</ele>
        <time>2021-07-02T09:02:15Z</time>
      </trkpt>
      <trkpt lat="47.95508" lon="7.29362">
        <ele>203.6</ele>
        <time>2021-07-02T09:02:20Z</time>
      </trkpt>
      <trkpt lat="47.95543" lon="7.29383">
        <ele>203.6</ele>
        <time>2021-07-02T09:02:26Z</time>
      </trkpt>
      <trkpt lat="47.9558" lon="7.29402">
        <ele>203.4</ele>
        <time>2021-07-02T09:02:32Z</time>
      </trkpt>
      <trkpt lat="47.95628" lon="7.29431">
        <ele>203.8</ele>
        <time>2021-07-02T09:02:40Z</time>
      </trkpt>
      <trkpt lat="47.95651" lon="7.29449">
        <ele>204</ele>
        <time>2021-07-02T09:02:45Z</time>
      </trkpt>
      <trkpt lat="47.95686" lon="7.29484">
        <ele>203.2</ele>
        <time>2021-07-02T09:02:53Z</time>
      </trkpt>
      <trkpt lat="47.95715" lon="7.29514">
        <ele>203.2</ele>
        <time>2021-07-02T09:03:00Z</time>
      </trkpt>
      <trkpt lat="47.95733" lon="7.29532">
        <ele>203.4</ele>
        <time>2021-07-02T09:03:05Z</time>
      </trkpt>
      <trkpt lat="47.95737" lon="7.29536">
        <ele>203.2</ele>
        <time>2021-07-02T09:03:06Z</time>
      </trkpt>
      <trkpt lat="47.95756" lon="7.29551">
        <ele>202.8</ele>
        <time>2021-07-02T09:03:10Z</time>
      </trkpt>
      <trkpt lat="47.9577" lon="7.29562">
        <ele>202.6</ele>
        <time>2021-07-02T09:03:13Z</time>
      </trkpt>
      <trkpt lat="47.95785" lon="7.29576">
        <ele>202</ele>
        <time>2021-07-02T09:03:17Z</time>
      </trkpt>
      <trkpt lat="47.958" lon="7.29586">
        <ele>202</ele>
        <time>2021-07-02T09:03:21Z</time>
      </trkpt>
      <trkpt lat="47.95814" lon="7.29596">
        <ele>202</ele>
        <time>2021-07-02T09:03:25Z</time>
      </trkpt>
      <trkpt lat="47.95838" lon="7.29615">
        <ele>202</ele>
        <time>2021-07-02T09:03:30Z</time>
      </trkpt>
      <trkpt lat="47.95871" lon="7.29638">
        <ele>201.6</ele>
        <time>2021-07-02T09:03:36Z</time>
      </trkpt>
      <trkpt lat="47.95907" lon="7.29664">
        <ele>201.6</ele>
        <time>2021-07-02T09:03:42Z</time>
      </trkpt>
      <trkpt lat="47.95918" lon="7.29673">
        <ele>201.4</ele>
        <time>2021-07-02T09:03:44Z</time>
      </trkpt>
      <trkpt lat="47.95938" lon="7.29685">
        <ele>201.6</ele>
        <time>2021-07-02T09:03:48Z</time>
      </trkpt>
      <trkpt lat="47.95966" lon="7.29697">
        <ele>201.4</ele>
        <time>2021-07-02T09:03:54Z</time>
      </trkpt>
      <trkpt lat="47.9599" lon="7.29708">
        <ele>201.4</ele>
        <time>2021-07-02T09:03:59Z</time>
      </trkpt>
      <trkpt lat="47.95995" lon="7.2971">
        <ele>201.4</ele>
        <time>2021-07-02T09:04:00Z</time>
      </trkpt>
      <trkpt lat="47.96019" lon="7.29718">
        <ele>201.4</ele>
        <time>2021-07-02T09:04:04Z</time>
      </trkpt>
      <trkpt lat="47.96051" lon="7.29737">
        <ele>201.4</ele>
        <time>2021-07-02T09:04:09Z</time>
      </trkpt>
      <trkpt lat="47.96057" lon="7.29741">
        <ele>201.6</ele>
        <time>2021-07-02T09:04:10Z</time>
      </trkpt>
      <trkpt lat="47.96098" lon="7.29766">
        <ele>201.8</ele>
        <time>2021-07-02T09:04:16Z</time>
      </trkpt>
      <trkpt lat="47.96149" lon="7.29805">
        <ele>202.4</ele>
        <time>2021-07-02T09:04:25Z</time>
      </trkpt>
      <trkpt lat="47.96154" lon="7.29809">
        <ele>202.8</ele>
        <time>2021-07-02T09:04:26Z</time>
      </trkpt>
      <trkpt lat="47.96178" lon="7.29825">
        <ele>202.4</ele>
        <time>2021-07-02T09:04:31Z</time>
      </trkpt>
      <trkpt lat="47.96196" lon="7.29837">
        <ele>202.2</ele>
        <time>2021-07-02T09:04:36Z</time>
      </trkpt>
      <trkpt lat="47.96204" lon="7.29843">
        <ele>201.8</ele>
        <time>2021-07-02T09:04:40Z</time>
      </trkpt>
      <trkpt lat="47.96206" lon="7.29844">
        <ele>201.8</ele>
        <time>2021-07-02T09:04:41Z</time>
      </trkpt>
      <trkpt lat="47.96207" lon="7.29845">
        <ele>201.6</ele>
        <time>2021-07-02T09:04:42Z</time>
      </trkpt>
      <trkpt lat="47.96208" lon="7.29849">
        <ele>201.6</ele>
        <time>2021-07-02T09:04:44Z</time>
      </trkpt>
      <trkpt lat="47.96203" lon="7.29861">
        <ele>201.6</ele>
        <time>2021-07-02T09:04:47Z</time>
      </trkpt>
      <trkpt lat="47.96199" lon="7.29864">
        <ele>201.4</ele>
        <time>2021-07-02T09:04:48Z</time>
      </trkpt>
      <trkpt lat="47.9619" lon="7.2987">
        <ele>201.4</ele>
        <time>2021-07-02T09:04:51Z</time>
      </trkpt>
      <trkpt lat="47.96189" lon="7.29873">
        <ele>201.4</ele>
        <time>2021-07-02T09:04:52Z</time>
      </trkpt>
      <trkpt lat="47.96189" lon="7.29875">
        <ele>201.4</ele>
        <time>2021-07-02T09:04:53Z</time>
      </trkpt>
      <trkpt lat="47.96194" lon="7.29878">
        <ele>201.4</ele>
        <time>2021-07-02T09:04:55Z</time>
      </trkpt>
      <trkpt lat="47.96208" lon="7.29884">
        <ele>201.2</ele>
        <time>2021-07-02T09:04:58Z</time>
      </trkpt>
      <trkpt lat="47.96243" lon="7.299">
        <ele>201</ele>
        <time>2021-07-02T09:05:04Z</time>
      </trkpt>
      <trkpt lat="47.96249" lon="7.29903">
        <ele>201</ele>
        <time>2021-07-02T09:05:05Z</time>
      </trkpt>
      <trkpt lat="47.96281" lon="7.29915">
        <ele>200.8</ele>
        <time>2021-07-02T09:05:10Z</time>
      </trkpt>
      <trkpt lat="47.96319" lon="7.29933">
        <ele>200.6</ele>
        <time>2021-07-02T09:05:16Z</time>
      </trkpt>
      <trkpt lat="47.96331" lon="7.29938">
        <ele>200.4</ele>
        <time>2021-07-02T09:05:18Z</time>
      </trkpt>
      <trkpt lat="47.9635" lon="7.29947">
        <ele>200.4</ele>
        <time>2021-07-02T09:05:21Z</time>
      </trkpt>
      <trkpt lat="47.96371" lon="7.29958">
        <ele>200.6</ele>
        <time>2021-07-02T09:05:25Z</time>
      </trkpt>
      <trkpt lat="47.96376" lon="7.2996">
        <ele>200.6</ele>
        <time>2021-07-02T09:05:26Z</time>
      </trkpt>
      <trkpt lat="47.96392" lon="7.29962">
        <ele>200.8</ele>
        <time>2021-07-02T09:05:29Z</time>
      </trkpt>
      <trkpt lat="47.96404" lon="7.2997">
        <ele>200.8</ele>
        <time>2021-07-02T09:05:31Z</time>
      </trkpt>
      <trkpt lat="47.96436" lon="7.29992">
        <ele>200.8</ele>
        <time>2021-07-02T09:05:36Z</time>
      </trkpt>
      <trkpt lat="47.96468" lon="7.30014">
        <ele>200.8</ele>
        <time>2021-07-02T09:05:41Z</time>
      </trkpt>
      <trkpt lat="47.96501" lon="7.30034">
        <ele>200.8</ele>
        <time>2021-07-02T09:05:47Z</time>
      </trkpt>
      <trkpt lat="47.96525" lon="7.3005">
        <ele>200.8</ele>
        <time>2021-07-02T09:05:51Z</time>
      </trkpt>
      <trkpt lat="47.9653" lon="7.30056">
        <ele>200.8</ele>
        <time>2021-07-02T09:05:52Z</time>
      </trkpt>
      <trkpt lat="47.96533" lon="7.30063">
        <ele>200.8</ele>
        <time>2021-07-02T09:05:53Z</time>
      </trkpt>
      <trkpt lat="47.96536" lon="7.30077">
        <ele>200.8</ele>
        <time>2021-07-02T09:05:55Z</time>
      </trkpt>
      <trkpt lat="47.96542" lon="7.30084">
        <ele>200.8</ele>
        <time>2021-07-02T09:05:57Z</time>
      </trkpt>
      <trkpt lat="47.96546" lon="7.30088">
        <ele>200.6</ele>
        <time>2021-07-02T09:05:58Z</time>
      </trkpt>
      <trkpt lat="47.96573" lon="7.3011">
        <ele>200.6</ele>
        <time>2021-07-02T09:06:03Z</time>
      </trkpt>
      <trkpt lat="47.96606" lon="7.30137">
        <ele>200.6</ele>
        <time>2021-07-02T09:06:09Z</time>
      </trkpt>
      <trkpt lat="47.96618" lon="7.30139">
        <ele>200.6</ele>
        <time>2021-07-02T09:06:11Z</time>
      </trkpt>
      <trkpt lat="47.96624" lon="7.30139">
        <ele>200.4</ele>
        <time>2021-07-02T09:06:12Z</time>
      </trkpt>
      <trkpt lat="47.96631" lon="7.3014">
        <ele>200.4</ele>
        <time>2021-07-02T09:06:13Z</time>
      </trkpt>
      <trkpt lat="47.96643" lon="7.30147">
        <ele>200.4</ele>
        <time>2021-07-02T09:06:16Z</time>
      </trkpt>
      <trkpt lat="47.96653" lon="7.30155">
        <ele>200.4</ele>
        <time>2021-07-02T09:06:19Z</time>
      </trkpt>
      <trkpt lat="47.96661" lon="7.30162">
        <ele>200.4</ele>
        <time>2021-07-02T09:06:21Z</time>
      </trkpt>
      <trkpt lat="47.96691" lon="7.30188">
        <ele>200.6</ele>
        <time>2021-07-02T09:06:27Z</time>
      </trkpt>
      <trkpt lat="47.96715" lon="7.30209">
        <ele>200.8</ele>
        <time>2021-07-02T09:06:32Z</time>
      </trkpt>
      <trkpt lat="47.96722" lon="7.30218">
        <ele>200.8</ele>
        <time>2021-07-02T09:06:34Z</time>
      </trkpt>
      <trkpt lat="47.96725" lon="7.30239">
        <ele>200.8</ele>
        <time>2021-07-02T09:06:38Z</time>
      </trkpt>
      <trkpt lat="47.96728" lon="7.30246">
        <ele>200.8</ele>
        <time>2021-07-02T09:06:40Z</time>
      </trkpt>
      <trkpt lat="47.96729" lon="7.30247">
        <ele>200.8</ele>
        <time>2021-07-02T09:06:41Z</time>
      </trkpt>
      <trkpt lat="47.9673" lon="7.30245">
        <ele>200.8</ele>
        <time>2021-07-02T09:06:42Z</time>
      </trkpt>
      <trkpt lat="47.96732" lon="7.30239">
        <ele>200.6</ele>
        <time>2021-07-02T09:06:44Z</time>
      </trkpt>
      <trkpt lat="47.96739" lon="7.30227">
        <ele>200.8</ele>
        <time>2021-07-02T09:06:48Z</time>
      </trkpt>
      <trkpt lat="47.96752" lon="7.30228">
        <ele>201</ele>
        <time>2021-07-02T09:06:51Z</time>
      </trkpt>
      <trkpt lat="47.96758" lon="7.3023">
        <ele>201</ele>
        <time>2021-07-02T09:06:52Z</time>
      </trkpt>
      <trkpt lat="47.96768" lon="7.30234">
        <ele>201</ele>
        <time>2021-07-02T09:06:54Z</time>
      </trkpt>
      <trkpt lat="47.96785" lon="7.3024">
        <ele>201</ele>
        <time>2021-07-02T09:06:57Z</time>
      </trkpt>
      <trkpt lat="47.96791" lon="7.30242">
        <ele>201</ele>
        <time>2021-07-02T09:06:58Z</time>
      </trkpt>
      <trkpt lat="47.96829" lon="7.30245">
        <ele>200.8</ele>
        <time>2021-07-02T09:07:05Z</time>
      </trkpt>
      <trkpt lat="47.96834" lon="7.30246">
        <ele>200.8</ele>
        <time>2021-07-02T09:07:06Z</time>
      </trkpt>
      <trkpt lat="47.96857" lon="7.30248">
        <ele>201</ele>
        <time>2021-07-02T09:07:11Z</time>
      </trkpt>
      <trkpt lat="47.96862" lon="7.30248">
        <ele>201</ele>
        <time>2021-07-02T09:07:12Z</time>
      </trkpt>
      <trkpt lat="47.96867" lon="7.3025">
        <ele>201</ele>
        <time>2021-07-02T09:07:14Z</time>
      </trkpt>
      <trkpt lat="47.96867" lon="7.30251">
        <ele>201</ele>
        <time>2021-07-02T09:07:16Z</time>
      </trkpt>
      <trkpt lat="47.96869" lon="7.30246">
        <ele>200.8</ele>
        <time>2021-07-02T09:07:21Z</time>
      </trkpt>
      <trkpt lat="47.9687" lon="7.30225">
        <ele>200.8</ele>
        <time>2021-07-02T09:07:25Z</time>
      </trkpt>
      <trkpt lat="47.96871" lon="7.30218">
        <ele>200.8</ele>
        <time>2021-07-02T09:07:26Z</time>
      </trkpt>
      <trkpt lat="47.96878" lon="7.30209">
        <ele>200.8</ele>
        <time>2021-07-02T09:07:28Z</time>
      </trkpt>
      <trkpt lat="47.96907" lon="7.30191">
        <ele>201.4</ele>
        <time>2021-07-02T09:07:34Z</time>
      </trkpt>
      <trkpt lat="47.96943" lon="7.30172">
        <ele>201.4</ele>
        <time>2021-07-02T09:07:40Z</time>
      </trkpt>
      <trkpt lat="47.96965" lon="7.30164">
        <ele>201.2</ele>
        <time>2021-07-02T09:07:44Z</time>
      </trkpt>
      <trkpt lat="47.96971" lon="7.30164">
        <ele>201</ele>
        <time>2021-07-02T09:07:45Z</time>
      </trkpt>
      <trkpt lat="47.96977" lon="7.30163">
        <ele>201</ele>
        <time>2021-07-02T09:07:46Z</time>
      </trkpt>
      <trkpt lat="47.96995" lon="7.30154">
        <ele>201</ele>
        <time>2021-07-02T09:07:49Z</time>
      </trkpt>
      <trkpt lat="47.97027" lon="7.30127">
        <ele>200</ele>
        <time>2021-07-02T09:07:54Z</time>
      </trkpt>
      <trkpt lat="47.97064" lon="7.30086">
        <ele>199</ele>
        <time>2021-07-02T09:08:00Z</time>
      </trkpt>
      <trkpt lat="47.9707" lon="7.30079">
        <ele>198.8</ele>
        <time>2021-07-02T09:08:01Z</time>
      </trkpt>
      <trkpt lat="47.97104" lon="7.30041">
        <ele>198.4</ele>
        <time>2021-07-02T09:08:07Z</time>
      </trkpt>
      <trkpt lat="47.97139" lon="7.30006">
        <ele>198.2</ele>
        <time>2021-07-02T09:08:13Z</time>
      </trkpt>
      <trkpt lat="47.97177" lon="7.29969">
        <ele>198.2</ele>
        <time>2021-07-02T09:08:20Z</time>
      </trkpt>
      <trkpt lat="47.97227" lon="7.29921">
        <ele>198.6</ele>
        <time>2021-07-02T09:08:29Z</time>
      </trkpt>
      <trkpt lat="47.97276" lon="7.29871">
        <ele>199</ele>
        <time>2021-07-02T09:08:38Z</time>
      </trkpt>
      <trkpt lat="47.97302" lon="7.29843">
        <ele>199</ele>
        <time>2021-07-02T09:08:43Z</time>
      </trkpt>
      <trkpt lat="47.97313" lon="7.29831">
        <ele>199</ele>
        <time>2021-07-02T09:08:45Z</time>
      </trkpt>
      <trkpt lat="47.97361" lon="7.29778">
        <ele>198.6</ele>
        <time>2021-07-02T09:08:54Z</time>
      </trkpt>
      <trkpt lat="47.97402" lon="7.29729">
        <ele>198.6</ele>
        <time>2021-07-02T09:09:02Z</time>
      </trkpt>
      <trkpt lat="47.97423" lon="7.29703">
        <ele>198.6</ele>
        <time>2021-07-02T09:09:06Z</time>
      </trkpt>
      <trkpt lat="47.97439" lon="7.29685">
        <ele>198.6</ele>
        <time>2021-07-02T09:09:09Z</time>
      </trkpt>
      <trkpt lat="47.97475" lon="7.29641">
        <ele>198.4</ele>
        <time>2021-07-02T09:09:16Z</time>
      </trkpt>
      <trkpt lat="47.97515" lon="7.296">
        <ele>198.6</ele>
        <time>2021-07-02T09:09:24Z</time>
      </trkpt>
      <trkpt lat="47.97553" lon="7.29564">
        <ele>199.6</ele>
        <time>2021-07-02T09:09:32Z</time>
      </trkpt>
      <trkpt lat="47.97567" lon="7.29552">
        <ele>199.8</ele>
        <time>2021-07-02T09:09:35Z</time>
      </trkpt>
      <trkpt lat="47.97579" lon="7.29542">
        <ele>200.2</ele>
        <time>2021-07-02T09:09:38Z</time>
      </trkpt>
      <trkpt lat="47.97586" lon="7.29534">
        <ele>200.4</ele>
        <time>2021-07-02T09:09:40Z</time>
      </trkpt>
      <trkpt lat="47.9759" lon="7.29523">
        <ele>200.8</ele>
        <time>2021-07-02T09:09:42Z</time>
      </trkpt>
      <trkpt lat="47.97592" lon="7.2951">
        <ele>200.8</ele>
        <time>2021-07-02T09:09:44Z</time>
      </trkpt>
      <trkpt lat="47.97592" lon="7.29502">
        <ele>201</ele>
        <time>2021-07-02T09:09:45Z</time>
      </trkpt>
      <trkpt lat="47.97591" lon="7.29494">
        <ele>201.4</ele>
        <time>2021-07-02T09:09:46Z</time>
      </trkpt>
      <trkpt lat="47.97581" lon="7.29446">
        <ele>201.8</ele>
        <time>2021-07-02T09:09:52Z</time>
      </trkpt>
      <trkpt lat="47.97579" lon="7.29438">
        <ele>201.8</ele>
        <time>2021-07-02T09:09:53Z</time>
      </trkpt>
      <trkpt lat="47.97571" lon="7.294">
        <ele>202</ele>
        <time>2021-07-02T09:09:58Z</time>
      </trkpt>
      <trkpt lat="47.97567" lon="7.2938">
        <ele>202.8</ele>
        <time>2021-07-02T09:10:01Z</time>
      </trkpt>
      <trkpt lat="47.97566" lon="7.29374">
        <ele>203.2</ele>
        <time>2021-07-02T09:10:02Z</time>
      </trkpt>
      <trkpt lat="47.97561" lon="7.29352">
        <ele>204.2</ele>
        <time>2021-07-02T09:10:06Z</time>
      </trkpt>
      <trkpt lat="47.9756" lon="7.29339">
        <ele>204.8</ele>
        <time>2021-07-02T09:10:08Z</time>
      </trkpt>
      <trkpt lat="47.9756" lon="7.29326">
        <ele>205.6</ele>
        <time>2021-07-02T09:10:10Z</time>
      </trkpt>
      <trkpt lat="47.97561" lon="7.2931">
        <ele>205.8</ele>
        <time>2021-07-02T09:10:12Z</time>
      </trkpt>
      <trkpt lat="47.97562" lon="7.29271">
        <ele>206.6</ele>
        <time>2021-07-02T09:10:17Z</time>
      </trkpt>
      <trkpt lat="47.97563" lon="7.29248">
        <ele>206.8</ele>
        <time>2021-07-02T09:10:20Z</time>
      </trkpt>
      <trkpt lat="47.97564" lon="7.29206">
        <ele>207.8</ele>
        <time>2021-07-02T09:10:26Z</time>
      </trkpt>
      <trkpt lat="47.97565" lon="7.29192">
        <ele>208.2</ele>
        <time>2021-07-02T09:10:28Z</time>
      </trkpt>
      <trkpt lat="47.97566" lon="7.29179">
        <ele>208.6</ele>
        <time>2021-07-02T09:10:30Z</time>
      </trkpt>
      <trkpt lat="47.97567" lon="7.29172">
        <ele>208.8</ele>
        <time>2021-07-02T09:10:31Z</time>
      </trkpt>
      <trkpt lat="47.97569" lon="7.29167">
        <ele>209</ele>
        <time>2021-07-02T09:10:32Z</time>
      </trkpt>
      <trkpt lat="47.97578" lon="7.29162">
        <ele>209.4</ele>
        <time>2021-07-02T09:10:34Z</time>
      </trkpt>
      <trkpt lat="47.97583" lon="7.29162">
        <ele>209.6</ele>
        <time>2021-07-02T09:10:35Z</time>
      </trkpt>
      <trkpt lat="47.97619" lon="7.29158">
        <ele>209.8</ele>
        <time>2021-07-02T09:10:41Z</time>
      </trkpt>
      <trkpt lat="47.9767" lon="7.29152">
        <ele>208.6</ele>
        <time>2021-07-02T09:10:49Z</time>
      </trkpt>
      <trkpt lat="47.97695" lon="7.29149">
        <ele>207.8</ele>
        <time>2021-07-02T09:10:53Z</time>
      </trkpt>
      <trkpt lat="47.9772" lon="7.29146">
        <ele>207.2</ele>
        <time>2021-07-02T09:10:57Z</time>
      </trkpt>
      <trkpt lat="47.97752" lon="7.29143">
        <ele>206.8</ele>
        <time>2021-07-02T09:11:02Z</time>
      </trkpt>
      <trkpt lat="47.97766" lon="7.29141">
        <ele>206.4</ele>
        <time>2021-07-02T09:11:04Z</time>
      </trkpt>
      <trkpt lat="47.97823" lon="7.29135">
        <ele>205.8</ele>
        <time>2021-07-02T09:11:13Z</time>
      </trkpt>
      <trkpt lat="47.97837" lon="7.29133">
        <ele>205.6</ele>
        <time>2021-07-02T09:11:15Z</time>
      </trkpt>
      <trkpt lat="47.97888" lon="7.29126">
        <ele>205.4</ele>
        <time>2021-07-02T09:11:23Z</time>
      </trkpt>
      <trkpt lat="47.97899" lon="7.29124">
        <ele>205.6</ele>
        <time>2021-07-02T09:11:25Z</time>
      </trkpt>
      <trkpt lat="47.97917" lon="7.29125">
        <ele>206.2</ele>
        <time>2021-07-02T09:11:28Z</time>
      </trkpt>
      <trkpt lat="47.9795" lon="7.29132">
        <ele>207</ele>
        <time>2021-07-02T09:11:34Z</time>
      </trkpt>
      <trkpt lat="47.97974" lon="7.2914">
        <ele>208.2</ele>
        <time>2021-07-02T09:11:39Z</time>
      </trkpt>
      <trkpt lat="47.97983" lon="7.29142">
        <ele>208.8</ele>
        <time>2021-07-02T09:11:41Z</time>
      </trkpt>
      <trkpt lat="47.97994" lon="7.29151">
        <ele>209.4</ele>
        <time>2021-07-02T09:11:44Z</time>
      </trkpt>
      <trkpt lat="47.97999" lon="7.29154">
        <ele>209.4</ele>
        <time>2021-07-02T09:11:45Z</time>
      </trkpt>
      <trkpt lat="47.98013" lon="7.29156">
        <ele>209.8</ele>
        <time>2021-07-02T09:11:48Z</time>
      </trkpt>
      <trkpt lat="47.98023" lon="7.29159">
        <ele>210</ele>
        <time>2021-07-02T09:11:50Z</time>
      </trkpt>
      <trkpt lat="47.98047" lon="7.29163">
        <ele>210.4</ele>
        <time>2021-07-02T09:11:55Z</time>
      </trkpt>
      <trkpt lat="47.98051" lon="7.29163">
        <ele>210.4</ele>
        <time>2021-07-02T09:11:56Z</time>
      </trkpt>
      <trkpt lat="47.98074" lon="7.29166">
        <ele>211</ele>
        <time>2021-07-02T09:12:01Z</time>
      </trkpt>
      <trkpt lat="47.98094" lon="7.29167">
        <ele>211.4</ele>
        <time>2021-07-02T09:12:05Z</time>
      </trkpt>
      <trkpt lat="47.98104" lon="7.29168">
        <ele>211.8</ele>
        <time>2021-07-02T09:12:07Z</time>
      </trkpt>
      <trkpt lat="47.98109" lon="7.29167">
        <ele>211.8</ele>
        <time>2021-07-02T09:12:08Z</time>
      </trkpt>
      <trkpt lat="47.98123" lon="7.29163">
        <ele>212.4</ele>
        <time>2021-07-02T09:12:11Z</time>
      </trkpt>
      <trkpt lat="47.98141" lon="7.29157">
        <ele>213.4</ele>
        <time>2021-07-02T09:12:15Z</time>
      </trkpt>
      <trkpt lat="47.98145" lon="7.29155">
        <ele>213.6</ele>
        <time>2021-07-02T09:12:16Z</time>
      </trkpt>
      <trkpt lat="47.98166" lon="7.29146">
        <ele>214.4</ele>
        <time>2021-07-02T09:12:21Z</time>
      </trkpt>
      <trkpt lat="47.98171" lon="7.29145">
        <ele>214.6</ele>
        <time>2021-07-02T09:12:22Z</time>
      </trkpt>
      <trkpt lat="47.98189" lon="7.2914">
        <ele>215.4</ele>
        <time>2021-07-02T09:12:26Z</time>
      </trkpt>
      <trkpt lat="47.98198" lon="7.29139">
        <ele>215.6</ele>
        <time>2021-07-02T09:12:28Z</time>
      </trkpt>
      <trkpt lat="47.98202" lon="7.29137">
        <ele>215.8</ele>
        <time>2021-07-02T09:12:29Z</time>
      </trkpt>
      <trkpt lat="47.98222" lon="7.29133">
        <ele>216.6</ele>
        <time>2021-07-02T09:12:35Z</time>
      </trkpt>
      <trkpt lat="47.98225" lon="7.29133">
        <ele>216.8</ele>
        <time>2021-07-02T09:12:36Z</time>
      </trkpt>
      <trkpt lat="47.98229" lon="7.2913">
        <ele>217</ele>
        <time>2021-07-02T09:12:38Z</time>
      </trkpt>
      <trkpt lat="47.98231" lon="7.29126">
        <ele>217.2</ele>
        <time>2021-07-02T09:12:39Z</time>
      </trkpt>
      <trkpt lat="47.98236" lon="7.29105">
        <ele>217.8</ele>
        <time>2021-07-02T09:12:43Z</time>
      </trkpt>
      <trkpt lat="47.98237" lon="7.29093">
        <ele>218</ele>
        <time>2021-07-02T09:12:45Z</time>
      </trkpt>
      <trkpt lat="47.98239" lon="7.29066">
        <ele>218.2</ele>
        <time>2021-07-02T09:12:49Z</time>
      </trkpt>
      <trkpt lat="47.9824" lon="7.29053">
        <ele>218.6</ele>
        <time>2021-07-02T09:12:51Z</time>
      </trkpt>
      <trkpt lat="47.98242" lon="7.29039">
        <ele>218.8</ele>
        <time>2021-07-02T09:12:53Z</time>
      </trkpt>
      <trkpt lat="47.98244" lon="7.29026">
        <ele>218.8</ele>
        <time>2021-07-02T09:12:55Z</time>
      </trkpt>
      <trkpt lat="47.98244" lon="7.2902">
        <ele>219</ele>
        <time>2021-07-02T09:12:56Z</time>
      </trkpt>
      <trkpt lat="47.98244" lon="7.29001">
        <ele>219.2</ele>
        <time>2021-07-02T09:13:00Z</time>
      </trkpt>
      <trkpt lat="47.98248" lon="7.28977">
        <ele>219.4</ele>
        <time>2021-07-02T09:13:05Z</time>
      </trkpt>
      <trkpt lat="47.98248" lon="7.2897">
        <ele>219.4</ele>
        <time>2021-07-02T09:13:09Z</time>
      </trkpt>
      <trkpt lat="47.98246" lon="7.28969">
        <ele>219.4</ele>
        <time>2021-07-02T09:13:12Z</time>
      </trkpt>
      <trkpt lat="47.98245" lon="7.28969">
        <ele>219.4</ele>
        <time>2021-07-02T09:13:13Z</time>
      </trkpt>
      <trkpt lat="47.98245" lon="7.28969">
        <ele>219.4</ele>
        <time>2021-07-02T09:13:15Z</time>
      </trkpt>
      <trkpt lat="47.98245" lon="7.28977">
        <ele>219.4</ele>
        <time>2021-07-02T09:13:27Z</time>
      </trkpt>
      <trkpt lat="47.98245" lon="7.28981">
        <ele>219.2</ele>
        <time>2021-07-02T09:13:28Z</time>
      </trkpt>
      <trkpt lat="47.98242" lon="7.29009">
        <ele>219.2</ele>
        <time>2021-07-02T09:13:33Z</time>
      </trkpt>
      <trkpt lat="47.98238" lon="7.29058">
        <ele>219</ele>
        <time>2021-07-02T09:13:41Z</time>
      </trkpt>
      <trkpt lat="47.98243" lon="7.29066">
        <ele>218.8</ele>
        <time>2021-07-02T09:13:43Z</time>
      </trkpt>
      <trkpt lat="47.98249" lon="7.29067">
        <ele>218.8</ele>
        <time>2021-07-02T09:13:44Z</time>
      </trkpt>
      <trkpt lat="47.98265" lon="7.29069">
        <ele>218.8</ele>
        <time>2021-07-02T09:13:47Z</time>
      </trkpt>
      <trkpt lat="47.98316" lon="7.29077">
        <ele>218.8</ele>
        <time>2021-07-02T09:13:57Z</time>
      </trkpt>
      <trkpt lat="47.98351" lon="7.29082">
        <ele>218.8</ele>
        <time>2021-07-02T09:14:04Z</time>
      </trkpt>
      <trkpt lat="47.98369" lon="7.29085">
        <ele>219.2</ele>
        <time>2021-07-02T09:14:08Z</time>
      </trkpt>
      <trkpt lat="47.98377" lon="7.29085">
        <ele>219.4</ele>
        <time>2021-07-02T09:14:10Z</time>
      </trkpt>
      <trkpt lat="47.98392" lon="7.29089">
        <ele>219.4</ele>
        <time>2021-07-02T09:14:14Z</time>
      </trkpt>
      <trkpt lat="47.98398" lon="7.29086">
        <ele>219.4</ele>
        <time>2021-07-02T09:14:16Z</time>
      </trkpt>
      <trkpt lat="47.98401" lon="7.29082">
        <ele>219.4</ele>
        <time>2021-07-02T09:14:17Z</time>
      </trkpt>
      <trkpt lat="47.98404" lon="7.29076">
        <ele>219.4</ele>
        <time>2021-07-02T09:14:18Z</time>
      </trkpt>
      <trkpt lat="47.98409" lon="7.29054">
        <ele>219.4</ele>
        <time>2021-07-02T09:14:21Z</time>
      </trkpt>
      <trkpt lat="47.98415" lon="7.29007">
        <ele>220.2</ele>
        <time>2021-07-02T09:14:27Z</time>
      </trkpt>
      <trkpt lat="47.98424" lon="7.28965">
        <ele>220.2</ele>
        <time>2021-07-02T09:14:33Z</time>
      </trkpt>
      <trkpt lat="47.98426" lon="7.28958">
        <ele>220.4</ele>
        <time>2021-07-02T09:14:34Z</time>
      </trkpt>
      <trkpt lat="47.98428" lon="7.28945">
        <ele>220.2</ele>
        <time>2021-07-02T09:14:36Z</time>
      </trkpt>
      <trkpt lat="47.9843" lon="7.28933">
        <ele>220.4</ele>
        <time>2021-07-02T09:14:38Z</time>
      </trkpt>
      <trkpt lat="47.98431" lon="7.28925">
        <ele>220.6</ele>
        <time>2021-07-02T09:14:39Z</time>
      </trkpt>
      <trkpt lat="47.98432" lon="7.28898">
        <ele>220.6</ele>
        <time>2021-07-02T09:14:43Z</time>
      </trkpt>
      <trkpt lat="47.98433" lon="7.28882">
        <ele>220.6</ele>
        <time>2021-07-02T09:14:46Z</time>
      </trkpt>
      <trkpt lat="47.98435" lon="7.28864">
        <ele>221</ele>
        <time>2021-07-02T09:14:50Z</time>
      </trkpt>
      <trkpt lat="47.98435" lon="7.28858">
        <ele>221</ele>
        <time>2021-07-02T09:14:51Z</time>
      </trkpt>
      <trkpt lat="47.98436" lon="7.28852">
        <ele>221</ele>
        <time>2021-07-02T09:14:52Z</time>
      </trkpt>
      <trkpt lat="47.98437" lon="7.28828">
        <ele>221</ele>
        <time>2021-07-02T09:14:56Z</time>
      </trkpt>
      <trkpt lat="47.98437" lon="7.28822">
        <ele>221.2</ele>
        <time>2021-07-02T09:14:58Z</time>
      </trkpt>
      <trkpt lat="47.98438" lon="7.2882">
        <ele>221.6</ele>
        <time>2021-07-02T09:15:00Z</time>
      </trkpt>
      <trkpt lat="47.98438" lon="7.28817">
        <ele>222</ele>
        <time>2021-07-02T09:15:02Z</time>
      </trkpt>
      <trkpt lat="47.98439" lon="7.28815">
        <ele>222</ele>
        <time>2021-07-02T09:15:03Z</time>
      </trkpt>
      <trkpt lat="47.98439" lon="7.28814">
        <ele>222.2</ele>
        <time>2021-07-02T09:15:06Z</time>
      </trkpt>
      <trkpt lat="47.98439" lon="7.28806">
        <ele>222.2</ele>
        <time>2021-07-02T09:15:20Z</time>
      </trkpt>
      <trkpt lat="47.9844" lon="7.28795">
        <ele>222.4</ele>
        <time>2021-07-02T09:15:22Z</time>
      </trkpt>
      <trkpt lat="47.98443" lon="7.28764">
        <ele>222.6</ele>
        <time>2021-07-02T09:15:27Z</time>
      </trkpt>
      <trkpt lat="47.98442" lon="7.28757">
        <ele>222.8</ele>
        <time>2021-07-02T09:15:28Z</time>
      </trkpt>
      <trkpt lat="47.9844" lon="7.28744">
        <ele>223</ele>
        <time>2021-07-02T09:15:30Z</time>
      </trkpt>
      <trkpt lat="47.98439" lon="7.28737">
        <ele>223.4</ele>
        <time>2021-07-02T09:15:31Z</time>
      </trkpt>
      <trkpt lat="47.98436" lon="7.28721">
        <ele>223.8</ele>
        <time>2021-07-02T09:15:33Z</time>
      </trkpt>
      <trkpt lat="47.98435" lon="7.28714">
        <ele>224</ele>
        <time>2021-07-02T09:15:34Z</time>
      </trkpt>
      <trkpt lat="47.98435" lon="7.28706">
        <ele>224.2</ele>
        <time>2021-07-02T09:15:35Z</time>
      </trkpt>
      <trkpt lat="47.98435" lon="7.28699">
        <ele>224.6</ele>
        <time>2021-07-02T09:15:36Z</time>
      </trkpt>
      <trkpt lat="47.98437" lon="7.28693">
        <ele>224.8</ele>
        <time>2021-07-02T09:15:37Z</time>
      </trkpt>
      <trkpt lat="47.98439" lon="7.28685">
        <ele>225.2</ele>
        <time>2021-07-02T09:15:38Z</time>
      </trkpt>
      <trkpt lat="47.9844" lon="7.28679">
        <ele>225.2</ele>
        <time>2021-07-02T09:15:39Z</time>
      </trkpt>
      <trkpt lat="47.98444" lon="7.28668">
        <ele>225.8</ele>
        <time>2021-07-02T09:15:41Z</time>
      </trkpt>
      <trkpt lat="47.98446" lon="7.28662">
        <ele>225.8</ele>
        <time>2021-07-02T09:15:42Z</time>
      </trkpt>
      <trkpt lat="47.98451" lon="7.28652">
        <ele>226.2</ele>
        <time>2021-07-02T09:15:44Z</time>
      </trkpt>
      <trkpt lat="47.98454" lon="7.28642">
        <ele>227</ele>
        <time>2021-07-02T09:15:46Z</time>
      </trkpt>
      <trkpt lat="47.98455" lon="7.28638">
        <ele>227.6</ele>
        <time>2021-07-02T09:15:47Z</time>
      </trkpt>
      <trkpt lat="47.98456" lon="7.28622">
        <ele>228.6</ele>
        <time>2021-07-02T09:15:52Z</time>
      </trkpt>
      <trkpt lat="47.98455" lon="7.28616">
        <ele>228.8</ele>
        <time>2021-07-02T09:15:54Z</time>
      </trkpt>
      <trkpt lat="47.98452" lon="7.28612">
        <ele>228.8</ele>
        <time>2021-07-02T09:15:56Z</time>
      </trkpt>
      <trkpt lat="47.98437" lon="7.2861">
        <ele>229</ele>
        <time>2021-07-02T09:16:00Z</time>
      </trkpt>
      <trkpt lat="47.98414" lon="7.28604">
        <ele>229.8</ele>
        <time>2021-07-02T09:16:06Z</time>
      </trkpt>
      <trkpt lat="47.98411" lon="7.28601">
        <ele>229.8</ele>
        <time>2021-07-02T09:16:07Z</time>
      </trkpt>
      <trkpt lat="47.98406" lon="7.28591">
        <ele>230.2</ele>
        <time>2021-07-02T09:16:09Z</time>
      </trkpt>
      <trkpt lat="47.98404" lon="7.28586">
        <ele>230.4</ele>
        <time>2021-07-02T09:16:10Z</time>
      </trkpt>
      <trkpt lat="47.98404" lon="7.2858">
        <ele>230.4</ele>
        <time>2021-07-02T09:16:11Z</time>
      </trkpt>
      <trkpt lat="47.98403" lon="7.28568">
        <ele>231.2</ele>
        <time>2021-07-02T09:16:13Z</time>
      </trkpt>
      <trkpt lat="47.98403" lon="7.28544">
        <ele>232.2</ele>
        <time>2021-07-02T09:16:17Z</time>
      </trkpt>
      <trkpt lat="47.98403" lon="7.28538">
        <ele>232.4</ele>
        <time>2021-07-02T09:16:18Z</time>
      </trkpt>
      <trkpt lat="47.98404" lon="7.2852">
        <ele>233.2</ele>
        <time>2021-07-02T09:16:21Z</time>
      </trkpt>
      <trkpt lat="47.98407" lon="7.28509">
        <ele>233.6</ele>
        <time>2021-07-02T09:16:23Z</time>
      </trkpt>
      <trkpt lat="47.98411" lon="7.28492">
        <ele>234.4</ele>
        <time>2021-07-02T09:16:26Z</time>
      </trkpt>
      <trkpt lat="47.98415" lon="7.28465">
        <ele>235.6</ele>
        <time>2021-07-02T09:16:31Z</time>
      </trkpt>
      <trkpt lat="47.98417" lon="7.28444">
        <ele>236.8</ele>
        <time>2021-07-02T09:16:35Z</time>
      </trkpt>
      <trkpt lat="47.98418" lon="7.28433">
        <ele>237.2</ele>
        <time>2021-07-02T09:16:37Z</time>
      </trkpt>
      <trkpt lat="47.9842" lon="7.28411">
        <ele>238</ele>
        <time>2021-07-02T09:16:41Z</time>
      </trkpt>
      <trkpt lat="47.98419" lon="7.28395">
        <ele>238.4</ele>
        <time>2021-07-02T09:16:44Z</time>
      </trkpt>
      <trkpt lat="47.9842" lon="7.2838">
        <ele>239.4</ele>
        <time>2021-07-02T09:16:47Z</time>
      </trkpt>
      <trkpt lat="47.9842" lon="7.28358">
        <ele>240.2</ele>
        <time>2021-07-02T09:16:51Z</time>
      </trkpt>
      <trkpt lat="47.9842" lon="7.28353">
        <ele>240.4</ele>
        <time>2021-07-02T09:16:52Z</time>
      </trkpt>
      <trkpt lat="47.98418" lon="7.28334">
        <ele>241.6</ele>
        <time>2021-07-02T09:16:56Z</time>
      </trkpt>
      <trkpt lat="47.98419" lon="7.28325">
        <ele>242</ele>
        <time>2021-07-02T09:16:58Z</time>
      </trkpt>
      <trkpt lat="47.9842" lon="7.28315">
        <ele>242.6</ele>
        <time>2021-07-02T09:17:00Z</time>
      </trkpt>
      <trkpt lat="47.98429" lon="7.283">
        <ele>243.6</ele>
        <time>2021-07-02T09:17:04Z</time>
      </trkpt>
      <trkpt lat="47.98432" lon="7.28298">
        <ele>243.8</ele>
        <time>2021-07-02T09:17:05Z</time>
      </trkpt>
      <trkpt lat="47.98443" lon="7.2829">
        <ele>244.8</ele>
        <time>2021-07-02T09:17:09Z</time>
      </trkpt>
      <trkpt lat="47.98451" lon="7.28286">
        <ele>246</ele>
        <time>2021-07-02T09:17:12Z</time>
      </trkpt>
      <trkpt lat="47.98454" lon="7.28285">
        <ele>246.2</ele>
        <time>2021-07-02T09:17:13Z</time>
      </trkpt>
      <trkpt lat="47.98464" lon="7.2828">
        <ele>247.2</ele>
        <time>2021-07-02T09:17:16Z</time>
      </trkpt>
      <trkpt lat="47.98473" lon="7.28274">
        <ele>247.8</ele>
        <time>2021-07-02T09:17:19Z</time>
      </trkpt>
      <trkpt lat="47.98487" lon="7.28263">
        <ele>248.4</ele>
        <time>2021-07-02T09:17:23Z</time>
      </trkpt>
      <trkpt lat="47.98494" lon="7.28259">
        <ele>248.6</ele>
        <time>2021-07-02T09:17:25Z</time>
      </trkpt>
      <trkpt lat="47.98518" lon="7.28251">
        <ele>249.4</ele>
        <time>2021-07-02T09:17:31Z</time>
      </trkpt>
      <trkpt lat="47.98522" lon="7.2825">
        <ele>249.4</ele>
        <time>2021-07-02T09:17:32Z</time>
      </trkpt>
      <trkpt lat="47.98545" lon="7.28241">
        <ele>250.4</ele>
        <time>2021-07-02T09:17:38Z</time>
      </trkpt>
      <trkpt lat="47.98549" lon="7.28239">
        <ele>250.6</ele>
        <time>2021-07-02T09:17:39Z</time>
      </trkpt>
      <trkpt lat="47.98576" lon="7.28225">
        <ele>251.6</ele>
        <time>2021-07-02T09:17:46Z</time>
      </trkpt>
      <trkpt lat="47.98584" lon="7.28221">
        <ele>252</ele>
        <time>2021-07-02T09:17:48Z</time>
      </trkpt>
      <trkpt lat="47.98607" lon="7.28204">
        <ele>252.6</ele>
        <time>2021-07-02T09:17:54Z</time>
      </trkpt>
      <trkpt lat="47.98617" lon="7.28194">
        <ele>252.8</ele>
        <time>2021-07-02T09:17:57Z</time>
      </trkpt>
      <trkpt lat="47.9863" lon="7.28183">
        <ele>253.8</ele>
        <time>2021-07-02T09:18:01Z</time>
      </trkpt>
      <trkpt lat="47.98643" lon="7.28176">
        <ele>254.6</ele>
        <time>2021-07-02T09:18:05Z</time>
      </trkpt>
      <trkpt lat="47.98646" lon="7.28175">
        <ele>255</ele>
        <time>2021-07-02T09:18:06Z</time>
      </trkpt>
      <trkpt lat="47.98661" lon="7.28172">
        <ele>256.2</ele>
        <time>2021-07-02T09:18:11Z</time>
      </trkpt>
      <trkpt lat="47.98674" lon="7.28169">
        <ele>257.4</ele>
        <time>2021-07-02T09:18:15Z</time>
      </trkpt>
      <trkpt lat="47.98685" lon="7.28166">
        <ele>258.4</ele>
        <time>2021-07-02T09:18:19Z</time>
      </trkpt>
      <trkpt lat="47.98697" lon="7.2816">
        <ele>259.6</ele>
        <time>2021-07-02T09:18:23Z</time>
      </trkpt>
      <trkpt lat="47.98708" lon="7.28154">
        <ele>260.8</ele>
        <time>2021-07-02T09:18:27Z</time>
      </trkpt>
      <trkpt lat="47.98711" lon="7.28152">
        <ele>261</ele>
        <time>2021-07-02T09:18:28Z</time>
      </trkpt>
      <trkpt lat="47.98719" lon="7.28146">
        <ele>261.8</ele>
        <time>2021-07-02T09:18:31Z</time>
      </trkpt>
      <trkpt lat="47.98729" lon="7.28135">
        <ele>263</ele>
        <time>2021-07-02T09:18:35Z</time>
      </trkpt>
      <trkpt lat="47.98731" lon="7.28133">
        <ele>263.2</ele>
        <time>2021-07-02T09:18:36Z</time>
      </trkpt>
      <trkpt lat="47.98739" lon="7.28126">
        <ele>264</ele>
        <time>2021-07-02T09:18:39Z</time>
      </trkpt>
      <trkpt lat="47.9875" lon="7.28119">
        <ele>265</ele>
        <time>2021-07-02T09:18:43Z</time>
      </trkpt>
      <trkpt lat="47.98756" lon="7.28116">
        <ele>265.4</ele>
        <time>2021-07-02T09:18:45Z</time>
      </trkpt>
      <trkpt lat="47.98765" lon="7.28111">
        <ele>266.4</ele>
        <time>2021-07-02T09:18:48Z</time>
      </trkpt>
      <trkpt lat="47.98775" lon="7.28106">
        <ele>267</ele>
        <time>2021-07-02T09:18:51Z</time>
      </trkpt>
      <trkpt lat="47.98782" lon="7.28103">
        <ele>267.4</ele>
        <time>2021-07-02T09:18:53Z</time>
      </trkpt>
      <trkpt lat="47.98804" lon="7.28093">
        <ele>268.6</ele>
        <time>2021-07-02T09:18:59Z</time>
      </trkpt>
      <trkpt lat="47.98834" lon="7.28074">
        <ele>269.6</ele>
        <time>2021-07-02T09:19:07Z</time>
      </trkpt>
      <trkpt lat="47.98837" lon="7.28071">
        <ele>269.6</ele>
        <time>2021-07-02T09:19:08Z</time>
      </trkpt>
      <trkpt lat="47.98848" lon="7.28061">
        <ele>269.8</ele>
        <time>2021-07-02T09:19:11Z</time>
      </trkpt>
      <trkpt lat="47.98867" lon="7.28047">
        <ele>270.2</ele>
        <time>2021-07-02T09:19:16Z</time>
      </trkpt>
      <trkpt lat="47.98883" lon="7.28034">
        <ele>270.2</ele>
        <time>2021-07-02T09:19:20Z</time>
      </trkpt>
      <trkpt lat="47.98895" lon="7.28022">
        <ele>270.4</ele>
        <time>2021-07-02T09:19:23Z</time>
      </trkpt>
      <trkpt lat="47.98919" lon="7.28001">
        <ele>270.6</ele>
        <time>2021-07-02T09:19:29Z</time>
      </trkpt>
      <trkpt lat="47.98932" lon="7.27989">
        <ele>270.8</ele>
        <time>2021-07-02T09:19:32Z</time>
      </trkpt>
      <trkpt lat="47.98968" lon="7.27956">
        <ele>270.8</ele>
        <time>2021-07-02T09:19:40Z</time>
      </trkpt>
      <trkpt lat="47.9901" lon="7.27919">
        <ele>270.8</ele>
        <time>2021-07-02T09:19:49Z</time>
      </trkpt>
      <trkpt lat="47.99015" lon="7.27914">
        <ele>270.8</ele>
        <time>2021-07-02T09:19:50Z</time>
      </trkpt>
      <trkpt lat="47.99038" lon="7.27893">
        <ele>271.2</ele>
        <time>2021-07-02T09:19:55Z</time>
      </trkpt>
      <trkpt lat="47.99042" lon="7.27889">
        <ele>271.4</ele>
        <time>2021-07-02T09:19:56Z</time>
      </trkpt>
      <trkpt lat="47.99052" lon="7.27881">
        <ele>271.6</ele>
        <time>2021-07-02T09:19:58Z</time>
      </trkpt>
      <trkpt lat="47.99057" lon="7.27877">
        <ele>271.6</ele>
        <time>2021-07-02T09:19:59Z</time>
      </trkpt>
      <trkpt lat="47.99062" lon="7.27874">
        <ele>271.8</ele>
        <time>2021-07-02T09:20:00Z</time>
      </trkpt>
      <trkpt lat="47.99098" lon="7.27865">
        <ele>272.4</ele>
        <time>2021-07-02T09:20:07Z</time>
      </trkpt>
      <trkpt lat="47.99138" lon="7.27862">
        <ele>272.4</ele>
        <time>2021-07-02T09:20:14Z</time>
      </trkpt>
      <trkpt lat="47.99142" lon="7.27861">
        <ele>272.4</ele>
        <time>2021-07-02T09:20:15Z</time>
      </trkpt>
      <trkpt lat="47.99163" lon="7.27855">
        <ele>272.4</ele>
        <time>2021-07-02T09:20:19Z</time>
      </trkpt>
      <trkpt lat="47.99173" lon="7.27856">
        <ele>272.4</ele>
        <time>2021-07-02T09:20:21Z</time>
      </trkpt>
      <trkpt lat="47.99197" lon="7.27857">
        <ele>272.6</ele>
        <time>2021-07-02T09:20:26Z</time>
      </trkpt>
      <trkpt lat="47.99208" lon="7.27854">
        <ele>272.6</ele>
        <time>2021-07-02T09:20:28Z</time>
      </trkpt>
      <trkpt lat="47.99254" lon="7.27836">
        <ele>271.8</ele>
        <time>2021-07-02T09:20:37Z</time>
      </trkpt>
      <trkpt lat="47.99275" lon="7.27827">
        <ele>271.6</ele>
        <time>2021-07-02T09:20:41Z</time>
      </trkpt>
      <trkpt lat="47.99295" lon="7.27822">
        <ele>271.2</ele>
        <time>2021-07-02T09:20:45Z</time>
      </trkpt>
      <trkpt lat="47.99344" lon="7.27813">
        <ele>270.6</ele>
        <time>2021-07-02T09:20:53Z</time>
      </trkpt>
      <trkpt lat="47.99355" lon="7.27811">
        <ele>270.4</ele>
        <time>2021-07-02T09:20:55Z</time>
      </trkpt>
      <trkpt lat="47.99377" lon="7.27808">
        <ele>270</ele>
        <time>2021-07-02T09:20:59Z</time>
      </trkpt>
      <trkpt lat="47.9939" lon="7.27805">
        <ele>269.6</ele>
        <time>2021-07-02T09:21:03Z</time>
      </trkpt>
      <trkpt lat="47.9939" lon="7.27805">
        <ele>269.4</ele>
        <time>2021-07-02T09:21:05Z</time>
      </trkpt>
      <trkpt lat="47.9939" lon="7.27805">
        <ele>269.4</ele>
        <time>2021-07-02T09:21:06Z</time>
      </trkpt>
      <trkpt lat="47.99391" lon="7.27806">
        <ele>269</ele>
        <time>2021-07-02T09:21:11Z</time>
      </trkpt>
      <trkpt lat="47.99393" lon="7.27804">
        <ele>269.2</ele>
        <time>2021-07-02T09:23:07Z</time>
      </trkpt>
      <trkpt lat="47.99409" lon="7.27804">
        <ele>269.2</ele>
        <time>2021-07-02T09:23:12Z</time>
      </trkpt>
      <trkpt lat="47.99433" lon="7.27805">
        <ele>268.4</ele>
        <time>2021-07-02T09:23:17Z</time>
      </trkpt>
      <trkpt lat="47.99443" lon="7.27808">
        <ele>268</ele>
        <time>2021-07-02T09:23:19Z</time>
      </trkpt>
      <trkpt lat="47.99451" lon="7.27816">
        <ele>267.4</ele>
        <time>2021-07-02T09:23:21Z</time>
      </trkpt>
      <trkpt lat="47.99455" lon="7.27821">
        <ele>267.2</ele>
        <time>2021-07-02T09:23:22Z</time>
      </trkpt>
      <trkpt lat="47.99459" lon="7.27824">
        <ele>267</ele>
        <time>2021-07-02T09:23:23Z</time>
      </trkpt>
      <trkpt lat="47.99474" lon="7.27832">
        <ele>266.2</ele>
        <time>2021-07-02T09:23:26Z</time>
      </trkpt>
      <trkpt lat="47.99479" lon="7.27834">
        <ele>266.2</ele>
        <time>2021-07-02T09:23:27Z</time>
      </trkpt>
      <trkpt lat="47.99514" lon="7.27838">
        <ele>265</ele>
        <time>2021-07-02T09:23:33Z</time>
      </trkpt>
      <trkpt lat="47.99539" lon="7.27839">
        <ele>264</ele>
        <time>2021-07-02T09:23:37Z</time>
      </trkpt>
      <trkpt lat="47.99567" lon="7.2784">
        <ele>263.6</ele>
        <time>2021-07-02T09:23:41Z</time>
      </trkpt>
      <trkpt lat="47.99589" lon="7.27847">
        <ele>263</ele>
        <time>2021-07-02T09:23:44Z</time>
      </trkpt>
      <trkpt lat="47.99596" lon="7.27852">
        <ele>262.6</ele>
        <time>2021-07-02T09:23:45Z</time>
      </trkpt>
      <trkpt lat="47.99602" lon="7.2786">
        <ele>261.6</ele>
        <time>2021-07-02T09:23:46Z</time>
      </trkpt>
      <trkpt lat="47.99605" lon="7.2787">
        <ele>261.2</ele>
        <time>2021-07-02T09:23:47Z</time>
      </trkpt>
      <trkpt lat="47.99608" lon="7.27881">
        <ele>260.4</ele>
        <time>2021-07-02T09:23:48Z</time>
      </trkpt>
      <trkpt lat="47.99612" lon="7.2789">
        <ele>259.4</ele>
        <time>2021-07-02T09:23:49Z</time>
      </trkpt>
      <trkpt lat="47.99617" lon="7.27896">
        <ele>259</ele>
        <time>2021-07-02T09:23:50Z</time>
      </trkpt>
      <trkpt lat="47.99623" lon="7.279">
        <ele>258.2</ele>
        <time>2021-07-02T09:23:51Z</time>
      </trkpt>
      <trkpt lat="47.9963" lon="7.27902">
        <ele>258</ele>
        <time>2021-07-02T09:23:52Z</time>
      </trkpt>
      <trkpt lat="47.99637" lon="7.27901">
        <ele>256.8</ele>
        <time>2021-07-02T09:23:53Z</time>
      </trkpt>
      <trkpt lat="47.99659" lon="7.27896">
        <ele>255.6</ele>
        <time>2021-07-02T09:23:56Z</time>
      </trkpt>
      <trkpt lat="47.99677" lon="7.27892">
        <ele>254.8</ele>
        <time>2021-07-02T09:23:59Z</time>
      </trkpt>
      <trkpt lat="47.99682" lon="7.2789">
        <ele>254.4</ele>
        <time>2021-07-02T09:24:00Z</time>
      </trkpt>
      <trkpt lat="47.99709" lon="7.27883">
        <ele>253.8</ele>
        <time>2021-07-02T09:24:05Z</time>
      </trkpt>
      <trkpt lat="47.99714" lon="7.27881">
        <ele>253.4</ele>
        <time>2021-07-02T09:24:06Z</time>
      </trkpt>
      <trkpt lat="47.99723" lon="7.27878">
        <ele>253</ele>
        <time>2021-07-02T09:24:08Z</time>
      </trkpt>
      <trkpt lat="47.99732" lon="7.27872">
        <ele>252.4</ele>
        <time>2021-07-02T09:24:10Z</time>
      </trkpt>
      <trkpt lat="47.99748" lon="7.27854">
        <ele>252.8</ele>
        <time>2021-07-02T09:24:15Z</time>
      </trkpt>
      <trkpt lat="47.99775" lon="7.27832">
        <ele>252.8</ele>
        <time>2021-07-02T09:24:22Z</time>
      </trkpt>
      <trkpt lat="47.99793" lon="7.27823">
        <ele>252.8</ele>
        <time>2021-07-02T09:24:26Z</time>
      </trkpt>
      <trkpt lat="47.99802" lon="7.27817">
        <ele>252.8</ele>
        <time>2021-07-02T09:24:28Z</time>
      </trkpt>
      <trkpt lat="47.99811" lon="7.27811">
        <ele>253</ele>
        <time>2021-07-02T09:24:30Z</time>
      </trkpt>
      <trkpt lat="47.99829" lon="7.27794">
        <ele>253.2</ele>
        <time>2021-07-02T09:24:34Z</time>
      </trkpt>
      <trkpt lat="47.99874" lon="7.27752">
        <ele>253.6</ele>
        <time>2021-07-02T09:24:44Z</time>
      </trkpt>
      <trkpt lat="47.99895" lon="7.27732">
        <ele>253.6</ele>
        <time>2021-07-02T09:24:49Z</time>
      </trkpt>
      <trkpt lat="47.99931" lon="7.277">
        <ele>253.2</ele>
        <time>2021-07-02T09:24:57Z</time>
      </trkpt>
      <trkpt lat="47.9994" lon="7.27693">
        <ele>253.2</ele>
        <time>2021-07-02T09:24:59Z</time>
      </trkpt>
      <trkpt lat="47.9996" lon="7.27681">
        <ele>253.2</ele>
        <time>2021-07-02T09:25:03Z</time>
      </trkpt>
      <trkpt lat="47.99999" lon="7.27659">
        <ele>253.6</ele>
        <time>2021-07-02T09:25:11Z</time>
      </trkpt>
      <trkpt lat="48.0003" lon="7.2764">
        <ele>254.6</ele>
        <time>2021-07-02T09:25:18Z</time>
      </trkpt>
      <trkpt lat="48.00037" lon="7.27637">
        <ele>254.8</ele>
        <time>2021-07-02T09:25:20Z</time>
      </trkpt>
      <trkpt lat="48.00046" lon="7.27635">
        <ele>255</ele>
        <time>2021-07-02T09:25:22Z</time>
      </trkpt>
      <trkpt lat="48.0005" lon="7.27634">
        <ele>255.6</ele>
        <time>2021-07-02T09:25:23Z</time>
      </trkpt>
      <trkpt lat="48.00068" lon="7.27628">
        <ele>256.4</ele>
        <time>2021-07-02T09:25:28Z</time>
      </trkpt>
      <trkpt lat="48.00076" lon="7.27626">
        <ele>256.6</ele>
        <time>2021-07-02T09:25:30Z</time>
      </trkpt>
      <trkpt lat="48.00088" lon="7.27623">
        <ele>257.4</ele>
        <time>2021-07-02T09:25:33Z</time>
      </trkpt>
      <trkpt lat="48.00092" lon="7.27622">
        <ele>257.6</ele>
        <time>2021-07-02T09:25:34Z</time>
      </trkpt>
      <trkpt lat="48.00109" lon="7.27615">
        <ele>258.8</ele>
        <time>2021-07-02T09:25:38Z</time>
      </trkpt>
      <trkpt lat="48.00113" lon="7.27614">
        <ele>259.2</ele>
        <time>2021-07-02T09:25:39Z</time>
      </trkpt>
      <trkpt lat="48.00123" lon="7.27612">
        <ele>259.4</ele>
        <time>2021-07-02T09:25:41Z</time>
      </trkpt>
      <trkpt lat="48.00137" lon="7.27611">
        <ele>259.8</ele>
        <time>2021-07-02T09:25:45Z</time>
      </trkpt>
      <trkpt lat="48.00144" lon="7.27609">
        <ele>260</ele>
        <time>2021-07-02T09:25:47Z</time>
      </trkpt>
      <trkpt lat="48.00159" lon="7.27604">
        <ele>260.4</ele>
        <time>2021-07-02T09:25:52Z</time>
      </trkpt>
      <trkpt lat="48.00172" lon="7.27598">
        <ele>260.6</ele>
        <time>2021-07-02T09:25:58Z</time>
      </trkpt>
      <trkpt lat="48.00181" lon="7.27598">
        <ele>261.2</ele>
        <time>2021-07-02T09:26:01Z</time>
      </trkpt>
      <trkpt lat="48.00188" lon="7.27599">
        <ele>261.6</ele>
        <time>2021-07-02T09:26:03Z</time>
      </trkpt>
      <trkpt lat="48.00206" lon="7.27601">
        <ele>262.4</ele>
        <time>2021-07-02T09:26:08Z</time>
      </trkpt>
      <trkpt lat="48.00209" lon="7.27601">
        <ele>262.4</ele>
        <time>2021-07-02T09:26:09Z</time>
      </trkpt>
      <trkpt lat="48.00231" lon="7.27602">
        <ele>262.4</ele>
        <time>2021-07-02T09:26:15Z</time>
      </trkpt>
      <trkpt lat="48.00254" lon="7.27604">
        <ele>262.4</ele>
        <time>2021-07-02T09:26:21Z</time>
      </trkpt>
      <trkpt lat="48.00276" lon="7.27608">
        <ele>262.2</ele>
        <time>2021-07-02T09:26:28Z</time>
      </trkpt>
      <trkpt lat="48.00285" lon="7.27614">
        <ele>262.2</ele>
        <time>2021-07-02T09:26:31Z</time>
      </trkpt>
      <trkpt lat="48.00288" lon="7.27617">
        <ele>262.2</ele>
        <time>2021-07-02T09:26:32Z</time>
      </trkpt>
      <trkpt lat="48.00302" lon="7.27622">
        <ele>262.2</ele>
        <time>2021-07-02T09:26:36Z</time>
      </trkpt>
      <trkpt lat="48.00315" lon="7.27628">
        <ele>261.6</ele>
        <time>2021-07-02T09:26:40Z</time>
      </trkpt>
      <trkpt lat="48.00323" lon="7.2763">
        <ele>261.2</ele>
        <time>2021-07-02T09:26:42Z</time>
      </trkpt>
      <trkpt lat="48.00329" lon="7.27632">
        <ele>260.6</ele>
        <time>2021-07-02T09:26:45Z</time>
      </trkpt>
      <trkpt lat="48.00332" lon="7.27633">
        <ele>260.4</ele>
        <time>2021-07-02T09:26:49Z</time>
      </trkpt>
      <trkpt lat="48.00336" lon="7.27634">
        <ele>260.2</ele>
        <time>2021-07-02T09:26:50Z</time>
      </trkpt>
      <trkpt lat="48.00351" lon="7.27636">
        <ele>260.2</ele>
        <time>2021-07-02T09:26:54Z</time>
      </trkpt>
      <trkpt lat="48.00368" lon="7.27639">
        <ele>259.6</ele>
        <time>2021-07-02T09:26:59Z</time>
      </trkpt>
      <trkpt lat="48.00374" lon="7.27639">
        <ele>259</ele>
        <time>2021-07-02T09:27:01Z</time>
      </trkpt>
      <trkpt lat="48.00394" lon="7.27634">
        <ele>258</ele>
        <time>2021-07-02T09:27:07Z</time>
      </trkpt>
      <trkpt lat="48.00398" lon="7.27632">
        <ele>258</ele>
        <time>2021-07-02T09:27:08Z</time>
      </trkpt>
      <trkpt lat="48.00407" lon="7.27619">
        <ele>257.6</ele>
        <time>2021-07-02T09:27:12Z</time>
      </trkpt>
      <trkpt lat="48.00411" lon="7.2761">
        <ele>257.8</ele>
        <time>2021-07-02T09:27:16Z</time>
      </trkpt>
      <trkpt lat="48.00424" lon="7.27605">
        <ele>257.8</ele>
        <time>2021-07-02T09:27:22Z</time>
      </trkpt>
      <trkpt lat="48.00439" lon="7.27608">
        <ele>257.8</ele>
        <time>2021-07-02T09:27:30Z</time>
      </trkpt>
      <trkpt lat="48.00439" lon="7.27608">
        <ele>257.6</ele>
        <time>2021-07-02T09:27:31Z</time>
      </trkpt>
      <trkpt lat="48.00441" lon="7.27606">
        <ele>256.6</ele>
        <time>2021-07-02T09:28:19Z</time>
      </trkpt>
      <trkpt lat="48.00445" lon="7.27602">
        <ele>256.6</ele>
        <time>2021-07-02T09:28:21Z</time>
      </trkpt>
      <trkpt lat="48.00448" lon="7.27601">
        <ele>256.6</ele>
        <time>2021-07-02T09:28:22Z</time>
      </trkpt>
      <trkpt lat="48.0046" lon="7.27601">
        <ele>256.8</ele>
        <time>2021-07-02T09:28:25Z</time>
      </trkpt>
      <trkpt lat="48.00469" lon="7.27603">
        <ele>257</ele>
        <time>2021-07-02T09:28:27Z</time>
      </trkpt>
      <trkpt lat="48.00488" lon="7.27608">
        <ele>257.2</ele>
        <time>2021-07-02T09:28:31Z</time>
      </trkpt>
      <trkpt lat="48.00516" lon="7.27622">
        <ele>257.8</ele>
        <time>2021-07-02T09:28:37Z</time>
      </trkpt>
      <trkpt lat="48.0052" lon="7.27623">
        <ele>257.8</ele>
        <time>2021-07-02T09:28:38Z</time>
      </trkpt>
      <trkpt lat="48.0053" lon="7.27629">
        <ele>258</ele>
        <time>2021-07-02T09:28:40Z</time>
      </trkpt>
      <trkpt lat="48.00539" lon="7.27634">
        <ele>258.2</ele>
        <time>2021-07-02T09:28:42Z</time>
      </trkpt>
      <trkpt lat="48.00543" lon="7.27636">
        <ele>258.4</ele>
        <time>2021-07-02T09:28:43Z</time>
      </trkpt>
      <trkpt lat="48.0055" lon="7.27642">
        <ele>258.6</ele>
        <time>2021-07-02T09:28:45Z</time>
      </trkpt>
      <trkpt lat="48.00554" lon="7.27645">
        <ele>258.8</ele>
        <time>2021-07-02T09:28:46Z</time>
      </trkpt>
      <trkpt lat="48.00558" lon="7.27648">
        <ele>259</ele>
        <time>2021-07-02T09:28:47Z</time>
      </trkpt>
      <trkpt lat="48.00567" lon="7.27658">
        <ele>259.8</ele>
        <time>2021-07-02T09:28:50Z</time>
      </trkpt>
      <trkpt lat="48.00579" lon="7.2767">
        <ele>260.8</ele>
        <time>2021-07-02T09:28:54Z</time>
      </trkpt>
      <trkpt lat="48.00586" lon="7.27674">
        <ele>261.2</ele>
        <time>2021-07-02T09:28:56Z</time>
      </trkpt>
      <trkpt lat="48.00602" lon="7.27684">
        <ele>261.8</ele>
        <time>2021-07-02T09:29:01Z</time>
      </trkpt>
      <trkpt lat="48.00605" lon="7.27686">
        <ele>262</ele>
        <time>2021-07-02T09:29:02Z</time>
      </trkpt>
      <trkpt lat="48.00622" lon="7.27695">
        <ele>263</ele>
        <time>2021-07-02T09:29:07Z</time>
      </trkpt>
      <trkpt lat="48.00629" lon="7.277">
        <ele>263.4</ele>
        <time>2021-07-02T09:29:09Z</time>
      </trkpt>
      <trkpt lat="48.00634" lon="7.27704">
        <ele>264</ele>
        <time>2021-07-02T09:29:11Z</time>
      </trkpt>
      <trkpt lat="48.00642" lon="7.27709">
        <ele>265.2</ele>
        <time>2021-07-02T09:29:14Z</time>
      </trkpt>
      <trkpt lat="48.00652" lon="7.27714">
        <ele>266.2</ele>
        <time>2021-07-02T09:29:18Z</time>
      </trkpt>
      <trkpt lat="48.00663" lon="7.27716">
        <ele>267</ele>
        <time>2021-07-02T09:29:22Z</time>
      </trkpt>
      <trkpt lat="48.00666" lon="7.27717">
        <ele>267.6</ele>
        <time>2021-07-02T09:29:23Z</time>
      </trkpt>
      <trkpt lat="48.00678" lon="7.27716">
        <ele>268.8</ele>
        <time>2021-07-02T09:29:27Z</time>
      </trkpt>
      <trkpt lat="48.00686" lon="7.27718">
        <ele>270</ele>
        <time>2021-07-02T09:29:30Z</time>
      </trkpt>
      <trkpt lat="48.00691" lon="7.27721">
        <ele>270.4</ele>
        <time>2021-07-02T09:29:32Z</time>
      </trkpt>
      <trkpt lat="48.00704" lon="7.27731">
        <ele>271</ele>
        <time>2021-07-02T09:29:36Z</time>
      </trkpt>
      <trkpt lat="48.00709" lon="7.27734">
        <ele>271.4</ele>
        <time>2021-07-02T09:29:38Z</time>
      </trkpt>
      <trkpt lat="48.00719" lon="7.27742">
        <ele>272.2</ele>
        <time>2021-07-02T09:29:41Z</time>
      </trkpt>
      <trkpt lat="48.00729" lon="7.27751">
        <ele>273</ele>
        <time>2021-07-02T09:29:44Z</time>
      </trkpt>
      <trkpt lat="48.00733" lon="7.27753">
        <ele>273.6</ele>
        <time>2021-07-02T09:29:45Z</time>
      </trkpt>
      <trkpt lat="48.0075" lon="7.27767">
        <ele>274</ele>
        <time>2021-07-02T09:29:50Z</time>
      </trkpt>
      <trkpt lat="48.00763" lon="7.27778">
        <ele>274.8</ele>
        <time>2021-07-02T09:29:54Z</time>
      </trkpt>
      <trkpt lat="48.00771" lon="7.27782">
        <ele>275.2</ele>
        <time>2021-07-02T09:29:56Z</time>
      </trkpt>
      <trkpt lat="48.00781" lon="7.27785">
        <ele>275.2</ele>
        <time>2021-07-02T09:30:00Z</time>
      </trkpt>
      <trkpt lat="48.00796" lon="7.2779">
        <ele>276</ele>
        <time>2021-07-02T09:30:04Z</time>
      </trkpt>
      <trkpt lat="48.008" lon="7.27792">
        <ele>276</ele>
        <time>2021-07-02T09:30:05Z</time>
      </trkpt>
      <trkpt lat="48.00833" lon="7.27805">
        <ele>276.8</ele>
        <time>2021-07-02T09:30:13Z</time>
      </trkpt>
      <trkpt lat="48.00859" lon="7.27809">
        <ele>277</ele>
        <time>2021-07-02T09:30:19Z</time>
      </trkpt>
      <trkpt lat="48.00864" lon="7.27809">
        <ele>277.4</ele>
        <time>2021-07-02T09:30:20Z</time>
      </trkpt>
      <trkpt lat="48.00869" lon="7.27809">
        <ele>277.6</ele>
        <time>2021-07-02T09:30:21Z</time>
      </trkpt>
      <trkpt lat="48.00872" lon="7.27809">
        <ele>277.6</ele>
        <time>2021-07-02T09:30:22Z</time>
      </trkpt>
      <trkpt lat="48.00893" lon="7.27806">
        <ele>278.4</ele>
        <time>2021-07-02T09:30:26Z</time>
      </trkpt>
      <trkpt lat="48.00908" lon="7.27807">
        <ele>279.2</ele>
        <time>2021-07-02T09:30:29Z</time>
      </trkpt>
      <trkpt lat="48.00913" lon="7.27809">
        <ele>279.2</ele>
        <time>2021-07-02T09:30:30Z</time>
      </trkpt>
      <trkpt lat="48.00939" lon="7.27816">
        <ele>278</ele>
        <time>2021-07-02T09:30:35Z</time>
      </trkpt>
      <trkpt lat="48.00953" lon="7.27826">
        <ele>277.8</ele>
        <time>2021-07-02T09:30:38Z</time>
      </trkpt>
      <trkpt lat="48.00984" lon="7.2785">
        <ele>278.2</ele>
        <time>2021-07-02T09:30:45Z</time>
      </trkpt>
      <trkpt lat="48.01005" lon="7.27868">
        <ele>279</ele>
        <time>2021-07-02T09:30:50Z</time>
      </trkpt>
      <trkpt lat="48.01012" lon="7.27878">
        <ele>279.4</ele>
        <time>2021-07-02T09:30:52Z</time>
      </trkpt>
      <trkpt lat="48.01021" lon="7.27896">
        <ele>279.6</ele>
        <time>2021-07-02T09:30:55Z</time>
      </trkpt>
      <trkpt lat="48.01029" lon="7.27906">
        <ele>279.4</ele>
        <time>2021-07-02T09:30:57Z</time>
      </trkpt>
      <trkpt lat="48.01043" lon="7.27919">
        <ele>278.2</ele>
        <time>2021-07-02T09:31:00Z</time>
      </trkpt>
      <trkpt lat="48.01061" lon="7.27931">
        <ele>277.6</ele>
        <time>2021-07-02T09:31:04Z</time>
      </trkpt>
      <trkpt lat="48.01099" lon="7.27955">
        <ele>278.2</ele>
        <time>2021-07-02T09:31:12Z</time>
      </trkpt>
      <trkpt lat="48.0113" lon="7.27974">
        <ele>277.2</ele>
        <time>2021-07-02T09:31:18Z</time>
      </trkpt>
      <trkpt lat="48.01141" lon="7.2798">
        <ele>277.4</ele>
        <time>2021-07-02T09:31:20Z</time>
      </trkpt>
      <trkpt lat="48.01151" lon="7.27984">
        <ele>277.2</ele>
        <time>2021-07-02T09:31:22Z</time>
      </trkpt>
      <trkpt lat="48.01167" lon="7.27987">
        <ele>277.8</ele>
        <time>2021-07-02T09:31:25Z</time>
      </trkpt>
      <trkpt lat="48.01199" lon="7.2799">
        <ele>278.2</ele>
        <time>2021-07-02T09:31:31Z</time>
      </trkpt>
      <trkpt lat="48.01209" lon="7.27991">
        <ele>277.8</ele>
        <time>2021-07-02T09:31:33Z</time>
      </trkpt>
      <trkpt lat="48.01227" lon="7.27994">
        <ele>278.8</ele>
        <time>2021-07-02T09:31:37Z</time>
      </trkpt>
      <trkpt lat="48.0124" lon="7.27995">
        <ele>279.6</ele>
        <time>2021-07-02T09:31:40Z</time>
      </trkpt>
      <trkpt lat="48.01249" lon="7.27997">
        <ele>280</ele>
        <time>2021-07-02T09:31:42Z</time>
      </trkpt>
      <trkpt lat="48.01253" lon="7.27998">
        <ele>280.2</ele>
        <time>2021-07-02T09:31:43Z</time>
      </trkpt>
      <trkpt lat="48.01289" lon="7.28">
        <ele>280.6</ele>
        <time>2021-07-02T09:31:51Z</time>
      </trkpt>
      <trkpt lat="48.01325" lon="7.27994">
        <ele>280.6</ele>
        <time>2021-07-02T09:31:58Z</time>
      </trkpt>
      <trkpt lat="48.01335" lon="7.27993">
        <ele>280.6</ele>
        <time>2021-07-02T09:32:00Z</time>
      </trkpt>
      <trkpt lat="48.01349" lon="7.27997">
        <ele>280.2</ele>
        <time>2021-07-02T09:32:03Z</time>
      </trkpt>
      <trkpt lat="48.01379" lon="7.28012">
        <ele>279.6</ele>
        <time>2021-07-02T09:32:10Z</time>
      </trkpt>
      <trkpt lat="48.01383" lon="7.28017">
        <ele>279.6</ele>
        <time>2021-07-02T09:32:11Z</time>
      </trkpt>
      <trkpt lat="48.01385" lon="7.28023">
        <ele>279.6</ele>
        <time>2021-07-02T09:32:12Z</time>
      </trkpt>
      <trkpt lat="48.01394" lon="7.28046">
        <ele>279.2</ele>
        <time>2021-07-02T09:32:15Z</time>
      </trkpt>
      <trkpt lat="48.01403" lon="7.28055">
        <ele>279.2</ele>
        <time>2021-07-02T09:32:17Z</time>
      </trkpt>
      <trkpt lat="48.01408" lon="7.28057">
        <ele>279.2</ele>
        <time>2021-07-02T09:32:18Z</time>
      </trkpt>
      <trkpt lat="48.01428" lon="7.28064">
        <ele>279</ele>
        <time>2021-07-02T09:32:22Z</time>
      </trkpt>
      <trkpt lat="48.01441" lon="7.28071">
        <ele>279.2</ele>
        <time>2021-07-02T09:32:25Z</time>
      </trkpt>
      <trkpt lat="48.01477" lon="7.28087">
        <ele>280</ele>
        <time>2021-07-02T09:32:33Z</time>
      </trkpt>
      <trkpt lat="48.01495" lon="7.28096">
        <ele>280.8</ele>
        <time>2021-07-02T09:32:37Z</time>
      </trkpt>
      <trkpt lat="48.01499" lon="7.28098">
        <ele>280.8</ele>
        <time>2021-07-02T09:32:38Z</time>
      </trkpt>
      <trkpt lat="48.0151" lon="7.28104">
        <ele>281.4</ele>
        <time>2021-07-02T09:32:41Z</time>
      </trkpt>
      <trkpt lat="48.01517" lon="7.28108">
        <ele>281.8</ele>
        <time>2021-07-02T09:32:44Z</time>
      </trkpt>
      <trkpt lat="48.01521" lon="7.28109">
        <ele>282.6</ele>
        <time>2021-07-02T09:32:46Z</time>
      </trkpt>
      <trkpt lat="48.01525" lon="7.28111">
        <ele>283.4</ele>
        <time>2021-07-02T09:32:48Z</time>
      </trkpt>
      <trkpt lat="48.01537" lon="7.28115">
        <ele>284.4</ele>
        <time>2021-07-02T09:32:53Z</time>
      </trkpt>
      <trkpt lat="48.01545" lon="7.28118">
        <ele>285.8</ele>
        <time>2021-07-02T09:32:57Z</time>
      </trkpt>
      <trkpt lat="48.01558" lon="7.28123">
        <ele>287</ele>
        <time>2021-07-02T09:33:02Z</time>
      </trkpt>
      <trkpt lat="48.0156" lon="7.28124">
        <ele>287.4</ele>
        <time>2021-07-02T09:33:03Z</time>
      </trkpt>
      <trkpt lat="48.01566" lon="7.28128">
        <ele>288.2</ele>
        <time>2021-07-02T09:33:06Z</time>
      </trkpt>
      <trkpt lat="48.01573" lon="7.28129">
        <ele>289.4</ele>
        <time>2021-07-02T09:33:09Z</time>
      </trkpt>
      <trkpt lat="48.01575" lon="7.28128">
        <ele>289.6</ele>
        <time>2021-07-02T09:33:10Z</time>
      </trkpt>
      <trkpt lat="48.01581" lon="7.28128">
        <ele>290.6</ele>
        <time>2021-07-02T09:33:13Z</time>
      </trkpt>
      <trkpt lat="48.01589" lon="7.28127">
        <ele>291.8</ele>
        <time>2021-07-02T09:33:16Z</time>
      </trkpt>
      <trkpt lat="48.01593" lon="7.28128">
        <ele>292</ele>
        <time>2021-07-02T09:33:18Z</time>
      </trkpt>
      <trkpt lat="48.01599" lon="7.28127">
        <ele>292.8</ele>
        <time>2021-07-02T09:33:21Z</time>
      </trkpt>
      <trkpt lat="48.01606" lon="7.28126">
        <ele>294</ele>
        <time>2021-07-02T09:33:24Z</time>
      </trkpt>
      <trkpt lat="48.01612" lon="7.28128">
        <ele>295.4</ele>
        <time>2021-07-02T09:33:27Z</time>
      </trkpt>
      <trkpt lat="48.01618" lon="7.28129">
        <ele>296</ele>
        <time>2021-07-02T09:33:30Z</time>
      </trkpt>
      <trkpt lat="48.0162" lon="7.2813">
        <ele>296.4</ele>
        <time>2021-07-02T09:33:31Z</time>
      </trkpt>
      <trkpt lat="48.01626" lon="7.2813">
        <ele>297.4</ele>
        <time>2021-07-02T09:33:34Z</time>
      </trkpt>
      <trkpt lat="48.0163" lon="7.28131">
        <ele>298</ele>
        <time>2021-07-02T09:33:36Z</time>
      </trkpt>
      <trkpt lat="48.01635" lon="7.28133">
        <ele>299</ele>
        <time>2021-07-02T09:33:38Z</time>
      </trkpt>
      <trkpt lat="48.0164" lon="7.28134">
        <ele>300.2</ele>
        <time>2021-07-02T09:33:41Z</time>
      </trkpt>
      <trkpt lat="48.01644" lon="7.28136">
        <ele>300.8</ele>
        <time>2021-07-02T09:33:43Z</time>
      </trkpt>
      <trkpt lat="48.01649" lon="7.28136">
        <ele>301.2</ele>
        <time>2021-07-02T09:33:45Z</time>
      </trkpt>
      <trkpt lat="48.01657" lon="7.28138">
        <ele>302.2</ele>
        <time>2021-07-02T09:33:49Z</time>
      </trkpt>
      <trkpt lat="48.01666" lon="7.2814">
        <ele>303.6</ele>
        <time>2021-07-02T09:33:54Z</time>
      </trkpt>
      <trkpt lat="48.01674" lon="7.28143">
        <ele>304.6</ele>
        <time>2021-07-02T09:33:58Z</time>
      </trkpt>
      <trkpt lat="48.01676" lon="7.28143">
        <ele>304.6</ele>
        <time>2021-07-02T09:33:59Z</time>
      </trkpt>
      <trkpt lat="48.01686" lon="7.28147">
        <ele>305.8</ele>
        <time>2021-07-02T09:34:04Z</time>
      </trkpt>
      <trkpt lat="48.01688" lon="7.28148">
        <ele>305.8</ele>
        <time>2021-07-02T09:34:05Z</time>
      </trkpt>
      <trkpt lat="48.01695" lon="7.28149">
        <ele>306.8</ele>
        <time>2021-07-02T09:34:09Z</time>
      </trkpt>
      <trkpt lat="48.017" lon="7.28151">
        <ele>307.4</ele>
        <time>2021-07-02T09:34:11Z</time>
      </trkpt>
      <trkpt lat="48.01703" lon="7.28153">
        <ele>308</ele>
        <time>2021-07-02T09:34:13Z</time>
      </trkpt>
      <trkpt lat="48.01713" lon="7.28156">
        <ele>309</ele>
        <time>2021-07-02T09:34:18Z</time>
      </trkpt>
      <trkpt lat="48.01715" lon="7.28156">
        <ele>309.4</ele>
        <time>2021-07-02T09:34:19Z</time>
      </trkpt>
      <trkpt lat="48.01724" lon="7.28161">
        <ele>310.4</ele>
        <time>2021-07-02T09:34:24Z</time>
      </trkpt>
      <trkpt lat="48.01732" lon="7.28163">
        <ele>311.4</ele>
        <time>2021-07-02T09:34:28Z</time>
      </trkpt>
      <trkpt lat="48.01742" lon="7.28167">
        <ele>312.4</ele>
        <time>2021-07-02T09:34:33Z</time>
      </trkpt>
      <trkpt lat="48.01748" lon="7.2817">
        <ele>313.6</ele>
        <time>2021-07-02T09:34:36Z</time>
      </trkpt>
      <trkpt lat="48.01759" lon="7.28175">
        <ele>314.6</ele>
        <time>2021-07-02T09:34:41Z</time>
      </trkpt>
      <trkpt lat="48.01771" lon="7.2818">
        <ele>315.8</ele>
        <time>2021-07-02T09:34:46Z</time>
      </trkpt>
      <trkpt lat="48.01781" lon="7.28184">
        <ele>316.8</ele>
        <time>2021-07-02T09:34:50Z</time>
      </trkpt>
      <trkpt lat="48.01783" lon="7.28185">
        <ele>317</ele>
        <time>2021-07-02T09:34:51Z</time>
      </trkpt>
      <trkpt lat="48.01797" lon="7.28192">
        <ele>318</ele>
        <time>2021-07-02T09:34:57Z</time>
      </trkpt>
      <trkpt lat="48.01805" lon="7.28195">
        <ele>318.6</ele>
        <time>2021-07-02T09:35:00Z</time>
      </trkpt>
      <trkpt lat="48.01812" lon="7.28198">
        <ele>319.2</ele>
        <time>2021-07-02T09:35:03Z</time>
      </trkpt>
      <trkpt lat="48.01828" lon="7.28205">
        <ele>320</ele>
        <time>2021-07-02T09:35:09Z</time>
      </trkpt>
      <trkpt lat="48.01833" lon="7.28207">
        <ele>320.2</ele>
        <time>2021-07-02T09:35:11Z</time>
      </trkpt>
      <trkpt lat="48.01853" lon="7.28213">
        <ele>321.2</ele>
        <time>2021-07-02T09:35:18Z</time>
      </trkpt>
      <trkpt lat="48.01858" lon="7.28213">
        <ele>321.4</ele>
        <time>2021-07-02T09:35:20Z</time>
      </trkpt>
      <trkpt lat="48.01872" lon="7.28209">
        <ele>322.2</ele>
        <time>2021-07-02T09:35:25Z</time>
      </trkpt>
      <trkpt lat="48.01875" lon="7.28208">
        <ele>322.6</ele>
        <time>2021-07-02T09:35:26Z</time>
      </trkpt>
      <trkpt lat="48.01888" lon="7.28204">
        <ele>323.8</ele>
        <time>2021-07-02T09:35:31Z</time>
      </trkpt>
      <trkpt lat="48.01893" lon="7.28202">
        <ele>324</ele>
        <time>2021-07-02T09:35:33Z</time>
      </trkpt>
      <trkpt lat="48.01902" lon="7.282">
        <ele>324.8</ele>
        <time>2021-07-02T09:35:36Z</time>
      </trkpt>
      <trkpt lat="48.01912" lon="7.28199">
        <ele>326</ele>
        <time>2021-07-02T09:35:40Z</time>
      </trkpt>
      <trkpt lat="48.01927" lon="7.28199">
        <ele>327.2</ele>
        <time>2021-07-02T09:35:45Z</time>
      </trkpt>
      <trkpt lat="48.01934" lon="7.282">
        <ele>328.2</ele>
        <time>2021-07-02T09:35:48Z</time>
      </trkpt>
      <trkpt lat="48.01937" lon="7.28201">
        <ele>328.6</ele>
        <time>2021-07-02T09:35:49Z</time>
      </trkpt>
      <trkpt lat="48.01946" lon="7.28204">
        <ele>329.4</ele>
        <time>2021-07-02T09:35:53Z</time>
      </trkpt>
      <trkpt lat="48.01952" lon="7.28207">
        <ele>329.8</ele>
        <time>2021-07-02T09:35:56Z</time>
      </trkpt>
      <trkpt lat="48.01956" lon="7.28217">
        <ele>330.2</ele>
        <time>2021-07-02T09:36:02Z</time>
      </trkpt>
      <trkpt lat="48.01958" lon="7.28226">
        <ele>330</ele>
        <time>2021-07-02T09:36:06Z</time>
      </trkpt>
      <trkpt lat="48.01958" lon="7.28234">
        <ele>329.8</ele>
        <time>2021-07-02T09:36:08Z</time>
      </trkpt>
      <trkpt lat="48.01958" lon="7.28241">
        <ele>329.4</ele>
        <time>2021-07-02T09:36:11Z</time>
      </trkpt>
      <trkpt lat="48.01959" lon="7.28242">
        <ele>329.2</ele>
        <time>2021-07-02T09:36:12Z</time>
      </trkpt>
      <trkpt lat="48.01959" lon="7.28242">
        <ele>329</ele>
        <time>2021-07-02T09:36:15Z</time>
      </trkpt>
      <trkpt lat="48.01963" lon="7.28247">
        <ele>328.4</ele>
        <time>2021-07-02T09:36:22Z</time>
      </trkpt>
      <trkpt lat="48.01976" lon="7.28259">
        <ele>328.4</ele>
        <time>2021-07-02T09:36:28Z</time>
      </trkpt>
      <trkpt lat="48.01979" lon="7.28261">
        <ele>328.2</ele>
        <time>2021-07-02T09:36:29Z</time>
      </trkpt>
      <trkpt lat="48.01983" lon="7.28264">
        <ele>328.6</ele>
        <time>2021-07-02T09:36:33Z</time>
      </trkpt>
      <trkpt lat="48.01983" lon="7.28264">
        <ele>328.6</ele>
        <time>2021-07-02T09:36:34Z</time>
      </trkpt>
      <trkpt lat="48.01985" lon="7.28266">
        <ele>328.4</ele>
        <time>2021-07-02T09:36:49Z</time>
      </trkpt>
      <trkpt lat="48.01991" lon="7.28272">
        <ele>328.4</ele>
        <time>2021-07-02T09:36:51Z</time>
      </trkpt>
      <trkpt lat="48.02009" lon="7.28281">
        <ele>328.2</ele>
        <time>2021-07-02T09:36:56Z</time>
      </trkpt>
      <trkpt lat="48.02018" lon="7.28284">
        <ele>328</ele>
        <time>2021-07-02T09:36:58Z</time>
      </trkpt>
      <trkpt lat="48.02038" lon="7.28286">
        <ele>327.6</ele>
        <time>2021-07-02T09:37:02Z</time>
      </trkpt>
      <trkpt lat="48.02078" lon="7.28289">
        <ele>327.8</ele>
        <time>2021-07-02T09:37:10Z</time>
      </trkpt>
      <trkpt lat="48.02109" lon="7.28295">
        <ele>328.2</ele>
        <time>2021-07-02T09:37:16Z</time>
      </trkpt>
      <trkpt lat="48.02117" lon="7.28302">
        <ele>328.2</ele>
        <time>2021-07-02T09:37:18Z</time>
      </trkpt>
      <trkpt lat="48.02123" lon="7.28324">
        <ele>328.4</ele>
        <time>2021-07-02T09:37:21Z</time>
      </trkpt>
      <trkpt lat="48.02134" lon="7.28372">
        <ele>327.4</ele>
        <time>2021-07-02T09:37:26Z</time>
      </trkpt>
      <trkpt lat="48.02137" lon="7.28382">
        <ele>327</ele>
        <time>2021-07-02T09:37:27Z</time>
      </trkpt>
      <trkpt lat="48.02143" lon="7.28405">
        <ele>326.6</ele>
        <time>2021-07-02T09:37:29Z</time>
      </trkpt>
      <trkpt lat="48.0215" lon="7.28422">
        <ele>326.2</ele>
        <time>2021-07-02T09:37:31Z</time>
      </trkpt>
      <trkpt lat="48.02155" lon="7.2843">
        <ele>325.6</ele>
        <time>2021-07-02T09:37:32Z</time>
      </trkpt>
      <trkpt lat="48.02162" lon="7.28437">
        <ele>325.4</ele>
        <time>2021-07-02T09:37:33Z</time>
      </trkpt>
      <trkpt lat="48.02169" lon="7.28442">
        <ele>324.8</ele>
        <time>2021-07-02T09:37:34Z</time>
      </trkpt>
      <trkpt lat="48.02176" lon="7.28446">
        <ele>324.4</ele>
        <time>2021-07-02T09:37:35Z</time>
      </trkpt>
      <trkpt lat="48.02203" lon="7.28455">
        <ele>323.6</ele>
        <time>2021-07-02T09:37:39Z</time>
      </trkpt>
      <trkpt lat="48.02223" lon="7.2846">
        <ele>323.4</ele>
        <time>2021-07-02T09:37:42Z</time>
      </trkpt>
      <trkpt lat="48.02242" lon="7.28465">
        <ele>323.4</ele>
        <time>2021-07-02T09:37:45Z</time>
      </trkpt>
      <trkpt lat="48.02282" lon="7.28475">
        <ele>323.4</ele>
        <time>2021-07-02T09:37:52Z</time>
      </trkpt>
      <trkpt lat="48.02314" lon="7.2849">
        <ele>324</ele>
        <time>2021-07-02T09:37:58Z</time>
      </trkpt>
      <trkpt lat="48.02318" lon="7.28495">
        <ele>324</ele>
        <time>2021-07-02T09:37:59Z</time>
      </trkpt>
      <trkpt lat="48.02326" lon="7.28505">
        <ele>324.2</ele>
        <time>2021-07-02T09:38:01Z</time>
      </trkpt>
      <trkpt lat="48.02336" lon="7.28509">
        <ele>324.2</ele>
        <time>2021-07-02T09:38:03Z</time>
      </trkpt>
      <trkpt lat="48.0234" lon="7.28505">
        <ele>324.4</ele>
        <time>2021-07-02T09:38:04Z</time>
      </trkpt>
      <trkpt lat="48.02348" lon="7.28495">
        <ele>324.6</ele>
        <time>2021-07-02T09:38:06Z</time>
      </trkpt>
      <trkpt lat="48.02367" lon="7.28476">
        <ele>325.4</ele>
        <time>2021-07-02T09:38:10Z</time>
      </trkpt>
      <trkpt lat="48.02375" lon="7.2847">
        <ele>325.8</ele>
        <time>2021-07-02T09:38:12Z</time>
      </trkpt>
      <trkpt lat="48.02389" lon="7.2846">
        <ele>326.4</ele>
        <time>2021-07-02T09:38:15Z</time>
      </trkpt>
      <trkpt lat="48.02407" lon="7.28449">
        <ele>327.2</ele>
        <time>2021-07-02T09:38:19Z</time>
      </trkpt>
      <trkpt lat="48.02411" lon="7.28446">
        <ele>327.4</ele>
        <time>2021-07-02T09:38:20Z</time>
      </trkpt>
      <trkpt lat="48.02415" lon="7.28442">
        <ele>327.6</ele>
        <time>2021-07-02T09:38:21Z</time>
      </trkpt>
      <trkpt lat="48.02428" lon="7.2843">
        <ele>328</ele>
        <time>2021-07-02T09:38:24Z</time>
      </trkpt>
      <trkpt lat="48.02435" lon="7.28421">
        <ele>328.2</ele>
        <time>2021-07-02T09:38:26Z</time>
      </trkpt>
      <trkpt lat="48.02441" lon="7.28411">
        <ele>328.6</ele>
        <time>2021-07-02T09:38:28Z</time>
      </trkpt>
      <trkpt lat="48.02451" lon="7.28392">
        <ele>329.8</ele>
        <time>2021-07-02T09:38:31Z</time>
      </trkpt>
      <trkpt lat="48.02453" lon="7.28387">
        <ele>330</ele>
        <time>2021-07-02T09:38:32Z</time>
      </trkpt>
      <trkpt lat="48.02455" lon="7.2838">
        <ele>330</ele>
        <time>2021-07-02T09:38:33Z</time>
      </trkpt>
      <trkpt lat="48.02463" lon="7.28348">
        <ele>330.8</ele>
        <time>2021-07-02T09:38:38Z</time>
      </trkpt>
      <trkpt lat="48.02467" lon="7.28318">
        <ele>331.8</ele>
        <time>2021-07-02T09:38:43Z</time>
      </trkpt>
      <trkpt lat="48.0247" lon="7.283">
        <ele>332.6</ele>
        <time>2021-07-02T09:38:46Z</time>
      </trkpt>
      <trkpt lat="48.02472" lon="7.2829">
        <ele>333.2</ele>
        <time>2021-07-02T09:38:48Z</time>
      </trkpt>
      <trkpt lat="48.02477" lon="7.28268">
        <ele>333.8</ele>
        <time>2021-07-02T09:38:52Z</time>
      </trkpt>
      <trkpt lat="48.02478" lon="7.28264">
        <ele>334.2</ele>
        <time>2021-07-02T09:38:53Z</time>
      </trkpt>
      <trkpt lat="48.0248" lon="7.28259">
        <ele>334.4</ele>
        <time>2021-07-02T09:38:54Z</time>
      </trkpt>
      <trkpt lat="48.02487" lon="7.28242">
        <ele>335.4</ele>
        <time>2021-07-02T09:38:58Z</time>
      </trkpt>
      <trkpt lat="48.02493" lon="7.28229">
        <ele>336</ele>
        <time>2021-07-02T09:39:01Z</time>
      </trkpt>
      <trkpt lat="48.02498" lon="7.2822">
        <ele>336.6</ele>
        <time>2021-07-02T09:39:03Z</time>
      </trkpt>
      <trkpt lat="48.02512" lon="7.28202">
        <ele>337.8</ele>
        <time>2021-07-02T09:39:08Z</time>
      </trkpt>
      <trkpt lat="48.02515" lon="7.28198">
        <ele>338</ele>
        <time>2021-07-02T09:39:09Z</time>
      </trkpt>
      <trkpt lat="48.02528" lon="7.28184">
        <ele>339</ele>
        <time>2021-07-02T09:39:13Z</time>
      </trkpt>
      <trkpt lat="48.02541" lon="7.28174">
        <ele>340</ele>
        <time>2021-07-02T09:39:17Z</time>
      </trkpt>
      <trkpt lat="48.02544" lon="7.28172">
        <ele>340.2</ele>
        <time>2021-07-02T09:39:18Z</time>
      </trkpt>
      <trkpt lat="48.0256" lon="7.28164">
        <ele>341.4</ele>
        <time>2021-07-02T09:39:23Z</time>
      </trkpt>
      <trkpt lat="48.02564" lon="7.28163">
        <ele>341.4</ele>
        <time>2021-07-02T09:39:24Z</time>
      </trkpt>
      <trkpt lat="48.02576" lon="7.2816">
        <ele>342.4</ele>
        <time>2021-07-02T09:39:28Z</time>
      </trkpt>
      <trkpt lat="48.02584" lon="7.28159">
        <ele>342.8</ele>
        <time>2021-07-02T09:39:30Z</time>
      </trkpt>
      <trkpt lat="48.02589" lon="7.28157">
        <ele>343.4</ele>
        <time>2021-07-02T09:39:32Z</time>
      </trkpt>
      <trkpt lat="48.02602" lon="7.28156">
        <ele>344.6</ele>
        <time>2021-07-02T09:39:36Z</time>
      </trkpt>
      <trkpt lat="48.02608" lon="7.28157">
        <ele>344.8</ele>
        <time>2021-07-02T09:39:38Z</time>
      </trkpt>
      <trkpt lat="48.02625" lon="7.28161">
        <ele>345.8</ele>
        <time>2021-07-02T09:39:43Z</time>
      </trkpt>
      <trkpt lat="48.02631" lon="7.28164">
        <ele>346</ele>
        <time>2021-07-02T09:39:45Z</time>
      </trkpt>
      <trkpt lat="48.02639" lon="7.28168">
        <ele>347</ele>
        <time>2021-07-02T09:39:48Z</time>
      </trkpt>
      <trkpt lat="48.02654" lon="7.28172">
        <ele>347.8</ele>
        <time>2021-07-02T09:39:53Z</time>
      </trkpt>
      <trkpt lat="48.02657" lon="7.28172">
        <ele>348.2</ele>
        <time>2021-07-02T09:39:54Z</time>
      </trkpt>
      <trkpt lat="48.02673" lon="7.28173">
        <ele>349.4</ele>
        <time>2021-07-02T09:39:59Z</time>
      </trkpt>
      <trkpt lat="48.02691" lon="7.28176">
        <ele>350.6</ele>
        <time>2021-07-02T09:40:04Z</time>
      </trkpt>
      <trkpt lat="48.02699" lon="7.28177">
        <ele>350.8</ele>
        <time>2021-07-02T09:40:06Z</time>
      </trkpt>
      <trkpt lat="48.02719" lon="7.28178">
        <ele>351.6</ele>
        <time>2021-07-02T09:40:11Z</time>
      </trkpt>
      <trkpt lat="48.0273" lon="7.28179">
        <ele>351.8</ele>
        <time>2021-07-02T09:40:14Z</time>
      </trkpt>
      <trkpt lat="48.02769" lon="7.2818">
        <ele>352.6</ele>
        <time>2021-07-02T09:40:23Z</time>
      </trkpt>
      <trkpt lat="48.02796" lon="7.28179">
        <ele>352.6</ele>
        <time>2021-07-02T09:40:29Z</time>
      </trkpt>
      <trkpt lat="48.02805" lon="7.28178">
        <ele>352.8</ele>
        <time>2021-07-02T09:40:31Z</time>
      </trkpt>
      <trkpt lat="48.0281" lon="7.28177">
        <ele>353</ele>
        <time>2021-07-02T09:40:32Z</time>
      </trkpt>
      <trkpt lat="48.02843" lon="7.28166">
        <ele>353.8</ele>
        <time>2021-07-02T09:40:40Z</time>
      </trkpt>
      <trkpt lat="48.02859" lon="7.28161">
        <ele>354.4</ele>
        <time>2021-07-02T09:40:44Z</time>
      </trkpt>
      <trkpt lat="48.0287" lon="7.28155">
        <ele>355</ele>
        <time>2021-07-02T09:40:47Z</time>
      </trkpt>
      <trkpt lat="48.02884" lon="7.28151">
        <ele>356.2</ele>
        <time>2021-07-02T09:40:51Z</time>
      </trkpt>
      <trkpt lat="48.02901" lon="7.28145">
        <ele>357.4</ele>
        <time>2021-07-02T09:40:56Z</time>
      </trkpt>
      <trkpt lat="48.02906" lon="7.28144">
        <ele>358</ele>
        <time>2021-07-02T09:40:58Z</time>
      </trkpt>
      <trkpt lat="48.0291" lon="7.28143">
        <ele>358.4</ele>
        <time>2021-07-02T09:40:59Z</time>
      </trkpt>
      <trkpt lat="48.02923" lon="7.28138">
        <ele>359.6</ele>
        <time>2021-07-02T09:41:03Z</time>
      </trkpt>
      <trkpt lat="48.02925" lon="7.28137">
        <ele>359.8</ele>
        <time>2021-07-02T09:41:04Z</time>
      </trkpt>
      <trkpt lat="48.02934" lon="7.28132">
        <ele>360.6</ele>
        <time>2021-07-02T09:41:07Z</time>
      </trkpt>
      <trkpt lat="48.02942" lon="7.28129">
        <ele>362</ele>
        <time>2021-07-02T09:41:10Z</time>
      </trkpt>
      <trkpt lat="48.02948" lon="7.28126">
        <ele>362.4</ele>
        <time>2021-07-02T09:41:12Z</time>
      </trkpt>
      <trkpt lat="48.02957" lon="7.28123">
        <ele>363.4</ele>
        <time>2021-07-02T09:41:15Z</time>
      </trkpt>
      <trkpt lat="48.02969" lon="7.28117">
        <ele>364</ele>
        <time>2021-07-02T09:41:19Z</time>
      </trkpt>
      <trkpt lat="48.02975" lon="7.28114">
        <ele>364.4</ele>
        <time>2021-07-02T09:41:21Z</time>
      </trkpt>
      <trkpt lat="48.02989" lon="7.2811">
        <ele>365.4</ele>
        <time>2021-07-02T09:41:25Z</time>
      </trkpt>
      <trkpt lat="48.02996" lon="7.28107">
        <ele>365.8</ele>
        <time>2021-07-02T09:41:27Z</time>
      </trkpt>
      <trkpt lat="48.03007" lon="7.28105">
        <ele>366.6</ele>
        <time>2021-07-02T09:41:32Z</time>
      </trkpt>
      <trkpt lat="48.03009" lon="7.28104">
        <ele>367</ele>
        <time>2021-07-02T09:41:33Z</time>
      </trkpt>
      <trkpt lat="48.03021" lon="7.28099">
        <ele>367.6</ele>
        <time>2021-07-02T09:41:38Z</time>
      </trkpt>
      <trkpt lat="48.0303" lon="7.28096">
        <ele>367.8</ele>
        <time>2021-07-02T09:41:41Z</time>
      </trkpt>
      <trkpt lat="48.03052" lon="7.2809">
        <ele>368.8</ele>
        <time>2021-07-02T09:41:47Z</time>
      </trkpt>
      <trkpt lat="48.03059" lon="7.28088">
        <ele>369</ele>
        <time>2021-07-02T09:41:49Z</time>
      </trkpt>
      <trkpt lat="48.03077" lon="7.28081">
        <ele>369.8</ele>
        <time>2021-07-02T09:41:54Z</time>
      </trkpt>
      <trkpt lat="48.03081" lon="7.28081">
        <ele>370</ele>
        <time>2021-07-02T09:41:55Z</time>
      </trkpt>
      <trkpt lat="48.03107" lon="7.28073">
        <ele>371</ele>
        <time>2021-07-02T09:42:02Z</time>
      </trkpt>
      <trkpt lat="48.03111" lon="7.28072">
        <ele>371</ele>
        <time>2021-07-02T09:42:03Z</time>
      </trkpt>
      <trkpt lat="48.03127" lon="7.28065">
        <ele>372</ele>
        <time>2021-07-02T09:42:08Z</time>
      </trkpt>
      <trkpt lat="48.03132" lon="7.28062">
        <ele>372.4</ele>
        <time>2021-07-02T09:42:10Z</time>
      </trkpt>
      <trkpt lat="48.03138" lon="7.28057">
        <ele>373.2</ele>
        <time>2021-07-02T09:42:13Z</time>
      </trkpt>
      <trkpt lat="48.03142" lon="7.28053">
        <ele>373.6</ele>
        <time>2021-07-02T09:42:15Z</time>
      </trkpt>
      <trkpt lat="48.03145" lon="7.28048">
        <ele>374</ele>
        <time>2021-07-02T09:42:17Z</time>
      </trkpt>
      <trkpt lat="48.03146" lon="7.28051">
        <ele>374.4</ele>
        <time>2021-07-02T09:42:19Z</time>
      </trkpt>
      <trkpt lat="48.03137" lon="7.28061">
        <ele>374.6</ele>
        <time>2021-07-02T09:42:23Z</time>
      </trkpt>
      <trkpt lat="48.03137" lon="7.28062">
        <ele>374.6</ele>
        <time>2021-07-02T09:42:24Z</time>
      </trkpt>
      <trkpt lat="48.03137" lon="7.28066">
        <ele>374.6</ele>
        <time>2021-07-02T09:42:26Z</time>
      </trkpt>
      <trkpt lat="48.03138" lon="7.28067">
        <ele>374.6</ele>
        <time>2021-07-02T09:42:27Z</time>
      </trkpt>
      <trkpt lat="48.0314" lon="7.28067">
        <ele>374.2</ele>
        <time>2021-07-02T09:42:29Z</time>
      </trkpt>
      <trkpt lat="48.03141" lon="7.28066">
        <ele>374.2</ele>
        <time>2021-07-02T09:42:30Z</time>
      </trkpt>
      <trkpt lat="48.0314" lon="7.28059">
        <ele>374</ele>
        <time>2021-07-02T09:42:34Z</time>
      </trkpt>
      <trkpt lat="48.03142" lon="7.28053">
        <ele>374</ele>
        <time>2021-07-02T09:42:36Z</time>
      </trkpt>
      <trkpt lat="48.03145" lon="7.2805">
        <ele>374</ele>
        <time>2021-07-02T09:42:38Z</time>
      </trkpt>
      <trkpt lat="48.03157" lon="7.28035">
        <ele>375</ele>
        <time>2021-07-02T09:42:44Z</time>
      </trkpt>
      <trkpt lat="48.0316" lon="7.28032">
        <ele>375.4</ele>
        <time>2021-07-02T09:42:45Z</time>
      </trkpt>
      <trkpt lat="48.03167" lon="7.28022">
        <ele>376.6</ele>
        <time>2021-07-02T09:42:49Z</time>
      </trkpt>
      <trkpt lat="48.03173" lon="7.28012">
        <ele>377.6</ele>
        <time>2021-07-02T09:42:52Z</time>
      </trkpt>
      <trkpt lat="48.03175" lon="7.2801">
        <ele>377.8</ele>
        <time>2021-07-02T09:42:53Z</time>
      </trkpt>
      <trkpt lat="48.03184" lon="7.27995">
        <ele>378.8</ele>
        <time>2021-07-02T09:42:58Z</time>
      </trkpt>
      <trkpt lat="48.0319" lon="7.27984">
        <ele>380</ele>
        <time>2021-07-02T09:43:01Z</time>
      </trkpt>
      <trkpt lat="48.03199" lon="7.27964">
        <ele>381</ele>
        <time>2021-07-02T09:43:06Z</time>
      </trkpt>
      <trkpt lat="48.03212" lon="7.27937">
        <ele>381.8</ele>
        <time>2021-07-02T09:43:13Z</time>
      </trkpt>
      <trkpt lat="48.03218" lon="7.27905">
        <ele>381.6</ele>
        <time>2021-07-02T09:43:19Z</time>
      </trkpt>
      <trkpt lat="48.0322" lon="7.27873">
        <ele>382</ele>
        <time>2021-07-02T09:43:26Z</time>
      </trkpt>
      <trkpt lat="48.0322" lon="7.27868">
        <ele>382.2</ele>
        <time>2021-07-02T09:43:27Z</time>
      </trkpt>
      <trkpt lat="48.03221" lon="7.27853">
        <ele>383.4</ele>
        <time>2021-07-02T09:43:31Z</time>
      </trkpt>
      <trkpt lat="48.03223" lon="7.27844">
        <ele>383.8</ele>
        <time>2021-07-02T09:43:33Z</time>
      </trkpt>
      <trkpt lat="48.03225" lon="7.27835">
        <ele>384.4</ele>
        <time>2021-07-02T09:43:35Z</time>
      </trkpt>
      <trkpt lat="48.03229" lon="7.27818">
        <ele>385</ele>
        <time>2021-07-02T09:43:39Z</time>
      </trkpt>
      <trkpt lat="48.03229" lon="7.27815">
        <ele>385.4</ele>
        <time>2021-07-02T09:43:40Z</time>
      </trkpt>
      <trkpt lat="48.03232" lon="7.2779">
        <ele>386.4</ele>
        <time>2021-07-02T09:43:46Z</time>
      </trkpt>
      <trkpt lat="48.03233" lon="7.27786">
        <ele>386.6</ele>
        <time>2021-07-02T09:43:47Z</time>
      </trkpt>
      <trkpt lat="48.03237" lon="7.27771">
        <ele>387.6</ele>
        <time>2021-07-02T09:43:51Z</time>
      </trkpt>
      <trkpt lat="48.0324" lon="7.27751">
        <ele>388.8</ele>
        <time>2021-07-02T09:43:56Z</time>
      </trkpt>
      <trkpt lat="48.0324" lon="7.27748">
        <ele>388.8</ele>
        <time>2021-07-02T09:43:57Z</time>
      </trkpt>
      <trkpt lat="48.03239" lon="7.27732">
        <ele>390</ele>
        <time>2021-07-02T09:44:02Z</time>
      </trkpt>
      <trkpt lat="48.03241" lon="7.27727">
        <ele>391.4</ele>
        <time>2021-07-02T09:44:05Z</time>
      </trkpt>
      <trkpt lat="48.03242" lon="7.27725">
        <ele>391.6</ele>
        <time>2021-07-02T09:44:06Z</time>
      </trkpt>
      <trkpt lat="48.03243" lon="7.27724">
        <ele>392.2</ele>
        <time>2021-07-02T09:44:07Z</time>
      </trkpt>
      <trkpt lat="48.03247" lon="7.27722">
        <ele>392.8</ele>
        <time>2021-07-02T09:44:09Z</time>
      </trkpt>
      <trkpt lat="48.03253" lon="7.27716">
        <ele>393.6</ele>
        <time>2021-07-02T09:44:13Z</time>
      </trkpt>
      <trkpt lat="48.03255" lon="7.27715">
        <ele>394</ele>
        <time>2021-07-02T09:44:14Z</time>
      </trkpt>
      <trkpt lat="48.03265" lon="7.27708">
        <ele>395</ele>
        <time>2021-07-02T09:44:19Z</time>
      </trkpt>
      <trkpt lat="48.03267" lon="7.27706">
        <ele>395.2</ele>
        <time>2021-07-02T09:44:20Z</time>
      </trkpt>
      <trkpt lat="48.03273" lon="7.27703">
        <ele>396.2</ele>
        <time>2021-07-02T09:44:23Z</time>
      </trkpt>
      <trkpt lat="48.03277" lon="7.27702">
        <ele>397.2</ele>
        <time>2021-07-02T09:44:26Z</time>
      </trkpt>
      <trkpt lat="48.03285" lon="7.27695">
        <ele>398.4</ele>
        <time>2021-07-02T09:44:30Z</time>
      </trkpt>
      <trkpt lat="48.0329" lon="7.27691">
        <ele>399</ele>
        <time>2021-07-02T09:44:33Z</time>
      </trkpt>
      <trkpt lat="48.03292" lon="7.2769">
        <ele>399.4</ele>
        <time>2021-07-02T09:44:34Z</time>
      </trkpt>
      <trkpt lat="48.03299" lon="7.27685">
        <ele>400.4</ele>
        <time>2021-07-02T09:44:38Z</time>
      </trkpt>
      <trkpt lat="48.03302" lon="7.27682">
        <ele>401</ele>
        <time>2021-07-02T09:44:40Z</time>
      </trkpt>
      <trkpt lat="48.03307" lon="7.2768">
        <ele>401.8</ele>
        <time>2021-07-02T09:44:42Z</time>
      </trkpt>
      <trkpt lat="48.03314" lon="7.27675">
        <ele>402.8</ele>
        <time>2021-07-02T09:44:46Z</time>
      </trkpt>
      <trkpt lat="48.03317" lon="7.27672">
        <ele>403.2</ele>
        <time>2021-07-02T09:44:48Z</time>
      </trkpt>
      <trkpt lat="48.0332" lon="7.27668">
        <ele>403.8</ele>
        <time>2021-07-02T09:44:50Z</time>
      </trkpt>
      <trkpt lat="48.03326" lon="7.27663">
        <ele>404.8</ele>
        <time>2021-07-02T09:44:53Z</time>
      </trkpt>
      <trkpt lat="48.03328" lon="7.27661">
        <ele>405.2</ele>
        <time>2021-07-02T09:44:54Z</time>
      </trkpt>
      <trkpt lat="48.03331" lon="7.27658">
        <ele>405.6</ele>
        <time>2021-07-02T09:44:56Z</time>
      </trkpt>
      <trkpt lat="48.03332" lon="7.27657">
        <ele>405.8</ele>
        <time>2021-07-02T09:44:57Z</time>
      </trkpt>
      <trkpt lat="48.03336" lon="7.27654">
        <ele>406.4</ele>
        <time>2021-07-02T09:44:59Z</time>
      </trkpt>
      <trkpt lat="48.03339" lon="7.27652">
        <ele>406.8</ele>
        <time>2021-07-02T09:45:01Z</time>
      </trkpt>
      <trkpt lat="48.03345" lon="7.27651">
        <ele>408</ele>
        <time>2021-07-02T09:45:04Z</time>
      </trkpt>
      <trkpt lat="48.03346" lon="7.2765">
        <ele>408.4</ele>
        <time>2021-07-02T09:45:05Z</time>
      </trkpt>
      <trkpt lat="48.03351" lon="7.27647">
        <ele>409</ele>
        <time>2021-07-02T09:45:08Z</time>
      </trkpt>
      <trkpt lat="48.03355" lon="7.27646">
        <ele>409.8</ele>
        <time>2021-07-02T09:45:11Z</time>
      </trkpt>
      <trkpt lat="48.03359" lon="7.27645">
        <ele>410.2</ele>
        <time>2021-07-02T09:45:13Z</time>
      </trkpt>
      <trkpt lat="48.03363" lon="7.27644">
        <ele>410.8</ele>
        <time>2021-07-02T09:45:15Z</time>
      </trkpt>
      <trkpt lat="48.03368" lon="7.27644">
        <ele>411.4</ele>
        <time>2021-07-02T09:45:18Z</time>
      </trkpt>
      <trkpt lat="48.03373" lon="7.27642">
        <ele>412.4</ele>
        <time>2021-07-02T09:45:21Z</time>
      </trkpt>
      <trkpt lat="48.0338" lon="7.2764">
        <ele>413.2</ele>
        <time>2021-07-02T09:45:25Z</time>
      </trkpt>
      <trkpt lat="48.03383" lon="7.27639">
        <ele>414</ele>
        <time>2021-07-02T09:45:27Z</time>
      </trkpt>
      <trkpt lat="48.0339" lon="7.27634">
        <ele>415</ele>
        <time>2021-07-02T09:45:31Z</time>
      </trkpt>
      <trkpt lat="48.03395" lon="7.27631">
        <ele>415.6</ele>
        <time>2021-07-02T09:45:33Z</time>
      </trkpt>
      <trkpt lat="48.03396" lon="7.27628">
        <ele>416</ele>
        <time>2021-07-02T09:45:35Z</time>
      </trkpt>
      <trkpt lat="48.03397" lon="7.27627">
        <ele>416.4</ele>
        <time>2021-07-02T09:45:36Z</time>
      </trkpt>
      <trkpt lat="48.03398" lon="7.27627">
        <ele>416.8</ele>
        <time>2021-07-02T09:45:37Z</time>
      </trkpt>
      <trkpt lat="48.03403" lon="7.27622">
        <ele>417.6</ele>
        <time>2021-07-02T09:45:40Z</time>
      </trkpt>
      <trkpt lat="48.03404" lon="7.27621">
        <ele>417.8</ele>
        <time>2021-07-02T09:45:41Z</time>
      </trkpt>
      <trkpt lat="48.03407" lon="7.27615">
        <ele>418.6</ele>
        <time>2021-07-02T09:45:44Z</time>
      </trkpt>
      <trkpt lat="48.03412" lon="7.27608">
        <ele>419.4</ele>
        <time>2021-07-02T09:45:47Z</time>
      </trkpt>
      <trkpt lat="48.03415" lon="7.27606">
        <ele>419.8</ele>
        <time>2021-07-02T09:45:48Z</time>
      </trkpt>
      <trkpt lat="48.03417" lon="7.27594">
        <ele>421.2</ele>
        <time>2021-07-02T09:45:53Z</time>
      </trkpt>
      <trkpt lat="48.03417" lon="7.27593">
        <ele>421.4</ele>
        <time>2021-07-02T09:45:54Z</time>
      </trkpt>
      <trkpt lat="48.03421" lon="7.27585">
        <ele>422.2</ele>
        <time>2021-07-02T09:45:58Z</time>
      </trkpt>
      <trkpt lat="48.03423" lon="7.27576">
        <ele>423</ele>
        <time>2021-07-02T09:46:01Z</time>
      </trkpt>
      <trkpt lat="48.03423" lon="7.27576">
        <ele>423.2</ele>
        <time>2021-07-02T09:46:02Z</time>
      </trkpt>
      <trkpt lat="48.03428" lon="7.27566">
        <ele>424.2</ele>
        <time>2021-07-02T09:46:06Z</time>
      </trkpt>
      <trkpt lat="48.03435" lon="7.27552">
        <ele>425.2</ele>
        <time>2021-07-02T09:46:10Z</time>
      </trkpt>
      <trkpt lat="48.03437" lon="7.27548">
        <ele>425.8</ele>
        <time>2021-07-02T09:46:11Z</time>
      </trkpt>
      <trkpt lat="48.03439" lon="7.27545">
        <ele>426</ele>
        <time>2021-07-02T09:46:12Z</time>
      </trkpt>
      <trkpt lat="48.0344" lon="7.27541">
        <ele>427</ele>
        <time>2021-07-02T09:46:14Z</time>
      </trkpt>
      <trkpt lat="48.03443" lon="7.27534">
        <ele>427.4</ele>
        <time>2021-07-02T09:46:17Z</time>
      </trkpt>
      <trkpt lat="48.03447" lon="7.27531">
        <ele>428</ele>
        <time>2021-07-02T09:46:19Z</time>
      </trkpt>
      <trkpt lat="48.03446" lon="7.27526">
        <ele>428.6</ele>
        <time>2021-07-02T09:46:21Z</time>
      </trkpt>
      <trkpt lat="48.03448" lon="7.27524">
        <ele>429</ele>
        <time>2021-07-02T09:46:22Z</time>
      </trkpt>
      <trkpt lat="48.03449" lon="7.27522">
        <ele>429.4</ele>
        <time>2021-07-02T09:46:23Z</time>
      </trkpt>
      <trkpt lat="48.0345" lon="7.27521">
        <ele>429.6</ele>
        <time>2021-07-02T09:46:24Z</time>
      </trkpt>
      <trkpt lat="48.03455" lon="7.27515">
        <ele>430.2</ele>
        <time>2021-07-02T09:46:27Z</time>
      </trkpt>
      <trkpt lat="48.0346" lon="7.27512">
        <ele>430.8</ele>
        <time>2021-07-02T09:46:30Z</time>
      </trkpt>
      <trkpt lat="48.03466" lon="7.27504">
        <ele>431.6</ele>
        <time>2021-07-02T09:46:34Z</time>
      </trkpt>
      <trkpt lat="48.03468" lon="7.27504">
        <ele>431.8</ele>
        <time>2021-07-02T09:46:35Z</time>
      </trkpt>
      <trkpt lat="48.03469" lon="7.275">
        <ele>432.4</ele>
        <time>2021-07-02T09:46:37Z</time>
      </trkpt>
      <trkpt lat="48.03471" lon="7.27496">
        <ele>433</ele>
        <time>2021-07-02T09:46:39Z</time>
      </trkpt>
      <trkpt lat="48.03474" lon="7.27491">
        <ele>433.8</ele>
        <time>2021-07-02T09:46:43Z</time>
      </trkpt>
      <trkpt lat="48.03475" lon="7.2749">
        <ele>434.2</ele>
        <time>2021-07-02T09:46:44Z</time>
      </trkpt>
      <trkpt lat="48.03478" lon="7.27484">
        <ele>435</ele>
        <time>2021-07-02T09:46:48Z</time>
      </trkpt>
      <trkpt lat="48.03479" lon="7.27482">
        <ele>435.2</ele>
        <time>2021-07-02T09:46:49Z</time>
      </trkpt>
      <trkpt lat="48.03479" lon="7.2748">
        <ele>435.4</ele>
        <time>2021-07-02T09:46:50Z</time>
      </trkpt>
      <trkpt lat="48.0348" lon="7.27478">
        <ele>435.6</ele>
        <time>2021-07-02T09:46:51Z</time>
      </trkpt>
      <trkpt lat="48.03481" lon="7.27475">
        <ele>436.2</ele>
        <time>2021-07-02T09:46:53Z</time>
      </trkpt>
      <trkpt lat="48.03483" lon="7.27468">
        <ele>436.6</ele>
        <time>2021-07-02T09:46:56Z</time>
      </trkpt>
      <trkpt lat="48.03485" lon="7.27464">
        <ele>437</ele>
        <time>2021-07-02T09:46:58Z</time>
      </trkpt>
      <trkpt lat="48.03485" lon="7.2746">
        <ele>437.4</ele>
        <time>2021-07-02T09:46:59Z</time>
      </trkpt>
      <trkpt lat="48.03487" lon="7.27456">
        <ele>438</ele>
        <time>2021-07-02T09:47:01Z</time>
      </trkpt>
      <trkpt lat="48.03489" lon="7.27446">
        <ele>438.8</ele>
        <time>2021-07-02T09:47:04Z</time>
      </trkpt>
      <trkpt lat="48.03492" lon="7.27439">
        <ele>439.6</ele>
        <time>2021-07-02T09:47:08Z</time>
      </trkpt>
      <trkpt lat="48.03492" lon="7.27436">
        <ele>440.2</ele>
        <time>2021-07-02T09:47:09Z</time>
      </trkpt>
      <trkpt lat="48.03491" lon="7.27432">
        <ele>440.4</ele>
        <time>2021-07-02T09:47:10Z</time>
      </trkpt>
      <trkpt lat="48.0349" lon="7.27416">
        <ele>441.4</ele>
        <time>2021-07-02T09:47:15Z</time>
      </trkpt>
      <trkpt lat="48.03495" lon="7.27408">
        <ele>442.6</ele>
        <time>2021-07-02T09:47:20Z</time>
      </trkpt>
      <trkpt lat="48.03496" lon="7.27396">
        <ele>443.2</ele>
        <time>2021-07-02T09:47:23Z</time>
      </trkpt>
      <trkpt lat="48.03498" lon="7.27394">
        <ele>443.6</ele>
        <time>2021-07-02T09:47:24Z</time>
      </trkpt>
      <trkpt lat="48.03501" lon="7.27391">
        <ele>443.8</ele>
        <time>2021-07-02T09:47:25Z</time>
      </trkpt>
      <trkpt lat="48.03504" lon="7.27383">
        <ele>445.2</ele>
        <time>2021-07-02T09:47:29Z</time>
      </trkpt>
      <trkpt lat="48.03503" lon="7.27372">
        <ele>446.2</ele>
        <time>2021-07-02T09:47:33Z</time>
      </trkpt>
      <trkpt lat="48.03503" lon="7.27364">
        <ele>446.8</ele>
        <time>2021-07-02T09:47:36Z</time>
      </trkpt>
      <trkpt lat="48.03503" lon="7.27361">
        <ele>447.4</ele>
        <time>2021-07-02T09:47:38Z</time>
      </trkpt>
      <trkpt lat="48.03507" lon="7.27354">
        <ele>447.6</ele>
        <time>2021-07-02T09:47:40Z</time>
      </trkpt>
      <trkpt lat="48.03511" lon="7.27339">
        <ele>448.4</ele>
        <time>2021-07-02T09:47:44Z</time>
      </trkpt>
      <trkpt lat="48.03512" lon="7.27332">
        <ele>449.6</ele>
        <time>2021-07-02T09:47:47Z</time>
      </trkpt>
      <trkpt lat="48.03513" lon="7.27331">
        <ele>449.6</ele>
        <time>2021-07-02T09:47:48Z</time>
      </trkpt>
      <trkpt lat="48.03516" lon="7.27325">
        <ele>450.4</ele>
        <time>2021-07-02T09:47:50Z</time>
      </trkpt>
      <trkpt lat="48.03514" lon="7.2731">
        <ele>451.6</ele>
        <time>2021-07-02T09:47:54Z</time>
      </trkpt>
      <trkpt lat="48.03515" lon="7.27307">
        <ele>452.2</ele>
        <time>2021-07-02T09:47:57Z</time>
      </trkpt>
      <trkpt lat="48.03515" lon="7.273">
        <ele>452.8</ele>
        <time>2021-07-02T09:47:59Z</time>
      </trkpt>
      <trkpt lat="48.03516" lon="7.27298">
        <ele>453</ele>
        <time>2021-07-02T09:48:00Z</time>
      </trkpt>
      <trkpt lat="48.03516" lon="7.27296">
        <ele>453.4</ele>
        <time>2021-07-02T09:48:01Z</time>
      </trkpt>
      <trkpt lat="48.03517" lon="7.27293">
        <ele>454.2</ele>
        <time>2021-07-02T09:48:03Z</time>
      </trkpt>
      <trkpt lat="48.03517" lon="7.27289">
        <ele>454.8</ele>
        <time>2021-07-02T09:48:05Z</time>
      </trkpt>
      <trkpt lat="48.03518" lon="7.27286">
        <ele>455.2</ele>
        <time>2021-07-02T09:48:06Z</time>
      </trkpt>
      <trkpt lat="48.03518" lon="7.27283">
        <ele>455.4</ele>
        <time>2021-07-02T09:48:07Z</time>
      </trkpt>
      <trkpt lat="48.03519" lon="7.27277">
        <ele>456</ele>
        <time>2021-07-02T09:48:10Z</time>
      </trkpt>
      <trkpt lat="48.03519" lon="7.27275">
        <ele>456.2</ele>
        <time>2021-07-02T09:48:11Z</time>
      </trkpt>
      <trkpt lat="48.03519" lon="7.27273">
        <ele>456.6</ele>
        <time>2021-07-02T09:48:12Z</time>
      </trkpt>
      <trkpt lat="48.03519" lon="7.27265">
        <ele>457.6</ele>
        <time>2021-07-02T09:48:15Z</time>
      </trkpt>
      <trkpt lat="48.0352" lon="7.27263">
        <ele>457.8</ele>
        <time>2021-07-02T09:48:16Z</time>
      </trkpt>
      <trkpt lat="48.03521" lon="7.27258">
        <ele>458.4</ele>
        <time>2021-07-02T09:48:18Z</time>
      </trkpt>
      <trkpt lat="48.03522" lon="7.27256">
        <ele>458.6</ele>
        <time>2021-07-02T09:48:19Z</time>
      </trkpt>
      <trkpt lat="48.03523" lon="7.27249">
        <ele>459.2</ele>
        <time>2021-07-02T09:48:21Z</time>
      </trkpt>
      <trkpt lat="48.03525" lon="7.27244">
        <ele>459.6</ele>
        <time>2021-07-02T09:48:23Z</time>
      </trkpt>
      <trkpt lat="48.03528" lon="7.27227">
        <ele>461</ele>
        <time>2021-07-02T09:48:28Z</time>
      </trkpt>
      <trkpt lat="48.03532" lon="7.27218">
        <ele>462</ele>
        <time>2021-07-02T09:48:31Z</time>
      </trkpt>
      <trkpt lat="48.03535" lon="7.27207">
        <ele>462.6</ele>
        <time>2021-07-02T09:48:34Z</time>
      </trkpt>
      <trkpt lat="48.03535" lon="7.272">
        <ele>463.2</ele>
        <time>2021-07-02T09:48:36Z</time>
      </trkpt>
      <trkpt lat="48.03536" lon="7.27192">
        <ele>463.6</ele>
        <time>2021-07-02T09:48:38Z</time>
      </trkpt>
      <trkpt lat="48.03538" lon="7.27186">
        <ele>464.2</ele>
        <time>2021-07-02T09:48:40Z</time>
      </trkpt>
      <trkpt lat="48.03542" lon="7.27177">
        <ele>465</ele>
        <time>2021-07-02T09:48:44Z</time>
      </trkpt>
      <trkpt lat="48.03543" lon="7.27174">
        <ele>465</ele>
        <time>2021-07-02T09:48:45Z</time>
      </trkpt>
      <trkpt lat="48.03545" lon="7.27159">
        <ele>466.2</ele>
        <time>2021-07-02T09:48:50Z</time>
      </trkpt>
      <trkpt lat="48.03542" lon="7.27154">
        <ele>467</ele>
        <time>2021-07-02T09:48:52Z</time>
      </trkpt>
      <trkpt lat="48.03544" lon="7.27149">
        <ele>467.4</ele>
        <time>2021-07-02T09:48:55Z</time>
      </trkpt>
      <trkpt lat="48.03544" lon="7.27147">
        <ele>467.8</ele>
        <time>2021-07-02T09:48:56Z</time>
      </trkpt>
      <trkpt lat="48.03545" lon="7.27145">
        <ele>468.4</ele>
        <time>2021-07-02T09:48:58Z</time>
      </trkpt>
      <trkpt lat="48.03546" lon="7.27143">
        <ele>468.4</ele>
        <time>2021-07-02T09:48:59Z</time>
      </trkpt>
      <trkpt lat="48.03549" lon="7.27135">
        <ele>469.6</ele>
        <time>2021-07-02T09:49:03Z</time>
      </trkpt>
      <trkpt lat="48.03551" lon="7.27131">
        <ele>470.2</ele>
        <time>2021-07-02T09:49:05Z</time>
      </trkpt>
      <trkpt lat="48.03551" lon="7.2713">
        <ele>470.2</ele>
        <time>2021-07-02T09:49:06Z</time>
      </trkpt>
      <trkpt lat="48.03552" lon="7.27128">
        <ele>470.6</ele>
        <time>2021-07-02T09:49:07Z</time>
      </trkpt>
      <trkpt lat="48.03553" lon="7.27123">
        <ele>471.2</ele>
        <time>2021-07-02T09:49:09Z</time>
      </trkpt>
      <trkpt lat="48.03554" lon="7.27119">
        <ele>471.4</ele>
        <time>2021-07-02T09:49:11Z</time>
      </trkpt>
      <trkpt lat="48.03555" lon="7.27117">
        <ele>471.8</ele>
        <time>2021-07-02T09:49:12Z</time>
      </trkpt>
      <trkpt lat="48.03559" lon="7.27111">
        <ele>472.6</ele>
        <time>2021-07-02T09:49:15Z</time>
      </trkpt>
      <trkpt lat="48.03561" lon="7.27105">
        <ele>472.8</ele>
        <time>2021-07-02T09:49:17Z</time>
      </trkpt>
      <trkpt lat="48.03563" lon="7.27098">
        <ele>473</ele>
        <time>2021-07-02T09:49:18Z</time>
      </trkpt>
      <trkpt lat="48.03564" lon="7.27095">
        <ele>473.2</ele>
        <time>2021-07-02T09:49:19Z</time>
      </trkpt>
      <trkpt lat="48.03565" lon="7.27093">
        <ele>473.4</ele>
        <time>2021-07-02T09:49:20Z</time>
      </trkpt>
      <trkpt lat="48.03566" lon="7.2709">
        <ele>473.8</ele>
        <time>2021-07-02T09:49:21Z</time>
      </trkpt>
      <trkpt lat="48.03567" lon="7.27082">
        <ele>474.4</ele>
        <time>2021-07-02T09:49:23Z</time>
      </trkpt>
      <trkpt lat="48.03572" lon="7.27063">
        <ele>475.2</ele>
        <time>2021-07-02T09:49:28Z</time>
      </trkpt>
      <trkpt lat="48.03573" lon="7.2706">
        <ele>475.2</ele>
        <time>2021-07-02T09:49:29Z</time>
      </trkpt>
      <trkpt lat="48.03575" lon="7.27055">
        <ele>475.8</ele>
        <time>2021-07-02T09:49:31Z</time>
      </trkpt>
      <trkpt lat="48.03577" lon="7.27055">
        <ele>476</ele>
        <time>2021-07-02T09:49:32Z</time>
      </trkpt>
      <trkpt lat="48.03578" lon="7.27052">
        <ele>476.4</ele>
        <time>2021-07-02T09:49:33Z</time>
      </trkpt>
      <trkpt lat="48.03581" lon="7.27045">
        <ele>477</ele>
        <time>2021-07-02T09:49:36Z</time>
      </trkpt>
      <trkpt lat="48.03582" lon="7.27042">
        <ele>477.4</ele>
        <time>2021-07-02T09:49:37Z</time>
      </trkpt>
      <trkpt lat="48.03584" lon="7.27032">
        <ele>478.4</ele>
        <time>2021-07-02T09:49:42Z</time>
      </trkpt>
      <trkpt lat="48.03586" lon="7.2702">
        <ele>479.8</ele>
        <time>2021-07-02T09:49:48Z</time>
      </trkpt>
      <trkpt lat="48.03586" lon="7.27013">
        <ele>480.8</ele>
        <time>2021-07-02T09:49:51Z</time>
      </trkpt>
      <trkpt lat="48.03587" lon="7.27011">
        <ele>480.8</ele>
        <time>2021-07-02T09:49:52Z</time>
      </trkpt>
      <trkpt lat="48.03587" lon="7.26998">
        <ele>481.8</ele>
        <time>2021-07-02T09:49:57Z</time>
      </trkpt>
      <trkpt lat="48.03588" lon="7.26992">
        <ele>482.4</ele>
        <time>2021-07-02T09:49:59Z</time>
      </trkpt>
      <trkpt lat="48.03588" lon="7.26987">
        <ele>483</ele>
        <time>2021-07-02T09:50:01Z</time>
      </trkpt>
      <trkpt lat="48.03588" lon="7.26985">
        <ele>483.2</ele>
        <time>2021-07-02T09:50:02Z</time>
      </trkpt>
      <trkpt lat="48.03588" lon="7.26984">
        <ele>483.2</ele>
        <time>2021-07-02T09:50:03Z</time>
      </trkpt>
      <trkpt lat="48.0359" lon="7.26979">
        <ele>483.8</ele>
        <time>2021-07-02T09:50:05Z</time>
      </trkpt>
      <trkpt lat="48.0359" lon="7.26976">
        <ele>484</ele>
        <time>2021-07-02T09:50:06Z</time>
      </trkpt>
      <trkpt lat="48.0359" lon="7.2697">
        <ele>484.8</ele>
        <time>2021-07-02T09:50:08Z</time>
      </trkpt>
      <trkpt lat="48.0359" lon="7.26967">
        <ele>485</ele>
        <time>2021-07-02T09:50:09Z</time>
      </trkpt>
      <trkpt lat="48.03591" lon="7.26963">
        <ele>485.2</ele>
        <time>2021-07-02T09:50:10Z</time>
      </trkpt>
      <trkpt lat="48.03593" lon="7.26951">
        <ele>486.2</ele>
        <time>2021-07-02T09:50:13Z</time>
      </trkpt>
      <trkpt lat="48.03593" lon="7.26944">
        <ele>486.6</ele>
        <time>2021-07-02T09:50:15Z</time>
      </trkpt>
      <trkpt lat="48.03595" lon="7.26938">
        <ele>487</ele>
        <time>2021-07-02T09:50:17Z</time>
      </trkpt>
      <trkpt lat="48.03596" lon="7.26934">
        <ele>487.2</ele>
        <time>2021-07-02T09:50:18Z</time>
      </trkpt>
      <trkpt lat="48.03595" lon="7.26929">
        <ele>487.4</ele>
        <time>2021-07-02T09:50:19Z</time>
      </trkpt>
      <trkpt lat="48.03594" lon="7.26919">
        <ele>487.8</ele>
        <time>2021-07-02T09:50:22Z</time>
      </trkpt>
      <trkpt lat="48.03596" lon="7.26911">
        <ele>488.4</ele>
        <time>2021-07-02T09:50:25Z</time>
      </trkpt>
      <trkpt lat="48.0359" lon="7.26894">
        <ele>489.6</ele>
        <time>2021-07-02T09:50:31Z</time>
      </trkpt>
      <trkpt lat="48.03586" lon="7.26883">
        <ele>490.8</ele>
        <time>2021-07-02T09:50:36Z</time>
      </trkpt>
      <trkpt lat="48.03586" lon="7.26881">
        <ele>491</ele>
        <time>2021-07-02T09:50:37Z</time>
      </trkpt>
      <trkpt lat="48.03581" lon="7.26874">
        <ele>491.6</ele>
        <time>2021-07-02T09:50:41Z</time>
      </trkpt>
      <trkpt lat="48.0358" lon="7.26869">
        <ele>492.2</ele>
        <time>2021-07-02T09:50:43Z</time>
      </trkpt>
      <trkpt lat="48.0358" lon="7.26865">
        <ele>492.2</ele>
        <time>2021-07-02T09:50:44Z</time>
      </trkpt>
      <trkpt lat="48.0358" lon="7.26856">
        <ele>492.8</ele>
        <time>2021-07-02T09:50:46Z</time>
      </trkpt>
      <trkpt lat="48.03579" lon="7.26831">
        <ele>494</ele>
        <time>2021-07-02T09:50:52Z</time>
      </trkpt>
      <trkpt lat="48.0358" lon="7.26824">
        <ele>494.2</ele>
        <time>2021-07-02T09:50:54Z</time>
      </trkpt>
      <trkpt lat="48.0358" lon="7.2681">
        <ele>495.2</ele>
        <time>2021-07-02T09:50:58Z</time>
      </trkpt>
      <trkpt lat="48.03582" lon="7.26802">
        <ele>495.6</ele>
        <time>2021-07-02T09:51:00Z</time>
      </trkpt>
      <trkpt lat="48.03584" lon="7.26797">
        <ele>495.8</ele>
        <time>2021-07-02T09:51:01Z</time>
      </trkpt>
      <trkpt lat="48.03585" lon="7.26795">
        <ele>496</ele>
        <time>2021-07-02T09:51:02Z</time>
      </trkpt>
      <trkpt lat="48.03587" lon="7.26787">
        <ele>496</ele>
        <time>2021-07-02T09:51:04Z</time>
      </trkpt>
      <trkpt lat="48.03584" lon="7.26776">
        <ele>496.8</ele>
        <time>2021-07-02T09:51:07Z</time>
      </trkpt>
      <trkpt lat="48.03584" lon="7.26772">
        <ele>497.4</ele>
        <time>2021-07-02T09:51:08Z</time>
      </trkpt>
      <trkpt lat="48.03584" lon="7.26757">
        <ele>498.4</ele>
        <time>2021-07-02T09:51:13Z</time>
      </trkpt>
      <trkpt lat="48.03582" lon="7.26738">
        <ele>499.4</ele>
        <time>2021-07-02T09:51:19Z</time>
      </trkpt>
      <trkpt lat="48.03581" lon="7.26731">
        <ele>499.6</ele>
        <time>2021-07-02T09:51:21Z</time>
      </trkpt>
      <trkpt lat="48.03581" lon="7.26722">
        <ele>500.6</ele>
        <time>2021-07-02T09:51:24Z</time>
      </trkpt>
      <trkpt lat="48.03579" lon="7.26713">
        <ele>501.4</ele>
        <time>2021-07-02T09:51:27Z</time>
      </trkpt>
      <trkpt lat="48.03579" lon="7.26708">
        <ele>501.8</ele>
        <time>2021-07-02T09:51:29Z</time>
      </trkpt>
      <trkpt lat="48.03578" lon="7.26701">
        <ele>502.6</ele>
        <time>2021-07-02T09:51:32Z</time>
      </trkpt>
      <trkpt lat="48.03578" lon="7.26698">
        <ele>502.8</ele>
        <time>2021-07-02T09:51:33Z</time>
      </trkpt>
      <trkpt lat="48.03578" lon="7.26693">
        <ele>503.2</ele>
        <time>2021-07-02T09:51:35Z</time>
      </trkpt>
      <trkpt lat="48.03578" lon="7.26689">
        <ele>503.6</ele>
        <time>2021-07-02T09:51:37Z</time>
      </trkpt>
      <trkpt lat="48.03578" lon="7.26687">
        <ele>503.8</ele>
        <time>2021-07-02T09:51:38Z</time>
      </trkpt>
      <trkpt lat="48.03578" lon="7.26678">
        <ele>505</ele>
        <time>2021-07-02T09:51:42Z</time>
      </trkpt>
      <trkpt lat="48.03578" lon="7.26675">
        <ele>505.2</ele>
        <time>2021-07-02T09:51:43Z</time>
      </trkpt>
      <trkpt lat="48.03579" lon="7.26667">
        <ele>505.8</ele>
        <time>2021-07-02T09:51:46Z</time>
      </trkpt>
      <trkpt lat="48.0358" lon="7.26665">
        <ele>506.2</ele>
        <time>2021-07-02T09:51:47Z</time>
      </trkpt>
      <trkpt lat="48.03581" lon="7.26659">
        <ele>507</ele>
        <time>2021-07-02T09:51:49Z</time>
      </trkpt>
      <trkpt lat="48.03581" lon="7.26655">
        <ele>507</ele>
        <time>2021-07-02T09:51:50Z</time>
      </trkpt>
      <trkpt lat="48.03581" lon="7.2665">
        <ele>507.2</ele>
        <time>2021-07-02T09:51:52Z</time>
      </trkpt>
      <trkpt lat="48.03583" lon="7.26638">
        <ele>508.4</ele>
        <time>2021-07-02T09:51:56Z</time>
      </trkpt>
      <trkpt lat="48.03583" lon="7.2663">
        <ele>508.6</ele>
        <time>2021-07-02T09:51:58Z</time>
      </trkpt>
      <trkpt lat="48.03584" lon="7.2662">
        <ele>509.6</ele>
        <time>2021-07-02T09:52:01Z</time>
      </trkpt>
      <trkpt lat="48.03588" lon="7.2661">
        <ele>510.6</ele>
        <time>2021-07-02T09:52:05Z</time>
      </trkpt>
      <trkpt lat="48.03588" lon="7.26607">
        <ele>511.2</ele>
        <time>2021-07-02T09:52:07Z</time>
      </trkpt>
      <trkpt lat="48.03588" lon="7.26604">
        <ele>511.8</ele>
        <time>2021-07-02T09:52:10Z</time>
      </trkpt>
      <trkpt lat="48.0359" lon="7.266">
        <ele>512.6</ele>
        <time>2021-07-02T09:52:14Z</time>
      </trkpt>
      <trkpt lat="48.03591" lon="7.26598">
        <ele>512.8</ele>
        <time>2021-07-02T09:52:16Z</time>
      </trkpt>
      <trkpt lat="48.03592" lon="7.26596">
        <ele>513.4</ele>
        <time>2021-07-02T09:52:18Z</time>
      </trkpt>
      <trkpt lat="48.03596" lon="7.26593">
        <ele>514</ele>
        <time>2021-07-02T09:52:20Z</time>
      </trkpt>
      <trkpt lat="48.03598" lon="7.2659">
        <ele>514.2</ele>
        <time>2021-07-02T09:52:21Z</time>
      </trkpt>
      <trkpt lat="48.03601" lon="7.26582">
        <ele>514.8</ele>
        <time>2021-07-02T09:52:25Z</time>
      </trkpt>
      <trkpt lat="48.03604" lon="7.26577">
        <ele>515.2</ele>
        <time>2021-07-02T09:52:27Z</time>
      </trkpt>
      <trkpt lat="48.03605" lon="7.26575">
        <ele>515.6</ele>
        <time>2021-07-02T09:52:29Z</time>
      </trkpt>
      <trkpt lat="48.03608" lon="7.26572">
        <ele>515.8</ele>
        <time>2021-07-02T09:52:30Z</time>
      </trkpt>
      <trkpt lat="48.03611" lon="7.26568">
        <ele>516.2</ele>
        <time>2021-07-02T09:52:32Z</time>
      </trkpt>
      <trkpt lat="48.03612" lon="7.26565">
        <ele>516.4</ele>
        <time>2021-07-02T09:52:33Z</time>
      </trkpt>
      <trkpt lat="48.03614" lon="7.26563">
        <ele>517.2</ele>
        <time>2021-07-02T09:52:35Z</time>
      </trkpt>
      <trkpt lat="48.0362" lon="7.26554">
        <ele>518.2</ele>
        <time>2021-07-02T09:52:40Z</time>
      </trkpt>
      <trkpt lat="48.03621" lon="7.26552">
        <ele>518.6</ele>
        <time>2021-07-02T09:52:41Z</time>
      </trkpt>
      <trkpt lat="48.03623" lon="7.26548">
        <ele>518.6</ele>
        <time>2021-07-02T09:52:42Z</time>
      </trkpt>
      <trkpt lat="48.03625" lon="7.26541">
        <ele>519.2</ele>
        <time>2021-07-02T09:52:44Z</time>
      </trkpt>
      <trkpt lat="48.03628" lon="7.26533">
        <ele>519.6</ele>
        <time>2021-07-02T09:52:47Z</time>
      </trkpt>
      <trkpt lat="48.03634" lon="7.26525">
        <ele>520.2</ele>
        <time>2021-07-02T09:52:50Z</time>
      </trkpt>
      <trkpt lat="48.03637" lon="7.26522">
        <ele>521.4</ele>
        <time>2021-07-02T09:52:53Z</time>
      </trkpt>
      <trkpt lat="48.03638" lon="7.26518">
        <ele>521.4</ele>
        <time>2021-07-02T09:52:54Z</time>
      </trkpt>
      <trkpt lat="48.03639" lon="7.26516">
        <ele>521.8</ele>
        <time>2021-07-02T09:52:55Z</time>
      </trkpt>
      <trkpt lat="48.03641" lon="7.26502">
        <ele>522.4</ele>
        <time>2021-07-02T09:53:00Z</time>
      </trkpt>
      <trkpt lat="48.03643" lon="7.26496">
        <ele>523</ele>
        <time>2021-07-02T09:53:02Z</time>
      </trkpt>
      <trkpt lat="48.03644" lon="7.26493">
        <ele>523.2</ele>
        <time>2021-07-02T09:53:03Z</time>
      </trkpt>
      <trkpt lat="48.03644" lon="7.26491">
        <ele>523.6</ele>
        <time>2021-07-02T09:53:04Z</time>
      </trkpt>
      <trkpt lat="48.03643" lon="7.26476">
        <ele>524.6</ele>
        <time>2021-07-02T09:53:09Z</time>
      </trkpt>
      <trkpt lat="48.03644" lon="7.26475">
        <ele>524.6</ele>
        <time>2021-07-02T09:53:10Z</time>
      </trkpt>
      <trkpt lat="48.03646" lon="7.26455">
        <ele>525.8</ele>
        <time>2021-07-02T09:53:15Z</time>
      </trkpt>
      <trkpt lat="48.03648" lon="7.26448">
        <ele>526</ele>
        <time>2021-07-02T09:53:17Z</time>
      </trkpt>
      <trkpt lat="48.03648" lon="7.26443">
        <ele>526.2</ele>
        <time>2021-07-02T09:53:18Z</time>
      </trkpt>
      <trkpt lat="48.03649" lon="7.26429">
        <ele>526.8</ele>
        <time>2021-07-02T09:53:21Z</time>
      </trkpt>
      <trkpt lat="48.03653" lon="7.26416">
        <ele>527.4</ele>
        <time>2021-07-02T09:53:24Z</time>
      </trkpt>
      <trkpt lat="48.03658" lon="7.26409">
        <ele>527.6</ele>
        <time>2021-07-02T09:53:27Z</time>
      </trkpt>
      <trkpt lat="48.03662" lon="7.26404">
        <ele>528</ele>
        <time>2021-07-02T09:53:29Z</time>
      </trkpt>
      <trkpt lat="48.03669" lon="7.26396">
        <ele>528.6</ele>
        <time>2021-07-02T09:53:32Z</time>
      </trkpt>
      <trkpt lat="48.03676" lon="7.26396">
        <ele>529</ele>
        <time>2021-07-02T09:53:35Z</time>
      </trkpt>
      <trkpt lat="48.03688" lon="7.26404">
        <ele>529.6</ele>
        <time>2021-07-02T09:53:40Z</time>
      </trkpt>
      <trkpt lat="48.03694" lon="7.26411">
        <ele>530.4</ele>
        <time>2021-07-02T09:53:43Z</time>
      </trkpt>
      <trkpt lat="48.03698" lon="7.26417">
        <ele>530.6</ele>
        <time>2021-07-02T09:53:45Z</time>
      </trkpt>
      <trkpt lat="48.03699" lon="7.2642">
        <ele>530.6</ele>
        <time>2021-07-02T09:53:46Z</time>
      </trkpt>
      <trkpt lat="48.03711" lon="7.26439">
        <ele>531.4</ele>
        <time>2021-07-02T09:53:52Z</time>
      </trkpt>
      <trkpt lat="48.03714" lon="7.26448">
        <ele>531.6</ele>
        <time>2021-07-02T09:53:54Z</time>
      </trkpt>
      <trkpt lat="48.03722" lon="7.26462">
        <ele>532.2</ele>
        <time>2021-07-02T09:53:58Z</time>
      </trkpt>
      <trkpt lat="48.03729" lon="7.26473">
        <ele>533</ele>
        <time>2021-07-02T09:54:01Z</time>
      </trkpt>
      <trkpt lat="48.03737" lon="7.26483">
        <ele>533.6</ele>
        <time>2021-07-02T09:54:04Z</time>
      </trkpt>
      <trkpt lat="48.03741" lon="7.2649">
        <ele>534</ele>
        <time>2021-07-02T09:54:06Z</time>
      </trkpt>
      <trkpt lat="48.03751" lon="7.26504">
        <ele>534.6</ele>
        <time>2021-07-02T09:54:10Z</time>
      </trkpt>
      <trkpt lat="48.0376" lon="7.26524">
        <ele>535</ele>
        <time>2021-07-02T09:54:14Z</time>
      </trkpt>
      <trkpt lat="48.03766" lon="7.26536">
        <ele>535.2</ele>
        <time>2021-07-02T09:54:17Z</time>
      </trkpt>
      <trkpt lat="48.03779" lon="7.26557">
        <ele>535.8</ele>
        <time>2021-07-02T09:54:22Z</time>
      </trkpt>
      <trkpt lat="48.03785" lon="7.26577">
        <ele>536</ele>
        <time>2021-07-02T09:54:26Z</time>
      </trkpt>
      <trkpt lat="48.0379" lon="7.26589">
        <ele>536.4</ele>
        <time>2021-07-02T09:54:29Z</time>
      </trkpt>
      <trkpt lat="48.03801" lon="7.26611">
        <ele>537.2</ele>
        <time>2021-07-02T09:54:34Z</time>
      </trkpt>
      <trkpt lat="48.03806" lon="7.26623">
        <ele>537.8</ele>
        <time>2021-07-02T09:54:37Z</time>
      </trkpt>
      <trkpt lat="48.0381" lon="7.26632">
        <ele>538.2</ele>
        <time>2021-07-02T09:54:39Z</time>
      </trkpt>
      <trkpt lat="48.03817" lon="7.26654">
        <ele>539.4</ele>
        <time>2021-07-02T09:54:44Z</time>
      </trkpt>
      <trkpt lat="48.03829" lon="7.26683">
        <ele>540.6</ele>
        <time>2021-07-02T09:54:51Z</time>
      </trkpt>
      <trkpt lat="48.03841" lon="7.26711">
        <ele>541.6</ele>
        <time>2021-07-02T09:54:57Z</time>
      </trkpt>
      <trkpt lat="48.03843" lon="7.26716">
        <ele>541.6</ele>
        <time>2021-07-02T09:54:58Z</time>
      </trkpt>
      <trkpt lat="48.03855" lon="7.26751">
        <ele>542.6</ele>
        <time>2021-07-02T09:55:05Z</time>
      </trkpt>
      <trkpt lat="48.03858" lon="7.26756">
        <ele>542.6</ele>
        <time>2021-07-02T09:55:06Z</time>
      </trkpt>
      <trkpt lat="48.03859" lon="7.2676">
        <ele>542.8</ele>
        <time>2021-07-02T09:55:07Z</time>
      </trkpt>
      <trkpt lat="48.03875" lon="7.26794">
        <ele>543</ele>
        <time>2021-07-02T09:55:14Z</time>
      </trkpt>
      <trkpt lat="48.03892" lon="7.2683">
        <ele>543.6</ele>
        <time>2021-07-02T09:55:22Z</time>
      </trkpt>
      <trkpt lat="48.039" lon="7.26848">
        <ele>544.2</ele>
        <time>2021-07-02T09:55:26Z</time>
      </trkpt>
      <trkpt lat="48.03907" lon="7.26858">
        <ele>544.6</ele>
        <time>2021-07-02T09:55:29Z</time>
      </trkpt>
      <trkpt lat="48.03914" lon="7.26869">
        <ele>545</ele>
        <time>2021-07-02T09:55:32Z</time>
      </trkpt>
      <trkpt lat="48.03931" lon="7.26897">
        <ele>545.2</ele>
        <time>2021-07-02T09:55:39Z</time>
      </trkpt>
      <trkpt lat="48.03937" lon="7.26904">
        <ele>545.4</ele>
        <time>2021-07-02T09:55:41Z</time>
      </trkpt>
      <trkpt lat="48.0394" lon="7.26908">
        <ele>545.6</ele>
        <time>2021-07-02T09:55:42Z</time>
      </trkpt>
      <trkpt lat="48.03944" lon="7.26912">
        <ele>545.8</ele>
        <time>2021-07-02T09:55:43Z</time>
      </trkpt>
      <trkpt lat="48.03954" lon="7.26918">
        <ele>546.4</ele>
        <time>2021-07-02T09:55:46Z</time>
      </trkpt>
      <trkpt lat="48.03972" lon="7.26923">
        <ele>546.8</ele>
        <time>2021-07-02T09:55:52Z</time>
      </trkpt>
      <trkpt lat="48.0399" lon="7.26923">
        <ele>547.8</ele>
        <time>2021-07-02T09:55:57Z</time>
      </trkpt>
      <trkpt lat="48.03993" lon="7.26922">
        <ele>548</ele>
        <time>2021-07-02T09:55:58Z</time>
      </trkpt>
      <trkpt lat="48.04001" lon="7.26919">
        <ele>548.6</ele>
        <time>2021-07-02T09:56:02Z</time>
      </trkpt>
      <trkpt lat="48.04002" lon="7.26919">
        <ele>549</ele>
        <time>2021-07-02T09:56:03Z</time>
      </trkpt>
      <trkpt lat="48.04008" lon="7.26918">
        <ele>549.6</ele>
        <time>2021-07-02T09:56:06Z</time>
      </trkpt>
      <trkpt lat="48.0401" lon="7.26917">
        <ele>550.2</ele>
        <time>2021-07-02T09:56:07Z</time>
      </trkpt>
      <trkpt lat="48.04012" lon="7.26916">
        <ele>550.6</ele>
        <time>2021-07-02T09:56:08Z</time>
      </trkpt>
      <trkpt lat="48.04014" lon="7.26915">
        <ele>550.8</ele>
        <time>2021-07-02T09:56:09Z</time>
      </trkpt>
      <trkpt lat="48.04019" lon="7.26914">
        <ele>551.4</ele>
        <time>2021-07-02T09:56:11Z</time>
      </trkpt>
      <trkpt lat="48.04029" lon="7.2691">
        <ele>552.2</ele>
        <time>2021-07-02T09:56:14Z</time>
      </trkpt>
      <trkpt lat="48.04039" lon="7.26905">
        <ele>553.8</ele>
        <time>2021-07-02T09:56:18Z</time>
      </trkpt>
      <trkpt lat="48.04045" lon="7.26897">
        <ele>554.4</ele>
        <time>2021-07-02T09:56:21Z</time>
      </trkpt>
      <trkpt lat="48.04049" lon="7.26891">
        <ele>555</ele>
        <time>2021-07-02T09:56:24Z</time>
      </trkpt>
      <trkpt lat="48.04052" lon="7.26882">
        <ele>555.8</ele>
        <time>2021-07-02T09:56:27Z</time>
      </trkpt>
      <trkpt lat="48.04055" lon="7.26881">
        <ele>556</ele>
        <time>2021-07-02T09:56:29Z</time>
      </trkpt>
      <trkpt lat="48.04058" lon="7.2687">
        <ele>556.6</ele>
        <time>2021-07-02T09:56:32Z</time>
      </trkpt>
      <trkpt lat="48.04057" lon="7.26863">
        <ele>557.2</ele>
        <time>2021-07-02T09:56:34Z</time>
      </trkpt>
      <trkpt lat="48.04058" lon="7.26855">
        <ele>557.8</ele>
        <time>2021-07-02T09:56:37Z</time>
      </trkpt>
      <trkpt lat="48.04059" lon="7.26852">
        <ele>558.2</ele>
        <time>2021-07-02T09:56:38Z</time>
      </trkpt>
      <trkpt lat="48.04059" lon="7.26846">
        <ele>558.2</ele>
        <time>2021-07-02T09:56:39Z</time>
      </trkpt>
      <trkpt lat="48.04063" lon="7.26831">
        <ele>559.6</ele>
        <time>2021-07-02T09:56:43Z</time>
      </trkpt>
      <trkpt lat="48.04065" lon="7.26824">
        <ele>560</ele>
        <time>2021-07-02T09:56:45Z</time>
      </trkpt>
      <trkpt lat="48.04067" lon="7.26817">
        <ele>560.6</ele>
        <time>2021-07-02T09:56:47Z</time>
      </trkpt>
      <trkpt lat="48.04068" lon="7.26805">
        <ele>561.4</ele>
        <time>2021-07-02T09:56:51Z</time>
      </trkpt>
      <trkpt lat="48.0407" lon="7.26797">
        <ele>561.8</ele>
        <time>2021-07-02T09:56:53Z</time>
      </trkpt>
      <trkpt lat="48.0407" lon="7.26791">
        <ele>562.6</ele>
        <time>2021-07-02T09:56:55Z</time>
      </trkpt>
      <trkpt lat="48.0407" lon="7.26779">
        <ele>563.8</ele>
        <time>2021-07-02T09:56:59Z</time>
      </trkpt>
      <trkpt lat="48.04071" lon="7.26778">
        <ele>564</ele>
        <time>2021-07-02T09:57:00Z</time>
      </trkpt>
      <trkpt lat="48.04072" lon="7.26769">
        <ele>565</ele>
        <time>2021-07-02T09:57:03Z</time>
      </trkpt>
      <trkpt lat="48.04073" lon="7.26761">
        <ele>565.4</ele>
        <time>2021-07-02T09:57:05Z</time>
      </trkpt>
      <trkpt lat="48.04073" lon="7.26755">
        <ele>565.8</ele>
        <time>2021-07-02T09:57:07Z</time>
      </trkpt>
      <trkpt lat="48.04074" lon="7.26752">
        <ele>566</ele>
        <time>2021-07-02T09:57:08Z</time>
      </trkpt>
      <trkpt lat="48.04075" lon="7.26737">
        <ele>567</ele>
        <time>2021-07-02T09:57:12Z</time>
      </trkpt>
      <trkpt lat="48.04076" lon="7.26734">
        <ele>567.2</ele>
        <time>2021-07-02T09:57:13Z</time>
      </trkpt>
      <trkpt lat="48.04076" lon="7.2672">
        <ele>568</ele>
        <time>2021-07-02T09:57:16Z</time>
      </trkpt>
      <trkpt lat="48.04077" lon="7.26712">
        <ele>568.2</ele>
        <time>2021-07-02T09:57:18Z</time>
      </trkpt>
      <trkpt lat="48.04076" lon="7.26708">
        <ele>568.6</ele>
        <time>2021-07-02T09:57:19Z</time>
      </trkpt>
      <trkpt lat="48.04076" lon="7.26705">
        <ele>568.8</ele>
        <time>2021-07-02T09:57:20Z</time>
      </trkpt>
      <trkpt lat="48.04075" lon="7.26699">
        <ele>569</ele>
        <time>2021-07-02T09:57:22Z</time>
      </trkpt>
      <trkpt lat="48.04075" lon="7.26697">
        <ele>569.8</ele>
        <time>2021-07-02T09:57:23Z</time>
      </trkpt>
      <trkpt lat="48.04075" lon="7.26694">
        <ele>570</ele>
        <time>2021-07-02T09:57:24Z</time>
      </trkpt>
      <trkpt lat="48.04076" lon="7.26685">
        <ele>570.6</ele>
        <time>2021-07-02T09:57:26Z</time>
      </trkpt>
      <trkpt lat="48.04076" lon="7.26681">
        <ele>570.8</ele>
        <time>2021-07-02T09:57:27Z</time>
      </trkpt>
      <trkpt lat="48.04077" lon="7.26664">
        <ele>571.6</ele>
        <time>2021-07-02T09:57:31Z</time>
      </trkpt>
      <trkpt lat="48.04078" lon="7.26661">
        <ele>571.8</ele>
        <time>2021-07-02T09:57:32Z</time>
      </trkpt>
      <trkpt lat="48.0408" lon="7.2665">
        <ele>572.6</ele>
        <time>2021-07-02T09:57:35Z</time>
      </trkpt>
      <trkpt lat="48.04081" lon="7.26647">
        <ele>572.8</ele>
        <time>2021-07-02T09:57:36Z</time>
      </trkpt>
      <trkpt lat="48.04081" lon="7.26639">
        <ele>573.8</ele>
        <time>2021-07-02T09:57:39Z</time>
      </trkpt>
      <trkpt lat="48.04081" lon="7.26629">
        <ele>574.4</ele>
        <time>2021-07-02T09:57:42Z</time>
      </trkpt>
      <trkpt lat="48.04081" lon="7.26624">
        <ele>575</ele>
        <time>2021-07-02T09:57:44Z</time>
      </trkpt>
      <trkpt lat="48.04082" lon="7.2661">
        <ele>575.6</ele>
        <time>2021-07-02T09:57:48Z</time>
      </trkpt>
      <trkpt lat="48.04081" lon="7.266">
        <ele>576</ele>
        <time>2021-07-02T09:57:50Z</time>
      </trkpt>
      <trkpt lat="48.04083" lon="7.26582">
        <ele>577.2</ele>
        <time>2021-07-02T09:57:55Z</time>
      </trkpt>
      <trkpt lat="48.04083" lon="7.26579">
        <ele>577.4</ele>
        <time>2021-07-02T09:57:56Z</time>
      </trkpt>
      <trkpt lat="48.04083" lon="7.26565">
        <ele>578.2</ele>
        <time>2021-07-02T09:58:00Z</time>
      </trkpt>
      <trkpt lat="48.04081" lon="7.26562">
        <ele>578.4</ele>
        <time>2021-07-02T09:58:01Z</time>
      </trkpt>
      <trkpt lat="48.04078" lon="7.26558">
        <ele>578.6</ele>
        <time>2021-07-02T09:58:02Z</time>
      </trkpt>
      <trkpt lat="48.04075" lon="7.26548">
        <ele>579.6</ele>
        <time>2021-07-02T09:58:06Z</time>
      </trkpt>
      <trkpt lat="48.04074" lon="7.26541">
        <ele>580</ele>
        <time>2021-07-02T09:58:08Z</time>
      </trkpt>
      <trkpt lat="48.04073" lon="7.26528">
        <ele>580.6</ele>
        <time>2021-07-02T09:58:12Z</time>
      </trkpt>
      <trkpt lat="48.0407" lon="7.26509">
        <ele>581.8</ele>
        <time>2021-07-02T09:58:17Z</time>
      </trkpt>
      <trkpt lat="48.0407" lon="7.26506">
        <ele>582</ele>
        <time>2021-07-02T09:58:18Z</time>
      </trkpt>
      <trkpt lat="48.0407" lon="7.26496">
        <ele>582.6</ele>
        <time>2021-07-02T09:58:21Z</time>
      </trkpt>
      <trkpt lat="48.04069" lon="7.26493">
        <ele>582.8</ele>
        <time>2021-07-02T09:58:22Z</time>
      </trkpt>
      <trkpt lat="48.0407" lon="7.26479">
        <ele>583.4</ele>
        <time>2021-07-02T09:58:25Z</time>
      </trkpt>
      <trkpt lat="48.0407" lon="7.26474">
        <ele>583.8</ele>
        <time>2021-07-02T09:58:26Z</time>
      </trkpt>
      <trkpt lat="48.04069" lon="7.26463">
        <ele>584</ele>
        <time>2021-07-02T09:58:28Z</time>
      </trkpt>
      <trkpt lat="48.0407" lon="7.26443">
        <ele>585</ele>
        <time>2021-07-02T09:58:33Z</time>
      </trkpt>
      <trkpt lat="48.04066" lon="7.26423">
        <ele>586.2</ele>
        <time>2021-07-02T09:58:38Z</time>
      </trkpt>
      <trkpt lat="48.04064" lon="7.26412">
        <ele>587</ele>
        <time>2021-07-02T09:58:41Z</time>
      </trkpt>
      <trkpt lat="48.04068" lon="7.26402">
        <ele>587.6</ele>
        <time>2021-07-02T09:58:44Z</time>
      </trkpt>
      <trkpt lat="48.0407" lon="7.26393">
        <ele>588.6</ele>
        <time>2021-07-02T09:58:47Z</time>
      </trkpt>
      <trkpt lat="48.04073" lon="7.26381">
        <ele>589.8</ele>
        <time>2021-07-02T09:58:52Z</time>
      </trkpt>
      <trkpt lat="48.04077" lon="7.26367">
        <ele>590.8</ele>
        <time>2021-07-02T09:58:56Z</time>
      </trkpt>
      <trkpt lat="48.04083" lon="7.26351">
        <ele>591.4</ele>
        <time>2021-07-02T09:58:59Z</time>
      </trkpt>
      <trkpt lat="48.04086" lon="7.26338">
        <ele>592.2</ele>
        <time>2021-07-02T09:59:02Z</time>
      </trkpt>
      <trkpt lat="48.04091" lon="7.26326">
        <ele>592.4</ele>
        <time>2021-07-02T09:59:05Z</time>
      </trkpt>
      <trkpt lat="48.041" lon="7.26304">
        <ele>592.6</ele>
        <time>2021-07-02T09:59:10Z</time>
      </trkpt>
      <trkpt lat="48.04103" lon="7.263">
        <ele>592.6</ele>
        <time>2021-07-02T09:59:11Z</time>
      </trkpt>
      <trkpt lat="48.04113" lon="7.26279">
        <ele>593</ele>
        <time>2021-07-02T09:59:15Z</time>
      </trkpt>
      <trkpt lat="48.04119" lon="7.26265">
        <ele>593.4</ele>
        <time>2021-07-02T09:59:18Z</time>
      </trkpt>
      <trkpt lat="48.0413" lon="7.26233">
        <ele>593.6</ele>
        <time>2021-07-02T09:59:24Z</time>
      </trkpt>
      <trkpt lat="48.04134" lon="7.26209">
        <ele>593.6</ele>
        <time>2021-07-02T09:59:28Z</time>
      </trkpt>
      <trkpt lat="48.04137" lon="7.26199">
        <ele>593.6</ele>
        <time>2021-07-02T09:59:30Z</time>
      </trkpt>
      <trkpt lat="48.04142" lon="7.26178">
        <ele>593.8</ele>
        <time>2021-07-02T09:59:33Z</time>
      </trkpt>
      <trkpt lat="48.04144" lon="7.26165">
        <ele>594</ele>
        <time>2021-07-02T09:59:35Z</time>
      </trkpt>
      <trkpt lat="48.04146" lon="7.26133">
        <ele>594.6</ele>
        <time>2021-07-02T09:59:41Z</time>
      </trkpt>
      <trkpt lat="48.04152" lon="7.26112">
        <ele>594.8</ele>
        <time>2021-07-02T09:59:45Z</time>
      </trkpt>
      <trkpt lat="48.04152" lon="7.261">
        <ele>595</ele>
        <time>2021-07-02T09:59:47Z</time>
      </trkpt>
      <trkpt lat="48.04151" lon="7.26083">
        <ele>595.4</ele>
        <time>2021-07-02T09:59:50Z</time>
      </trkpt>
      <trkpt lat="48.04151" lon="7.26073">
        <ele>596</ele>
        <time>2021-07-02T09:59:52Z</time>
      </trkpt>
      <trkpt lat="48.04149" lon="7.26054">
        <ele>596.8</ele>
        <time>2021-07-02T09:59:56Z</time>
      </trkpt>
      <trkpt lat="48.04149" lon="7.26046">
        <ele>597.2</ele>
        <time>2021-07-02T09:59:58Z</time>
      </trkpt>
      <trkpt lat="48.04149" lon="7.26029">
        <ele>597.8</ele>
        <time>2021-07-02T10:00:01Z</time>
      </trkpt>
      <trkpt lat="48.04145" lon="7.26011">
        <ele>598.4</ele>
        <time>2021-07-02T10:00:05Z</time>
      </trkpt>
      <trkpt lat="48.04145" lon="7.26003">
        <ele>598.6</ele>
        <time>2021-07-02T10:00:06Z</time>
      </trkpt>
      <trkpt lat="48.04141" lon="7.25993">
        <ele>599</ele>
        <time>2021-07-02T10:00:08Z</time>
      </trkpt>
      <trkpt lat="48.0414" lon="7.25988">
        <ele>599.4</ele>
        <time>2021-07-02T10:00:09Z</time>
      </trkpt>
      <trkpt lat="48.04139" lon="7.25983">
        <ele>600</ele>
        <time>2021-07-02T10:00:11Z</time>
      </trkpt>
      <trkpt lat="48.04136" lon="7.25969">
        <ele>600.6</ele>
        <time>2021-07-02T10:00:14Z</time>
      </trkpt>
      <trkpt lat="48.04134" lon="7.2595">
        <ele>601.2</ele>
        <time>2021-07-02T10:00:17Z</time>
      </trkpt>
      <trkpt lat="48.04133" lon="7.25938">
        <ele>601.6</ele>
        <time>2021-07-02T10:00:19Z</time>
      </trkpt>
      <trkpt lat="48.04128" lon="7.25912">
        <ele>602.4</ele>
        <time>2021-07-02T10:00:23Z</time>
      </trkpt>
      <trkpt lat="48.04127" lon="7.25902">
        <ele>602.8</ele>
        <time>2021-07-02T10:00:25Z</time>
      </trkpt>
      <trkpt lat="48.04124" lon="7.25886">
        <ele>603.2</ele>
        <time>2021-07-02T10:00:28Z</time>
      </trkpt>
      <trkpt lat="48.04121" lon="7.25876">
        <ele>603.6</ele>
        <time>2021-07-02T10:00:30Z</time>
      </trkpt>
      <trkpt lat="48.04119" lon="7.25862">
        <ele>604.2</ele>
        <time>2021-07-02T10:00:33Z</time>
      </trkpt>
      <trkpt lat="48.0412" lon="7.25849">
        <ele>604.6</ele>
        <time>2021-07-02T10:00:36Z</time>
      </trkpt>
      <trkpt lat="48.04119" lon="7.25835">
        <ele>605.6</ele>
        <time>2021-07-02T10:00:39Z</time>
      </trkpt>
      <trkpt lat="48.04119" lon="7.25824">
        <ele>605.8</ele>
        <time>2021-07-02T10:00:41Z</time>
      </trkpt>
      <trkpt lat="48.04121" lon="7.25809">
        <ele>606</ele>
        <time>2021-07-02T10:00:44Z</time>
      </trkpt>
      <trkpt lat="48.04124" lon="7.25792">
        <ele>606.8</ele>
        <time>2021-07-02T10:00:47Z</time>
      </trkpt>
      <trkpt lat="48.04127" lon="7.25772">
        <ele>607.4</ele>
        <time>2021-07-02T10:00:51Z</time>
      </trkpt>
      <trkpt lat="48.04131" lon="7.2575">
        <ele>607.8</ele>
        <time>2021-07-02T10:00:55Z</time>
      </trkpt>
      <trkpt lat="48.04132" lon="7.25744">
        <ele>608</ele>
        <time>2021-07-02T10:00:56Z</time>
      </trkpt>
      <trkpt lat="48.04133" lon="7.25739">
        <ele>608.4</ele>
        <time>2021-07-02T10:00:57Z</time>
      </trkpt>
      <trkpt lat="48.04135" lon="7.25727">
        <ele>609</ele>
        <time>2021-07-02T10:00:59Z</time>
      </trkpt>
      <trkpt lat="48.04142" lon="7.2571">
        <ele>609.6</ele>
        <time>2021-07-02T10:01:03Z</time>
      </trkpt>
      <trkpt lat="48.04145" lon="7.25703">
        <ele>609.8</ele>
        <time>2021-07-02T10:01:05Z</time>
      </trkpt>
      <trkpt lat="48.04147" lon="7.25699">
        <ele>609.8</ele>
        <time>2021-07-02T10:01:06Z</time>
      </trkpt>
      <trkpt lat="48.04157" lon="7.25695">
        <ele>610.4</ele>
        <time>2021-07-02T10:01:10Z</time>
      </trkpt>
      <trkpt lat="48.04163" lon="7.25698">
        <ele>611.2</ele>
        <time>2021-07-02T10:01:12Z</time>
      </trkpt>
      <trkpt lat="48.04176" lon="7.25704">
        <ele>612.4</ele>
        <time>2021-07-02T10:01:17Z</time>
      </trkpt>
      <trkpt lat="48.04188" lon="7.25711">
        <ele>613.4</ele>
        <time>2021-07-02T10:01:21Z</time>
      </trkpt>
      <trkpt lat="48.04191" lon="7.25712">
        <ele>613.4</ele>
        <time>2021-07-02T10:01:22Z</time>
      </trkpt>
      <trkpt lat="48.04216" lon="7.25721">
        <ele>613.6</ele>
        <time>2021-07-02T10:01:29Z</time>
      </trkpt>
      <trkpt lat="48.04236" lon="7.25724">
        <ele>614.2</ele>
        <time>2021-07-02T10:01:34Z</time>
      </trkpt>
      <trkpt lat="48.0424" lon="7.25726">
        <ele>614.2</ele>
        <time>2021-07-02T10:01:35Z</time>
      </trkpt>
      <trkpt lat="48.04264" lon="7.2574">
        <ele>615.2</ele>
        <time>2021-07-02T10:01:41Z</time>
      </trkpt>
      <trkpt lat="48.04267" lon="7.25742">
        <ele>615.4</ele>
        <time>2021-07-02T10:01:42Z</time>
      </trkpt>
      <trkpt lat="48.04282" lon="7.25752">
        <ele>615.8</ele>
        <time>2021-07-02T10:01:46Z</time>
      </trkpt>
      <trkpt lat="48.04298" lon="7.25753">
        <ele>616.2</ele>
        <time>2021-07-02T10:01:50Z</time>
      </trkpt>
      <trkpt lat="48.04313" lon="7.25753">
        <ele>616.4</ele>
        <time>2021-07-02T10:01:54Z</time>
      </trkpt>
      <trkpt lat="48.04349" lon="7.2575">
        <ele>617.2</ele>
        <time>2021-07-02T10:02:02Z</time>
      </trkpt>
      <trkpt lat="48.04352" lon="7.25749">
        <ele>617.4</ele>
        <time>2021-07-02T10:02:03Z</time>
      </trkpt>
      <trkpt lat="48.04365" lon="7.25747">
        <ele>617.4</ele>
        <time>2021-07-02T10:02:06Z</time>
      </trkpt>
      <trkpt lat="48.04378" lon="7.25745">
        <ele>617.4</ele>
        <time>2021-07-02T10:02:09Z</time>
      </trkpt>
      <trkpt lat="48.04389" lon="7.25745">
        <ele>617.6</ele>
        <time>2021-07-02T10:02:11Z</time>
      </trkpt>
      <trkpt lat="48.044" lon="7.25749">
        <ele>617.4</ele>
        <time>2021-07-02T10:02:13Z</time>
      </trkpt>
      <trkpt lat="48.04421" lon="7.25767">
        <ele>616.8</ele>
        <time>2021-07-02T10:02:17Z</time>
      </trkpt>
      <trkpt lat="48.0443" lon="7.25778">
        <ele>616.4</ele>
        <time>2021-07-02T10:02:19Z</time>
      </trkpt>
      <trkpt lat="48.04437" lon="7.25794">
        <ele>616.2</ele>
        <time>2021-07-02T10:02:21Z</time>
      </trkpt>
      <trkpt lat="48.0444" lon="7.258">
        <ele>616</ele>
        <time>2021-07-02T10:02:22Z</time>
      </trkpt>
      <trkpt lat="48.04446" lon="7.25815">
        <ele>615.8</ele>
        <time>2021-07-02T10:02:24Z</time>
      </trkpt>
      <trkpt lat="48.04455" lon="7.25832">
        <ele>615.6</ele>
        <time>2021-07-02T10:02:26Z</time>
      </trkpt>
      <trkpt lat="48.04464" lon="7.25844">
        <ele>615.4</ele>
        <time>2021-07-02T10:02:28Z</time>
      </trkpt>
      <trkpt lat="48.04473" lon="7.25853">
        <ele>615</ele>
        <time>2021-07-02T10:02:30Z</time>
      </trkpt>
      <trkpt lat="48.04495" lon="7.25867">
        <ele>614.6</ele>
        <time>2021-07-02T10:02:34Z</time>
      </trkpt>
      <trkpt lat="48.04531" lon="7.25869">
        <ele>614.6</ele>
        <time>2021-07-02T10:02:39Z</time>
      </trkpt>
      <trkpt lat="48.04539" lon="7.25871">
        <ele>614.6</ele>
        <time>2021-07-02T10:02:40Z</time>
      </trkpt>
      <trkpt lat="48.04553" lon="7.25881">
        <ele>614.4</ele>
        <time>2021-07-02T10:02:42Z</time>
      </trkpt>
      <trkpt lat="48.04558" lon="7.25888">
        <ele>614.4</ele>
        <time>2021-07-02T10:02:43Z</time>
      </trkpt>
      <trkpt lat="48.04576" lon="7.2591">
        <ele>614.6</ele>
        <time>2021-07-02T10:02:47Z</time>
      </trkpt>
      <trkpt lat="48.04597" lon="7.25933">
        <ele>614</ele>
        <time>2021-07-02T10:02:52Z</time>
      </trkpt>
      <trkpt lat="48.04609" lon="7.25948">
        <ele>613.8</ele>
        <time>2021-07-02T10:02:55Z</time>
      </trkpt>
      <trkpt lat="48.04616" lon="7.25962">
        <ele>613.8</ele>
        <time>2021-07-02T10:02:57Z</time>
      </trkpt>
      <trkpt lat="48.0462" lon="7.25968">
        <ele>613.6</ele>
        <time>2021-07-02T10:02:58Z</time>
      </trkpt>
      <trkpt lat="48.04641" lon="7.26011">
        <ele>613.2</ele>
        <time>2021-07-02T10:03:03Z</time>
      </trkpt>
      <trkpt lat="48.04646" lon="7.26022">
        <ele>612.2</ele>
        <time>2021-07-02T10:03:04Z</time>
      </trkpt>
      <trkpt lat="48.04658" lon="7.26052">
        <ele>611.2</ele>
        <time>2021-07-02T10:03:07Z</time>
      </trkpt>
      <trkpt lat="48.04667" lon="7.26071">
        <ele>609.6</ele>
        <time>2021-07-02T10:03:09Z</time>
      </trkpt>
      <trkpt lat="48.04678" lon="7.26103">
        <ele>608.6</ele>
        <time>2021-07-02T10:03:12Z</time>
      </trkpt>
      <trkpt lat="48.04689" lon="7.26136">
        <ele>607.2</ele>
        <time>2021-07-02T10:03:15Z</time>
      </trkpt>
      <trkpt lat="48.04699" lon="7.2615">
        <ele>605.8</ele>
        <time>2021-07-02T10:03:17Z</time>
      </trkpt>
      <trkpt lat="48.04706" lon="7.26157">
        <ele>605.4</ele>
        <time>2021-07-02T10:03:18Z</time>
      </trkpt>
      <trkpt lat="48.0472" lon="7.2617">
        <ele>604.4</ele>
        <time>2021-07-02T10:03:20Z</time>
      </trkpt>
      <trkpt lat="48.04729" lon="7.26177">
        <ele>604.4</ele>
        <time>2021-07-02T10:03:21Z</time>
      </trkpt>
      <trkpt lat="48.04744" lon="7.26185">
        <ele>603.8</ele>
        <time>2021-07-02T10:03:23Z</time>
      </trkpt>
      <trkpt lat="48.04752" lon="7.26187">
        <ele>602.8</ele>
        <time>2021-07-02T10:03:24Z</time>
      </trkpt>
      <trkpt lat="48.04762" lon="7.26188">
        <ele>602.2</ele>
        <time>2021-07-02T10:03:25Z</time>
      </trkpt>
      <trkpt lat="48.0477" lon="7.26185">
        <ele>601.4</ele>
        <time>2021-07-02T10:03:26Z</time>
      </trkpt>
      <trkpt lat="48.04777" lon="7.26181">
        <ele>601.2</ele>
        <time>2021-07-02T10:03:27Z</time>
      </trkpt>
      <trkpt lat="48.0479" lon="7.26168">
        <ele>600.4</ele>
        <time>2021-07-02T10:03:29Z</time>
      </trkpt>
      <trkpt lat="48.04797" lon="7.2616">
        <ele>600.4</ele>
        <time>2021-07-02T10:03:30Z</time>
      </trkpt>
      <trkpt lat="48.04804" lon="7.26154">
        <ele>599.6</ele>
        <time>2021-07-02T10:03:31Z</time>
      </trkpt>
      <trkpt lat="48.04812" lon="7.26151">
        <ele>599.4</ele>
        <time>2021-07-02T10:03:32Z</time>
      </trkpt>
      <trkpt lat="48.04817" lon="7.26151">
        <ele>598.8</ele>
        <time>2021-07-02T10:03:33Z</time>
      </trkpt>
      <trkpt lat="48.04823" lon="7.26154">
        <ele>598.2</ele>
        <time>2021-07-02T10:03:34Z</time>
      </trkpt>
      <trkpt lat="48.04829" lon="7.2616">
        <ele>597.2</ele>
        <time>2021-07-02T10:03:35Z</time>
      </trkpt>
      <trkpt lat="48.04832" lon="7.26168">
        <ele>596.2</ele>
        <time>2021-07-02T10:03:36Z</time>
      </trkpt>
      <trkpt lat="48.04834" lon="7.26176">
        <ele>595.8</ele>
        <time>2021-07-02T10:03:37Z</time>
      </trkpt>
      <trkpt lat="48.04838" lon="7.26185">
        <ele>595.4</ele>
        <time>2021-07-02T10:03:38Z</time>
      </trkpt>
      <trkpt lat="48.04845" lon="7.26203">
        <ele>594.4</ele>
        <time>2021-07-02T10:03:40Z</time>
      </trkpt>
      <trkpt lat="48.04849" lon="7.2621">
        <ele>594</ele>
        <time>2021-07-02T10:03:41Z</time>
      </trkpt>
      <trkpt lat="48.04859" lon="7.26227">
        <ele>593</ele>
        <time>2021-07-02T10:03:44Z</time>
      </trkpt>
      <trkpt lat="48.04863" lon="7.26234">
        <ele>592.8</ele>
        <time>2021-07-02T10:03:45Z</time>
      </trkpt>
      <trkpt lat="48.04875" lon="7.26255">
        <ele>593</ele>
        <time>2021-07-02T10:03:49Z</time>
      </trkpt>
      <trkpt lat="48.04882" lon="7.26266">
        <ele>593.6</ele>
        <time>2021-07-02T10:03:51Z</time>
      </trkpt>
      <trkpt lat="48.04892" lon="7.26279">
        <ele>594</ele>
        <time>2021-07-02T10:03:54Z</time>
      </trkpt>
      <trkpt lat="48.04902" lon="7.26294">
        <ele>594.8</ele>
        <time>2021-07-02T10:03:57Z</time>
      </trkpt>
      <trkpt lat="48.04913" lon="7.26307">
        <ele>595</ele>
        <time>2021-07-02T10:04:00Z</time>
      </trkpt>
      <trkpt lat="48.04919" lon="7.26316">
        <ele>596</ele>
        <time>2021-07-02T10:04:02Z</time>
      </trkpt>
      <trkpt lat="48.04922" lon="7.26321">
        <ele>596.2</ele>
        <time>2021-07-02T10:04:03Z</time>
      </trkpt>
      <trkpt lat="48.04927" lon="7.26332">
        <ele>596.8</ele>
        <time>2021-07-02T10:04:05Z</time>
      </trkpt>
      <trkpt lat="48.04933" lon="7.26339">
        <ele>597.4</ele>
        <time>2021-07-02T10:04:07Z</time>
      </trkpt>
      <trkpt lat="48.04942" lon="7.26346">
        <ele>597.6</ele>
        <time>2021-07-02T10:04:09Z</time>
      </trkpt>
      <trkpt lat="48.04946" lon="7.26348">
        <ele>597.8</ele>
        <time>2021-07-02T10:04:10Z</time>
      </trkpt>
      <trkpt lat="48.04951" lon="7.26348">
        <ele>598</ele>
        <time>2021-07-02T10:04:11Z</time>
      </trkpt>
      <trkpt lat="48.0496" lon="7.26348">
        <ele>598.4</ele>
        <time>2021-07-02T10:04:13Z</time>
      </trkpt>
      <trkpt lat="48.04966" lon="7.26344">
        <ele>598.6</ele>
        <time>2021-07-02T10:04:14Z</time>
      </trkpt>
      <trkpt lat="48.04973" lon="7.26334">
        <ele>598.8</ele>
        <time>2021-07-02T10:04:16Z</time>
      </trkpt>
      <trkpt lat="48.04984" lon="7.26318">
        <ele>599.2</ele>
        <time>2021-07-02T10:04:19Z</time>
      </trkpt>
      <trkpt lat="48.04993" lon="7.26311">
        <ele>599.4</ele>
        <time>2021-07-02T10:04:21Z</time>
      </trkpt>
      <trkpt lat="48.04998" lon="7.2631">
        <ele>599.2</ele>
        <time>2021-07-02T10:04:22Z</time>
      </trkpt>
      <trkpt lat="48.05007" lon="7.2631">
        <ele>599.2</ele>
        <time>2021-07-02T10:04:24Z</time>
      </trkpt>
      <trkpt lat="48.05017" lon="7.26316">
        <ele>599</ele>
        <time>2021-07-02T10:04:26Z</time>
      </trkpt>
      <trkpt lat="48.05022" lon="7.26321">
        <ele>598.8</ele>
        <time>2021-07-02T10:04:27Z</time>
      </trkpt>
      <trkpt lat="48.05031" lon="7.26332">
        <ele>598.6</ele>
        <time>2021-07-02T10:04:29Z</time>
      </trkpt>
      <trkpt lat="48.05037" lon="7.26346">
        <ele>598.4</ele>
        <time>2021-07-02T10:04:31Z</time>
      </trkpt>
      <trkpt lat="48.05041" lon="7.26368">
        <ele>597.6</ele>
        <time>2021-07-02T10:04:34Z</time>
      </trkpt>
      <trkpt lat="48.05042" lon="7.26377">
        <ele>597.2</ele>
        <time>2021-07-02T10:04:35Z</time>
      </trkpt>
      <trkpt lat="48.05044" lon="7.26394">
        <ele>596.2</ele>
        <time>2021-07-02T10:04:37Z</time>
      </trkpt>
      <trkpt lat="48.05045" lon="7.26403">
        <ele>595.8</ele>
        <time>2021-07-02T10:04:38Z</time>
      </trkpt>
      <trkpt lat="48.05047" lon="7.26426">
        <ele>595.2</ele>
        <time>2021-07-02T10:04:40Z</time>
      </trkpt>
      <trkpt lat="48.05047" lon="7.26436">
        <ele>595.2</ele>
        <time>2021-07-02T10:04:41Z</time>
      </trkpt>
      <trkpt lat="48.05049" lon="7.26463">
        <ele>595</ele>
        <time>2021-07-02T10:04:44Z</time>
      </trkpt>
      <trkpt lat="48.05052" lon="7.26493">
        <ele>594.8</ele>
        <time>2021-07-02T10:04:47Z</time>
      </trkpt>
      <trkpt lat="48.05055" lon="7.26499">
        <ele>594.8</ele>
        <time>2021-07-02T10:04:48Z</time>
      </trkpt>
      <trkpt lat="48.05059" lon="7.26505">
        <ele>594.6</ele>
        <time>2021-07-02T10:04:49Z</time>
      </trkpt>
      <trkpt lat="48.05069" lon="7.26509">
        <ele>593.8</ele>
        <time>2021-07-02T10:04:51Z</time>
      </trkpt>
      <trkpt lat="48.05082" lon="7.26501">
        <ele>593.6</ele>
        <time>2021-07-02T10:04:53Z</time>
      </trkpt>
      <trkpt lat="48.05086" lon="7.26496">
        <ele>593.4</ele>
        <time>2021-07-02T10:04:54Z</time>
      </trkpt>
      <trkpt lat="48.05094" lon="7.26489">
        <ele>593.4</ele>
        <time>2021-07-02T10:04:55Z</time>
      </trkpt>
      <trkpt lat="48.05101" lon="7.26484">
        <ele>592.8</ele>
        <time>2021-07-02T10:04:56Z</time>
      </trkpt>
      <trkpt lat="48.05116" lon="7.2648">
        <ele>592</ele>
        <time>2021-07-02T10:04:58Z</time>
      </trkpt>
      <trkpt lat="48.05122" lon="7.2648">
        <ele>591.8</ele>
        <time>2021-07-02T10:04:59Z</time>
      </trkpt>
      <trkpt lat="48.05134" lon="7.26483">
        <ele>590.4</ele>
        <time>2021-07-02T10:05:00Z</time>
      </trkpt>
      <trkpt lat="48.05151" lon="7.26486">
        <ele>589.6</ele>
        <time>2021-07-02T10:05:02Z</time>
      </trkpt>
      <trkpt lat="48.0516" lon="7.26487">
        <ele>589.2</ele>
        <time>2021-07-02T10:05:03Z</time>
      </trkpt>
      <trkpt lat="48.0518" lon="7.26494">
        <ele>588.2</ele>
        <time>2021-07-02T10:05:05Z</time>
      </trkpt>
      <trkpt lat="48.05195" lon="7.26504">
        <ele>587</ele>
        <time>2021-07-02T10:05:07Z</time>
      </trkpt>
      <trkpt lat="48.05227" lon="7.26523">
        <ele>585.6</ele>
        <time>2021-07-02T10:05:11Z</time>
      </trkpt>
      <trkpt lat="48.05241" lon="7.2653">
        <ele>585.4</ele>
        <time>2021-07-02T10:05:13Z</time>
      </trkpt>
      <trkpt lat="48.0527" lon="7.26538">
        <ele>584.6</ele>
        <time>2021-07-02T10:05:17Z</time>
      </trkpt>
      <trkpt lat="48.0529" lon="7.26548">
        <ele>583.6</ele>
        <time>2021-07-02T10:05:20Z</time>
      </trkpt>
      <trkpt lat="48.05296" lon="7.26551">
        <ele>583.4</ele>
        <time>2021-07-02T10:05:21Z</time>
      </trkpt>
      <trkpt lat="48.05306" lon="7.26558">
        <ele>583.8</ele>
        <time>2021-07-02T10:05:23Z</time>
      </trkpt>
      <trkpt lat="48.0531" lon="7.26561">
        <ele>583.8</ele>
        <time>2021-07-02T10:05:24Z</time>
      </trkpt>
      <trkpt lat="48.05317" lon="7.26569">
        <ele>584</ele>
        <time>2021-07-02T10:05:26Z</time>
      </trkpt>
      <trkpt lat="48.05322" lon="7.26578">
        <ele>584.4</ele>
        <time>2021-07-02T10:05:28Z</time>
      </trkpt>
      <trkpt lat="48.05324" lon="7.26584">
        <ele>585</ele>
        <time>2021-07-02T10:05:29Z</time>
      </trkpt>
      <trkpt lat="48.05327" lon="7.26591">
        <ele>585.2</ele>
        <time>2021-07-02T10:05:30Z</time>
      </trkpt>
      <trkpt lat="48.0533" lon="7.26597">
        <ele>585.4</ele>
        <time>2021-07-02T10:05:31Z</time>
      </trkpt>
      <trkpt lat="48.05336" lon="7.26608">
        <ele>585.6</ele>
        <time>2021-07-02T10:05:33Z</time>
      </trkpt>
      <trkpt lat="48.05344" lon="7.26619">
        <ele>585.8</ele>
        <time>2021-07-02T10:05:35Z</time>
      </trkpt>
      <trkpt lat="48.05351" lon="7.26627">
        <ele>586</ele>
        <time>2021-07-02T10:05:37Z</time>
      </trkpt>
      <trkpt lat="48.05355" lon="7.26632">
        <ele>586.2</ele>
        <time>2021-07-02T10:05:38Z</time>
      </trkpt>
      <trkpt lat="48.05364" lon="7.26641">
        <ele>586.4</ele>
        <time>2021-07-02T10:05:40Z</time>
      </trkpt>
      <trkpt lat="48.05368" lon="7.26645">
        <ele>586.4</ele>
        <time>2021-07-02T10:05:41Z</time>
      </trkpt>
      <trkpt lat="48.05395" lon="7.26685">
        <ele>586.4</ele>
        <time>2021-07-02T10:05:47Z</time>
      </trkpt>
      <trkpt lat="48.05408" lon="7.26716">
        <ele>585.6</ele>
        <time>2021-07-02T10:05:51Z</time>
      </trkpt>
      <trkpt lat="48.05411" lon="7.26722">
        <ele>585.4</ele>
        <time>2021-07-02T10:05:52Z</time>
      </trkpt>
      <trkpt lat="48.05414" lon="7.26731">
        <ele>585.4</ele>
        <time>2021-07-02T10:05:53Z</time>
      </trkpt>
      <trkpt lat="48.05419" lon="7.26749">
        <ele>585</ele>
        <time>2021-07-02T10:05:55Z</time>
      </trkpt>
      <trkpt lat="48.05419" lon="7.26758">
        <ele>584.8</ele>
        <time>2021-07-02T10:05:56Z</time>
      </trkpt>
      <trkpt lat="48.0542" lon="7.26775">
        <ele>584.4</ele>
        <time>2021-07-02T10:05:58Z</time>
      </trkpt>
      <trkpt lat="48.05423" lon="7.26801">
        <ele>584.2</ele>
        <time>2021-07-02T10:06:01Z</time>
      </trkpt>
      <trkpt lat="48.05426" lon="7.26832">
        <ele>583.8</ele>
        <time>2021-07-02T10:06:04Z</time>
      </trkpt>
      <trkpt lat="48.0543" lon="7.26852">
        <ele>582.8</ele>
        <time>2021-07-02T10:06:06Z</time>
      </trkpt>
      <trkpt lat="48.05439" lon="7.26867">
        <ele>581.4</ele>
        <time>2021-07-02T10:06:08Z</time>
      </trkpt>
      <trkpt lat="48.05446" lon="7.26873">
        <ele>580.8</ele>
        <time>2021-07-02T10:06:09Z</time>
      </trkpt>
      <trkpt lat="48.05459" lon="7.2688">
        <ele>580.2</ele>
        <time>2021-07-02T10:06:11Z</time>
      </trkpt>
      <trkpt lat="48.05476" lon="7.26893">
        <ele>579</ele>
        <time>2021-07-02T10:06:14Z</time>
      </trkpt>
      <trkpt lat="48.05481" lon="7.26897">
        <ele>578.8</ele>
        <time>2021-07-02T10:06:15Z</time>
      </trkpt>
      <trkpt lat="48.05485" lon="7.26902">
        <ele>578.8</ele>
        <time>2021-07-02T10:06:16Z</time>
      </trkpt>
      <trkpt lat="48.05496" lon="7.26916">
        <ele>579.2</ele>
        <time>2021-07-02T10:06:19Z</time>
      </trkpt>
      <trkpt lat="48.05499" lon="7.26921">
        <ele>579.4</ele>
        <time>2021-07-02T10:06:20Z</time>
      </trkpt>
      <trkpt lat="48.05502" lon="7.26926">
        <ele>580</ele>
        <time>2021-07-02T10:06:21Z</time>
      </trkpt>
      <trkpt lat="48.05508" lon="7.26935">
        <ele>580.6</ele>
        <time>2021-07-02T10:06:23Z</time>
      </trkpt>
      <trkpt lat="48.05516" lon="7.26944">
        <ele>581.2</ele>
        <time>2021-07-02T10:06:25Z</time>
      </trkpt>
      <trkpt lat="48.05519" lon="7.26947">
        <ele>581.4</ele>
        <time>2021-07-02T10:06:26Z</time>
      </trkpt>
      <trkpt lat="48.05532" lon="7.26955">
        <ele>582.4</ele>
        <time>2021-07-02T10:06:29Z</time>
      </trkpt>
      <trkpt lat="48.05546" lon="7.2696">
        <ele>582.8</ele>
        <time>2021-07-02T10:06:32Z</time>
      </trkpt>
      <trkpt lat="48.05571" lon="7.26971">
        <ele>582.8</ele>
        <time>2021-07-02T10:06:37Z</time>
      </trkpt>
      <trkpt lat="48.05581" lon="7.26977">
        <ele>582.8</ele>
        <time>2021-07-02T10:06:39Z</time>
      </trkpt>
      <trkpt lat="48.05607" lon="7.26983">
        <ele>582.2</ele>
        <time>2021-07-02T10:06:44Z</time>
      </trkpt>
      <trkpt lat="48.0563" lon="7.26986">
        <ele>581.2</ele>
        <time>2021-07-02T10:06:48Z</time>
      </trkpt>
      <trkpt lat="48.05638" lon="7.26985">
        <ele>581.2</ele>
        <time>2021-07-02T10:06:49Z</time>
      </trkpt>
      <trkpt lat="48.05643" lon="7.26983">
        <ele>580.8</ele>
        <time>2021-07-02T10:06:50Z</time>
      </trkpt>
      <trkpt lat="48.05662" lon="7.26969">
        <ele>580</ele>
        <time>2021-07-02T10:06:53Z</time>
      </trkpt>
      <trkpt lat="48.05669" lon="7.26964">
        <ele>579.8</ele>
        <time>2021-07-02T10:06:54Z</time>
      </trkpt>
      <trkpt lat="48.05681" lon="7.2695">
        <ele>578.8</ele>
        <time>2021-07-02T10:06:56Z</time>
      </trkpt>
      <trkpt lat="48.05686" lon="7.26942">
        <ele>578.6</ele>
        <time>2021-07-02T10:06:57Z</time>
      </trkpt>
      <trkpt lat="48.05701" lon="7.26916">
        <ele>578</ele>
        <time>2021-07-02T10:07:00Z</time>
      </trkpt>
      <trkpt lat="48.05709" lon="7.269">
        <ele>577.2</ele>
        <time>2021-07-02T10:07:02Z</time>
      </trkpt>
      <trkpt lat="48.05713" lon="7.26891">
        <ele>576.6</ele>
        <time>2021-07-02T10:07:03Z</time>
      </trkpt>
      <trkpt lat="48.05722" lon="7.26872">
        <ele>575.4</ele>
        <time>2021-07-02T10:07:05Z</time>
      </trkpt>
      <trkpt lat="48.0573" lon="7.26856">
        <ele>574.2</ele>
        <time>2021-07-02T10:07:07Z</time>
      </trkpt>
      <trkpt lat="48.05734" lon="7.26847">
        <ele>573.2</ele>
        <time>2021-07-02T10:07:08Z</time>
      </trkpt>
      <trkpt lat="48.05737" lon="7.26838">
        <ele>572.6</ele>
        <time>2021-07-02T10:07:09Z</time>
      </trkpt>
      <trkpt lat="48.05739" lon="7.26832">
        <ele>571.8</ele>
        <time>2021-07-02T10:07:10Z</time>
      </trkpt>
      <trkpt lat="48.05741" lon="7.26827">
        <ele>571.6</ele>
        <time>2021-07-02T10:07:11Z</time>
      </trkpt>
      <trkpt lat="48.05744" lon="7.2682">
        <ele>571</ele>
        <time>2021-07-02T10:07:13Z</time>
      </trkpt>
      <trkpt lat="48.05745" lon="7.26819">
        <ele>570.6</ele>
        <time>2021-07-02T10:07:14Z</time>
      </trkpt>
      <trkpt lat="48.05745" lon="7.26819">
        <ele>569.8</ele>
        <time>2021-07-02T10:07:16Z</time>
      </trkpt>
      <trkpt lat="48.05745" lon="7.26819">
        <ele>569.6</ele>
        <time>2021-07-02T10:07:17Z</time>
      </trkpt>
      <trkpt lat="48.0575" lon="7.26822">
        <ele>569.8</ele>
        <time>2021-07-02T10:09:57Z</time>
      </trkpt>
      <trkpt lat="48.05754" lon="7.26824">
        <ele>569.8</ele>
        <time>2021-07-02T10:09:58Z</time>
      </trkpt>
      <trkpt lat="48.0577" lon="7.26829">
        <ele>569.4</ele>
        <time>2021-07-02T10:10:02Z</time>
      </trkpt>
      <trkpt lat="48.05779" lon="7.26834">
        <ele>569</ele>
        <time>2021-07-02T10:10:04Z</time>
      </trkpt>
      <trkpt lat="48.05788" lon="7.26845">
        <ele>568.6</ele>
        <time>2021-07-02T10:10:07Z</time>
      </trkpt>
      <trkpt lat="48.05794" lon="7.26853">
        <ele>568.6</ele>
        <time>2021-07-02T10:10:09Z</time>
      </trkpt>
      <trkpt lat="48.05797" lon="7.26858">
        <ele>568.6</ele>
        <time>2021-07-02T10:10:10Z</time>
      </trkpt>
      <trkpt lat="48.05803" lon="7.2687">
        <ele>569</ele>
        <time>2021-07-02T10:10:13Z</time>
      </trkpt>
      <trkpt lat="48.05816" lon="7.269">
        <ele>569.4</ele>
        <time>2021-07-02T10:10:17Z</time>
      </trkpt>
      <trkpt lat="48.0582" lon="7.26909">
        <ele>569.8</ele>
        <time>2021-07-02T10:10:19Z</time>
      </trkpt>
      <trkpt lat="48.05823" lon="7.26918">
        <ele>570.2</ele>
        <time>2021-07-02T10:10:21Z</time>
      </trkpt>
      <trkpt lat="48.0583" lon="7.26934">
        <ele>570.8</ele>
        <time>2021-07-02T10:10:24Z</time>
      </trkpt>
      <trkpt lat="48.05835" lon="7.26943">
        <ele>571</ele>
        <time>2021-07-02T10:10:26Z</time>
      </trkpt>
      <trkpt lat="48.05846" lon="7.26966">
        <ele>571.4</ele>
        <time>2021-07-02T10:10:30Z</time>
      </trkpt>
      <trkpt lat="48.05856" lon="7.26984">
        <ele>571.8</ele>
        <time>2021-07-02T10:10:33Z</time>
      </trkpt>
      <trkpt lat="48.05861" lon="7.2699">
        <ele>571.8</ele>
        <time>2021-07-02T10:10:34Z</time>
      </trkpt>
      <trkpt lat="48.05869" lon="7.27002">
        <ele>572</ele>
        <time>2021-07-02T10:10:36Z</time>
      </trkpt>
      <trkpt lat="48.05869" lon="7.27002">
        <ele>572</ele>
        <time>2021-07-02T10:10:37Z</time>
      </trkpt>
      <trkpt lat="48.05875" lon="7.27014">
        <ele>572</ele>
        <time>2021-07-02T10:10:38Z</time>
      </trkpt>
      <trkpt lat="48.05877" lon="7.27019">
        <ele>572</ele>
        <time>2021-07-02T10:10:40Z</time>
      </trkpt>
      <trkpt lat="48.05888" lon="7.27059">
        <ele>571.8</ele>
        <time>2021-07-02T10:10:45Z</time>
      </trkpt>
      <trkpt lat="48.05908" lon="7.271">
        <ele>570.8</ele>
        <time>2021-07-02T10:10:49Z</time>
      </trkpt>
      <trkpt lat="48.05913" lon="7.27108">
        <ele>570</ele>
        <time>2021-07-02T10:10:51Z</time>
      </trkpt>
      <trkpt lat="48.05927" lon="7.27125">
        <ele>569.8</ele>
        <time>2021-07-02T10:10:52Z</time>
      </trkpt>
      <trkpt lat="48.05934" lon="7.27134">
        <ele>569.2</ele>
        <time>2021-07-02T10:10:53Z</time>
      </trkpt>
      <trkpt lat="48.05941" lon="7.27142">
        <ele>569</ele>
        <time>2021-07-02T10:10:54Z</time>
      </trkpt>
      <trkpt lat="48.05963" lon="7.27174">
        <ele>567.4</ele>
        <time>2021-07-02T10:10:57Z</time>
      </trkpt>
      <trkpt lat="48.0597" lon="7.27185">
        <ele>566.2</ele>
        <time>2021-07-02T10:10:58Z</time>
      </trkpt>
      <trkpt lat="48.05975" lon="7.27194">
        <ele>565.8</ele>
        <time>2021-07-02T10:10:59Z</time>
      </trkpt>
      <trkpt lat="48.05975" lon="7.27194">
        <ele>564.6</ele>
        <time>2021-07-02T10:11:00Z</time>
      </trkpt>
      <trkpt lat="48.05995" lon="7.27222">
        <ele>563.4</ele>
        <time>2021-07-02T10:11:02Z</time>
      </trkpt>
      <trkpt lat="48.06002" lon="7.27223">
        <ele>562.8</ele>
        <time>2021-07-02T10:11:03Z</time>
      </trkpt>
      <trkpt lat="48.06009" lon="7.27219">
        <ele>561.8</ele>
        <time>2021-07-02T10:11:04Z</time>
      </trkpt>
      <trkpt lat="48.06016" lon="7.27213">
        <ele>561</ele>
        <time>2021-07-02T10:11:05Z</time>
      </trkpt>
      <trkpt lat="48.06022" lon="7.27205">
        <ele>559.8</ele>
        <time>2021-07-02T10:11:06Z</time>
      </trkpt>
      <trkpt lat="48.0604" lon="7.27178">
        <ele>558.8</ele>
        <time>2021-07-02T10:11:09Z</time>
      </trkpt>
      <trkpt lat="48.06062" lon="7.27153">
        <ele>557.4</ele>
        <time>2021-07-02T10:11:13Z</time>
      </trkpt>
      <trkpt lat="48.06076" lon="7.2714">
        <ele>557</ele>
        <time>2021-07-02T10:11:14Z</time>
      </trkpt>
      <trkpt lat="48.06085" lon="7.27134">
        <ele>555.4</ele>
        <time>2021-07-02T10:11:16Z</time>
      </trkpt>
      <trkpt lat="48.06115" lon="7.2712">
        <ele>554.2</ele>
        <time>2021-07-02T10:11:18Z</time>
      </trkpt>
      <trkpt lat="48.06122" lon="7.27116">
        <ele>552</ele>
        <time>2021-07-02T10:11:20Z</time>
      </trkpt>
      <trkpt lat="48.06132" lon="7.27109">
        <ele>551.6</ele>
        <time>2021-07-02T10:11:21Z</time>
      </trkpt>
      <trkpt lat="48.06148" lon="7.27091">
        <ele>550.8</ele>
        <time>2021-07-02T10:11:22Z</time>
      </trkpt>
      <trkpt lat="48.06148" lon="7.27091">
        <ele>550.4</ele>
        <time>2021-07-02T10:11:23Z</time>
      </trkpt>
      <trkpt lat="48.06162" lon="7.27068">
        <ele>549.4</ele>
        <time>2021-07-02T10:11:24Z</time>
      </trkpt>
      <trkpt lat="48.0617" lon="7.27055">
        <ele>548.2</ele>
        <time>2021-07-02T10:11:25Z</time>
      </trkpt>
      <trkpt lat="48.06184" lon="7.27026">
        <ele>546.4</ele>
        <time>2021-07-02T10:11:27Z</time>
      </trkpt>
      <trkpt lat="48.06198" lon="7.26997">
        <ele>544.2</ele>
        <time>2021-07-02T10:11:29Z</time>
      </trkpt>
      <trkpt lat="48.06205" lon="7.26983">
        <ele>542.6</ele>
        <time>2021-07-02T10:11:31Z</time>
      </trkpt>
      <trkpt lat="48.06214" lon="7.26953">
        <ele>541.6</ele>
        <time>2021-07-02T10:11:32Z</time>
      </trkpt>
      <trkpt lat="48.06217" lon="7.26937">
        <ele>541.4</ele>
        <time>2021-07-02T10:11:33Z</time>
      </trkpt>
      <trkpt lat="48.06218" lon="7.26921">
        <ele>539.8</ele>
        <time>2021-07-02T10:11:34Z</time>
      </trkpt>
      <trkpt lat="48.0622" lon="7.26908">
        <ele>538.8</ele>
        <time>2021-07-02T10:11:35Z</time>
      </trkpt>
      <trkpt lat="48.0622" lon="7.26908">
        <ele>537.2</ele>
        <time>2021-07-02T10:11:36Z</time>
      </trkpt>
      <trkpt lat="48.06226" lon="7.26884">
        <ele>536.6</ele>
        <time>2021-07-02T10:11:37Z</time>
      </trkpt>
      <trkpt lat="48.06233" lon="7.26875">
        <ele>535.8</ele>
        <time>2021-07-02T10:11:38Z</time>
      </trkpt>
      <trkpt lat="48.06245" lon="7.26862">
        <ele>534</ele>
        <time>2021-07-02T10:11:40Z</time>
      </trkpt>
      <trkpt lat="48.06245" lon="7.26862">
        <ele>532.6</ele>
        <time>2021-07-02T10:11:41Z</time>
      </trkpt>
      <trkpt lat="48.06254" lon="7.26852">
        <ele>531.2</ele>
        <time>2021-07-02T10:11:43Z</time>
      </trkpt>
      <trkpt lat="48.06254" lon="7.26851">
        <ele>530.2</ele>
        <time>2021-07-02T10:11:45Z</time>
      </trkpt>
      <trkpt lat="48.06252" lon="7.26854">
        <ele>528.8</ele>
        <time>2021-07-02T10:12:13Z</time>
      </trkpt>
      <trkpt lat="48.06239" lon="7.26864">
        <ele>528.8</ele>
        <time>2021-07-02T10:12:18Z</time>
      </trkpt>
      <trkpt lat="48.06233" lon="7.2687">
        <ele>528.8</ele>
        <time>2021-07-02T10:12:20Z</time>
      </trkpt>
      <trkpt lat="48.06234" lon="7.26872">
        <ele>529</ele>
        <time>2021-07-02T10:12:22Z</time>
      </trkpt>
      <trkpt lat="48.0625" lon="7.26861">
        <ele>529.2</ele>
        <time>2021-07-02T10:12:27Z</time>
      </trkpt>
      <trkpt lat="48.06259" lon="7.26856">
        <ele>529.4</ele>
        <time>2021-07-02T10:12:29Z</time>
      </trkpt>
      <trkpt lat="48.0627" lon="7.26854">
        <ele>529.4</ele>
        <time>2021-07-02T10:12:31Z</time>
      </trkpt>
      <trkpt lat="48.06285" lon="7.26858">
        <ele>529</ele>
        <time>2021-07-02T10:12:33Z</time>
      </trkpt>
      <trkpt lat="48.06297" lon="7.26863">
        <ele>528.6</ele>
        <time>2021-07-02T10:12:35Z</time>
      </trkpt>
      <trkpt lat="48.06312" lon="7.26869">
        <ele>527.2</ele>
        <time>2021-07-02T10:12:37Z</time>
      </trkpt>
      <trkpt lat="48.06327" lon="7.26876">
        <ele>525.8</ele>
        <time>2021-07-02T10:12:39Z</time>
      </trkpt>
      <trkpt lat="48.06333" lon="7.2688">
        <ele>525.2</ele>
        <time>2021-07-02T10:12:40Z</time>
      </trkpt>
      <trkpt lat="48.0634" lon="7.26887">
        <ele>525</ele>
        <time>2021-07-02T10:12:41Z</time>
      </trkpt>
      <trkpt lat="48.06348" lon="7.26897">
        <ele>524.4</ele>
        <time>2021-07-02T10:12:42Z</time>
      </trkpt>
      <trkpt lat="48.06348" lon="7.26897">
        <ele>523.8</ele>
        <time>2021-07-02T10:12:43Z</time>
      </trkpt>
      <trkpt lat="48.06359" lon="7.26918">
        <ele>523</ele>
        <time>2021-07-02T10:12:44Z</time>
      </trkpt>
      <trkpt lat="48.06369" lon="7.26939">
        <ele>522</ele>
        <time>2021-07-02T10:12:46Z</time>
      </trkpt>
      <trkpt lat="48.06381" lon="7.26959">
        <ele>520.6</ele>
        <time>2021-07-02T10:12:49Z</time>
      </trkpt>
      <trkpt lat="48.06399" lon="7.26985">
        <ele>519.4</ele>
        <time>2021-07-02T10:12:51Z</time>
      </trkpt>
      <trkpt lat="48.06408" lon="7.26996">
        <ele>519</ele>
        <time>2021-07-02T10:12:52Z</time>
      </trkpt>
      <trkpt lat="48.06421" lon="7.27013">
        <ele>518.2</ele>
        <time>2021-07-02T10:12:54Z</time>
      </trkpt>
      <trkpt lat="48.06427" lon="7.2702">
        <ele>517.4</ele>
        <time>2021-07-02T10:12:55Z</time>
      </trkpt>
      <trkpt lat="48.06433" lon="7.27026">
        <ele>517</ele>
        <time>2021-07-02T10:12:56Z</time>
      </trkpt>
      <trkpt lat="48.06439" lon="7.27031">
        <ele>516.4</ele>
        <time>2021-07-02T10:12:57Z</time>
      </trkpt>
      <trkpt lat="48.06444" lon="7.27031">
        <ele>515.4</ele>
        <time>2021-07-02T10:12:58Z</time>
      </trkpt>
      <trkpt lat="48.0645" lon="7.27027">
        <ele>515</ele>
        <time>2021-07-02T10:12:59Z</time>
      </trkpt>
      <trkpt lat="48.06455" lon="7.27019">
        <ele>514.4</ele>
        <time>2021-07-02T10:13:00Z</time>
      </trkpt>
      <trkpt lat="48.06464" lon="7.26999">
        <ele>512.8</ele>
        <time>2021-07-02T10:13:02Z</time>
      </trkpt>
      <trkpt lat="48.06471" lon="7.26976">
        <ele>511.6</ele>
        <time>2021-07-02T10:13:04Z</time>
      </trkpt>
      <trkpt lat="48.06478" lon="7.26951">
        <ele>510.4</ele>
        <time>2021-07-02T10:13:06Z</time>
      </trkpt>
      <trkpt lat="48.06478" lon="7.26951">
        <ele>509.4</ele>
        <time>2021-07-02T10:13:07Z</time>
      </trkpt>
      <trkpt lat="48.06484" lon="7.2692">
        <ele>509.2</ele>
        <time>2021-07-02T10:13:08Z</time>
      </trkpt>
      <trkpt lat="48.06487" lon="7.26906">
        <ele>508</ele>
        <time>2021-07-02T10:13:09Z</time>
      </trkpt>
      <trkpt lat="48.06495" lon="7.26879">
        <ele>507.4</ele>
        <time>2021-07-02T10:13:11Z</time>
      </trkpt>
      <trkpt lat="48.06495" lon="7.26879">
        <ele>506.6</ele>
        <time>2021-07-02T10:13:12Z</time>
      </trkpt>
      <trkpt lat="48.06505" lon="7.2685">
        <ele>505.6</ele>
        <time>2021-07-02T10:13:13Z</time>
      </trkpt>
      <trkpt lat="48.06508" lon="7.26837">
        <ele>504.6</ele>
        <time>2021-07-02T10:13:14Z</time>
      </trkpt>
      <trkpt lat="48.06511" lon="7.26826">
        <ele>504</ele>
        <time>2021-07-02T10:13:15Z</time>
      </trkpt>
      <trkpt lat="48.06513" lon="7.26811">
        <ele>503.4</ele>
        <time>2021-07-02T10:13:16Z</time>
      </trkpt>
      <trkpt lat="48.06517" lon="7.26779">
        <ele>502.2</ele>
        <time>2021-07-02T10:13:18Z</time>
      </trkpt>
      <trkpt lat="48.06523" lon="7.26737">
        <ele>501</ele>
        <time>2021-07-02T10:13:21Z</time>
      </trkpt>
      <trkpt lat="48.06527" lon="7.26704">
        <ele>499</ele>
        <time>2021-07-02T10:13:23Z</time>
      </trkpt>
      <trkpt lat="48.06529" lon="7.26677">
        <ele>497</ele>
        <time>2021-07-02T10:13:25Z</time>
      </trkpt>
      <trkpt lat="48.06535" lon="7.26631">
        <ele>495.8</ele>
        <time>2021-07-02T10:13:29Z</time>
      </trkpt>
      <trkpt lat="48.06539" lon="7.26592">
        <ele>494.8</ele>
        <time>2021-07-02T10:13:31Z</time>
      </trkpt>
      <trkpt lat="48.06542" lon="7.26544">
        <ele>493.6</ele>
        <time>2021-07-02T10:13:34Z</time>
      </trkpt>
      <trkpt lat="48.06544" lon="7.26518">
        <ele>492</ele>
        <time>2021-07-02T10:13:36Z</time>
      </trkpt>
      <trkpt lat="48.06547" lon="7.26471">
        <ele>490.8</ele>
        <time>2021-07-02T10:13:39Z</time>
      </trkpt>
      <trkpt lat="48.06548" lon="7.26442">
        <ele>488.8</ele>
        <time>2021-07-02T10:13:41Z</time>
      </trkpt>
      <trkpt lat="48.06548" lon="7.2643">
        <ele>488.4</ele>
        <time>2021-07-02T10:13:42Z</time>
      </trkpt>
      <trkpt lat="48.06548" lon="7.26413">
        <ele>487.4</ele>
        <time>2021-07-02T10:13:43Z</time>
      </trkpt>
      <trkpt lat="48.06547" lon="7.26399">
        <ele>486.8</ele>
        <time>2021-07-02T10:13:44Z</time>
      </trkpt>
      <trkpt lat="48.06545" lon="7.26385">
        <ele>485.4</ele>
        <time>2021-07-02T10:13:45Z</time>
      </trkpt>
      <trkpt lat="48.06542" lon="7.2637">
        <ele>485</ele>
        <time>2021-07-02T10:13:46Z</time>
      </trkpt>
      <trkpt lat="48.06538" lon="7.26355">
        <ele>483.8</ele>
        <time>2021-07-02T10:13:47Z</time>
      </trkpt>
      <trkpt lat="48.06527" lon="7.26326">
        <ele>481.2</ele>
        <time>2021-07-02T10:13:49Z</time>
      </trkpt>
      <trkpt lat="48.06522" lon="7.26311">
        <ele>479.8</ele>
        <time>2021-07-02T10:13:50Z</time>
      </trkpt>
      <trkpt lat="48.06512" lon="7.26279">
        <ele>478.6</ele>
        <time>2021-07-02T10:13:52Z</time>
      </trkpt>
      <trkpt lat="48.06508" lon="7.26262">
        <ele>477.6</ele>
        <time>2021-07-02T10:13:53Z</time>
      </trkpt>
      <trkpt lat="48.06505" lon="7.26247">
        <ele>476</ele>
        <time>2021-07-02T10:13:54Z</time>
      </trkpt>
      <trkpt lat="48.06498" lon="7.26218">
        <ele>474</ele>
        <time>2021-07-02T10:13:56Z</time>
      </trkpt>
      <trkpt lat="48.06493" lon="7.26205">
        <ele>472.2</ele>
        <time>2021-07-02T10:13:57Z</time>
      </trkpt>
      <trkpt lat="48.06486" lon="7.26193">
        <ele>471.6</ele>
        <time>2021-07-02T10:13:58Z</time>
      </trkpt>
      <trkpt lat="48.06478" lon="7.26183">
        <ele>470.2</ele>
        <time>2021-07-02T10:13:59Z</time>
      </trkpt>
      <trkpt lat="48.0647" lon="7.26172">
        <ele>469.6</ele>
        <time>2021-07-02T10:14:00Z</time>
      </trkpt>
      <trkpt lat="48.06462" lon="7.26163">
        <ele>468.6</ele>
        <time>2021-07-02T10:14:01Z</time>
      </trkpt>
      <trkpt lat="48.06454" lon="7.26154">
        <ele>468</ele>
        <time>2021-07-02T10:14:02Z</time>
      </trkpt>
      <trkpt lat="48.06445" lon="7.26147">
        <ele>467.4</ele>
        <time>2021-07-02T10:14:03Z</time>
      </trkpt>
      <trkpt lat="48.06435" lon="7.26141">
        <ele>466.6</ele>
        <time>2021-07-02T10:14:04Z</time>
      </trkpt>
      <trkpt lat="48.06425" lon="7.26135">
        <ele>465.2</ele>
        <time>2021-07-02T10:14:05Z</time>
      </trkpt>
      <trkpt lat="48.06415" lon="7.26129">
        <ele>463</ele>
        <time>2021-07-02T10:14:06Z</time>
      </trkpt>
      <trkpt lat="48.06407" lon="7.26123">
        <ele>462.2</ele>
        <time>2021-07-02T10:14:07Z</time>
      </trkpt>
      <trkpt lat="48.06398" lon="7.26115">
        <ele>460.4</ele>
        <time>2021-07-02T10:14:08Z</time>
      </trkpt>
      <trkpt lat="48.06389" lon="7.26107">
        <ele>459.6</ele>
        <time>2021-07-02T10:14:09Z</time>
      </trkpt>
      <trkpt lat="48.0638" lon="7.261">
        <ele>458.6</ele>
        <time>2021-07-02T10:14:10Z</time>
      </trkpt>
      <trkpt lat="48.06364" lon="7.26088">
        <ele>457</ele>
        <time>2021-07-02T10:14:12Z</time>
      </trkpt>
      <trkpt lat="48.06364" lon="7.26088">
        <ele>456.8</ele>
        <time>2021-07-02T10:14:13Z</time>
      </trkpt>
      <trkpt lat="48.06349" lon="7.26087">
        <ele>456.4</ele>
        <time>2021-07-02T10:14:14Z</time>
      </trkpt>
      <trkpt lat="48.06342" lon="7.2609">
        <ele>455.8</ele>
        <time>2021-07-02T10:14:15Z</time>
      </trkpt>
      <trkpt lat="48.06336" lon="7.26093">
        <ele>455</ele>
        <time>2021-07-02T10:14:16Z</time>
      </trkpt>
      <trkpt lat="48.06331" lon="7.26093">
        <ele>453.6</ele>
        <time>2021-07-02T10:14:17Z</time>
      </trkpt>
      <trkpt lat="48.06328" lon="7.26081">
        <ele>451.8</ele>
        <time>2021-07-02T10:14:19Z</time>
      </trkpt>
      <trkpt lat="48.06331" lon="7.26075">
        <ele>451.4</ele>
        <time>2021-07-02T10:14:20Z</time>
      </trkpt>
      <trkpt lat="48.06337" lon="7.2607">
        <ele>450.6</ele>
        <time>2021-07-02T10:14:21Z</time>
      </trkpt>
      <trkpt lat="48.06342" lon="7.26068">
        <ele>450</ele>
        <time>2021-07-02T10:14:23Z</time>
      </trkpt>
      <trkpt lat="48.0636" lon="7.26061">
        <ele>449.4</ele>
        <time>2021-07-02T10:14:25Z</time>
      </trkpt>
      <trkpt lat="48.06374" lon="7.2606">
        <ele>448.6</ele>
        <time>2021-07-02T10:14:27Z</time>
      </trkpt>
      <trkpt lat="48.06382" lon="7.2606">
        <ele>447.8</ele>
        <time>2021-07-02T10:14:28Z</time>
      </trkpt>
      <trkpt lat="48.06399" lon="7.26061">
        <ele>446.8</ele>
        <time>2021-07-02T10:14:30Z</time>
      </trkpt>
      <trkpt lat="48.06409" lon="7.2606">
        <ele>446.4</ele>
        <time>2021-07-02T10:14:31Z</time>
      </trkpt>
      <trkpt lat="48.0642" lon="7.26058">
        <ele>445.6</ele>
        <time>2021-07-02T10:14:32Z</time>
      </trkpt>
      <trkpt lat="48.06451" lon="7.2605">
        <ele>444.2</ele>
        <time>2021-07-02T10:14:35Z</time>
      </trkpt>
      <trkpt lat="48.06461" lon="7.26045">
        <ele>443.8</ele>
        <time>2021-07-02T10:14:36Z</time>
      </trkpt>
      <trkpt lat="48.06461" lon="7.26045">
        <ele>442.2</ele>
        <time>2021-07-02T10:14:37Z</time>
      </trkpt>
      <trkpt lat="48.06472" lon="7.2604">
        <ele>441</ele>
        <time>2021-07-02T10:14:38Z</time>
      </trkpt>
      <trkpt lat="48.06492" lon="7.26028">
        <ele>439.4</ele>
        <time>2021-07-02T10:14:39Z</time>
      </trkpt>
      <trkpt lat="48.06503" lon="7.26022">
        <ele>437.8</ele>
        <time>2021-07-02T10:14:40Z</time>
      </trkpt>
      <trkpt lat="48.06514" lon="7.26017">
        <ele>436.4</ele>
        <time>2021-07-02T10:14:42Z</time>
      </trkpt>
      <trkpt lat="48.06545" lon="7.26004">
        <ele>434</ele>
        <time>2021-07-02T10:14:44Z</time>
      </trkpt>
      <trkpt lat="48.06554" lon="7.25998">
        <ele>433</ele>
        <time>2021-07-02T10:14:45Z</time>
      </trkpt>
      <trkpt lat="48.06562" lon="7.25989">
        <ele>431.4</ele>
        <time>2021-07-02T10:14:46Z</time>
      </trkpt>
      <trkpt lat="48.06566" lon="7.2598">
        <ele>430.8</ele>
        <time>2021-07-02T10:14:47Z</time>
      </trkpt>
      <trkpt lat="48.06571" lon="7.25964">
        <ele>429</ele>
        <time>2021-07-02T10:14:48Z</time>
      </trkpt>
      <trkpt lat="48.06573" lon="7.25949">
        <ele>428.2</ele>
        <time>2021-07-02T10:14:49Z</time>
      </trkpt>
      <trkpt lat="48.06575" lon="7.25934">
        <ele>427.2</ele>
        <time>2021-07-02T10:14:50Z</time>
      </trkpt>
      <trkpt lat="48.06576" lon="7.2592">
        <ele>425.8</ele>
        <time>2021-07-02T10:14:51Z</time>
      </trkpt>
      <trkpt lat="48.0658" lon="7.25898">
        <ele>424.2</ele>
        <time>2021-07-02T10:14:53Z</time>
      </trkpt>
      <trkpt lat="48.06583" lon="7.25888">
        <ele>423.2</ele>
        <time>2021-07-02T10:14:54Z</time>
      </trkpt>
      <trkpt lat="48.06589" lon="7.25879">
        <ele>422.2</ele>
        <time>2021-07-02T10:14:55Z</time>
      </trkpt>
      <trkpt lat="48.06606" lon="7.2587">
        <ele>421</ele>
        <time>2021-07-02T10:14:57Z</time>
      </trkpt>
      <trkpt lat="48.06625" lon="7.2588">
        <ele>419.8</ele>
        <time>2021-07-02T10:14:59Z</time>
      </trkpt>
      <trkpt lat="48.06633" lon="7.25889">
        <ele>418.4</ele>
        <time>2021-07-02T10:15:00Z</time>
      </trkpt>
      <trkpt lat="48.06641" lon="7.259">
        <ele>418</ele>
        <time>2021-07-02T10:15:01Z</time>
      </trkpt>
      <trkpt lat="48.06649" lon="7.25911">
        <ele>416.6</ele>
        <time>2021-07-02T10:15:02Z</time>
      </trkpt>
      <trkpt lat="48.06664" lon="7.25933">
        <ele>414.8</ele>
        <time>2021-07-02T10:15:04Z</time>
      </trkpt>
      <trkpt lat="48.06678" lon="7.25957">
        <ele>412.6</ele>
        <time>2021-07-02T10:15:06Z</time>
      </trkpt>
      <trkpt lat="48.06683" lon="7.2597">
        <ele>411.4</ele>
        <time>2021-07-02T10:15:07Z</time>
      </trkpt>
      <trkpt lat="48.06694" lon="7.25999">
        <ele>410</ele>
        <time>2021-07-02T10:15:09Z</time>
      </trkpt>
      <trkpt lat="48.06703" lon="7.26029">
        <ele>408.2</ele>
        <time>2021-07-02T10:15:11Z</time>
      </trkpt>
      <trkpt lat="48.06708" lon="7.26043">
        <ele>406.2</ele>
        <time>2021-07-02T10:15:13Z</time>
      </trkpt>
      <trkpt lat="48.06719" lon="7.26073">
        <ele>405.2</ele>
        <time>2021-07-02T10:15:14Z</time>
      </trkpt>
      <trkpt lat="48.06731" lon="7.26102">
        <ele>402.6</ele>
        <time>2021-07-02T10:15:16Z</time>
      </trkpt>
      <trkpt lat="48.06736" lon="7.26116">
        <ele>400.8</ele>
        <time>2021-07-02T10:15:18Z</time>
      </trkpt>
      <trkpt lat="48.0676" lon="7.26173">
        <ele>399.8</ele>
        <time>2021-07-02T10:15:21Z</time>
      </trkpt>
      <trkpt lat="48.06771" lon="7.262">
        <ele>398.4</ele>
        <time>2021-07-02T10:15:23Z</time>
      </trkpt>
      <trkpt lat="48.06776" lon="7.26212">
        <ele>397.8</ele>
        <time>2021-07-02T10:15:24Z</time>
      </trkpt>
      <trkpt lat="48.06781" lon="7.26225">
        <ele>397.2</ele>
        <time>2021-07-02T10:15:25Z</time>
      </trkpt>
      <trkpt lat="48.06785" lon="7.2625">
        <ele>396.2</ele>
        <time>2021-07-02T10:15:27Z</time>
      </trkpt>
      <trkpt lat="48.06788" lon="7.26304">
        <ele>395.4</ele>
        <time>2021-07-02T10:15:32Z</time>
      </trkpt>
      <trkpt lat="48.06784" lon="7.26323">
        <ele>395.2</ele>
        <time>2021-07-02T10:15:34Z</time>
      </trkpt>
      <trkpt lat="48.06784" lon="7.26323">
        <ele>395</ele>
        <time>2021-07-02T10:15:35Z</time>
      </trkpt>
      <trkpt lat="48.06781" lon="7.26331">
        <ele>394.8</ele>
        <time>2021-07-02T10:15:36Z</time>
      </trkpt>
      <trkpt lat="48.06769" lon="7.26353">
        <ele>394.6</ele>
        <time>2021-07-02T10:15:38Z</time>
      </trkpt>
      <trkpt lat="48.06764" lon="7.2636">
        <ele>394.6</ele>
        <time>2021-07-02T10:15:39Z</time>
      </trkpt>
      <trkpt lat="48.06741" lon="7.26395">
        <ele>394.2</ele>
        <time>2021-07-02T10:15:44Z</time>
      </trkpt>
      <trkpt lat="48.06734" lon="7.26412">
        <ele>394.2</ele>
        <time>2021-07-02T10:15:46Z</time>
      </trkpt>
      <trkpt lat="48.0673" lon="7.26429">
        <ele>394.2</ele>
        <time>2021-07-02T10:15:48Z</time>
      </trkpt>
      <trkpt lat="48.06729" lon="7.26439">
        <ele>394.2</ele>
        <time>2021-07-02T10:15:49Z</time>
      </trkpt>
      <trkpt lat="48.06729" lon="7.26459">
        <ele>394.2</ele>
        <time>2021-07-02T10:15:51Z</time>
      </trkpt>
      <trkpt lat="48.06732" lon="7.26479">
        <ele>394.4</ele>
        <time>2021-07-02T10:15:53Z</time>
      </trkpt>
      <trkpt lat="48.06737" lon="7.26499">
        <ele>394.6</ele>
        <time>2021-07-02T10:15:55Z</time>
      </trkpt>
      <trkpt lat="48.06745" lon="7.26528">
        <ele>394.8</ele>
        <time>2021-07-02T10:15:58Z</time>
      </trkpt>
      <trkpt lat="48.06751" lon="7.26547">
        <ele>394.8</ele>
        <time>2021-07-02T10:16:00Z</time>
      </trkpt>
      <trkpt lat="48.06758" lon="7.26566">
        <ele>394.8</ele>
        <time>2021-07-02T10:16:02Z</time>
      </trkpt>
      <trkpt lat="48.06767" lon="7.26583">
        <ele>394.8</ele>
        <time>2021-07-02T10:16:04Z</time>
      </trkpt>
      <trkpt lat="48.06803" lon="7.26636">
        <ele>393.2</ele>
        <time>2021-07-02T10:16:10Z</time>
      </trkpt>
      <trkpt lat="48.0681" lon="7.26646">
        <ele>392.8</ele>
        <time>2021-07-02T10:16:12Z</time>
      </trkpt>
      <trkpt lat="48.06824" lon="7.26666">
        <ele>392.6</ele>
        <time>2021-07-02T10:16:13Z</time>
      </trkpt>
      <trkpt lat="48.0684" lon="7.26681">
        <ele>391.2</ele>
        <time>2021-07-02T10:16:15Z</time>
      </trkpt>
      <trkpt lat="48.06848" lon="7.26686">
        <ele>390.2</ele>
        <time>2021-07-02T10:16:17Z</time>
      </trkpt>
      <trkpt lat="48.06873" lon="7.26701">
        <ele>389.2</ele>
        <time>2021-07-02T10:16:19Z</time>
      </trkpt>
      <trkpt lat="48.06882" lon="7.26703">
        <ele>388.8</ele>
        <time>2021-07-02T10:16:20Z</time>
      </trkpt>
      <trkpt lat="48.06893" lon="7.26706">
        <ele>387.4</ele>
        <time>2021-07-02T10:16:21Z</time>
      </trkpt>
      <trkpt lat="48.06915" lon="7.26707">
        <ele>385</ele>
        <time>2021-07-02T10:16:23Z</time>
      </trkpt>
      <trkpt lat="48.06925" lon="7.26707">
        <ele>383.8</ele>
        <time>2021-07-02T10:16:24Z</time>
      </trkpt>
      <trkpt lat="48.06948" lon="7.26707">
        <ele>382</ele>
        <time>2021-07-02T10:16:26Z</time>
      </trkpt>
      <trkpt lat="48.06972" lon="7.26707">
        <ele>379.8</ele>
        <time>2021-07-02T10:16:28Z</time>
      </trkpt>
      <trkpt lat="48.06983" lon="7.26706">
        <ele>378.8</ele>
        <time>2021-07-02T10:16:29Z</time>
      </trkpt>
      <trkpt lat="48.06994" lon="7.26704">
        <ele>377.6</ele>
        <time>2021-07-02T10:16:30Z</time>
      </trkpt>
      <trkpt lat="48.07014" lon="7.267">
        <ele>375.6</ele>
        <time>2021-07-02T10:16:32Z</time>
      </trkpt>
      <trkpt lat="48.07024" lon="7.267">
        <ele>374</ele>
        <time>2021-07-02T10:16:33Z</time>
      </trkpt>
      <trkpt lat="48.07034" lon="7.26702">
        <ele>371.8</ele>
        <time>2021-07-02T10:16:35Z</time>
      </trkpt>
      <trkpt lat="48.07052" lon="7.26712">
        <ele>371.2</ele>
        <time>2021-07-02T10:16:36Z</time>
      </trkpt>
      <trkpt lat="48.07061" lon="7.26718">
        <ele>370.4</ele>
        <time>2021-07-02T10:16:37Z</time>
      </trkpt>
      <trkpt lat="48.07081" lon="7.26732">
        <ele>369.2</ele>
        <time>2021-07-02T10:16:39Z</time>
      </trkpt>
      <trkpt lat="48.0709" lon="7.26738">
        <ele>368.2</ele>
        <time>2021-07-02T10:16:40Z</time>
      </trkpt>
      <trkpt lat="48.07099" lon="7.26742">
        <ele>367.6</ele>
        <time>2021-07-02T10:16:41Z</time>
      </trkpt>
      <trkpt lat="48.07108" lon="7.26744">
        <ele>366.8</ele>
        <time>2021-07-02T10:16:42Z</time>
      </trkpt>
      <trkpt lat="48.07131" lon="7.26744">
        <ele>365.8</ele>
        <time>2021-07-02T10:16:44Z</time>
      </trkpt>
      <trkpt lat="48.07157" lon="7.2674">
        <ele>364.6</ele>
        <time>2021-07-02T10:16:46Z</time>
      </trkpt>
      <trkpt lat="48.07181" lon="7.26734">
        <ele>362.6</ele>
        <time>2021-07-02T10:16:48Z</time>
      </trkpt>
      <trkpt lat="48.07193" lon="7.26731">
        <ele>361.2</ele>
        <time>2021-07-02T10:16:49Z</time>
      </trkpt>
      <trkpt lat="48.07215" lon="7.26729">
        <ele>359</ele>
        <time>2021-07-02T10:16:51Z</time>
      </trkpt>
      <trkpt lat="48.07229" lon="7.2673">
        <ele>357.8</ele>
        <time>2021-07-02T10:16:52Z</time>
      </trkpt>
      <trkpt lat="48.07241" lon="7.26733">
        <ele>356.4</ele>
        <time>2021-07-02T10:16:53Z</time>
      </trkpt>
      <trkpt lat="48.07266" lon="7.2674">
        <ele>354.6</ele>
        <time>2021-07-02T10:16:55Z</time>
      </trkpt>
      <trkpt lat="48.07277" lon="7.26743">
        <ele>353.2</ele>
        <time>2021-07-02T10:16:56Z</time>
      </trkpt>
      <trkpt lat="48.07289" lon="7.26748">
        <ele>352.6</ele>
        <time>2021-07-02T10:16:57Z</time>
      </trkpt>
      <trkpt lat="48.07289" lon="7.26748">
        <ele>351.6</ele>
        <time>2021-07-02T10:16:58Z</time>
      </trkpt>
      <trkpt lat="48.0731" lon="7.26762">
        <ele>351.2</ele>
        <time>2021-07-02T10:16:59Z</time>
      </trkpt>
      <trkpt lat="48.07319" lon="7.2677">
        <ele>349.6</ele>
        <time>2021-07-02T10:17:00Z</time>
      </trkpt>
      <trkpt lat="48.07329" lon="7.26779">
        <ele>349</ele>
        <time>2021-07-02T10:17:01Z</time>
      </trkpt>
      <trkpt lat="48.07338" lon="7.2679">
        <ele>348</ele>
        <time>2021-07-02T10:17:02Z</time>
      </trkpt>
      <trkpt lat="48.07357" lon="7.26812">
        <ele>346</ele>
        <time>2021-07-02T10:17:04Z</time>
      </trkpt>
      <trkpt lat="48.07366" lon="7.26822">
        <ele>344.8</ele>
        <time>2021-07-02T10:17:05Z</time>
      </trkpt>
      <trkpt lat="48.07386" lon="7.2684">
        <ele>342.6</ele>
        <time>2021-07-02T10:17:07Z</time>
      </trkpt>
      <trkpt lat="48.07402" lon="7.26863">
        <ele>341.8</ele>
        <time>2021-07-02T10:17:09Z</time>
      </trkpt>
      <trkpt lat="48.07413" lon="7.26887">
        <ele>339</ele>
        <time>2021-07-02T10:17:11Z</time>
      </trkpt>
      <trkpt lat="48.07418" lon="7.26895">
        <ele>338.4</ele>
        <time>2021-07-02T10:17:12Z</time>
      </trkpt>
      <trkpt lat="48.07424" lon="7.26899">
        <ele>336</ele>
        <time>2021-07-02T10:17:13Z</time>
      </trkpt>
      <trkpt lat="48.0743" lon="7.26898">
        <ele>334.8</ele>
        <time>2021-07-02T10:17:14Z</time>
      </trkpt>
      <trkpt lat="48.07433" lon="7.2689">
        <ele>334.4</ele>
        <time>2021-07-02T10:17:15Z</time>
      </trkpt>
      <trkpt lat="48.07434" lon="7.26881">
        <ele>333.6</ele>
        <time>2021-07-02T10:17:16Z</time>
      </trkpt>
      <trkpt lat="48.07431" lon="7.2687">
        <ele>333.4</ele>
        <time>2021-07-02T10:17:17Z</time>
      </trkpt>
      <trkpt lat="48.07423" lon="7.26849">
        <ele>332.6</ele>
        <time>2021-07-02T10:17:19Z</time>
      </trkpt>
      <trkpt lat="48.07409" lon="7.26816">
        <ele>331.2</ele>
        <time>2021-07-02T10:17:22Z</time>
      </trkpt>
      <trkpt lat="48.07404" lon="7.26804">
        <ele>330.8</ele>
        <time>2021-07-02T10:17:23Z</time>
      </trkpt>
      <trkpt lat="48.07398" lon="7.26792">
        <ele>330.4</ele>
        <time>2021-07-02T10:17:24Z</time>
      </trkpt>
      <trkpt lat="48.0739" lon="7.26781">
        <ele>329.8</ele>
        <time>2021-07-02T10:17:25Z</time>
      </trkpt>
      <trkpt lat="48.07375" lon="7.26757">
        <ele>328.2</ele>
        <time>2021-07-02T10:17:27Z</time>
      </trkpt>
      <trkpt lat="48.07367" lon="7.26744">
        <ele>327.6</ele>
        <time>2021-07-02T10:17:28Z</time>
      </trkpt>
      <trkpt lat="48.07358" lon="7.26731">
        <ele>326.6</ele>
        <time>2021-07-02T10:17:29Z</time>
      </trkpt>
      <trkpt lat="48.07342" lon="7.26706">
        <ele>325.4</ele>
        <time>2021-07-02T10:17:31Z</time>
      </trkpt>
      <trkpt lat="48.07333" lon="7.26693">
        <ele>324</ele>
        <time>2021-07-02T10:17:32Z</time>
      </trkpt>
      <trkpt lat="48.07316" lon="7.26671">
        <ele>322.4</ele>
        <time>2021-07-02T10:17:34Z</time>
      </trkpt>
      <trkpt lat="48.07299" lon="7.2665">
        <ele>320.6</ele>
        <time>2021-07-02T10:17:36Z</time>
      </trkpt>
      <trkpt lat="48.07279" lon="7.26628">
        <ele>318.8</ele>
        <time>2021-07-02T10:17:38Z</time>
      </trkpt>
      <trkpt lat="48.07259" lon="7.26609">
        <ele>317</ele>
        <time>2021-07-02T10:17:40Z</time>
      </trkpt>
      <trkpt lat="48.07249" lon="7.26599">
        <ele>315.6</ele>
        <time>2021-07-02T10:17:41Z</time>
      </trkpt>
      <trkpt lat="48.07228" lon="7.26582">
        <ele>313.4</ele>
        <time>2021-07-02T10:17:43Z</time>
      </trkpt>
      <trkpt lat="48.07207" lon="7.26567">
        <ele>311</ele>
        <time>2021-07-02T10:17:45Z</time>
      </trkpt>
      <trkpt lat="48.07197" lon="7.2656">
        <ele>310.2</ele>
        <time>2021-07-02T10:17:46Z</time>
      </trkpt>
      <trkpt lat="48.07188" lon="7.26553">
        <ele>309.4</ele>
        <time>2021-07-02T10:17:47Z</time>
      </trkpt>
      <trkpt lat="48.07179" lon="7.26544">
        <ele>308.8</ele>
        <time>2021-07-02T10:17:48Z</time>
      </trkpt>
      <trkpt lat="48.0717" lon="7.26533">
        <ele>307.4</ele>
        <time>2021-07-02T10:17:49Z</time>
      </trkpt>
      <trkpt lat="48.07161" lon="7.26521">
        <ele>305.8</ele>
        <time>2021-07-02T10:17:50Z</time>
      </trkpt>
      <trkpt lat="48.07144" lon="7.26494">
        <ele>304</ele>
        <time>2021-07-02T10:17:52Z</time>
      </trkpt>
      <trkpt lat="48.07137" lon="7.2648">
        <ele>303.2</ele>
        <time>2021-07-02T10:17:53Z</time>
      </trkpt>
      <trkpt lat="48.0713" lon="7.26466">
        <ele>301.8</ele>
        <time>2021-07-02T10:17:54Z</time>
      </trkpt>
      <trkpt lat="48.07115" lon="7.26442">
        <ele>300.2</ele>
        <time>2021-07-02T10:17:56Z</time>
      </trkpt>
      <trkpt lat="48.07108" lon="7.26431">
        <ele>298.4</ele>
        <time>2021-07-02T10:17:58Z</time>
      </trkpt>
      <trkpt lat="48.07096" lon="7.26416">
        <ele>296.4</ele>
        <time>2021-07-02T10:17:59Z</time>
      </trkpt>
      <trkpt lat="48.07091" lon="7.26409">
        <ele>295.6</ele>
        <time>2021-07-02T10:18:00Z</time>
      </trkpt>
      <trkpt lat="48.07089" lon="7.26401">
        <ele>294.4</ele>
        <time>2021-07-02T10:18:01Z</time>
      </trkpt>
      <trkpt lat="48.07089" lon="7.26393">
        <ele>294</ele>
        <time>2021-07-02T10:18:02Z</time>
      </trkpt>
      <trkpt lat="48.07092" lon="7.26387">
        <ele>293.2</ele>
        <time>2021-07-02T10:18:03Z</time>
      </trkpt>
      <trkpt lat="48.07097" lon="7.26385">
        <ele>292.8</ele>
        <time>2021-07-02T10:18:04Z</time>
      </trkpt>
      <trkpt lat="48.07103" lon="7.26385">
        <ele>292.2</ele>
        <time>2021-07-02T10:18:05Z</time>
      </trkpt>
      <trkpt lat="48.0711" lon="7.26388">
        <ele>291.6</ele>
        <time>2021-07-02T10:18:06Z</time>
      </trkpt>
      <trkpt lat="48.07124" lon="7.26397">
        <ele>290.2</ele>
        <time>2021-07-02T10:18:08Z</time>
      </trkpt>
      <trkpt lat="48.07132" lon="7.26401">
        <ele>289.4</ele>
        <time>2021-07-02T10:18:09Z</time>
      </trkpt>
      <trkpt lat="48.0714" lon="7.26404">
        <ele>288.2</ele>
        <time>2021-07-02T10:18:10Z</time>
      </trkpt>
      <trkpt lat="48.07158" lon="7.26411">
        <ele>287.2</ele>
        <time>2021-07-02T10:18:12Z</time>
      </trkpt>
      <trkpt lat="48.07168" lon="7.26414">
        <ele>287</ele>
        <time>2021-07-02T10:18:13Z</time>
      </trkpt>
      <trkpt lat="48.07188" lon="7.26421">
        <ele>285.4</ele>
        <time>2021-07-02T10:18:15Z</time>
      </trkpt>
      <trkpt lat="48.0721" lon="7.26426">
        <ele>283.2</ele>
        <time>2021-07-02T10:18:17Z</time>
      </trkpt>
      <trkpt lat="48.07233" lon="7.26428">
        <ele>281.6</ele>
        <time>2021-07-02T10:18:19Z</time>
      </trkpt>
      <trkpt lat="48.07255" lon="7.26432">
        <ele>279.8</ele>
        <time>2021-07-02T10:18:21Z</time>
      </trkpt>
      <trkpt lat="48.07266" lon="7.26436">
        <ele>279.4</ele>
        <time>2021-07-02T10:18:22Z</time>
      </trkpt>
      <trkpt lat="48.07277" lon="7.2644">
        <ele>277.8</ele>
        <time>2021-07-02T10:18:23Z</time>
      </trkpt>
      <trkpt lat="48.07289" lon="7.26444">
        <ele>276.8</ele>
        <time>2021-07-02T10:18:24Z</time>
      </trkpt>
      <trkpt lat="48.0731" lon="7.26452">
        <ele>275.2</ele>
        <time>2021-07-02T10:18:26Z</time>
      </trkpt>
      <trkpt lat="48.0733" lon="7.2646">
        <ele>274</ele>
        <time>2021-07-02T10:18:28Z</time>
      </trkpt>
      <trkpt lat="48.07341" lon="7.26464">
        <ele>273.2</ele>
        <time>2021-07-02T10:18:30Z</time>
      </trkpt>
      <trkpt lat="48.07362" lon="7.26472">
        <ele>273</ele>
        <time>2021-07-02T10:18:31Z</time>
      </trkpt>
      <trkpt lat="48.07383" lon="7.2648">
        <ele>271.2</ele>
        <time>2021-07-02T10:18:33Z</time>
      </trkpt>
      <trkpt lat="48.07416" lon="7.26488">
        <ele>270</ele>
        <time>2021-07-02T10:18:36Z</time>
      </trkpt>
      <trkpt lat="48.07437" lon="7.26494">
        <ele>269.4</ele>
        <time>2021-07-02T10:18:38Z</time>
      </trkpt>
      <trkpt lat="48.07448" lon="7.26498">
        <ele>268.6</ele>
        <time>2021-07-02T10:18:39Z</time>
      </trkpt>
      <trkpt lat="48.07469" lon="7.26507">
        <ele>266.4</ele>
        <time>2021-07-02T10:18:41Z</time>
      </trkpt>
      <trkpt lat="48.07489" lon="7.26517">
        <ele>265</ele>
        <time>2021-07-02T10:18:43Z</time>
      </trkpt>
      <trkpt lat="48.07499" lon="7.26522">
        <ele>264.2</ele>
        <time>2021-07-02T10:18:44Z</time>
      </trkpt>
      <trkpt lat="48.07508" lon="7.26526">
        <ele>264</ele>
        <time>2021-07-02T10:18:45Z</time>
      </trkpt>
      <trkpt lat="48.07518" lon="7.26532">
        <ele>262.4</ele>
        <time>2021-07-02T10:18:46Z</time>
      </trkpt>
      <trkpt lat="48.07526" lon="7.26538">
        <ele>261.6</ele>
        <time>2021-07-02T10:18:47Z</time>
      </trkpt>
      <trkpt lat="48.07534" lon="7.26544">
        <ele>260</ele>
        <time>2021-07-02T10:18:48Z</time>
      </trkpt>
      <trkpt lat="48.07541" lon="7.26551">
        <ele>259.6</ele>
        <time>2021-07-02T10:18:49Z</time>
      </trkpt>
      <trkpt lat="48.07546" lon="7.26556">
        <ele>258.4</ele>
        <time>2021-07-02T10:18:50Z</time>
      </trkpt>
      <trkpt lat="48.07553" lon="7.26563">
        <ele>257.2</ele>
        <time>2021-07-02T10:18:51Z</time>
      </trkpt>
      <trkpt lat="48.07559" lon="7.26568">
        <ele>257</ele>
        <time>2021-07-02T10:18:52Z</time>
      </trkpt>
      <trkpt lat="48.07564" lon="7.26571">
        <ele>256.4</ele>
        <time>2021-07-02T10:18:53Z</time>
      </trkpt>
      <trkpt lat="48.07568" lon="7.26574">
        <ele>256.2</ele>
        <time>2021-07-02T10:18:54Z</time>
      </trkpt>
      <trkpt lat="48.07568" lon="7.26574">
        <ele>254.8</ele>
        <time>2021-07-02T10:18:55Z</time>
      </trkpt>
      <trkpt lat="48.07576" lon="7.2658">
        <ele>254.4</ele>
        <time>2021-07-02T10:18:56Z</time>
      </trkpt>
      <trkpt lat="48.0758" lon="7.26585">
        <ele>253.6</ele>
        <time>2021-07-02T10:18:57Z</time>
      </trkpt>
      <trkpt lat="48.07586" lon="7.26596">
        <ele>253.2</ele>
        <time>2021-07-02T10:18:59Z</time>
      </trkpt>
      <trkpt lat="48.0759" lon="7.26609">
        <ele>252.8</ele>
        <time>2021-07-02T10:19:01Z</time>
      </trkpt>
      <trkpt lat="48.07595" lon="7.26622">
        <ele>252.6</ele>
        <time>2021-07-02T10:19:03Z</time>
      </trkpt>
      <trkpt lat="48.07598" lon="7.2663">
        <ele>252.4</ele>
        <time>2021-07-02T10:19:04Z</time>
      </trkpt>
      <trkpt lat="48.0761" lon="7.26659">
        <ele>251.4</ele>
        <time>2021-07-02T10:19:08Z</time>
      </trkpt>
      <trkpt lat="48.07613" lon="7.26666">
        <ele>251</ele>
        <time>2021-07-02T10:19:09Z</time>
      </trkpt>
      <trkpt lat="48.07623" lon="7.26691">
        <ele>250.4</ele>
        <time>2021-07-02T10:19:12Z</time>
      </trkpt>
      <trkpt lat="48.07639" lon="7.26734">
        <ele>250</ele>
        <time>2021-07-02T10:19:17Z</time>
      </trkpt>
      <trkpt lat="48.07651" lon="7.26769">
        <ele>249.2</ele>
        <time>2021-07-02T10:19:21Z</time>
      </trkpt>
      <trkpt lat="48.07662" lon="7.26803">
        <ele>248.2</ele>
        <time>2021-07-02T10:19:25Z</time>
      </trkpt>
      <trkpt lat="48.07679" lon="7.26865">
        <ele>247</ele>
        <time>2021-07-02T10:19:32Z</time>
      </trkpt>
      <trkpt lat="48.07685" lon="7.26916">
        <ele>246.4</ele>
        <time>2021-07-02T10:19:37Z</time>
      </trkpt>
      <trkpt lat="48.07685" lon="7.26935">
        <ele>246.2</ele>
        <time>2021-07-02T10:19:39Z</time>
      </trkpt>
      <trkpt lat="48.07685" lon="7.26944">
        <ele>246</ele>
        <time>2021-07-02T10:19:40Z</time>
      </trkpt>
      <trkpt lat="48.07686" lon="7.26962">
        <ele>246</ele>
        <time>2021-07-02T10:19:42Z</time>
      </trkpt>
      <trkpt lat="48.07688" lon="7.2697">
        <ele>245.8</ele>
        <time>2021-07-02T10:19:43Z</time>
      </trkpt>
      <trkpt lat="48.07692" lon="7.26978">
        <ele>245.6</ele>
        <time>2021-07-02T10:19:44Z</time>
      </trkpt>
      <trkpt lat="48.077" lon="7.26991">
        <ele>245.4</ele>
        <time>2021-07-02T10:19:46Z</time>
      </trkpt>
      <trkpt lat="48.07705" lon="7.26996">
        <ele>245.4</ele>
        <time>2021-07-02T10:19:47Z</time>
      </trkpt>
      <trkpt lat="48.07723" lon="7.27019">
        <ele>245.2</ele>
        <time>2021-07-02T10:19:51Z</time>
      </trkpt>
      <trkpt lat="48.07727" lon="7.27027">
        <ele>245.2</ele>
        <time>2021-07-02T10:19:52Z</time>
      </trkpt>
      <trkpt lat="48.07729" lon="7.27033">
        <ele>245.2</ele>
        <time>2021-07-02T10:19:53Z</time>
      </trkpt>
      <trkpt lat="48.07729" lon="7.27049">
        <ele>245.2</ele>
        <time>2021-07-02T10:19:56Z</time>
      </trkpt>
      <trkpt lat="48.07731" lon="7.27058">
        <ele>245.2</ele>
        <time>2021-07-02T10:19:58Z</time>
      </trkpt>
      <trkpt lat="48.07733" lon="7.27062">
        <ele>245.2</ele>
        <time>2021-07-02T10:19:59Z</time>
      </trkpt>
      <trkpt lat="48.07734" lon="7.27066">
        <ele>245</ele>
        <time>2021-07-02T10:20:00Z</time>
      </trkpt>
      <trkpt lat="48.07734" lon="7.27082">
        <ele>245</ele>
        <time>2021-07-02T10:20:04Z</time>
      </trkpt>
      <trkpt lat="48.07728" lon="7.27111">
        <ele>244.6</ele>
        <time>2021-07-02T10:20:08Z</time>
      </trkpt>
      <trkpt lat="48.07723" lon="7.27136">
        <ele>244</ele>
        <time>2021-07-02T10:20:11Z</time>
      </trkpt>
      <trkpt lat="48.07718" lon="7.27162">
        <ele>243.6</ele>
        <time>2021-07-02T10:20:14Z</time>
      </trkpt>
      <trkpt lat="48.07708" lon="7.27214">
        <ele>243.2</ele>
        <time>2021-07-02T10:20:20Z</time>
      </trkpt>
      <trkpt lat="48.07703" lon="7.27239">
        <ele>243</ele>
        <time>2021-07-02T10:20:23Z</time>
      </trkpt>
      <trkpt lat="48.07693" lon="7.27282">
        <ele>242.6</ele>
        <time>2021-07-02T10:20:28Z</time>
      </trkpt>
      <trkpt lat="48.07675" lon="7.27349">
        <ele>242.4</ele>
        <time>2021-07-02T10:20:36Z</time>
      </trkpt>
      <trkpt lat="48.07665" lon="7.27382">
        <ele>242</ele>
        <time>2021-07-02T10:20:40Z</time>
      </trkpt>
      <trkpt lat="48.07648" lon="7.27439">
        <ele>241.6</ele>
        <time>2021-07-02T10:20:47Z</time>
      </trkpt>
      <trkpt lat="48.07635" lon="7.27481">
        <ele>241</ele>
        <time>2021-07-02T10:20:52Z</time>
      </trkpt>
      <trkpt lat="48.07624" lon="7.27521">
        <ele>240.4</ele>
        <time>2021-07-02T10:20:57Z</time>
      </trkpt>
      <trkpt lat="48.07611" lon="7.27561">
        <ele>240</ele>
        <time>2021-07-02T10:21:02Z</time>
      </trkpt>
      <trkpt lat="48.07604" lon="7.27583">
        <ele>239.6</ele>
        <time>2021-07-02T10:21:05Z</time>
      </trkpt>
      <trkpt lat="48.07592" lon="7.27622">
        <ele>239.2</ele>
        <time>2021-07-02T10:21:10Z</time>
      </trkpt>
      <trkpt lat="48.0759" lon="7.2763">
        <ele>239</ele>
        <time>2021-07-02T10:21:11Z</time>
      </trkpt>
      <trkpt lat="48.07588" lon="7.27636">
        <ele>239</ele>
        <time>2021-07-02T10:21:12Z</time>
      </trkpt>
      <trkpt lat="48.07586" lon="7.2764">
        <ele>238.8</ele>
        <time>2021-07-02T10:21:13Z</time>
      </trkpt>
      <trkpt lat="48.07582" lon="7.27644">
        <ele>238.8</ele>
        <time>2021-07-02T10:21:15Z</time>
      </trkpt>
      <trkpt lat="48.07581" lon="7.27645">
        <ele>238.8</ele>
        <time>2021-07-02T10:21:16Z</time>
      </trkpt>
      <trkpt lat="48.07576" lon="7.27651">
        <ele>238.8</ele>
        <time>2021-07-02T10:21:19Z</time>
      </trkpt>
      <trkpt lat="48.07572" lon="7.27654">
        <ele>239</ele>
        <time>2021-07-02T10:21:21Z</time>
      </trkpt>
      <trkpt lat="48.07567" lon="7.27665">
        <ele>239</ele>
        <time>2021-07-02T10:21:23Z</time>
      </trkpt>
      <trkpt lat="48.07561" lon="7.27684">
        <ele>239</ele>
        <time>2021-07-02T10:21:26Z</time>
      </trkpt>
      <trkpt lat="48.07556" lon="7.277">
        <ele>239</ele>
        <time>2021-07-02T10:21:28Z</time>
      </trkpt>
      <trkpt lat="48.07543" lon="7.27748">
        <ele>238.4</ele>
        <time>2021-07-02T10:21:35Z</time>
      </trkpt>
      <trkpt lat="48.07534" lon="7.27789">
        <ele>238</ele>
        <time>2021-07-02T10:21:39Z</time>
      </trkpt>
      <trkpt lat="48.07529" lon="7.27812">
        <ele>237.8</ele>
        <time>2021-07-02T10:21:42Z</time>
      </trkpt>
      <trkpt lat="48.07524" lon="7.27838">
        <ele>237.8</ele>
        <time>2021-07-02T10:21:45Z</time>
      </trkpt>
      <trkpt lat="48.07515" lon="7.27884">
        <ele>237.8</ele>
        <time>2021-07-02T10:21:51Z</time>
      </trkpt>
      <trkpt lat="48.07501" lon="7.27957">
        <ele>237.4</ele>
        <time>2021-07-02T10:22:00Z</time>
      </trkpt>
      <trkpt lat="48.075" lon="7.27965">
        <ele>237.4</ele>
        <time>2021-07-02T10:22:01Z</time>
      </trkpt>
      <trkpt lat="48.07498" lon="7.27981">
        <ele>237.2</ele>
        <time>2021-07-02T10:22:03Z</time>
      </trkpt>
      <trkpt lat="48.07493" lon="7.28009">
        <ele>237</ele>
        <time>2021-07-02T10:22:06Z</time>
      </trkpt>
      <trkpt lat="48.07485" lon="7.2807">
        <ele>236.2</ele>
        <time>2021-07-02T10:22:14Z</time>
      </trkpt>
      <trkpt lat="48.07482" lon="7.28088">
        <ele>236</ele>
        <time>2021-07-02T10:22:15Z</time>
      </trkpt>
      <trkpt lat="48.07472" lon="7.28153">
        <ele>235</ele>
        <time>2021-07-02T10:22:23Z</time>
      </trkpt>
      <trkpt lat="48.07471" lon="7.2816">
        <ele>235</ele>
        <time>2021-07-02T10:22:24Z</time>
      </trkpt>
      <trkpt lat="48.07468" lon="7.28196">
        <ele>234.6</ele>
        <time>2021-07-02T10:22:30Z</time>
      </trkpt>
      <trkpt lat="48.07464" lon="7.28208">
        <ele>234.8</ele>
        <time>2021-07-02T10:22:33Z</time>
      </trkpt>
      <trkpt lat="48.07462" lon="7.28212">
        <ele>234.8</ele>
        <time>2021-07-02T10:22:35Z</time>
      </trkpt>
      <trkpt lat="48.07463" lon="7.28214">
        <ele>234.6</ele>
        <time>2021-07-02T10:22:38Z</time>
      </trkpt>
      <trkpt lat="48.07464" lon="7.28213">
        <ele>234.8</ele>
        <time>2021-07-02T10:22:40Z</time>
      </trkpt>
      <trkpt lat="48.07468" lon="7.28205">
        <ele>234.8</ele>
        <time>2021-07-02T10:22:43Z</time>
      </trkpt>
      <trkpt lat="48.07473" lon="7.28186">
        <ele>234.8</ele>
        <time>2021-07-02T10:22:47Z</time>
      </trkpt>
      <trkpt lat="48.07477" lon="7.28179">
        <ele>234.8</ele>
        <time>2021-07-02T10:22:49Z</time>
      </trkpt>
      <trkpt lat="48.07478" lon="7.28178">
        <ele>235</ele>
        <time>2021-07-02T10:22:51Z</time>
      </trkpt>
      <trkpt lat="48.07478" lon="7.28178">
        <ele>235</ele>
        <time>2021-07-02T10:22:53Z</time>
      </trkpt>
      <trkpt lat="48.07479" lon="7.28178">
        <ele>234.8</ele>
        <time>2021-07-02T10:23:07Z</time>
      </trkpt>
      <trkpt lat="48.07485" lon="7.28179">
        <ele>234.8</ele>
        <time>2021-07-02T10:23:09Z</time>
      </trkpt>
      <trkpt lat="48.07501" lon="7.28181">
        <ele>235</ele>
        <time>2021-07-02T10:23:13Z</time>
      </trkpt>
      <trkpt lat="48.07507" lon="7.28181">
        <ele>235</ele>
        <time>2021-07-02T10:23:14Z</time>
      </trkpt>
      <trkpt lat="48.07522" lon="7.28183">
        <ele>234.8</ele>
        <time>2021-07-02T10:23:17Z</time>
      </trkpt>
      <trkpt lat="48.07546" lon="7.28187">
        <ele>234.8</ele>
        <time>2021-07-02T10:23:21Z</time>
      </trkpt>
      <trkpt lat="48.07556" lon="7.28188">
        <ele>234.8</ele>
        <time>2021-07-02T10:23:23Z</time>
      </trkpt>
      <trkpt lat="48.07562" lon="7.28188">
        <ele>234.8</ele>
        <time>2021-07-02T10:23:24Z</time>
      </trkpt>
      <trkpt lat="48.07591" lon="7.28193">
        <ele>235.4</ele>
        <time>2021-07-02T10:23:29Z</time>
      </trkpt>
      <trkpt lat="48.07628" lon="7.28201">
        <ele>235.6</ele>
        <time>2021-07-02T10:23:36Z</time>
      </trkpt>
      <trkpt lat="48.07633" lon="7.28201">
        <ele>235.6</ele>
        <time>2021-07-02T10:23:37Z</time>
      </trkpt>
      <trkpt lat="48.07637" lon="7.282">
        <ele>235.6</ele>
        <time>2021-07-02T10:23:38Z</time>
      </trkpt>
      <trkpt lat="48.0764" lon="7.28196">
        <ele>235.4</ele>
        <time>2021-07-02T10:23:39Z</time>
      </trkpt>
      <trkpt lat="48.07646" lon="7.28188">
        <ele>235.6</ele>
        <time>2021-07-02T10:23:41Z</time>
      </trkpt>
      <trkpt lat="48.0765" lon="7.28188">
        <ele>235.6</ele>
        <time>2021-07-02T10:23:42Z</time>
      </trkpt>
      <trkpt lat="48.07659" lon="7.28189">
        <ele>235.8</ele>
        <time>2021-07-02T10:23:46Z</time>
      </trkpt>
      <trkpt lat="48.07662" lon="7.28184">
        <ele>236.2</ele>
        <time>2021-07-02T10:23:49Z</time>
      </trkpt>
      <trkpt lat="48.07662" lon="7.2818">
        <ele>236.2</ele>
        <time>2021-07-02T10:23:51Z</time>
      </trkpt>
      <trkpt lat="48.07664" lon="7.28161">
        <ele>236</ele>
        <time>2021-07-02T10:23:56Z</time>
      </trkpt>
      <trkpt lat="48.07666" lon="7.28153">
        <ele>235.8</ele>
        <time>2021-07-02T10:24:01Z</time>
      </trkpt>
      <trkpt lat="48.07666" lon="7.28153">
        <ele>235.6</ele>
        <time>2021-07-02T10:24:02Z</time>
      </trkpt>
      <trkpt lat="48.07667" lon="7.28147">
        <ele>235.6</ele>
        <time>2021-07-02T10:24:09Z</time>
      </trkpt>
      <trkpt lat="48.0767" lon="7.28139">
        <ele>235.6</ele>
        <time>2021-07-02T10:24:11Z</time>
      </trkpt>
      <trkpt lat="48.07675" lon="7.28111">
        <ele>235.4</ele>
        <time>2021-07-02T10:24:16Z</time>
      </trkpt>
      <trkpt lat="48.07677" lon="7.28103">
        <ele>235.4</ele>
        <time>2021-07-02T10:24:17Z</time>
      </trkpt>
      <trkpt lat="48.07681" lon="7.2807">
        <ele>235.4</ele>
        <time>2021-07-02T10:24:21Z</time>
      </trkpt>
      <trkpt lat="48.07694" lon="7.28012">
        <ele>236</ele>
        <time>2021-07-02T10:24:28Z</time>
      </trkpt>
      <trkpt lat="48.0771" lon="7.27948">
        <ele>236.4</ele>
        <time>2021-07-02T10:24:36Z</time>
      </trkpt>
      <trkpt lat="48.07719" lon="7.27922">
        <ele>237</ele>
        <time>2021-07-02T10:24:41Z</time>
      </trkpt>
      <trkpt lat="48.07721" lon="7.2792">
        <ele>237</ele>
        <time>2021-07-02T10:24:42Z</time>
      </trkpt>
      <trkpt lat="48.07731" lon="7.27919">
        <ele>237.4</ele>
        <time>2021-07-02T10:24:45Z</time>
      </trkpt>
      <trkpt lat="48.07753" lon="7.27925">
        <ele>237.4</ele>
        <time>2021-07-02T10:24:50Z</time>
      </trkpt>
      <trkpt lat="48.07793" lon="7.2793">
        <ele>237</ele>
        <time>2021-07-02T10:24:57Z</time>
      </trkpt>
      <trkpt lat="48.07847" lon="7.27932">
        <ele>237.2</ele>
        <time>2021-07-02T10:25:06Z</time>
      </trkpt>
      <trkpt lat="48.07853" lon="7.27931">
        <ele>237.4</ele>
        <time>2021-07-02T10:25:07Z</time>
      </trkpt>
      <trkpt lat="48.07899" lon="7.2793">
        <ele>237.2</ele>
        <time>2021-07-02T10:25:15Z</time>
      </trkpt>
      <trkpt lat="48.07923" lon="7.27929">
        <ele>237</ele>
        <time>2021-07-02T10:25:21Z</time>
      </trkpt>
      <trkpt lat="48.07941" lon="7.27941">
        <ele>236.8</ele>
        <time>2021-07-02T10:25:26Z</time>
      </trkpt>
      <trkpt lat="48.07948" lon="7.27951">
        <ele>236.6</ele>
        <time>2021-07-02T10:25:28Z</time>
      </trkpt>
      <trkpt lat="48.07958" lon="7.27957">
        <ele>236.4</ele>
        <time>2021-07-02T10:25:30Z</time>
      </trkpt>
      <trkpt lat="48.0797" lon="7.27955">
        <ele>236.4</ele>
        <time>2021-07-02T10:25:32Z</time>
      </trkpt>
      <trkpt lat="48.07975" lon="7.27952">
        <ele>236.6</ele>
        <time>2021-07-02T10:25:33Z</time>
      </trkpt>
      <trkpt lat="48.08009" lon="7.2793">
        <ele>236.6</ele>
        <time>2021-07-02T10:25:39Z</time>
      </trkpt>
      <trkpt lat="48.08044" lon="7.27911">
        <ele>237.6</ele>
        <time>2021-07-02T10:25:45Z</time>
      </trkpt>
      <trkpt lat="48.08073" lon="7.27895">
        <ele>237.8</ele>
        <time>2021-07-02T10:25:50Z</time>
      </trkpt>
      <trkpt lat="48.08084" lon="7.2789">
        <ele>238.2</ele>
        <time>2021-07-02T10:25:52Z</time>
      </trkpt>
      <trkpt lat="48.08138" lon="7.2786">
        <ele>238.2</ele>
        <time>2021-07-02T10:26:01Z</time>
      </trkpt>
      <trkpt lat="48.08188" lon="7.27829">
        <ele>237.6</ele>
        <time>2021-07-02T10:26:09Z</time>
      </trkpt>
      <trkpt lat="48.08201" lon="7.27822">
        <ele>237.6</ele>
        <time>2021-07-02T10:26:11Z</time>
      </trkpt>
      <trkpt lat="48.08223" lon="7.2781">
        <ele>237.6</ele>
        <time>2021-07-02T10:26:15Z</time>
      </trkpt>
      <trkpt lat="48.08226" lon="7.2781">
        <ele>237.6</ele>
        <time>2021-07-02T10:26:16Z</time>
      </trkpt>
      <trkpt lat="48.08228" lon="7.2781">
        <ele>237.8</ele>
        <time>2021-07-02T10:26:17Z</time>
      </trkpt>
      <trkpt lat="48.08232" lon="7.27812">
        <ele>237.8</ele>
        <time>2021-07-02T10:26:19Z</time>
      </trkpt>
      <trkpt lat="48.08246" lon="7.27808">
        <ele>238</ele>
        <time>2021-07-02T10:26:23Z</time>
      </trkpt>
      <trkpt lat="48.08272" lon="7.27797">
        <ele>238</ele>
        <time>2021-07-02T10:26:28Z</time>
      </trkpt>
      <trkpt lat="48.08283" lon="7.27792">
        <ele>237.8</ele>
        <time>2021-07-02T10:26:30Z</time>
      </trkpt>
      <trkpt lat="48.08307" lon="7.27781">
        <ele>237.6</ele>
        <time>2021-07-02T10:26:34Z</time>
      </trkpt>
      <trkpt lat="48.08357" lon="7.27759">
        <ele>237</ele>
        <time>2021-07-02T10:26:42Z</time>
      </trkpt>
      <trkpt lat="48.08407" lon="7.27741">
        <ele>236.6</ele>
        <time>2021-07-02T10:26:50Z</time>
      </trkpt>
      <trkpt lat="48.08413" lon="7.27741">
        <ele>236.4</ele>
        <time>2021-07-02T10:26:51Z</time>
      </trkpt>
      <trkpt lat="48.08419" lon="7.27744">
        <ele>236.4</ele>
        <time>2021-07-02T10:26:52Z</time>
      </trkpt>
      <trkpt lat="48.08424" lon="7.27751">
        <ele>236.2</ele>
        <time>2021-07-02T10:26:53Z</time>
      </trkpt>
      <trkpt lat="48.08428" lon="7.27758">
        <ele>236</ele>
        <time>2021-07-02T10:26:54Z</time>
      </trkpt>
      <trkpt lat="48.08433" lon="7.27773">
        <ele>236</ele>
        <time>2021-07-02T10:26:56Z</time>
      </trkpt>
      <trkpt lat="48.08434" lon="7.2778">
        <ele>236.2</ele>
        <time>2021-07-02T10:26:57Z</time>
      </trkpt>
      <trkpt lat="48.08432" lon="7.27806">
        <ele>235.8</ele>
        <time>2021-07-02T10:27:01Z</time>
      </trkpt>
      <trkpt lat="48.08424" lon="7.27846">
        <ele>235.6</ele>
        <time>2021-07-02T10:27:06Z</time>
      </trkpt>
      <trkpt lat="48.08421" lon="7.27863">
        <ele>235.4</ele>
        <time>2021-07-02T10:27:08Z</time>
      </trkpt>
      <trkpt lat="48.08419" lon="7.27872">
        <ele>235.4</ele>
        <time>2021-07-02T10:27:09Z</time>
      </trkpt>
      <trkpt lat="48.08413" lon="7.27905">
        <ele>235.2</ele>
        <time>2021-07-02T10:27:13Z</time>
      </trkpt>
      <trkpt lat="48.08412" lon="7.27909">
        <ele>235.2</ele>
        <time>2021-07-02T10:27:14Z</time>
      </trkpt>
      <trkpt lat="48.08411" lon="7.27912">
        <ele>235.2</ele>
        <time>2021-07-02T10:27:15Z</time>
      </trkpt>
      <trkpt lat="48.08412" lon="7.27914">
        <ele>235.2</ele>
        <time>2021-07-02T10:27:17Z</time>
      </trkpt>
      <trkpt lat="48.08416" lon="7.27905">
        <ele>235.6</ele>
        <time>2021-07-02T10:27:20Z</time>
      </trkpt>
      <trkpt lat="48.0842" lon="7.27902">
        <ele>235.6</ele>
        <time>2021-07-02T10:27:21Z</time>
      </trkpt>
      <trkpt lat="48.08426" lon="7.27901">
        <ele>235.6</ele>
        <time>2021-07-02T10:27:22Z</time>
      </trkpt>
      <trkpt lat="48.08437" lon="7.27899">
        <ele>235.6</ele>
        <time>2021-07-02T10:27:24Z</time>
      </trkpt>
      <trkpt lat="48.08471" lon="7.27896">
        <ele>234.6</ele>
        <time>2021-07-02T10:27:30Z</time>
      </trkpt>
      <trkpt lat="48.08477" lon="7.27895">
        <ele>234.6</ele>
        <time>2021-07-02T10:27:31Z</time>
      </trkpt>
      <trkpt lat="48.08482" lon="7.27894">
        <ele>234.4</ele>
        <time>2021-07-02T10:27:32Z</time>
      </trkpt>
      <trkpt lat="48.08492" lon="7.27899">
        <ele>234.2</ele>
        <time>2021-07-02T10:27:34Z</time>
      </trkpt>
      <trkpt lat="48.08496" lon="7.27913">
        <ele>234.2</ele>
        <time>2021-07-02T10:27:36Z</time>
      </trkpt>
      <trkpt lat="48.08505" lon="7.2795">
        <ele>234</ele>
        <time>2021-07-02T10:27:40Z</time>
      </trkpt>
      <trkpt lat="48.08508" lon="7.27959">
        <ele>234</ele>
        <time>2021-07-02T10:27:41Z</time>
      </trkpt>
      <trkpt lat="48.08517" lon="7.27985">
        <ele>233.4</ele>
        <time>2021-07-02T10:27:44Z</time>
      </trkpt>
      <trkpt lat="48.08522" lon="7.28004">
        <ele>233</ele>
        <time>2021-07-02T10:27:46Z</time>
      </trkpt>
      <trkpt lat="48.08523" lon="7.28013">
        <ele>232.8</ele>
        <time>2021-07-02T10:27:47Z</time>
      </trkpt>
      <trkpt lat="48.08527" lon="7.2804">
        <ele>232.4</ele>
        <time>2021-07-02T10:27:50Z</time>
      </trkpt>
      <trkpt lat="48.0853" lon="7.28062">
        <ele>232.2</ele>
        <time>2021-07-02T10:27:53Z</time>
      </trkpt>
      <trkpt lat="48.08534" lon="7.28075">
        <ele>232.4</ele>
        <time>2021-07-02T10:27:57Z</time>
      </trkpt>
      <trkpt lat="48.08542" lon="7.28078">
        <ele>233</ele>
        <time>2021-07-02T10:28:02Z</time>
      </trkpt>
      <trkpt lat="48.08546" lon="7.28081">
        <ele>233.2</ele>
        <time>2021-07-02T10:28:04Z</time>
      </trkpt>
      <trkpt lat="48.08549" lon="7.28081">
        <ele>233.4</ele>
        <time>2021-07-02T10:28:05Z</time>
      </trkpt>
      <trkpt lat="48.08552" lon="7.28078">
        <ele>233.4</ele>
        <time>2021-07-02T10:28:06Z</time>
      </trkpt>
      <trkpt lat="48.08565" lon="7.28057">
        <ele>233.6</ele>
        <time>2021-07-02T10:28:10Z</time>
      </trkpt>
      <trkpt lat="48.08582" lon="7.28024">
        <ele>234.2</ele>
        <time>2021-07-02T10:28:16Z</time>
      </trkpt>
      <trkpt lat="48.08588" lon="7.2801">
        <ele>234.2</ele>
        <time>2021-07-02T10:28:19Z</time>
      </trkpt>
      <trkpt lat="48.08589" lon="7.28003">
        <ele>234.4</ele>
        <time>2021-07-02T10:28:20Z</time>
      </trkpt>
      <trkpt lat="48.08588" lon="7.27997">
        <ele>234.4</ele>
        <time>2021-07-02T10:28:21Z</time>
      </trkpt>
      <trkpt lat="48.08586" lon="7.27981">
        <ele>234.4</ele>
        <time>2021-07-02T10:28:23Z</time>
      </trkpt>
      <trkpt lat="48.08586" lon="7.27973">
        <ele>234.4</ele>
        <time>2021-07-02T10:28:24Z</time>
      </trkpt>
      <trkpt lat="48.08578" lon="7.27914">
        <ele>234.6</ele>
        <time>2021-07-02T10:28:31Z</time>
      </trkpt>
      <trkpt lat="48.08576" lon="7.27905">
        <ele>234.8</ele>
        <time>2021-07-02T10:28:32Z</time>
      </trkpt>
      <trkpt lat="48.08574" lon="7.27896">
        <ele>234.8</ele>
        <time>2021-07-02T10:28:33Z</time>
      </trkpt>
      <trkpt lat="48.08569" lon="7.27861">
        <ele>234.8</ele>
        <time>2021-07-02T10:28:37Z</time>
      </trkpt>
      <trkpt lat="48.0856" lon="7.278">
        <ele>234.8</ele>
        <time>2021-07-02T10:28:44Z</time>
      </trkpt>
      <trkpt lat="48.08552" lon="7.27725">
        <ele>234.8</ele>
        <time>2021-07-02T10:28:53Z</time>
      </trkpt>
      <trkpt lat="48.08545" lon="7.27662">
        <ele>234.8</ele>
        <time>2021-07-02T10:29:00Z</time>
      </trkpt>
      <trkpt lat="48.08541" lon="7.27599">
        <ele>235</ele>
        <time>2021-07-02T10:29:07Z</time>
      </trkpt>
      <trkpt lat="48.08539" lon="7.2754">
        <ele>235.2</ele>
        <time>2021-07-02T10:29:14Z</time>
      </trkpt>
      <trkpt lat="48.08539" lon="7.27513">
        <ele>235.8</ele>
        <time>2021-07-02T10:29:18Z</time>
      </trkpt>
      <trkpt lat="48.0854" lon="7.27498">
        <ele>236</ele>
        <time>2021-07-02T10:29:20Z</time>
      </trkpt>
      <trkpt lat="48.08537" lon="7.27429">
        <ele>236</ele>
        <time>2021-07-02T10:29:28Z</time>
      </trkpt>
      <trkpt lat="48.08537" lon="7.27355">
        <ele>236.4</ele>
        <time>2021-07-02T10:29:37Z</time>
      </trkpt>
      <trkpt lat="48.08537" lon="7.27339">
        <ele>236.6</ele>
        <time>2021-07-02T10:29:39Z</time>
      </trkpt>
      <trkpt lat="48.08536" lon="7.27318">
        <ele>236.6</ele>
        <time>2021-07-02T10:29:42Z</time>
      </trkpt>
      <trkpt lat="48.08535" lon="7.27284">
        <ele>236.8</ele>
        <time>2021-07-02T10:29:47Z</time>
      </trkpt>
      <trkpt lat="48.08534" lon="7.27268">
        <ele>236.8</ele>
        <time>2021-07-02T10:29:50Z</time>
      </trkpt>
      <trkpt lat="48.08532" lon="7.27262">
        <ele>237</ele>
        <time>2021-07-02T10:29:52Z</time>
      </trkpt>
      <trkpt lat="48.08526" lon="7.27251">
        <ele>237</ele>
        <time>2021-07-02T10:29:55Z</time>
      </trkpt>
      <trkpt lat="48.08523" lon="7.27251">
        <ele>237</ele>
        <time>2021-07-02T10:29:56Z</time>
      </trkpt>
      <trkpt lat="48.08516" lon="7.27252">
        <ele>236.8</ele>
        <time>2021-07-02T10:29:58Z</time>
      </trkpt>
      <trkpt lat="48.0851" lon="7.27246">
        <ele>237</ele>
        <time>2021-07-02T10:30:00Z</time>
      </trkpt>
      <trkpt lat="48.08498" lon="7.27232">
        <ele>236.8</ele>
        <time>2021-07-02T10:30:04Z</time>
      </trkpt>
      <trkpt lat="48.08477" lon="7.27219">
        <ele>236.8</ele>
        <time>2021-07-02T10:30:10Z</time>
      </trkpt>
      <trkpt lat="48.08475" lon="7.27214">
        <ele>237</ele>
        <time>2021-07-02T10:30:11Z</time>
      </trkpt>
      <trkpt lat="48.08474" lon="7.27202">
        <ele>237.2</ele>
        <time>2021-07-02T10:30:13Z</time>
      </trkpt>
      <trkpt lat="48.08478" lon="7.27176">
        <ele>237.2</ele>
        <time>2021-07-02T10:30:17Z</time>
      </trkpt>
      <trkpt lat="48.0848" lon="7.27169">
        <ele>237.4</ele>
        <time>2021-07-02T10:30:18Z</time>
      </trkpt>
      <trkpt lat="48.08491" lon="7.27128">
        <ele>237.6</ele>
        <time>2021-07-02T10:30:24Z</time>
      </trkpt>
      <trkpt lat="48.08501" lon="7.2709">
        <ele>237.6</ele>
        <time>2021-07-02T10:30:31Z</time>
      </trkpt>
      <trkpt lat="48.08501" lon="7.2708">
        <ele>237.8</ele>
        <time>2021-07-02T10:30:32Z</time>
      </trkpt>
      <trkpt lat="48.08499" lon="7.27076">
        <ele>237.8</ele>
        <time>2021-07-02T10:30:33Z</time>
      </trkpt>
      <trkpt lat="48.08484" lon="7.27062">
        <ele>238</ele>
        <time>2021-07-02T10:30:38Z</time>
      </trkpt>
      <trkpt lat="48.08482" lon="7.27053">
        <ele>238.4</ele>
        <time>2021-07-02T10:30:40Z</time>
      </trkpt>
      <trkpt lat="48.08479" lon="7.27049">
        <ele>238.6</ele>
        <time>2021-07-02T10:30:41Z</time>
      </trkpt>
      <trkpt lat="48.08467" lon="7.27046">
        <ele>238.6</ele>
        <time>2021-07-02T10:30:45Z</time>
      </trkpt>
      <trkpt lat="48.08454" lon="7.27046">
        <ele>238.8</ele>
        <time>2021-07-02T10:30:50Z</time>
      </trkpt>
      <trkpt lat="48.08442" lon="7.27047">
        <ele>238.8</ele>
        <time>2021-07-02T10:30:56Z</time>
      </trkpt>
      <trkpt lat="48.08439" lon="7.27045">
        <ele>238.8</ele>
        <time>2021-07-02T10:31:01Z</time>
      </trkpt>
    </trkseg>
  </trk>
</gpx>